<?xml version="1.0" encoding="UTF-8" standalone="no" ?>
<gpx xmlns="http://www.topografix.com/GPX/1/1" xmlns:xsi="http://www.w3.org/2001/XMLSchema-instance" xsi:schemaLocation="http://www.topografix.com/GPX/1/1 http://www.topografix.com/GPX/1/1/gpx.xsd" version="1.1" creator="VisuGPX - https://www.visugpx.com">
  <metadata>
    <name>La forêt de Méridon et l'ancienne Voie ferrée de Montabé (78)</name>
    <desc><![CDATA[Randonnée en boucle de 13 km à partir de la gare de Saint-Rémy-lès-Chevreuse .]]></desc>
  </metadata>
  <trk>
    <name><![CDATA[Forêt de Meridon & ancienne voie ferrée de Montabé]]></name>
    <trkseg>
      <trkpt lat="48.70308" lon="2.07053">
        <ele>77</ele>
        <time>2026-02-26T08:31:06Z</time>
      </trkpt>
      <trkpt lat="48.70309" lon="2.07054">
        <ele>76</ele>
        <time>2026-02-26T08:31:07Z</time>
      </trkpt>
      <trkpt lat="48.70314" lon="2.07054">
        <ele>72</ele>
        <time>2026-02-26T08:31:15Z</time>
      </trkpt>
      <trkpt lat="48.70316" lon="2.07053">
        <ele>72</ele>
        <time>2026-02-26T08:31:18Z</time>
      </trkpt>
      <trkpt lat="48.70319" lon="2.07051">
        <ele>72</ele>
        <time>2026-02-26T08:31:22Z</time>
      </trkpt>
      <trkpt lat="48.70321" lon="2.07047">
        <ele>72</ele>
        <time>2026-02-26T08:31:26Z</time>
      </trkpt>
      <trkpt lat="48.70321" lon="2.07043">
        <ele>73</ele>
        <time>2026-02-26T08:31:30Z</time>
      </trkpt>
      <trkpt lat="48.70321" lon="2.07038">
        <ele>73</ele>
        <time>2026-02-26T08:31:35Z</time>
      </trkpt>
      <trkpt lat="48.70321" lon="2.07034">
        <ele>73</ele>
        <time>2026-02-26T08:31:39Z</time>
      </trkpt>
      <trkpt lat="48.70321" lon="2.0703">
        <ele>74</ele>
        <time>2026-02-26T08:31:42Z</time>
      </trkpt>
      <trkpt lat="48.70321" lon="2.07025">
        <ele>73</ele>
        <time>2026-02-26T08:31:46Z</time>
      </trkpt>
      <trkpt lat="48.70321" lon="2.07021">
        <ele>73</ele>
        <time>2026-02-26T08:31:49Z</time>
      </trkpt>
      <trkpt lat="48.7032" lon="2.07016">
        <ele>73</ele>
        <time>2026-02-26T08:31:52Z</time>
      </trkpt>
      <trkpt lat="48.7032" lon="2.07011">
        <ele>73</ele>
        <time>2026-02-26T08:31:55Z</time>
      </trkpt>
      <trkpt lat="48.70319" lon="2.07006">
        <ele>72</ele>
        <time>2026-02-26T08:31:59Z</time>
      </trkpt>
      <trkpt lat="48.70319" lon="2.07001">
        <ele>71</ele>
        <time>2026-02-26T08:32:02Z</time>
      </trkpt>
      <trkpt lat="48.70319" lon="2.06996">
        <ele>70</ele>
        <time>2026-02-26T08:32:05Z</time>
      </trkpt>
      <trkpt lat="48.70319" lon="2.06991">
        <ele>70</ele>
        <time>2026-02-26T08:32:08Z</time>
      </trkpt>
      <trkpt lat="48.7032" lon="2.06986">
        <ele>69</ele>
        <time>2026-02-26T08:32:11Z</time>
      </trkpt>
      <trkpt lat="48.7032" lon="2.06981">
        <ele>69</ele>
        <time>2026-02-26T08:32:14Z</time>
      </trkpt>
      <trkpt lat="48.70321" lon="2.06977">
        <ele>68</ele>
        <time>2026-02-26T08:32:19Z</time>
      </trkpt>
      <trkpt lat="48.70323" lon="2.06973">
        <ele>65</ele>
        <time>2026-02-26T08:33:27Z</time>
      </trkpt>
      <trkpt lat="48.70325" lon="2.06969">
        <ele>64</ele>
        <time>2026-02-26T08:33:30Z</time>
      </trkpt>
      <trkpt lat="48.70325" lon="2.06965">
        <ele>64</ele>
        <time>2026-02-26T08:33:32Z</time>
      </trkpt>
      <trkpt lat="48.70325" lon="2.06959">
        <ele>64</ele>
        <time>2026-02-26T08:33:35Z</time>
      </trkpt>
      <trkpt lat="48.70325" lon="2.06954">
        <ele>64</ele>
        <time>2026-02-26T08:33:38Z</time>
      </trkpt>
      <trkpt lat="48.70325" lon="2.06948">
        <ele>64</ele>
        <time>2026-02-26T08:33:41Z</time>
      </trkpt>
      <trkpt lat="48.70324" lon="2.06944">
        <ele>63</ele>
        <time>2026-02-26T08:33:44Z</time>
      </trkpt>
      <trkpt lat="48.70323" lon="2.06939">
        <ele>63</ele>
        <time>2026-02-26T08:33:48Z</time>
      </trkpt>
      <trkpt lat="48.70322" lon="2.06934">
        <ele>62</ele>
        <time>2026-02-26T08:33:51Z</time>
      </trkpt>
      <trkpt lat="48.70321" lon="2.0693">
        <ele>62</ele>
        <time>2026-02-26T08:33:55Z</time>
      </trkpt>
      <trkpt lat="48.70319" lon="2.06925">
        <ele>63</ele>
        <time>2026-02-26T08:33:59Z</time>
      </trkpt>
      <trkpt lat="48.70317" lon="2.06922">
        <ele>63</ele>
        <time>2026-02-26T08:34:02Z</time>
      </trkpt>
      <trkpt lat="48.70316" lon="2.06918">
        <ele>63</ele>
        <time>2026-02-26T08:34:05Z</time>
      </trkpt>
      <trkpt lat="48.70314" lon="2.06913">
        <ele>63</ele>
        <time>2026-02-26T08:34:09Z</time>
      </trkpt>
      <trkpt lat="48.70312" lon="2.06909">
        <ele>63</ele>
        <time>2026-02-26T08:34:12Z</time>
      </trkpt>
      <trkpt lat="48.7031" lon="2.06905">
        <ele>64</ele>
        <time>2026-02-26T08:34:15Z</time>
      </trkpt>
      <trkpt lat="48.70308" lon="2.06901">
        <ele>64</ele>
        <time>2026-02-26T08:34:18Z</time>
      </trkpt>
      <trkpt lat="48.70306" lon="2.06898">
        <ele>64</ele>
        <time>2026-02-26T08:34:21Z</time>
      </trkpt>
      <trkpt lat="48.70305" lon="2.06894">
        <ele>65</ele>
        <time>2026-02-26T08:34:25Z</time>
      </trkpt>
      <trkpt lat="48.70303" lon="2.06889">
        <ele>65</ele>
        <time>2026-02-26T08:34:28Z</time>
      </trkpt>
      <trkpt lat="48.70302" lon="2.06885">
        <ele>65</ele>
        <time>2026-02-26T08:34:31Z</time>
      </trkpt>
      <trkpt lat="48.703" lon="2.06882">
        <ele>65</ele>
        <time>2026-02-26T08:34:34Z</time>
      </trkpt>
      <trkpt lat="48.70298" lon="2.06878">
        <ele>65</ele>
        <time>2026-02-26T08:34:37Z</time>
      </trkpt>
      <trkpt lat="48.70297" lon="2.06874">
        <ele>65</ele>
        <time>2026-02-26T08:34:40Z</time>
      </trkpt>
      <trkpt lat="48.70295" lon="2.0687">
        <ele>65</ele>
        <time>2026-02-26T08:34:43Z</time>
      </trkpt>
      <trkpt lat="48.70293" lon="2.06867">
        <ele>65</ele>
        <time>2026-02-26T08:34:46Z</time>
      </trkpt>
      <trkpt lat="48.70291" lon="2.06862">
        <ele>66</ele>
        <time>2026-02-26T08:34:50Z</time>
      </trkpt>
      <trkpt lat="48.70289" lon="2.06858">
        <ele>66</ele>
        <time>2026-02-26T08:34:53Z</time>
      </trkpt>
      <trkpt lat="48.70288" lon="2.06854">
        <ele>65</ele>
        <time>2026-02-26T08:34:56Z</time>
      </trkpt>
      <trkpt lat="48.70286" lon="2.0685">
        <ele>65</ele>
        <time>2026-02-26T08:34:59Z</time>
      </trkpt>
      <trkpt lat="48.70284" lon="2.06846">
        <ele>65</ele>
        <time>2026-02-26T08:35:02Z</time>
      </trkpt>
      <trkpt lat="48.70282" lon="2.06841">
        <ele>66</ele>
        <time>2026-02-26T08:35:05Z</time>
      </trkpt>
      <trkpt lat="48.70281" lon="2.06837">
        <ele>67</ele>
        <time>2026-02-26T08:35:08Z</time>
      </trkpt>
      <trkpt lat="48.70279" lon="2.06833">
        <ele>67</ele>
        <time>2026-02-26T08:35:11Z</time>
      </trkpt>
      <trkpt lat="48.70278" lon="2.06828">
        <ele>66</ele>
        <time>2026-02-26T08:35:16Z</time>
      </trkpt>
      <trkpt lat="48.70277" lon="2.06824">
        <ele>66</ele>
        <time>2026-02-26T08:35:19Z</time>
      </trkpt>
      <trkpt lat="48.70275" lon="2.06819">
        <ele>66</ele>
        <time>2026-02-26T08:35:22Z</time>
      </trkpt>
      <trkpt lat="48.70274" lon="2.06815">
        <ele>66</ele>
        <time>2026-02-26T08:35:25Z</time>
      </trkpt>
      <trkpt lat="48.70273" lon="2.06811">
        <ele>65</ele>
        <time>2026-02-26T08:35:28Z</time>
      </trkpt>
      <trkpt lat="48.70271" lon="2.06807">
        <ele>65</ele>
        <time>2026-02-26T08:35:31Z</time>
      </trkpt>
      <trkpt lat="48.7027" lon="2.06803">
        <ele>64</ele>
        <time>2026-02-26T08:35:34Z</time>
      </trkpt>
      <trkpt lat="48.70269" lon="2.06798">
        <ele>64</ele>
        <time>2026-02-26T08:35:37Z</time>
      </trkpt>
      <trkpt lat="48.70267" lon="2.06794">
        <ele>63</ele>
        <time>2026-02-26T08:35:40Z</time>
      </trkpt>
      <trkpt lat="48.70266" lon="2.0679">
        <ele>62</ele>
        <time>2026-02-26T08:35:43Z</time>
      </trkpt>
      <trkpt lat="48.70265" lon="2.06786">
        <ele>62</ele>
        <time>2026-02-26T08:35:46Z</time>
      </trkpt>
      <trkpt lat="48.70265" lon="2.06781">
        <ele>61</ele>
        <time>2026-02-26T08:35:49Z</time>
      </trkpt>
      <trkpt lat="48.70265" lon="2.06777">
        <ele>60</ele>
        <time>2026-02-26T08:35:52Z</time>
      </trkpt>
      <trkpt lat="48.70267" lon="2.06772">
        <ele>57</ele>
        <time>2026-02-26T08:35:54Z</time>
      </trkpt>
      <trkpt lat="48.70267" lon="2.06767">
        <ele>56</ele>
        <time>2026-02-26T08:35:56Z</time>
      </trkpt>
      <trkpt lat="48.70267" lon="2.06763">
        <ele>55</ele>
        <time>2026-02-26T08:36:00Z</time>
      </trkpt>
      <trkpt lat="48.70265" lon="2.06759">
        <ele>55</ele>
        <time>2026-02-26T08:36:02Z</time>
      </trkpt>
      <trkpt lat="48.70264" lon="2.06755">
        <ele>55</ele>
        <time>2026-02-26T08:36:04Z</time>
      </trkpt>
      <trkpt lat="48.70263" lon="2.06751">
        <ele>55</ele>
        <time>2026-02-26T08:36:06Z</time>
      </trkpt>
      <trkpt lat="48.70261" lon="2.06747">
        <ele>55</ele>
        <time>2026-02-26T08:36:09Z</time>
      </trkpt>
      <trkpt lat="48.7026" lon="2.06743">
        <ele>55</ele>
        <time>2026-02-26T08:36:12Z</time>
      </trkpt>
      <trkpt lat="48.7026" lon="2.06739">
        <ele>55</ele>
        <time>2026-02-26T08:36:16Z</time>
      </trkpt>
      <trkpt lat="48.7026" lon="2.06734">
        <ele>55</ele>
        <time>2026-02-26T08:36:19Z</time>
      </trkpt>
      <trkpt lat="48.70259" lon="2.06729">
        <ele>55</ele>
        <time>2026-02-26T08:36:23Z</time>
      </trkpt>
      <trkpt lat="48.70259" lon="2.06724">
        <ele>54</ele>
        <time>2026-02-26T08:36:26Z</time>
      </trkpt>
      <trkpt lat="48.70259" lon="2.0672">
        <ele>54</ele>
        <time>2026-02-26T08:36:28Z</time>
      </trkpt>
      <trkpt lat="48.70258" lon="2.06715">
        <ele>54</ele>
        <time>2026-02-26T08:36:33Z</time>
      </trkpt>
      <trkpt lat="48.70257" lon="2.06711">
        <ele>55</ele>
        <time>2026-02-26T08:36:36Z</time>
      </trkpt>
      <trkpt lat="48.70256" lon="2.06706">
        <ele>54</ele>
        <time>2026-02-26T08:36:38Z</time>
      </trkpt>
      <trkpt lat="48.70256" lon="2.06702">
        <ele>54</ele>
        <time>2026-02-26T08:36:40Z</time>
      </trkpt>
      <trkpt lat="48.70255" lon="2.06698">
        <ele>54</ele>
        <time>2026-02-26T08:36:44Z</time>
      </trkpt>
      <trkpt lat="48.70255" lon="2.06692">
        <ele>54</ele>
        <time>2026-02-26T08:36:47Z</time>
      </trkpt>
      <trkpt lat="48.70254" lon="2.06688">
        <ele>52</ele>
        <time>2026-02-26T08:36:50Z</time>
      </trkpt>
      <trkpt lat="48.70253" lon="2.06682">
        <ele>52</ele>
        <time>2026-02-26T08:36:52Z</time>
      </trkpt>
      <trkpt lat="48.70251" lon="2.06678">
        <ele>51</ele>
        <time>2026-02-26T08:36:54Z</time>
      </trkpt>
      <trkpt lat="48.7025" lon="2.06672">
        <ele>52</ele>
        <time>2026-02-26T08:36:57Z</time>
      </trkpt>
      <trkpt lat="48.70248" lon="2.06667">
        <ele>53</ele>
        <time>2026-02-26T08:36:59Z</time>
      </trkpt>
      <trkpt lat="48.70247" lon="2.06662">
        <ele>53</ele>
        <time>2026-02-26T08:37:01Z</time>
      </trkpt>
      <trkpt lat="48.70246" lon="2.06657">
        <ele>55</ele>
        <time>2026-02-26T08:37:04Z</time>
      </trkpt>
      <trkpt lat="48.70244" lon="2.06653">
        <ele>55</ele>
        <time>2026-02-26T08:37:07Z</time>
      </trkpt>
      <trkpt lat="48.70244" lon="2.06648">
        <ele>56</ele>
        <time>2026-02-26T08:37:10Z</time>
      </trkpt>
      <trkpt lat="48.70243" lon="2.06645">
        <ele>56</ele>
        <time>2026-02-26T08:37:14Z</time>
      </trkpt>
      <trkpt lat="48.70242" lon="2.0664">
        <ele>56</ele>
        <time>2026-02-26T08:37:16Z</time>
      </trkpt>
      <trkpt lat="48.70241" lon="2.06636">
        <ele>56</ele>
        <time>2026-02-26T08:37:19Z</time>
      </trkpt>
      <trkpt lat="48.70239" lon="2.0663">
        <ele>55</ele>
        <time>2026-02-26T08:37:22Z</time>
      </trkpt>
      <trkpt lat="48.70238" lon="2.06625">
        <ele>55</ele>
        <time>2026-02-26T08:37:24Z</time>
      </trkpt>
      <trkpt lat="48.70238" lon="2.06621">
        <ele>55</ele>
        <time>2026-02-26T08:37:26Z</time>
      </trkpt>
      <trkpt lat="48.70236" lon="2.06616">
        <ele>55</ele>
        <time>2026-02-26T08:37:29Z</time>
      </trkpt>
      <trkpt lat="48.70236" lon="2.06612">
        <ele>56</ele>
        <time>2026-02-26T08:37:31Z</time>
      </trkpt>
      <trkpt lat="48.70235" lon="2.06608">
        <ele>57</ele>
        <time>2026-02-26T08:37:33Z</time>
      </trkpt>
      <trkpt lat="48.70234" lon="2.06604">
        <ele>58</ele>
        <time>2026-02-26T08:37:36Z</time>
      </trkpt>
      <trkpt lat="48.70233" lon="2.06599">
        <ele>58</ele>
        <time>2026-02-26T08:37:40Z</time>
      </trkpt>
      <trkpt lat="48.70232" lon="2.06594">
        <ele>57</ele>
        <time>2026-02-26T08:37:43Z</time>
      </trkpt>
      <trkpt lat="48.70231" lon="2.0659">
        <ele>57</ele>
        <time>2026-02-26T08:37:45Z</time>
      </trkpt>
      <trkpt lat="48.70231" lon="2.06585">
        <ele>58</ele>
        <time>2026-02-26T08:37:48Z</time>
      </trkpt>
      <trkpt lat="48.7023" lon="2.06581">
        <ele>59</ele>
        <time>2026-02-26T08:37:51Z</time>
      </trkpt>
      <trkpt lat="48.70229" lon="2.06576">
        <ele>59</ele>
        <time>2026-02-26T08:37:54Z</time>
      </trkpt>
      <trkpt lat="48.70228" lon="2.06571">
        <ele>60</ele>
        <time>2026-02-26T08:37:57Z</time>
      </trkpt>
      <trkpt lat="48.70227" lon="2.06566">
        <ele>60</ele>
        <time>2026-02-26T08:38:00Z</time>
      </trkpt>
      <trkpt lat="48.70227" lon="2.06561">
        <ele>60</ele>
        <time>2026-02-26T08:38:04Z</time>
      </trkpt>
      <trkpt lat="48.70227" lon="2.06556">
        <ele>60</ele>
        <time>2026-02-26T08:38:07Z</time>
      </trkpt>
      <trkpt lat="48.70226" lon="2.06551">
        <ele>61</ele>
        <time>2026-02-26T08:38:10Z</time>
      </trkpt>
      <trkpt lat="48.70227" lon="2.06546">
        <ele>61</ele>
        <time>2026-02-26T08:38:12Z</time>
      </trkpt>
      <trkpt lat="48.70227" lon="2.06541">
        <ele>62</ele>
        <time>2026-02-26T08:38:14Z</time>
      </trkpt>
      <trkpt lat="48.70227" lon="2.06536">
        <ele>64</ele>
        <time>2026-02-26T08:38:16Z</time>
      </trkpt>
      <trkpt lat="48.70226" lon="2.06532">
        <ele>65</ele>
        <time>2026-02-26T08:38:18Z</time>
      </trkpt>
      <trkpt lat="48.70226" lon="2.06527">
        <ele>66</ele>
        <time>2026-02-26T08:38:21Z</time>
      </trkpt>
      <trkpt lat="48.70226" lon="2.06522">
        <ele>67</ele>
        <time>2026-02-26T08:38:23Z</time>
      </trkpt>
      <trkpt lat="48.70226" lon="2.06517">
        <ele>68</ele>
        <time>2026-02-26T08:38:26Z</time>
      </trkpt>
      <trkpt lat="48.70226" lon="2.06512">
        <ele>68</ele>
        <time>2026-02-26T08:38:30Z</time>
      </trkpt>
      <trkpt lat="48.70227" lon="2.06507">
        <ele>68</ele>
        <time>2026-02-26T08:38:35Z</time>
      </trkpt>
      <trkpt lat="48.70227" lon="2.06501">
        <ele>67</ele>
        <time>2026-02-26T08:38:38Z</time>
      </trkpt>
      <trkpt lat="48.70227" lon="2.06497">
        <ele>67</ele>
        <time>2026-02-26T08:38:40Z</time>
      </trkpt>
      <trkpt lat="48.70226" lon="2.06491">
        <ele>66</ele>
        <time>2026-02-26T08:38:43Z</time>
      </trkpt>
      <trkpt lat="48.70226" lon="2.06486">
        <ele>66</ele>
        <time>2026-02-26T08:38:46Z</time>
      </trkpt>
      <trkpt lat="48.70225" lon="2.06481">
        <ele>67</ele>
        <time>2026-02-26T08:38:48Z</time>
      </trkpt>
      <trkpt lat="48.70225" lon="2.06475">
        <ele>66</ele>
        <time>2026-02-26T08:38:51Z</time>
      </trkpt>
      <trkpt lat="48.70225" lon="2.0647">
        <ele>66</ele>
        <time>2026-02-26T08:38:54Z</time>
      </trkpt>
      <trkpt lat="48.70225" lon="2.06465">
        <ele>66</ele>
        <time>2026-02-26T08:38:56Z</time>
      </trkpt>
      <trkpt lat="48.70225" lon="2.06461">
        <ele>66</ele>
        <time>2026-02-26T08:38:59Z</time>
      </trkpt>
      <trkpt lat="48.70224" lon="2.06456">
        <ele>65</ele>
        <time>2026-02-26T08:39:02Z</time>
      </trkpt>
      <trkpt lat="48.70224" lon="2.06451">
        <ele>63</ele>
        <time>2026-02-26T08:39:05Z</time>
      </trkpt>
      <trkpt lat="48.70224" lon="2.06446">
        <ele>63</ele>
        <time>2026-02-26T08:39:08Z</time>
      </trkpt>
      <trkpt lat="48.70224" lon="2.06441">
        <ele>64</ele>
        <time>2026-02-26T08:39:11Z</time>
      </trkpt>
      <trkpt lat="48.70225" lon="2.06436">
        <ele>64</ele>
        <time>2026-02-26T08:39:15Z</time>
      </trkpt>
      <trkpt lat="48.70226" lon="2.06432">
        <ele>64</ele>
        <time>2026-02-26T08:39:18Z</time>
      </trkpt>
      <trkpt lat="48.70226" lon="2.06428">
        <ele>64</ele>
        <time>2026-02-26T08:39:20Z</time>
      </trkpt>
      <trkpt lat="48.70226" lon="2.06423">
        <ele>65</ele>
        <time>2026-02-26T08:39:23Z</time>
      </trkpt>
      <trkpt lat="48.70226" lon="2.06418">
        <ele>65</ele>
        <time>2026-02-26T08:39:26Z</time>
      </trkpt>
      <trkpt lat="48.70226" lon="2.06413">
        <ele>65</ele>
        <time>2026-02-26T08:39:29Z</time>
      </trkpt>
      <trkpt lat="48.70227" lon="2.06408">
        <ele>65</ele>
        <time>2026-02-26T08:39:33Z</time>
      </trkpt>
      <trkpt lat="48.70227" lon="2.06402">
        <ele>65</ele>
        <time>2026-02-26T08:39:36Z</time>
      </trkpt>
      <trkpt lat="48.70227" lon="2.06397">
        <ele>65</ele>
        <time>2026-02-26T08:39:39Z</time>
      </trkpt>
      <trkpt lat="48.70228" lon="2.06392">
        <ele>65</ele>
        <time>2026-02-26T08:39:44Z</time>
      </trkpt>
      <trkpt lat="48.70229" lon="2.06387">
        <ele>65</ele>
        <time>2026-02-26T08:39:47Z</time>
      </trkpt>
      <trkpt lat="48.7023" lon="2.06382">
        <ele>66</ele>
        <time>2026-02-26T08:39:50Z</time>
      </trkpt>
      <trkpt lat="48.7023" lon="2.06376">
        <ele>66</ele>
        <time>2026-02-26T08:39:53Z</time>
      </trkpt>
      <trkpt lat="48.70231" lon="2.06371">
        <ele>66</ele>
        <time>2026-02-26T08:39:55Z</time>
      </trkpt>
      <trkpt lat="48.70232" lon="2.06366">
        <ele>66</ele>
        <time>2026-02-26T08:39:58Z</time>
      </trkpt>
      <trkpt lat="48.70232" lon="2.06361">
        <ele>66</ele>
        <time>2026-02-26T08:40:01Z</time>
      </trkpt>
      <trkpt lat="48.70231" lon="2.06356">
        <ele>66</ele>
        <time>2026-02-26T08:40:03Z</time>
      </trkpt>
      <trkpt lat="48.70231" lon="2.06351">
        <ele>66</ele>
        <time>2026-02-26T08:40:06Z</time>
      </trkpt>
      <trkpt lat="48.70231" lon="2.06345">
        <ele>67</ele>
        <time>2026-02-26T08:40:09Z</time>
      </trkpt>
      <trkpt lat="48.70231" lon="2.0634">
        <ele>67</ele>
        <time>2026-02-26T08:40:12Z</time>
      </trkpt>
      <trkpt lat="48.70231" lon="2.06335">
        <ele>67</ele>
        <time>2026-02-26T08:40:15Z</time>
      </trkpt>
      <trkpt lat="48.7023" lon="2.0633">
        <ele>67</ele>
        <time>2026-02-26T08:40:18Z</time>
      </trkpt>
      <trkpt lat="48.7023" lon="2.06325">
        <ele>68</ele>
        <time>2026-02-26T08:40:21Z</time>
      </trkpt>
      <trkpt lat="48.70231" lon="2.06319">
        <ele>68</ele>
        <time>2026-02-26T08:40:24Z</time>
      </trkpt>
      <trkpt lat="48.70232" lon="2.06315">
        <ele>68</ele>
        <time>2026-02-26T08:40:27Z</time>
      </trkpt>
      <trkpt lat="48.70232" lon="2.0631">
        <ele>68</ele>
        <time>2026-02-26T08:40:30Z</time>
      </trkpt>
      <trkpt lat="48.70232" lon="2.06305">
        <ele>69</ele>
        <time>2026-02-26T08:40:33Z</time>
      </trkpt>
      <trkpt lat="48.70232" lon="2.063">
        <ele>69</ele>
        <time>2026-02-26T08:40:37Z</time>
      </trkpt>
      <trkpt lat="48.70233" lon="2.06296">
        <ele>68</ele>
        <time>2026-02-26T08:40:41Z</time>
      </trkpt>
      <trkpt lat="48.70234" lon="2.06291">
        <ele>67</ele>
        <time>2026-02-26T08:40:44Z</time>
      </trkpt>
      <trkpt lat="48.70235" lon="2.06286">
        <ele>67</ele>
        <time>2026-02-26T08:40:47Z</time>
      </trkpt>
      <trkpt lat="48.70237" lon="2.06282">
        <ele>67</ele>
        <time>2026-02-26T08:40:51Z</time>
      </trkpt>
      <trkpt lat="48.70239" lon="2.06277">
        <ele>68</ele>
        <time>2026-02-26T08:40:55Z</time>
      </trkpt>
      <trkpt lat="48.7024" lon="2.06271">
        <ele>67</ele>
        <time>2026-02-26T08:40:58Z</time>
      </trkpt>
      <trkpt lat="48.70241" lon="2.06266">
        <ele>66</ele>
        <time>2026-02-26T08:41:01Z</time>
      </trkpt>
      <trkpt lat="48.70242" lon="2.06261">
        <ele>66</ele>
        <time>2026-02-26T08:41:04Z</time>
      </trkpt>
      <trkpt lat="48.70244" lon="2.06257">
        <ele>66</ele>
        <time>2026-02-26T08:41:06Z</time>
      </trkpt>
      <trkpt lat="48.70245" lon="2.06252">
        <ele>66</ele>
        <time>2026-02-26T08:41:09Z</time>
      </trkpt>
      <trkpt lat="48.70246" lon="2.06248">
        <ele>66</ele>
        <time>2026-02-26T08:41:11Z</time>
      </trkpt>
      <trkpt lat="48.70247" lon="2.06243">
        <ele>66</ele>
        <time>2026-02-26T08:41:14Z</time>
      </trkpt>
      <trkpt lat="48.70248" lon="2.06238">
        <ele>66</ele>
        <time>2026-02-26T08:41:17Z</time>
      </trkpt>
      <trkpt lat="48.70248" lon="2.06233">
        <ele>65</ele>
        <time>2026-02-26T08:41:23Z</time>
      </trkpt>
      <trkpt lat="48.70249" lon="2.06228">
        <ele>64</ele>
        <time>2026-02-26T08:41:26Z</time>
      </trkpt>
      <trkpt lat="48.7025" lon="2.06222">
        <ele>64</ele>
        <time>2026-02-26T08:41:29Z</time>
      </trkpt>
      <trkpt lat="48.70251" lon="2.06217">
        <ele>63</ele>
        <time>2026-02-26T08:41:32Z</time>
      </trkpt>
      <trkpt lat="48.70252" lon="2.06211">
        <ele>63</ele>
        <time>2026-02-26T08:41:35Z</time>
      </trkpt>
      <trkpt lat="48.70252" lon="2.06206">
        <ele>62</ele>
        <time>2026-02-26T08:41:38Z</time>
      </trkpt>
      <trkpt lat="48.70254" lon="2.06201">
        <ele>62</ele>
        <time>2026-02-26T08:41:41Z</time>
      </trkpt>
      <trkpt lat="48.70254" lon="2.06197">
        <ele>63</ele>
        <time>2026-02-26T08:41:43Z</time>
      </trkpt>
      <trkpt lat="48.70255" lon="2.06191">
        <ele>64</ele>
        <time>2026-02-26T08:41:45Z</time>
      </trkpt>
      <trkpt lat="48.70255" lon="2.06186">
        <ele>66</ele>
        <time>2026-02-26T08:41:47Z</time>
      </trkpt>
      <trkpt lat="48.70256" lon="2.06181">
        <ele>67</ele>
        <time>2026-02-26T08:41:49Z</time>
      </trkpt>
      <trkpt lat="48.70256" lon="2.06176">
        <ele>68</ele>
        <time>2026-02-26T08:41:51Z</time>
      </trkpt>
      <trkpt lat="48.70257" lon="2.06171">
        <ele>69</ele>
        <time>2026-02-26T08:41:54Z</time>
      </trkpt>
      <trkpt lat="48.70258" lon="2.06166">
        <ele>69</ele>
        <time>2026-02-26T08:41:57Z</time>
      </trkpt>
      <trkpt lat="48.70258" lon="2.06161">
        <ele>69</ele>
        <time>2026-02-26T08:42:00Z</time>
      </trkpt>
      <trkpt lat="48.70259" lon="2.06155">
        <ele>69</ele>
        <time>2026-02-26T08:42:03Z</time>
      </trkpt>
      <trkpt lat="48.70258" lon="2.06151">
        <ele>69</ele>
        <time>2026-02-26T08:42:08Z</time>
      </trkpt>
      <trkpt lat="48.70259" lon="2.06147">
        <ele>70</ele>
        <time>2026-02-26T08:42:19Z</time>
      </trkpt>
      <trkpt lat="48.70259" lon="2.06142">
        <ele>70</ele>
        <time>2026-02-26T08:42:22Z</time>
      </trkpt>
      <trkpt lat="48.7026" lon="2.06137">
        <ele>70</ele>
        <time>2026-02-26T08:42:25Z</time>
      </trkpt>
      <trkpt lat="48.70261" lon="2.06132">
        <ele>70</ele>
        <time>2026-02-26T08:42:28Z</time>
      </trkpt>
      <trkpt lat="48.7026" lon="2.06128">
        <ele>70</ele>
        <time>2026-02-26T08:42:31Z</time>
      </trkpt>
      <trkpt lat="48.7026" lon="2.06123">
        <ele>70</ele>
        <time>2026-02-26T08:42:34Z</time>
      </trkpt>
      <trkpt lat="48.7026" lon="2.06118">
        <ele>70</ele>
        <time>2026-02-26T08:42:37Z</time>
      </trkpt>
      <trkpt lat="48.7026" lon="2.06114">
        <ele>70</ele>
        <time>2026-02-26T08:42:40Z</time>
      </trkpt>
      <trkpt lat="48.7026" lon="2.06108">
        <ele>70</ele>
        <time>2026-02-26T08:42:43Z</time>
      </trkpt>
      <trkpt lat="48.70259" lon="2.06104">
        <ele>71</ele>
        <time>2026-02-26T08:42:46Z</time>
      </trkpt>
      <trkpt lat="48.70259" lon="2.06099">
        <ele>71</ele>
        <time>2026-02-26T08:42:49Z</time>
      </trkpt>
      <trkpt lat="48.70259" lon="2.06093">
        <ele>71</ele>
        <time>2026-02-26T08:42:53Z</time>
      </trkpt>
      <trkpt lat="48.70259" lon="2.06088">
        <ele>71</ele>
        <time>2026-02-26T08:42:55Z</time>
      </trkpt>
      <trkpt lat="48.70259" lon="2.06084">
        <ele>71</ele>
        <time>2026-02-26T08:42:57Z</time>
      </trkpt>
      <trkpt lat="48.7026" lon="2.06079">
        <ele>72</ele>
        <time>2026-02-26T08:43:00Z</time>
      </trkpt>
      <trkpt lat="48.7026" lon="2.06074">
        <ele>72</ele>
        <time>2026-02-26T08:43:03Z</time>
      </trkpt>
      <trkpt lat="48.70261" lon="2.06069">
        <ele>72</ele>
        <time>2026-02-26T08:43:06Z</time>
      </trkpt>
      <trkpt lat="48.70262" lon="2.06065">
        <ele>71</ele>
        <time>2026-02-26T08:43:09Z</time>
      </trkpt>
      <trkpt lat="48.70262" lon="2.0606">
        <ele>71</ele>
        <time>2026-02-26T08:43:13Z</time>
      </trkpt>
      <trkpt lat="48.70263" lon="2.06055">
        <ele>70</ele>
        <time>2026-02-26T08:43:17Z</time>
      </trkpt>
      <trkpt lat="48.70263" lon="2.0605">
        <ele>69</ele>
        <time>2026-02-26T08:43:21Z</time>
      </trkpt>
      <trkpt lat="48.70264" lon="2.06045">
        <ele>69</ele>
        <time>2026-02-26T08:43:24Z</time>
      </trkpt>
      <trkpt lat="48.70265" lon="2.0604">
        <ele>69</ele>
        <time>2026-02-26T08:43:27Z</time>
      </trkpt>
      <trkpt lat="48.70265" lon="2.06035">
        <ele>69</ele>
        <time>2026-02-26T08:43:30Z</time>
      </trkpt>
      <trkpt lat="48.70265" lon="2.06029">
        <ele>69</ele>
        <time>2026-02-26T08:43:33Z</time>
      </trkpt>
      <trkpt lat="48.70266" lon="2.06024">
        <ele>69</ele>
        <time>2026-02-26T08:43:36Z</time>
      </trkpt>
      <trkpt lat="48.70266" lon="2.06018">
        <ele>70</ele>
        <time>2026-02-26T08:43:39Z</time>
      </trkpt>
      <trkpt lat="48.70266" lon="2.06013">
        <ele>70</ele>
        <time>2026-02-26T08:43:42Z</time>
      </trkpt>
      <trkpt lat="48.70266" lon="2.06007">
        <ele>70</ele>
        <time>2026-02-26T08:43:45Z</time>
      </trkpt>
      <trkpt lat="48.70266" lon="2.06002">
        <ele>71</ele>
        <time>2026-02-26T08:43:48Z</time>
      </trkpt>
      <trkpt lat="48.70266" lon="2.05997">
        <ele>71</ele>
        <time>2026-02-26T08:43:51Z</time>
      </trkpt>
      <trkpt lat="48.70266" lon="2.05992">
        <ele>71</ele>
        <time>2026-02-26T08:43:54Z</time>
      </trkpt>
      <trkpt lat="48.70266" lon="2.05986">
        <ele>72</ele>
        <time>2026-02-26T08:43:57Z</time>
      </trkpt>
      <trkpt lat="48.70266" lon="2.0598">
        <ele>73</ele>
        <time>2026-02-26T08:43:59Z</time>
      </trkpt>
      <trkpt lat="48.70266" lon="2.05975">
        <ele>74</ele>
        <time>2026-02-26T08:44:02Z</time>
      </trkpt>
      <trkpt lat="48.70265" lon="2.05969">
        <ele>76</ele>
        <time>2026-02-26T08:44:05Z</time>
      </trkpt>
      <trkpt lat="48.70265" lon="2.05964">
        <ele>76</ele>
        <time>2026-02-26T08:44:08Z</time>
      </trkpt>
      <trkpt lat="48.70265" lon="2.05959">
        <ele>76</ele>
        <time>2026-02-26T08:44:11Z</time>
      </trkpt>
      <trkpt lat="48.70265" lon="2.05954">
        <ele>77</ele>
        <time>2026-02-26T08:44:13Z</time>
      </trkpt>
      <trkpt lat="48.70266" lon="2.05949">
        <ele>78</ele>
        <time>2026-02-26T08:44:16Z</time>
      </trkpt>
      <trkpt lat="48.70266" lon="2.05944">
        <ele>78</ele>
        <time>2026-02-26T08:44:19Z</time>
      </trkpt>
      <trkpt lat="48.70266" lon="2.05939">
        <ele>78</ele>
        <time>2026-02-26T08:44:23Z</time>
      </trkpt>
      <trkpt lat="48.70265" lon="2.05934">
        <ele>77</ele>
        <time>2026-02-26T08:44:26Z</time>
      </trkpt>
      <trkpt lat="48.70265" lon="2.05928">
        <ele>77</ele>
        <time>2026-02-26T08:44:30Z</time>
      </trkpt>
      <trkpt lat="48.70265" lon="2.05924">
        <ele>77</ele>
        <time>2026-02-26T08:44:33Z</time>
      </trkpt>
      <trkpt lat="48.70266" lon="2.05919">
        <ele>76</ele>
        <time>2026-02-26T08:44:36Z</time>
      </trkpt>
      <trkpt lat="48.70266" lon="2.05914">
        <ele>76</ele>
        <time>2026-02-26T08:44:39Z</time>
      </trkpt>
      <trkpt lat="48.70266" lon="2.05909">
        <ele>76</ele>
        <time>2026-02-26T08:44:42Z</time>
      </trkpt>
      <trkpt lat="48.70267" lon="2.05904">
        <ele>75</ele>
        <time>2026-02-26T08:44:44Z</time>
      </trkpt>
      <trkpt lat="48.70267" lon="2.05899">
        <ele>74</ele>
        <time>2026-02-26T08:44:47Z</time>
      </trkpt>
      <trkpt lat="48.70267" lon="2.05895">
        <ele>74</ele>
        <time>2026-02-26T08:44:50Z</time>
      </trkpt>
      <trkpt lat="48.70267" lon="2.0589">
        <ele>74</ele>
        <time>2026-02-26T08:44:53Z</time>
      </trkpt>
      <trkpt lat="48.70268" lon="2.05885">
        <ele>74</ele>
        <time>2026-02-26T08:44:57Z</time>
      </trkpt>
      <trkpt lat="48.70268" lon="2.05881">
        <ele>73</ele>
        <time>2026-02-26T08:45:00Z</time>
      </trkpt>
      <trkpt lat="48.70268" lon="2.05876">
        <ele>73</ele>
        <time>2026-02-26T08:45:03Z</time>
      </trkpt>
      <trkpt lat="48.70268" lon="2.05872">
        <ele>72</ele>
        <time>2026-02-26T08:45:06Z</time>
      </trkpt>
      <trkpt lat="48.70268" lon="2.05867">
        <ele>71</ele>
        <time>2026-02-26T08:45:09Z</time>
      </trkpt>
      <trkpt lat="48.70268" lon="2.05862">
        <ele>71</ele>
        <time>2026-02-26T08:45:12Z</time>
      </trkpt>
      <trkpt lat="48.70268" lon="2.05857">
        <ele>70</ele>
        <time>2026-02-26T08:45:15Z</time>
      </trkpt>
      <trkpt lat="48.70268" lon="2.05852">
        <ele>70</ele>
        <time>2026-02-26T08:45:18Z</time>
      </trkpt>
      <trkpt lat="48.70268" lon="2.05847">
        <ele>69</ele>
        <time>2026-02-26T08:45:21Z</time>
      </trkpt>
      <trkpt lat="48.70268" lon="2.05842">
        <ele>69</ele>
        <time>2026-02-26T08:45:24Z</time>
      </trkpt>
      <trkpt lat="48.70267" lon="2.05836">
        <ele>69</ele>
        <time>2026-02-26T08:45:27Z</time>
      </trkpt>
      <trkpt lat="48.70267" lon="2.05831">
        <ele>69</ele>
        <time>2026-02-26T08:45:30Z</time>
      </trkpt>
      <trkpt lat="48.70267" lon="2.05827">
        <ele>70</ele>
        <time>2026-02-26T08:45:32Z</time>
      </trkpt>
      <trkpt lat="48.70268" lon="2.05822">
        <ele>69</ele>
        <time>2026-02-26T08:45:35Z</time>
      </trkpt>
      <trkpt lat="48.70268" lon="2.05818">
        <ele>69</ele>
        <time>2026-02-26T08:45:38Z</time>
      </trkpt>
      <trkpt lat="48.70268" lon="2.05812">
        <ele>69</ele>
        <time>2026-02-26T08:45:41Z</time>
      </trkpt>
      <trkpt lat="48.70268" lon="2.05807">
        <ele>69</ele>
        <time>2026-02-26T08:45:44Z</time>
      </trkpt>
      <trkpt lat="48.70269" lon="2.05801">
        <ele>69</ele>
        <time>2026-02-26T08:45:47Z</time>
      </trkpt>
      <trkpt lat="48.70269" lon="2.05796">
        <ele>69</ele>
        <time>2026-02-26T08:45:50Z</time>
      </trkpt>
      <trkpt lat="48.70269" lon="2.05791">
        <ele>70</ele>
        <time>2026-02-26T08:45:53Z</time>
      </trkpt>
      <trkpt lat="48.70269" lon="2.05786">
        <ele>70</ele>
        <time>2026-02-26T08:45:56Z</time>
      </trkpt>
      <trkpt lat="48.70268" lon="2.0578">
        <ele>70</ele>
        <time>2026-02-26T08:45:59Z</time>
      </trkpt>
      <trkpt lat="48.70268" lon="2.05774">
        <ele>71</ele>
        <time>2026-02-26T08:46:02Z</time>
      </trkpt>
      <trkpt lat="48.70267" lon="2.0577">
        <ele>71</ele>
        <time>2026-02-26T08:46:04Z</time>
      </trkpt>
      <trkpt lat="48.70267" lon="2.05765">
        <ele>70</ele>
        <time>2026-02-26T08:46:07Z</time>
      </trkpt>
      <trkpt lat="48.70266" lon="2.0576">
        <ele>70</ele>
        <time>2026-02-26T08:46:10Z</time>
      </trkpt>
      <trkpt lat="48.70266" lon="2.05755">
        <ele>70</ele>
        <time>2026-02-26T08:46:13Z</time>
      </trkpt>
      <trkpt lat="48.70265" lon="2.05751">
        <ele>70</ele>
        <time>2026-02-26T08:46:16Z</time>
      </trkpt>
      <trkpt lat="48.70265" lon="2.05746">
        <ele>69</ele>
        <time>2026-02-26T08:46:19Z</time>
      </trkpt>
      <trkpt lat="48.70265" lon="2.0574">
        <ele>69</ele>
        <time>2026-02-26T08:46:22Z</time>
      </trkpt>
      <trkpt lat="48.70266" lon="2.05736">
        <ele>68</ele>
        <time>2026-02-26T08:46:25Z</time>
      </trkpt>
      <trkpt lat="48.70265" lon="2.05731">
        <ele>68</ele>
        <time>2026-02-26T08:46:28Z</time>
      </trkpt>
      <trkpt lat="48.70264" lon="2.05727">
        <ele>68</ele>
        <time>2026-02-26T08:46:30Z</time>
      </trkpt>
      <trkpt lat="48.70263" lon="2.05723">
        <ele>68</ele>
        <time>2026-02-26T08:46:32Z</time>
      </trkpt>
      <trkpt lat="48.70262" lon="2.05719">
        <ele>68</ele>
        <time>2026-02-26T08:46:37Z</time>
      </trkpt>
      <trkpt lat="48.70261" lon="2.05715">
        <ele>68</ele>
        <time>2026-02-26T08:46:40Z</time>
      </trkpt>
      <trkpt lat="48.7026" lon="2.0571">
        <ele>68</ele>
        <time>2026-02-26T08:46:43Z</time>
      </trkpt>
      <trkpt lat="48.70259" lon="2.05706">
        <ele>69</ele>
        <time>2026-02-26T08:46:45Z</time>
      </trkpt>
      <trkpt lat="48.70257" lon="2.05702">
        <ele>69</ele>
        <time>2026-02-26T08:46:47Z</time>
      </trkpt>
      <trkpt lat="48.70256" lon="2.05697">
        <ele>69</ele>
        <time>2026-02-26T08:46:50Z</time>
      </trkpt>
      <trkpt lat="48.70254" lon="2.05693">
        <ele>69</ele>
        <time>2026-02-26T08:46:54Z</time>
      </trkpt>
      <trkpt lat="48.70254" lon="2.05688">
        <ele>69</ele>
        <time>2026-02-26T08:46:57Z</time>
      </trkpt>
      <trkpt lat="48.70252" lon="2.05683">
        <ele>69</ele>
        <time>2026-02-26T08:47:00Z</time>
      </trkpt>
      <trkpt lat="48.70251" lon="2.05678">
        <ele>68</ele>
        <time>2026-02-26T08:47:03Z</time>
      </trkpt>
      <trkpt lat="48.70249" lon="2.05673">
        <ele>68</ele>
        <time>2026-02-26T08:47:05Z</time>
      </trkpt>
      <trkpt lat="48.70248" lon="2.05669">
        <ele>67</ele>
        <time>2026-02-26T08:47:08Z</time>
      </trkpt>
      <trkpt lat="48.70248" lon="2.05663">
        <ele>67</ele>
        <time>2026-02-26T08:47:11Z</time>
      </trkpt>
      <trkpt lat="48.70246" lon="2.05658">
        <ele>66</ele>
        <time>2026-02-26T08:47:14Z</time>
      </trkpt>
      <trkpt lat="48.70246" lon="2.05654">
        <ele>67</ele>
        <time>2026-02-26T08:47:18Z</time>
      </trkpt>
      <trkpt lat="48.70245" lon="2.05649">
        <ele>67</ele>
        <time>2026-02-26T08:47:22Z</time>
      </trkpt>
      <trkpt lat="48.70244" lon="2.05644">
        <ele>67</ele>
        <time>2026-02-26T08:47:25Z</time>
      </trkpt>
      <trkpt lat="48.70242" lon="2.0564">
        <ele>67</ele>
        <time>2026-02-26T08:47:30Z</time>
      </trkpt>
      <trkpt lat="48.70241" lon="2.05636">
        <ele>67</ele>
        <time>2026-02-26T08:47:33Z</time>
      </trkpt>
      <trkpt lat="48.7024" lon="2.05631">
        <ele>67</ele>
        <time>2026-02-26T08:47:36Z</time>
      </trkpt>
      <trkpt lat="48.70239" lon="2.05627">
        <ele>66</ele>
        <time>2026-02-26T08:47:39Z</time>
      </trkpt>
      <trkpt lat="48.70238" lon="2.05623">
        <ele>66</ele>
        <time>2026-02-26T08:47:42Z</time>
      </trkpt>
      <trkpt lat="48.70237" lon="2.05618">
        <ele>66</ele>
        <time>2026-02-26T08:47:45Z</time>
      </trkpt>
      <trkpt lat="48.70235" lon="2.05614">
        <ele>66</ele>
        <time>2026-02-26T08:47:47Z</time>
      </trkpt>
      <trkpt lat="48.70234" lon="2.0561">
        <ele>66</ele>
        <time>2026-02-26T08:47:49Z</time>
      </trkpt>
      <trkpt lat="48.70233" lon="2.05605">
        <ele>66</ele>
        <time>2026-02-26T08:47:52Z</time>
      </trkpt>
      <trkpt lat="48.70233" lon="2.05601">
        <ele>66</ele>
        <time>2026-02-26T08:47:54Z</time>
      </trkpt>
      <trkpt lat="48.70232" lon="2.05596">
        <ele>66</ele>
        <time>2026-02-26T08:47:56Z</time>
      </trkpt>
      <trkpt lat="48.70231" lon="2.05591">
        <ele>66</ele>
        <time>2026-02-26T08:47:59Z</time>
      </trkpt>
      <trkpt lat="48.7023" lon="2.05587">
        <ele>66</ele>
        <time>2026-02-26T08:48:02Z</time>
      </trkpt>
      <trkpt lat="48.70229" lon="2.05582">
        <ele>66</ele>
        <time>2026-02-26T08:48:05Z</time>
      </trkpt>
      <trkpt lat="48.70227" lon="2.0558">
        <ele>65</ele>
        <time>2026-02-26T08:48:10Z</time>
      </trkpt>
      <trkpt lat="48.70224" lon="2.05578">
        <ele>65</ele>
        <time>2026-02-26T08:48:25Z</time>
      </trkpt>
      <trkpt lat="48.70221" lon="2.05577">
        <ele>66</ele>
        <time>2026-02-26T08:48:29Z</time>
      </trkpt>
      <trkpt lat="48.70218" lon="2.05575">
        <ele>67</ele>
        <time>2026-02-26T08:48:33Z</time>
      </trkpt>
      <trkpt lat="48.70215" lon="2.05573">
        <ele>68</ele>
        <time>2026-02-26T08:48:38Z</time>
      </trkpt>
      <trkpt lat="48.70213" lon="2.05572">
        <ele>69</ele>
        <time>2026-02-26T08:48:44Z</time>
      </trkpt>
      <trkpt lat="48.7021" lon="2.05572">
        <ele>68</ele>
        <time>2026-02-26T08:48:48Z</time>
      </trkpt>
      <trkpt lat="48.70207" lon="2.05574">
        <ele>68</ele>
        <time>2026-02-26T08:48:51Z</time>
      </trkpt>
      <trkpt lat="48.70204" lon="2.05576">
        <ele>68</ele>
        <time>2026-02-26T08:48:53Z</time>
      </trkpt>
      <trkpt lat="48.70201" lon="2.05579">
        <ele>68</ele>
        <time>2026-02-26T08:48:56Z</time>
      </trkpt>
      <trkpt lat="48.70199" lon="2.05582">
        <ele>68</ele>
        <time>2026-02-26T08:48:59Z</time>
      </trkpt>
      <trkpt lat="48.70197" lon="2.05585">
        <ele>69</ele>
        <time>2026-02-26T08:49:02Z</time>
      </trkpt>
      <trkpt lat="48.70195" lon="2.05589">
        <ele>71</ele>
        <time>2026-02-26T08:49:06Z</time>
      </trkpt>
      <trkpt lat="48.70192" lon="2.05591">
        <ele>72</ele>
        <time>2026-02-26T08:49:11Z</time>
      </trkpt>
      <trkpt lat="48.70189" lon="2.05593">
        <ele>75</ele>
        <time>2026-02-26T08:49:14Z</time>
      </trkpt>
      <trkpt lat="48.70186" lon="2.05596">
        <ele>75</ele>
        <time>2026-02-26T08:49:17Z</time>
      </trkpt>
      <trkpt lat="48.70183" lon="2.05599">
        <ele>76</ele>
        <time>2026-02-26T08:49:20Z</time>
      </trkpt>
      <trkpt lat="48.70181" lon="2.05601">
        <ele>77</ele>
        <time>2026-02-26T08:49:23Z</time>
      </trkpt>
      <trkpt lat="48.70178" lon="2.05603">
        <ele>77</ele>
        <time>2026-02-26T08:49:26Z</time>
      </trkpt>
      <trkpt lat="48.70175" lon="2.05605">
        <ele>79</ele>
        <time>2026-02-26T08:49:30Z</time>
      </trkpt>
      <trkpt lat="48.70172" lon="2.05608">
        <ele>80</ele>
        <time>2026-02-26T08:49:33Z</time>
      </trkpt>
      <trkpt lat="48.70169" lon="2.0561">
        <ele>81</ele>
        <time>2026-02-26T08:49:37Z</time>
      </trkpt>
      <trkpt lat="48.70166" lon="2.05612">
        <ele>81</ele>
        <time>2026-02-26T08:49:41Z</time>
      </trkpt>
      <trkpt lat="48.70163" lon="2.05613">
        <ele>80</ele>
        <time>2026-02-26T08:49:44Z</time>
      </trkpt>
      <trkpt lat="48.7016" lon="2.05614">
        <ele>80</ele>
        <time>2026-02-26T08:49:48Z</time>
      </trkpt>
      <trkpt lat="48.70156" lon="2.05615">
        <ele>80</ele>
        <time>2026-02-26T08:49:53Z</time>
      </trkpt>
      <trkpt lat="48.70153" lon="2.05617">
        <ele>80</ele>
        <time>2026-02-26T08:49:59Z</time>
      </trkpt>
      <trkpt lat="48.7015" lon="2.05619">
        <ele>80</ele>
        <time>2026-02-26T08:50:03Z</time>
      </trkpt>
      <trkpt lat="48.70147" lon="2.0562">
        <ele>79</ele>
        <time>2026-02-26T08:50:08Z</time>
      </trkpt>
      <trkpt lat="48.70144" lon="2.05621">
        <ele>79</ele>
        <time>2026-02-26T08:50:11Z</time>
      </trkpt>
      <trkpt lat="48.70141" lon="2.05623">
        <ele>80</ele>
        <time>2026-02-26T08:50:14Z</time>
      </trkpt>
      <trkpt lat="48.70138" lon="2.05624">
        <ele>80</ele>
        <time>2026-02-26T08:50:16Z</time>
      </trkpt>
      <trkpt lat="48.70135" lon="2.05626">
        <ele>79</ele>
        <time>2026-02-26T08:50:17Z</time>
      </trkpt>
      <trkpt lat="48.70132" lon="2.05629">
        <ele>78</ele>
        <time>2026-02-26T08:50:19Z</time>
      </trkpt>
      <trkpt lat="48.70129" lon="2.05631">
        <ele>77</ele>
        <time>2026-02-26T08:50:21Z</time>
      </trkpt>
      <trkpt lat="48.70126" lon="2.05632">
        <ele>77</ele>
        <time>2026-02-26T08:50:23Z</time>
      </trkpt>
      <trkpt lat="48.70123" lon="2.05633">
        <ele>77</ele>
        <time>2026-02-26T08:50:26Z</time>
      </trkpt>
      <trkpt lat="48.70121" lon="2.05635">
        <ele>77</ele>
        <time>2026-02-26T08:50:29Z</time>
      </trkpt>
      <trkpt lat="48.70118" lon="2.05636">
        <ele>78</ele>
        <time>2026-02-26T08:50:34Z</time>
      </trkpt>
      <trkpt lat="48.70115" lon="2.05638">
        <ele>78</ele>
        <time>2026-02-26T08:50:37Z</time>
      </trkpt>
      <trkpt lat="48.70113" lon="2.0564">
        <ele>78</ele>
        <time>2026-02-26T08:50:40Z</time>
      </trkpt>
      <trkpt lat="48.70109" lon="2.05641">
        <ele>79</ele>
        <time>2026-02-26T08:50:44Z</time>
      </trkpt>
      <trkpt lat="48.70106" lon="2.05642">
        <ele>79</ele>
        <time>2026-02-26T08:50:47Z</time>
      </trkpt>
      <trkpt lat="48.70103" lon="2.05643">
        <ele>79</ele>
        <time>2026-02-26T08:50:52Z</time>
      </trkpt>
      <trkpt lat="48.701" lon="2.05643">
        <ele>78</ele>
        <time>2026-02-26T08:50:59Z</time>
      </trkpt>
      <trkpt lat="48.70096" lon="2.05643">
        <ele>79</ele>
        <time>2026-02-26T08:51:04Z</time>
      </trkpt>
      <trkpt lat="48.70094" lon="2.05641">
        <ele>80</ele>
        <time>2026-02-26T08:51:09Z</time>
      </trkpt>
      <trkpt lat="48.70091" lon="2.0564">
        <ele>81</ele>
        <time>2026-02-26T08:51:12Z</time>
      </trkpt>
      <trkpt lat="48.70088" lon="2.05639">
        <ele>81</ele>
        <time>2026-02-26T08:51:16Z</time>
      </trkpt>
      <trkpt lat="48.70086" lon="2.05636">
        <ele>82</ele>
        <time>2026-02-26T08:51:19Z</time>
      </trkpt>
      <trkpt lat="48.70083" lon="2.05633">
        <ele>82</ele>
        <time>2026-02-26T08:51:22Z</time>
      </trkpt>
      <trkpt lat="48.70081" lon="2.0563">
        <ele>82</ele>
        <time>2026-02-26T08:51:28Z</time>
      </trkpt>
      <trkpt lat="48.70077" lon="2.05627">
        <ele>83</ele>
        <time>2026-02-26T08:51:32Z</time>
      </trkpt>
      <trkpt lat="48.70074" lon="2.05626">
        <ele>85</ele>
        <time>2026-02-26T08:51:39Z</time>
      </trkpt>
      <trkpt lat="48.70071" lon="2.05624">
        <ele>85</ele>
        <time>2026-02-26T08:51:42Z</time>
      </trkpt>
      <trkpt lat="48.70069" lon="2.05621">
        <ele>86</ele>
        <time>2026-02-26T08:51:46Z</time>
      </trkpt>
      <trkpt lat="48.70066" lon="2.0562">
        <ele>87</ele>
        <time>2026-02-26T08:51:50Z</time>
      </trkpt>
      <trkpt lat="48.70063" lon="2.05619">
        <ele>87</ele>
        <time>2026-02-26T08:51:53Z</time>
      </trkpt>
      <trkpt lat="48.7006" lon="2.05618">
        <ele>87</ele>
        <time>2026-02-26T08:51:56Z</time>
      </trkpt>
      <trkpt lat="48.70057" lon="2.05617">
        <ele>86</ele>
        <time>2026-02-26T08:51:59Z</time>
      </trkpt>
      <trkpt lat="48.70054" lon="2.05616">
        <ele>86</ele>
        <time>2026-02-26T08:52:02Z</time>
      </trkpt>
      <trkpt lat="48.70051" lon="2.05615">
        <ele>86</ele>
        <time>2026-02-26T08:52:07Z</time>
      </trkpt>
      <trkpt lat="48.70048" lon="2.05613">
        <ele>86</ele>
        <time>2026-02-26T08:52:10Z</time>
      </trkpt>
      <trkpt lat="48.70045" lon="2.05613">
        <ele>87</ele>
        <time>2026-02-26T08:52:14Z</time>
      </trkpt>
      <trkpt lat="48.70042" lon="2.05612">
        <ele>87</ele>
        <time>2026-02-26T08:52:17Z</time>
      </trkpt>
      <trkpt lat="48.70039" lon="2.05611">
        <ele>87</ele>
        <time>2026-02-26T08:52:19Z</time>
      </trkpt>
      <trkpt lat="48.70036" lon="2.0561">
        <ele>86</ele>
        <time>2026-02-26T08:52:23Z</time>
      </trkpt>
      <trkpt lat="48.70033" lon="2.0561">
        <ele>86</ele>
        <time>2026-02-26T08:52:28Z</time>
      </trkpt>
      <trkpt lat="48.70029" lon="2.0561">
        <ele>87</ele>
        <time>2026-02-26T08:52:32Z</time>
      </trkpt>
      <trkpt lat="48.70026" lon="2.05609">
        <ele>89</ele>
        <time>2026-02-26T08:52:36Z</time>
      </trkpt>
      <trkpt lat="48.70023" lon="2.05608">
        <ele>89</ele>
        <time>2026-02-26T08:52:41Z</time>
      </trkpt>
      <trkpt lat="48.7002" lon="2.05607">
        <ele>90</ele>
        <time>2026-02-26T08:52:44Z</time>
      </trkpt>
      <trkpt lat="48.70017" lon="2.05605">
        <ele>90</ele>
        <time>2026-02-26T08:52:49Z</time>
      </trkpt>
      <trkpt lat="48.70012" lon="2.05603">
        <ele>90</ele>
        <time>2026-02-26T08:52:55Z</time>
      </trkpt>
      <trkpt lat="48.70008" lon="2.05603">
        <ele>89</ele>
        <time>2026-02-26T08:52:57Z</time>
      </trkpt>
      <trkpt lat="48.70004" lon="2.05603">
        <ele>89</ele>
        <time>2026-02-26T08:53:02Z</time>
      </trkpt>
      <trkpt lat="48.70001" lon="2.05602">
        <ele>88</ele>
        <time>2026-02-26T08:53:04Z</time>
      </trkpt>
      <trkpt lat="48.69999" lon="2.056">
        <ele>87</ele>
        <time>2026-02-26T08:53:07Z</time>
      </trkpt>
      <trkpt lat="48.69996" lon="2.05598">
        <ele>87</ele>
        <time>2026-02-26T08:53:09Z</time>
      </trkpt>
      <trkpt lat="48.69993" lon="2.05596">
        <ele>88</ele>
        <time>2026-02-26T08:53:15Z</time>
      </trkpt>
      <trkpt lat="48.6999" lon="2.05595">
        <ele>89</ele>
        <time>2026-02-26T08:53:20Z</time>
      </trkpt>
      <trkpt lat="48.69987" lon="2.05595">
        <ele>90</ele>
        <time>2026-02-26T08:53:23Z</time>
      </trkpt>
      <trkpt lat="48.69984" lon="2.05594">
        <ele>90</ele>
        <time>2026-02-26T08:53:31Z</time>
      </trkpt>
      <trkpt lat="48.6998" lon="2.05593">
        <ele>91</ele>
        <time>2026-02-26T08:53:37Z</time>
      </trkpt>
      <trkpt lat="48.69977" lon="2.05591">
        <ele>92</ele>
        <time>2026-02-26T08:53:41Z</time>
      </trkpt>
      <trkpt lat="48.69974" lon="2.0559">
        <ele>92</ele>
        <time>2026-02-26T08:53:42Z</time>
      </trkpt>
      <trkpt lat="48.69971" lon="2.05589">
        <ele>91</ele>
        <time>2026-02-26T08:53:45Z</time>
      </trkpt>
      <trkpt lat="48.69968" lon="2.05588">
        <ele>91</ele>
        <time>2026-02-26T08:53:50Z</time>
      </trkpt>
      <trkpt lat="48.69965" lon="2.05587">
        <ele>92</ele>
        <time>2026-02-26T08:53:57Z</time>
      </trkpt>
      <trkpt lat="48.69962" lon="2.05585">
        <ele>93</ele>
        <time>2026-02-26T08:54:05Z</time>
      </trkpt>
      <trkpt lat="48.69958" lon="2.05584">
        <ele>94</ele>
        <time>2026-02-26T08:54:11Z</time>
      </trkpt>
      <trkpt lat="48.69955" lon="2.05585">
        <ele>94</ele>
        <time>2026-02-26T08:54:13Z</time>
      </trkpt>
      <trkpt lat="48.69952" lon="2.05585">
        <ele>94</ele>
        <time>2026-02-26T08:54:15Z</time>
      </trkpt>
      <trkpt lat="48.69949" lon="2.05586">
        <ele>95</ele>
        <time>2026-02-26T08:54:18Z</time>
      </trkpt>
      <trkpt lat="48.69946" lon="2.05585">
        <ele>96</ele>
        <time>2026-02-26T08:54:23Z</time>
      </trkpt>
      <trkpt lat="48.69943" lon="2.05584">
        <ele>98</ele>
        <time>2026-02-26T08:54:27Z</time>
      </trkpt>
      <trkpt lat="48.6994" lon="2.05584">
        <ele>98</ele>
        <time>2026-02-26T08:54:30Z</time>
      </trkpt>
      <trkpt lat="48.69937" lon="2.05584">
        <ele>99</ele>
        <time>2026-02-26T08:54:34Z</time>
      </trkpt>
      <trkpt lat="48.69934" lon="2.05583">
        <ele>99</ele>
        <time>2026-02-26T08:54:37Z</time>
      </trkpt>
      <trkpt lat="48.6993" lon="2.05583">
        <ele>99</ele>
        <time>2026-02-26T08:54:40Z</time>
      </trkpt>
      <trkpt lat="48.69927" lon="2.05583">
        <ele>100</ele>
        <time>2026-02-26T08:54:44Z</time>
      </trkpt>
      <trkpt lat="48.69922" lon="2.05582">
        <ele>100</ele>
        <time>2026-02-26T08:54:49Z</time>
      </trkpt>
      <trkpt lat="48.69919" lon="2.05581">
        <ele>100</ele>
        <time>2026-02-26T08:54:50Z</time>
      </trkpt>
      <trkpt lat="48.69914" lon="2.0558">
        <ele>99</ele>
        <time>2026-02-26T08:54:52Z</time>
      </trkpt>
      <trkpt lat="48.69911" lon="2.05579">
        <ele>99</ele>
        <time>2026-02-26T08:54:54Z</time>
      </trkpt>
      <trkpt lat="48.69908" lon="2.05579">
        <ele>99</ele>
        <time>2026-02-26T08:54:56Z</time>
      </trkpt>
      <trkpt lat="48.69904" lon="2.05579">
        <ele>99</ele>
        <time>2026-02-26T08:54:59Z</time>
      </trkpt>
      <trkpt lat="48.69901" lon="2.0558">
        <ele>100</ele>
        <time>2026-02-26T08:55:10Z</time>
      </trkpt>
      <trkpt lat="48.69898" lon="2.05581">
        <ele>101</ele>
        <time>2026-02-26T08:55:18Z</time>
      </trkpt>
      <trkpt lat="48.69895" lon="2.05582">
        <ele>103</ele>
        <time>2026-02-26T08:55:24Z</time>
      </trkpt>
      <trkpt lat="48.69891" lon="2.05583">
        <ele>105</ele>
        <time>2026-02-26T08:55:30Z</time>
      </trkpt>
      <trkpt lat="48.69887" lon="2.05582">
        <ele>106</ele>
        <time>2026-02-26T08:55:36Z</time>
      </trkpt>
      <trkpt lat="48.69884" lon="2.05581">
        <ele>107</ele>
        <time>2026-02-26T08:55:38Z</time>
      </trkpt>
      <trkpt lat="48.69881" lon="2.05581">
        <ele>107</ele>
        <time>2026-02-26T08:55:43Z</time>
      </trkpt>
      <trkpt lat="48.69879" lon="2.0558">
        <ele>108</ele>
        <time>2026-02-26T08:55:49Z</time>
      </trkpt>
      <trkpt lat="48.69876" lon="2.05579">
        <ele>110</ele>
        <time>2026-02-26T08:55:52Z</time>
      </trkpt>
      <trkpt lat="48.69873" lon="2.05577">
        <ele>110</ele>
        <time>2026-02-26T08:55:55Z</time>
      </trkpt>
      <trkpt lat="48.6987" lon="2.05575">
        <ele>111</ele>
        <time>2026-02-26T08:55:58Z</time>
      </trkpt>
      <trkpt lat="48.69867" lon="2.05572">
        <ele>111</ele>
        <time>2026-02-26T08:56:05Z</time>
      </trkpt>
      <trkpt lat="48.69865" lon="2.05569">
        <ele>111</ele>
        <time>2026-02-26T08:56:11Z</time>
      </trkpt>
      <trkpt lat="48.69862" lon="2.05565">
        <ele>112</ele>
        <time>2026-02-26T08:56:14Z</time>
      </trkpt>
      <trkpt lat="48.69861" lon="2.0556">
        <ele>111</ele>
        <time>2026-02-26T08:56:16Z</time>
      </trkpt>
      <trkpt lat="48.6986" lon="2.05555">
        <ele>111</ele>
        <time>2026-02-26T08:56:18Z</time>
      </trkpt>
      <trkpt lat="48.69858" lon="2.0555">
        <ele>110</ele>
        <time>2026-02-26T08:56:21Z</time>
      </trkpt>
      <trkpt lat="48.69856" lon="2.05546">
        <ele>111</ele>
        <time>2026-02-26T08:56:24Z</time>
      </trkpt>
      <trkpt lat="48.69854" lon="2.05542">
        <ele>113</ele>
        <time>2026-02-26T08:56:28Z</time>
      </trkpt>
      <trkpt lat="48.69852" lon="2.05538">
        <ele>113</ele>
        <time>2026-02-26T08:56:32Z</time>
      </trkpt>
      <trkpt lat="48.6985" lon="2.05534">
        <ele>114</ele>
        <time>2026-02-26T08:56:35Z</time>
      </trkpt>
      <trkpt lat="48.69848" lon="2.05531">
        <ele>115</ele>
        <time>2026-02-26T08:56:38Z</time>
      </trkpt>
      <trkpt lat="48.69846" lon="2.05528">
        <ele>114</ele>
        <time>2026-02-26T08:56:44Z</time>
      </trkpt>
      <trkpt lat="48.69843" lon="2.05525">
        <ele>114</ele>
        <time>2026-02-26T08:56:53Z</time>
      </trkpt>
      <trkpt lat="48.6984" lon="2.05523">
        <ele>115</ele>
        <time>2026-02-26T08:56:57Z</time>
      </trkpt>
      <trkpt lat="48.69837" lon="2.05523">
        <ele>116</ele>
        <time>2026-02-26T08:57:03Z</time>
      </trkpt>
      <trkpt lat="48.69833" lon="2.05519">
        <ele>116</ele>
        <time>2026-02-26T08:57:09Z</time>
      </trkpt>
      <trkpt lat="48.69831" lon="2.05515">
        <ele>116</ele>
        <time>2026-02-26T08:57:12Z</time>
      </trkpt>
      <trkpt lat="48.69829" lon="2.05511">
        <ele>117</ele>
        <time>2026-02-26T08:57:16Z</time>
      </trkpt>
      <trkpt lat="48.69827" lon="2.05508">
        <ele>118</ele>
        <time>2026-02-26T08:57:20Z</time>
      </trkpt>
      <trkpt lat="48.69824" lon="2.05505">
        <ele>120</ele>
        <time>2026-02-26T08:57:25Z</time>
      </trkpt>
      <trkpt lat="48.69822" lon="2.05501">
        <ele>120</ele>
        <time>2026-02-26T08:57:28Z</time>
      </trkpt>
      <trkpt lat="48.69821" lon="2.05497">
        <ele>122</ele>
        <time>2026-02-26T08:57:33Z</time>
      </trkpt>
      <trkpt lat="48.69819" lon="2.05494">
        <ele>123</ele>
        <time>2026-02-26T08:57:36Z</time>
      </trkpt>
      <trkpt lat="48.69818" lon="2.0549">
        <ele>124</ele>
        <time>2026-02-26T08:57:38Z</time>
      </trkpt>
      <trkpt lat="48.69816" lon="2.05485">
        <ele>124</ele>
        <time>2026-02-26T08:57:40Z</time>
      </trkpt>
      <trkpt lat="48.69814" lon="2.0548">
        <ele>123</ele>
        <time>2026-02-26T08:57:42Z</time>
      </trkpt>
      <trkpt lat="48.69812" lon="2.05474">
        <ele>124</ele>
        <time>2026-02-26T08:57:47Z</time>
      </trkpt>
      <trkpt lat="48.6981" lon="2.05469">
        <ele>126</ele>
        <time>2026-02-26T08:57:53Z</time>
      </trkpt>
      <trkpt lat="48.69807" lon="2.05467">
        <ele>126</ele>
        <time>2026-02-26T08:57:56Z</time>
      </trkpt>
      <trkpt lat="48.69807" lon="2.05463">
        <ele>127</ele>
        <time>2026-02-26T08:58:02Z</time>
      </trkpt>
      <trkpt lat="48.69809" lon="2.0546">
        <ele>128</ele>
        <time>2026-02-26T08:58:09Z</time>
      </trkpt>
      <trkpt lat="48.69808" lon="2.05457">
        <ele>128</ele>
        <time>2026-02-26T08:58:41Z</time>
      </trkpt>
      <trkpt lat="48.69807" lon="2.05453">
        <ele>129</ele>
        <time>2026-02-26T08:58:49Z</time>
      </trkpt>
      <trkpt lat="48.69806" lon="2.0545">
        <ele>130</ele>
        <time>2026-02-26T08:58:55Z</time>
      </trkpt>
      <trkpt lat="48.69803" lon="2.05443">
        <ele>130</ele>
        <time>2026-02-26T08:58:59Z</time>
      </trkpt>
      <trkpt lat="48.69801" lon="2.05438">
        <ele>129</ele>
        <time>2026-02-26T08:59:01Z</time>
      </trkpt>
      <trkpt lat="48.69798" lon="2.05434">
        <ele>130</ele>
        <time>2026-02-26T08:59:04Z</time>
      </trkpt>
      <trkpt lat="48.69796" lon="2.05431">
        <ele>131</ele>
        <time>2026-02-26T08:59:07Z</time>
      </trkpt>
      <trkpt lat="48.69794" lon="2.05429">
        <ele>132</ele>
        <time>2026-02-26T08:59:10Z</time>
      </trkpt>
      <trkpt lat="48.69792" lon="2.05425">
        <ele>132</ele>
        <time>2026-02-26T08:59:15Z</time>
      </trkpt>
      <trkpt lat="48.69789" lon="2.05423">
        <ele>132</ele>
        <time>2026-02-26T08:59:20Z</time>
      </trkpt>
      <trkpt lat="48.69786" lon="2.05421">
        <ele>133</ele>
        <time>2026-02-26T08:59:28Z</time>
      </trkpt>
      <trkpt lat="48.69782" lon="2.05418">
        <ele>134</ele>
        <time>2026-02-26T08:59:36Z</time>
      </trkpt>
      <trkpt lat="48.69779" lon="2.05418">
        <ele>133</ele>
        <time>2026-02-26T08:59:39Z</time>
      </trkpt>
      <trkpt lat="48.69776" lon="2.05417">
        <ele>133</ele>
        <time>2026-02-26T08:59:52Z</time>
      </trkpt>
      <trkpt lat="48.69774" lon="2.05414">
        <ele>134</ele>
        <time>2026-02-26T08:59:58Z</time>
      </trkpt>
      <trkpt lat="48.69772" lon="2.05411">
        <ele>135</ele>
        <time>2026-02-26T09:00:05Z</time>
      </trkpt>
      <trkpt lat="48.6977" lon="2.05408">
        <ele>136</ele>
        <time>2026-02-26T09:00:09Z</time>
      </trkpt>
      <trkpt lat="48.69768" lon="2.05404">
        <ele>137</ele>
        <time>2026-02-26T09:00:14Z</time>
      </trkpt>
      <trkpt lat="48.69766" lon="2.05402">
        <ele>139</ele>
        <time>2026-02-26T09:00:25Z</time>
      </trkpt>
      <trkpt lat="48.69763" lon="2.05399">
        <ele>140</ele>
        <time>2026-02-26T09:00:31Z</time>
      </trkpt>
      <trkpt lat="48.69761" lon="2.05396">
        <ele>141</ele>
        <time>2026-02-26T09:00:38Z</time>
      </trkpt>
      <trkpt lat="48.69759" lon="2.05393">
        <ele>142</ele>
        <time>2026-02-26T09:00:44Z</time>
      </trkpt>
      <trkpt lat="48.69756" lon="2.0539">
        <ele>142</ele>
        <time>2026-02-26T09:00:47Z</time>
      </trkpt>
      <trkpt lat="48.69752" lon="2.05388">
        <ele>144</ele>
        <time>2026-02-26T09:00:58Z</time>
      </trkpt>
      <trkpt lat="48.69749" lon="2.05385">
        <ele>145</ele>
        <time>2026-02-26T09:01:01Z</time>
      </trkpt>
      <trkpt lat="48.69746" lon="2.05382">
        <ele>147</ele>
        <time>2026-02-26T09:01:04Z</time>
      </trkpt>
      <trkpt lat="48.69744" lon="2.05379">
        <ele>148</ele>
        <time>2026-02-26T09:01:06Z</time>
      </trkpt>
      <trkpt lat="48.69742" lon="2.05375">
        <ele>148</ele>
        <time>2026-02-26T09:01:09Z</time>
      </trkpt>
      <trkpt lat="48.6974" lon="2.05375">
        <ele>149</ele>
        <time>2026-02-26T09:01:15Z</time>
      </trkpt>
      <trkpt lat="48.69737" lon="2.05375">
        <ele>151</ele>
        <time>2026-02-26T09:01:22Z</time>
      </trkpt>
      <trkpt lat="48.69733" lon="2.05375">
        <ele>152</ele>
        <time>2026-02-26T09:01:27Z</time>
      </trkpt>
      <trkpt lat="48.6973" lon="2.05373">
        <ele>152</ele>
        <time>2026-02-26T09:01:30Z</time>
      </trkpt>
      <trkpt lat="48.69725" lon="2.05371">
        <ele>150</ele>
        <time>2026-02-26T09:01:37Z</time>
      </trkpt>
      <trkpt lat="48.69722" lon="2.0537">
        <ele>147</ele>
        <time>2026-02-26T09:01:46Z</time>
      </trkpt>
      <trkpt lat="48.69719" lon="2.05367">
        <ele>143</ele>
        <time>2026-02-26T09:02:08Z</time>
      </trkpt>
      <trkpt lat="48.69717" lon="2.05365">
        <ele>143</ele>
        <time>2026-02-26T09:02:18Z</time>
      </trkpt>
      <trkpt lat="48.69714" lon="2.05363">
        <ele>143</ele>
        <time>2026-02-26T09:02:25Z</time>
      </trkpt>
      <trkpt lat="48.69712" lon="2.0536">
        <ele>143</ele>
        <time>2026-02-26T09:02:29Z</time>
      </trkpt>
      <trkpt lat="48.69708" lon="2.05358">
        <ele>144</ele>
        <time>2026-02-26T09:02:46Z</time>
      </trkpt>
      <trkpt lat="48.69705" lon="2.05356">
        <ele>146</ele>
        <time>2026-02-26T09:02:50Z</time>
      </trkpt>
      <trkpt lat="48.69701" lon="2.05354">
        <ele>148</ele>
        <time>2026-02-26T09:03:05Z</time>
      </trkpt>
      <trkpt lat="48.69699" lon="2.05356">
        <ele>150</ele>
        <time>2026-02-26T09:03:19Z</time>
      </trkpt>
      <trkpt lat="48.69696" lon="2.05358">
        <ele>150</ele>
        <time>2026-02-26T09:03:22Z</time>
      </trkpt>
      <trkpt lat="48.69693" lon="2.05359">
        <ele>152</ele>
        <time>2026-02-26T09:03:27Z</time>
      </trkpt>
      <trkpt lat="48.6969" lon="2.05361">
        <ele>152</ele>
        <time>2026-02-26T09:03:32Z</time>
      </trkpt>
      <trkpt lat="48.69686" lon="2.05363">
        <ele>151</ele>
        <time>2026-02-26T09:03:38Z</time>
      </trkpt>
      <trkpt lat="48.69683" lon="2.05365">
        <ele>151</ele>
        <time>2026-02-26T09:03:41Z</time>
      </trkpt>
      <trkpt lat="48.69678" lon="2.05365">
        <ele>153</ele>
        <time>2026-02-26T09:03:45Z</time>
      </trkpt>
      <trkpt lat="48.69675" lon="2.05364">
        <ele>153</ele>
        <time>2026-02-26T09:03:48Z</time>
      </trkpt>
      <trkpt lat="48.69671" lon="2.05362">
        <ele>153</ele>
        <time>2026-02-26T09:03:53Z</time>
      </trkpt>
      <trkpt lat="48.69668" lon="2.0536">
        <ele>152</ele>
        <time>2026-02-26T09:03:56Z</time>
      </trkpt>
      <trkpt lat="48.69665" lon="2.05359">
        <ele>152</ele>
        <time>2026-02-26T09:03:58Z</time>
      </trkpt>
      <trkpt lat="48.69662" lon="2.0536">
        <ele>152</ele>
        <time>2026-02-26T09:04:01Z</time>
      </trkpt>
      <trkpt lat="48.6966" lon="2.05363">
        <ele>151</ele>
        <time>2026-02-26T09:04:04Z</time>
      </trkpt>
      <trkpt lat="48.69657" lon="2.05366">
        <ele>152</ele>
        <time>2026-02-26T09:04:08Z</time>
      </trkpt>
      <trkpt lat="48.69654" lon="2.05368">
        <ele>152</ele>
        <time>2026-02-26T09:04:11Z</time>
      </trkpt>
      <trkpt lat="48.69651" lon="2.0537">
        <ele>152</ele>
        <time>2026-02-26T09:04:14Z</time>
      </trkpt>
      <trkpt lat="48.69648" lon="2.05372">
        <ele>153</ele>
        <time>2026-02-26T09:04:17Z</time>
      </trkpt>
      <trkpt lat="48.69645" lon="2.05375">
        <ele>153</ele>
        <time>2026-02-26T09:04:22Z</time>
      </trkpt>
      <trkpt lat="48.69642" lon="2.05376">
        <ele>154</ele>
        <time>2026-02-26T09:04:27Z</time>
      </trkpt>
      <trkpt lat="48.6964" lon="2.05379">
        <ele>154</ele>
        <time>2026-02-26T09:04:32Z</time>
      </trkpt>
      <trkpt lat="48.69637" lon="2.0538">
        <ele>154</ele>
        <time>2026-02-26T09:04:35Z</time>
      </trkpt>
      <trkpt lat="48.69633" lon="2.0538">
        <ele>154</ele>
        <time>2026-02-26T09:04:38Z</time>
      </trkpt>
      <trkpt lat="48.69629" lon="2.05379">
        <ele>153</ele>
        <time>2026-02-26T09:04:41Z</time>
      </trkpt>
      <trkpt lat="48.69625" lon="2.05377">
        <ele>154</ele>
        <time>2026-02-26T09:04:47Z</time>
      </trkpt>
      <trkpt lat="48.69621" lon="2.05376">
        <ele>154</ele>
        <time>2026-02-26T09:04:50Z</time>
      </trkpt>
      <trkpt lat="48.69617" lon="2.05377">
        <ele>154</ele>
        <time>2026-02-26T09:04:55Z</time>
      </trkpt>
      <trkpt lat="48.69614" lon="2.05375">
        <ele>153</ele>
        <time>2026-02-26T09:05:00Z</time>
      </trkpt>
      <trkpt lat="48.69611" lon="2.05375">
        <ele>152</ele>
        <time>2026-02-26T09:05:04Z</time>
      </trkpt>
      <trkpt lat="48.69608" lon="2.05374">
        <ele>152</ele>
        <time>2026-02-26T09:05:09Z</time>
      </trkpt>
      <trkpt lat="48.69605" lon="2.05373">
        <ele>151</ele>
        <time>2026-02-26T09:05:13Z</time>
      </trkpt>
      <trkpt lat="48.69602" lon="2.05373">
        <ele>151</ele>
        <time>2026-02-26T09:05:16Z</time>
      </trkpt>
      <trkpt lat="48.69599" lon="2.05373">
        <ele>150</ele>
        <time>2026-02-26T09:05:19Z</time>
      </trkpt>
      <trkpt lat="48.69595" lon="2.05374">
        <ele>151</ele>
        <time>2026-02-26T09:05:25Z</time>
      </trkpt>
      <trkpt lat="48.69592" lon="2.05374">
        <ele>151</ele>
        <time>2026-02-26T09:05:29Z</time>
      </trkpt>
      <trkpt lat="48.69588" lon="2.05374">
        <ele>152</ele>
        <time>2026-02-26T09:05:33Z</time>
      </trkpt>
      <trkpt lat="48.69585" lon="2.05373">
        <ele>152</ele>
        <time>2026-02-26T09:05:37Z</time>
      </trkpt>
      <trkpt lat="48.69582" lon="2.05372">
        <ele>152</ele>
        <time>2026-02-26T09:05:40Z</time>
      </trkpt>
      <trkpt lat="48.69579" lon="2.05372">
        <ele>153</ele>
        <time>2026-02-26T09:05:44Z</time>
      </trkpt>
      <trkpt lat="48.69577" lon="2.05372">
        <ele>153</ele>
        <time>2026-02-26T09:05:50Z</time>
      </trkpt>
      <trkpt lat="48.69574" lon="2.05372">
        <ele>154</ele>
        <time>2026-02-26T09:05:57Z</time>
      </trkpt>
      <trkpt lat="48.6957" lon="2.05371">
        <ele>154</ele>
        <time>2026-02-26T09:06:00Z</time>
      </trkpt>
      <trkpt lat="48.69567" lon="2.0537">
        <ele>155</ele>
        <time>2026-02-26T09:06:03Z</time>
      </trkpt>
      <trkpt lat="48.69564" lon="2.05369">
        <ele>155</ele>
        <time>2026-02-26T09:06:06Z</time>
      </trkpt>
      <trkpt lat="48.69561" lon="2.05368">
        <ele>156</ele>
        <time>2026-02-26T09:06:09Z</time>
      </trkpt>
      <trkpt lat="48.69559" lon="2.05366">
        <ele>156</ele>
        <time>2026-02-26T09:06:13Z</time>
      </trkpt>
      <trkpt lat="48.69556" lon="2.05363">
        <ele>157</ele>
        <time>2026-02-26T09:06:19Z</time>
      </trkpt>
      <trkpt lat="48.69552" lon="2.05361">
        <ele>157</ele>
        <time>2026-02-26T09:06:22Z</time>
      </trkpt>
      <trkpt lat="48.69549" lon="2.0536">
        <ele>158</ele>
        <time>2026-02-26T09:06:25Z</time>
      </trkpt>
      <trkpt lat="48.69547" lon="2.05358">
        <ele>159</ele>
        <time>2026-02-26T09:06:28Z</time>
      </trkpt>
      <trkpt lat="48.69544" lon="2.05356">
        <ele>159</ele>
        <time>2026-02-26T09:06:31Z</time>
      </trkpt>
      <trkpt lat="48.69541" lon="2.05354">
        <ele>160</ele>
        <time>2026-02-26T09:06:35Z</time>
      </trkpt>
      <trkpt lat="48.69539" lon="2.05351">
        <ele>161</ele>
        <time>2026-02-26T09:06:38Z</time>
      </trkpt>
      <trkpt lat="48.69536" lon="2.05349">
        <ele>161</ele>
        <time>2026-02-26T09:06:41Z</time>
      </trkpt>
      <trkpt lat="48.69534" lon="2.05346">
        <ele>162</ele>
        <time>2026-02-26T09:06:44Z</time>
      </trkpt>
      <trkpt lat="48.69531" lon="2.05343">
        <ele>162</ele>
        <time>2026-02-26T09:06:46Z</time>
      </trkpt>
      <trkpt lat="48.69529" lon="2.0534">
        <ele>163</ele>
        <time>2026-02-26T09:06:49Z</time>
      </trkpt>
      <trkpt lat="48.69527" lon="2.05337">
        <ele>163</ele>
        <time>2026-02-26T09:06:52Z</time>
      </trkpt>
      <trkpt lat="48.69525" lon="2.05333">
        <ele>163</ele>
        <time>2026-02-26T09:06:56Z</time>
      </trkpt>
      <trkpt lat="48.69523" lon="2.05329">
        <ele>161</ele>
        <time>2026-02-26T09:07:01Z</time>
      </trkpt>
      <trkpt lat="48.69521" lon="2.05325">
        <ele>160</ele>
        <time>2026-02-26T09:07:04Z</time>
      </trkpt>
      <trkpt lat="48.69519" lon="2.0532">
        <ele>160</ele>
        <time>2026-02-26T09:07:07Z</time>
      </trkpt>
      <trkpt lat="48.69517" lon="2.05317">
        <ele>159</ele>
        <time>2026-02-26T09:07:09Z</time>
      </trkpt>
      <trkpt lat="48.69514" lon="2.05314">
        <ele>160</ele>
        <time>2026-02-26T09:07:12Z</time>
      </trkpt>
      <trkpt lat="48.69513" lon="2.0531">
        <ele>160</ele>
        <time>2026-02-26T09:07:16Z</time>
      </trkpt>
      <trkpt lat="48.69511" lon="2.05306">
        <ele>160</ele>
        <time>2026-02-26T09:07:19Z</time>
      </trkpt>
      <trkpt lat="48.6951" lon="2.05302">
        <ele>160</ele>
        <time>2026-02-26T09:07:22Z</time>
      </trkpt>
      <trkpt lat="48.69508" lon="2.05298">
        <ele>159</ele>
        <time>2026-02-26T09:07:26Z</time>
      </trkpt>
      <trkpt lat="48.69507" lon="2.05293">
        <ele>156</ele>
        <time>2026-02-26T09:07:29Z</time>
      </trkpt>
      <trkpt lat="48.69507" lon="2.05288">
        <ele>154</ele>
        <time>2026-02-26T09:07:33Z</time>
      </trkpt>
      <trkpt lat="48.69506" lon="2.05284">
        <ele>153</ele>
        <time>2026-02-26T09:07:37Z</time>
      </trkpt>
      <trkpt lat="48.69504" lon="2.0528">
        <ele>153</ele>
        <time>2026-02-26T09:07:40Z</time>
      </trkpt>
      <trkpt lat="48.69503" lon="2.05276">
        <ele>154</ele>
        <time>2026-02-26T09:07:43Z</time>
      </trkpt>
      <trkpt lat="48.69501" lon="2.05272">
        <ele>155</ele>
        <time>2026-02-26T09:07:45Z</time>
      </trkpt>
      <trkpt lat="48.695" lon="2.05267">
        <ele>155</ele>
        <time>2026-02-26T09:07:47Z</time>
      </trkpt>
      <trkpt lat="48.69499" lon="2.05263">
        <ele>155</ele>
        <time>2026-02-26T09:07:49Z</time>
      </trkpt>
      <trkpt lat="48.69498" lon="2.05258">
        <ele>155</ele>
        <time>2026-02-26T09:07:53Z</time>
      </trkpt>
      <trkpt lat="48.69496" lon="2.05253">
        <ele>156</ele>
        <time>2026-02-26T09:07:58Z</time>
      </trkpt>
      <trkpt lat="48.69495" lon="2.05249">
        <ele>156</ele>
        <time>2026-02-26T09:08:01Z</time>
      </trkpt>
      <trkpt lat="48.69493" lon="2.05245">
        <ele>157</ele>
        <time>2026-02-26T09:08:04Z</time>
      </trkpt>
      <trkpt lat="48.69491" lon="2.05241">
        <ele>157</ele>
        <time>2026-02-26T09:08:07Z</time>
      </trkpt>
      <trkpt lat="48.69489" lon="2.05237">
        <ele>158</ele>
        <time>2026-02-26T09:08:10Z</time>
      </trkpt>
      <trkpt lat="48.69486" lon="2.05234">
        <ele>159</ele>
        <time>2026-02-26T09:08:14Z</time>
      </trkpt>
      <trkpt lat="48.69484" lon="2.05231">
        <ele>160</ele>
        <time>2026-02-26T09:08:20Z</time>
      </trkpt>
      <trkpt lat="48.6948" lon="2.05228">
        <ele>161</ele>
        <time>2026-02-26T09:08:26Z</time>
      </trkpt>
      <trkpt lat="48.69478" lon="2.05223">
        <ele>160</ele>
        <time>2026-02-26T09:08:30Z</time>
      </trkpt>
      <trkpt lat="48.69475" lon="2.0522">
        <ele>160</ele>
        <time>2026-02-26T09:08:33Z</time>
      </trkpt>
      <trkpt lat="48.69473" lon="2.05216">
        <ele>160</ele>
        <time>2026-02-26T09:08:36Z</time>
      </trkpt>
      <trkpt lat="48.69471" lon="2.05212">
        <ele>160</ele>
        <time>2026-02-26T09:08:39Z</time>
      </trkpt>
      <trkpt lat="48.6947" lon="2.05207">
        <ele>160</ele>
        <time>2026-02-26T09:08:42Z</time>
      </trkpt>
      <trkpt lat="48.69468" lon="2.05203">
        <ele>161</ele>
        <time>2026-02-26T09:08:45Z</time>
      </trkpt>
      <trkpt lat="48.69467" lon="2.05199">
        <ele>160</ele>
        <time>2026-02-26T09:08:48Z</time>
      </trkpt>
      <trkpt lat="48.69465" lon="2.05195">
        <ele>160</ele>
        <time>2026-02-26T09:08:51Z</time>
      </trkpt>
      <trkpt lat="48.69465" lon="2.0519">
        <ele>160</ele>
        <time>2026-02-26T09:08:54Z</time>
      </trkpt>
      <trkpt lat="48.69464" lon="2.05186">
        <ele>161</ele>
        <time>2026-02-26T09:08:58Z</time>
      </trkpt>
      <trkpt lat="48.69463" lon="2.05182">
        <ele>161</ele>
        <time>2026-02-26T09:09:02Z</time>
      </trkpt>
      <trkpt lat="48.69461" lon="2.05178">
        <ele>161</ele>
        <time>2026-02-26T09:09:05Z</time>
      </trkpt>
      <trkpt lat="48.69459" lon="2.05175">
        <ele>161</ele>
        <time>2026-02-26T09:09:08Z</time>
      </trkpt>
      <trkpt lat="48.69458" lon="2.0517">
        <ele>160</ele>
        <time>2026-02-26T09:09:12Z</time>
      </trkpt>
      <trkpt lat="48.69456" lon="2.05167">
        <ele>160</ele>
        <time>2026-02-26T09:09:15Z</time>
      </trkpt>
      <trkpt lat="48.69454" lon="2.05163">
        <ele>160</ele>
        <time>2026-02-26T09:09:18Z</time>
      </trkpt>
      <trkpt lat="48.69452" lon="2.05159">
        <ele>161</ele>
        <time>2026-02-26T09:09:21Z</time>
      </trkpt>
      <trkpt lat="48.6945" lon="2.05155">
        <ele>161</ele>
        <time>2026-02-26T09:09:24Z</time>
      </trkpt>
      <trkpt lat="48.69448" lon="2.05151">
        <ele>161</ele>
        <time>2026-02-26T09:09:27Z</time>
      </trkpt>
      <trkpt lat="48.69446" lon="2.05147">
        <ele>161</ele>
        <time>2026-02-26T09:09:30Z</time>
      </trkpt>
      <trkpt lat="48.69444" lon="2.05143">
        <ele>161</ele>
        <time>2026-02-26T09:09:33Z</time>
      </trkpt>
      <trkpt lat="48.69442" lon="2.0514">
        <ele>161</ele>
        <time>2026-02-26T09:09:35Z</time>
      </trkpt>
      <trkpt lat="48.6944" lon="2.05136">
        <ele>161</ele>
        <time>2026-02-26T09:09:38Z</time>
      </trkpt>
      <trkpt lat="48.69438" lon="2.05132">
        <ele>161</ele>
        <time>2026-02-26T09:09:42Z</time>
      </trkpt>
      <trkpt lat="48.69437" lon="2.05128">
        <ele>162</ele>
        <time>2026-02-26T09:09:46Z</time>
      </trkpt>
      <trkpt lat="48.69435" lon="2.05124">
        <ele>161</ele>
        <time>2026-02-26T09:09:50Z</time>
      </trkpt>
      <trkpt lat="48.69434" lon="2.05119">
        <ele>160</ele>
        <time>2026-02-26T09:09:53Z</time>
      </trkpt>
      <trkpt lat="48.69432" lon="2.05115">
        <ele>159</ele>
        <time>2026-02-26T09:09:56Z</time>
      </trkpt>
      <trkpt lat="48.69431" lon="2.05111">
        <ele>159</ele>
        <time>2026-02-26T09:09:59Z</time>
      </trkpt>
      <trkpt lat="48.6943" lon="2.05106">
        <ele>158</ele>
        <time>2026-02-26T09:10:03Z</time>
      </trkpt>
      <trkpt lat="48.69428" lon="2.05102">
        <ele>159</ele>
        <time>2026-02-26T09:10:06Z</time>
      </trkpt>
      <trkpt lat="48.69427" lon="2.05098">
        <ele>160</ele>
        <time>2026-02-26T09:10:10Z</time>
      </trkpt>
      <trkpt lat="48.69425" lon="2.05092">
        <ele>161</ele>
        <time>2026-02-26T09:10:13Z</time>
      </trkpt>
      <trkpt lat="48.69423" lon="2.05088">
        <ele>162</ele>
        <time>2026-02-26T09:10:16Z</time>
      </trkpt>
      <trkpt lat="48.69423" lon="2.05083">
        <ele>159</ele>
        <time>2026-02-26T09:10:18Z</time>
      </trkpt>
      <trkpt lat="48.69424" lon="2.05079">
        <ele>155</ele>
        <time>2026-02-26T09:10:19Z</time>
      </trkpt>
      <trkpt lat="48.69423" lon="2.05075">
        <ele>154</ele>
        <time>2026-02-26T09:10:24Z</time>
      </trkpt>
      <trkpt lat="48.69421" lon="2.05071">
        <ele>153</ele>
        <time>2026-02-26T09:10:28Z</time>
      </trkpt>
      <trkpt lat="48.69419" lon="2.05066">
        <ele>153</ele>
        <time>2026-02-26T09:10:31Z</time>
      </trkpt>
      <trkpt lat="48.69417" lon="2.05062">
        <ele>153</ele>
        <time>2026-02-26T09:10:34Z</time>
      </trkpt>
      <trkpt lat="48.69416" lon="2.05058">
        <ele>154</ele>
        <time>2026-02-26T09:10:37Z</time>
      </trkpt>
      <trkpt lat="48.69414" lon="2.05054">
        <ele>155</ele>
        <time>2026-02-26T09:10:40Z</time>
      </trkpt>
      <trkpt lat="48.69412" lon="2.0505">
        <ele>155</ele>
        <time>2026-02-26T09:10:44Z</time>
      </trkpt>
      <trkpt lat="48.6941" lon="2.05047">
        <ele>156</ele>
        <time>2026-02-26T09:10:47Z</time>
      </trkpt>
      <trkpt lat="48.69409" lon="2.05042">
        <ele>156</ele>
        <time>2026-02-26T09:10:51Z</time>
      </trkpt>
      <trkpt lat="48.69407" lon="2.05039">
        <ele>156</ele>
        <time>2026-02-26T09:10:53Z</time>
      </trkpt>
      <trkpt lat="48.69406" lon="2.05035">
        <ele>155</ele>
        <time>2026-02-26T09:10:56Z</time>
      </trkpt>
      <trkpt lat="48.69404" lon="2.05032">
        <ele>155</ele>
        <time>2026-02-26T09:11:00Z</time>
      </trkpt>
      <trkpt lat="48.69401" lon="2.0503">
        <ele>154</ele>
        <time>2026-02-26T09:11:02Z</time>
      </trkpt>
      <trkpt lat="48.69398" lon="2.05026">
        <ele>154</ele>
        <time>2026-02-26T09:11:05Z</time>
      </trkpt>
      <trkpt lat="48.69398" lon="2.05022">
        <ele>154</ele>
        <time>2026-02-26T09:11:07Z</time>
      </trkpt>
      <trkpt lat="48.69397" lon="2.05017">
        <ele>154</ele>
        <time>2026-02-26T09:11:10Z</time>
      </trkpt>
      <trkpt lat="48.69396" lon="2.05012">
        <ele>154</ele>
        <time>2026-02-26T09:11:13Z</time>
      </trkpt>
      <trkpt lat="48.69395" lon="2.05008">
        <ele>154</ele>
        <time>2026-02-26T09:11:16Z</time>
      </trkpt>
      <trkpt lat="48.69394" lon="2.05003">
        <ele>155</ele>
        <time>2026-02-26T09:11:19Z</time>
      </trkpt>
      <trkpt lat="48.69393" lon="2.04998">
        <ele>155</ele>
        <time>2026-02-26T09:11:22Z</time>
      </trkpt>
      <trkpt lat="48.69391" lon="2.04994">
        <ele>156</ele>
        <time>2026-02-26T09:11:26Z</time>
      </trkpt>
      <trkpt lat="48.6939" lon="2.04989">
        <ele>156</ele>
        <time>2026-02-26T09:11:29Z</time>
      </trkpt>
      <trkpt lat="48.69389" lon="2.04984">
        <ele>156</ele>
        <time>2026-02-26T09:11:32Z</time>
      </trkpt>
      <trkpt lat="48.69388" lon="2.0498">
        <ele>156</ele>
        <time>2026-02-26T09:11:35Z</time>
      </trkpt>
      <trkpt lat="48.69387" lon="2.04975">
        <ele>156</ele>
        <time>2026-02-26T09:11:38Z</time>
      </trkpt>
      <trkpt lat="48.69386" lon="2.04971">
        <ele>157</ele>
        <time>2026-02-26T09:11:41Z</time>
      </trkpt>
      <trkpt lat="48.69386" lon="2.04966">
        <ele>157</ele>
        <time>2026-02-26T09:11:44Z</time>
      </trkpt>
      <trkpt lat="48.69386" lon="2.04961">
        <ele>157</ele>
        <time>2026-02-26T09:11:47Z</time>
      </trkpt>
      <trkpt lat="48.69387" lon="2.04956">
        <ele>156</ele>
        <time>2026-02-26T09:11:51Z</time>
      </trkpt>
      <trkpt lat="48.69386" lon="2.04952">
        <ele>156</ele>
        <time>2026-02-26T09:11:54Z</time>
      </trkpt>
      <trkpt lat="48.69387" lon="2.04947">
        <ele>156</ele>
        <time>2026-02-26T09:11:57Z</time>
      </trkpt>
      <trkpt lat="48.69387" lon="2.04942">
        <ele>156</ele>
        <time>2026-02-26T09:12:00Z</time>
      </trkpt>
      <trkpt lat="48.69388" lon="2.04937">
        <ele>156</ele>
        <time>2026-02-26T09:12:02Z</time>
      </trkpt>
      <trkpt lat="48.69388" lon="2.04932">
        <ele>156</ele>
        <time>2026-02-26T09:12:05Z</time>
      </trkpt>
      <trkpt lat="48.69388" lon="2.04927">
        <ele>156</ele>
        <time>2026-02-26T09:12:09Z</time>
      </trkpt>
      <trkpt lat="48.69389" lon="2.04922">
        <ele>156</ele>
        <time>2026-02-26T09:12:12Z</time>
      </trkpt>
      <trkpt lat="48.69389" lon="2.04918">
        <ele>156</ele>
        <time>2026-02-26T09:12:15Z</time>
      </trkpt>
      <trkpt lat="48.69389" lon="2.04913">
        <ele>156</ele>
        <time>2026-02-26T09:12:18Z</time>
      </trkpt>
      <trkpt lat="48.69389" lon="2.04909">
        <ele>156</ele>
        <time>2026-02-26T09:12:23Z</time>
      </trkpt>
      <trkpt lat="48.6939" lon="2.04904">
        <ele>156</ele>
        <time>2026-02-26T09:12:26Z</time>
      </trkpt>
      <trkpt lat="48.6939" lon="2.04899">
        <ele>156</ele>
        <time>2026-02-26T09:12:29Z</time>
      </trkpt>
      <trkpt lat="48.6939" lon="2.04894">
        <ele>155</ele>
        <time>2026-02-26T09:12:32Z</time>
      </trkpt>
      <trkpt lat="48.69389" lon="2.04889">
        <ele>155</ele>
        <time>2026-02-26T09:12:35Z</time>
      </trkpt>
      <trkpt lat="48.69388" lon="2.04884">
        <ele>155</ele>
        <time>2026-02-26T09:12:38Z</time>
      </trkpt>
      <trkpt lat="48.69387" lon="2.04879">
        <ele>156</ele>
        <time>2026-02-26T09:12:41Z</time>
      </trkpt>
      <trkpt lat="48.69387" lon="2.04875">
        <ele>156</ele>
        <time>2026-02-26T09:12:45Z</time>
      </trkpt>
      <trkpt lat="48.69387" lon="2.0487">
        <ele>156</ele>
        <time>2026-02-26T09:12:48Z</time>
      </trkpt>
      <trkpt lat="48.69387" lon="2.04866">
        <ele>155</ele>
        <time>2026-02-26T09:12:51Z</time>
      </trkpt>
      <trkpt lat="48.69388" lon="2.04862">
        <ele>154</ele>
        <time>2026-02-26T09:12:54Z</time>
      </trkpt>
      <trkpt lat="48.69388" lon="2.04857">
        <ele>153</ele>
        <time>2026-02-26T09:12:57Z</time>
      </trkpt>
      <trkpt lat="48.69388" lon="2.04853">
        <ele>153</ele>
        <time>2026-02-26T09:13:00Z</time>
      </trkpt>
      <trkpt lat="48.69388" lon="2.04848">
        <ele>153</ele>
        <time>2026-02-26T09:13:03Z</time>
      </trkpt>
      <trkpt lat="48.69388" lon="2.04843">
        <ele>153</ele>
        <time>2026-02-26T09:13:06Z</time>
      </trkpt>
      <trkpt lat="48.69388" lon="2.04839">
        <ele>153</ele>
        <time>2026-02-26T09:13:09Z</time>
      </trkpt>
      <trkpt lat="48.69387" lon="2.04833">
        <ele>153</ele>
        <time>2026-02-26T09:13:12Z</time>
      </trkpt>
      <trkpt lat="48.69387" lon="2.04828">
        <ele>153</ele>
        <time>2026-02-26T09:13:15Z</time>
      </trkpt>
      <trkpt lat="48.69387" lon="2.04823">
        <ele>153</ele>
        <time>2026-02-26T09:13:18Z</time>
      </trkpt>
      <trkpt lat="48.69386" lon="2.04819">
        <ele>153</ele>
        <time>2026-02-26T09:13:21Z</time>
      </trkpt>
      <trkpt lat="48.69385" lon="2.04814">
        <ele>153</ele>
        <time>2026-02-26T09:13:24Z</time>
      </trkpt>
      <trkpt lat="48.69385" lon="2.04809">
        <ele>153</ele>
        <time>2026-02-26T09:13:27Z</time>
      </trkpt>
      <trkpt lat="48.69385" lon="2.04804">
        <ele>153</ele>
        <time>2026-02-26T09:13:30Z</time>
      </trkpt>
      <trkpt lat="48.69385" lon="2.04798">
        <ele>153</ele>
        <time>2026-02-26T09:13:33Z</time>
      </trkpt>
      <trkpt lat="48.69386" lon="2.04794">
        <ele>154</ele>
        <time>2026-02-26T09:13:36Z</time>
      </trkpt>
      <trkpt lat="48.69385" lon="2.04789">
        <ele>155</ele>
        <time>2026-02-26T09:13:39Z</time>
      </trkpt>
      <trkpt lat="48.69385" lon="2.04784">
        <ele>156</ele>
        <time>2026-02-26T09:13:42Z</time>
      </trkpt>
      <trkpt lat="48.69385" lon="2.0478">
        <ele>156</ele>
        <time>2026-02-26T09:13:44Z</time>
      </trkpt>
      <trkpt lat="48.69385" lon="2.04775">
        <ele>156</ele>
        <time>2026-02-26T09:13:47Z</time>
      </trkpt>
      <trkpt lat="48.69385" lon="2.0477">
        <ele>157</ele>
        <time>2026-02-26T09:13:50Z</time>
      </trkpt>
      <trkpt lat="48.69385" lon="2.04765">
        <ele>157</ele>
        <time>2026-02-26T09:13:53Z</time>
      </trkpt>
      <trkpt lat="48.69385" lon="2.0476">
        <ele>158</ele>
        <time>2026-02-26T09:13:56Z</time>
      </trkpt>
      <trkpt lat="48.69386" lon="2.04756">
        <ele>158</ele>
        <time>2026-02-26T09:13:59Z</time>
      </trkpt>
      <trkpt lat="48.69386" lon="2.04751">
        <ele>158</ele>
        <time>2026-02-26T09:14:02Z</time>
      </trkpt>
      <trkpt lat="48.69386" lon="2.04747">
        <ele>158</ele>
        <time>2026-02-26T09:14:05Z</time>
      </trkpt>
      <trkpt lat="48.69386" lon="2.04742">
        <ele>159</ele>
        <time>2026-02-26T09:14:08Z</time>
      </trkpt>
      <trkpt lat="48.69386" lon="2.04737">
        <ele>159</ele>
        <time>2026-02-26T09:14:11Z</time>
      </trkpt>
      <trkpt lat="48.69385" lon="2.04733">
        <ele>159</ele>
        <time>2026-02-26T09:14:14Z</time>
      </trkpt>
      <trkpt lat="48.69386" lon="2.04728">
        <ele>160</ele>
        <time>2026-02-26T09:14:17Z</time>
      </trkpt>
      <trkpt lat="48.69386" lon="2.04723">
        <ele>160</ele>
        <time>2026-02-26T09:14:20Z</time>
      </trkpt>
      <trkpt lat="48.69387" lon="2.04719">
        <ele>160</ele>
        <time>2026-02-26T09:14:23Z</time>
      </trkpt>
      <trkpt lat="48.69387" lon="2.04714">
        <ele>160</ele>
        <time>2026-02-26T09:14:26Z</time>
      </trkpt>
      <trkpt lat="48.69387" lon="2.04709">
        <ele>160</ele>
        <time>2026-02-26T09:14:30Z</time>
      </trkpt>
      <trkpt lat="48.69387" lon="2.04704">
        <ele>160</ele>
        <time>2026-02-26T09:14:33Z</time>
      </trkpt>
      <trkpt lat="48.69388" lon="2.047">
        <ele>160</ele>
        <time>2026-02-26T09:14:36Z</time>
      </trkpt>
      <trkpt lat="48.69388" lon="2.04696">
        <ele>160</ele>
        <time>2026-02-26T09:14:39Z</time>
      </trkpt>
      <trkpt lat="48.69389" lon="2.04691">
        <ele>159</ele>
        <time>2026-02-26T09:14:43Z</time>
      </trkpt>
      <trkpt lat="48.69389" lon="2.04686">
        <ele>159</ele>
        <time>2026-02-26T09:14:46Z</time>
      </trkpt>
      <trkpt lat="48.6939" lon="2.04682">
        <ele>159</ele>
        <time>2026-02-26T09:14:49Z</time>
      </trkpt>
      <trkpt lat="48.69391" lon="2.04677">
        <ele>159</ele>
        <time>2026-02-26T09:14:52Z</time>
      </trkpt>
      <trkpt lat="48.69392" lon="2.04672">
        <ele>157</ele>
        <time>2026-02-26T09:14:57Z</time>
      </trkpt>
      <trkpt lat="48.69393" lon="2.04667">
        <ele>157</ele>
        <time>2026-02-26T09:15:00Z</time>
      </trkpt>
      <trkpt lat="48.69393" lon="2.04662">
        <ele>157</ele>
        <time>2026-02-26T09:15:03Z</time>
      </trkpt>
      <trkpt lat="48.69394" lon="2.04657">
        <ele>157</ele>
        <time>2026-02-26T09:15:06Z</time>
      </trkpt>
      <trkpt lat="48.69395" lon="2.04652">
        <ele>157</ele>
        <time>2026-02-26T09:15:09Z</time>
      </trkpt>
      <trkpt lat="48.69395" lon="2.04647">
        <ele>158</ele>
        <time>2026-02-26T09:15:12Z</time>
      </trkpt>
      <trkpt lat="48.69396" lon="2.04642">
        <ele>158</ele>
        <time>2026-02-26T09:15:15Z</time>
      </trkpt>
      <trkpt lat="48.69396" lon="2.04638">
        <ele>158</ele>
        <time>2026-02-26T09:15:18Z</time>
      </trkpt>
      <trkpt lat="48.69397" lon="2.04633">
        <ele>158</ele>
        <time>2026-02-26T09:15:21Z</time>
      </trkpt>
      <trkpt lat="48.69397" lon="2.04628">
        <ele>158</ele>
        <time>2026-02-26T09:15:24Z</time>
      </trkpt>
      <trkpt lat="48.69398" lon="2.04624">
        <ele>154</ele>
        <time>2026-02-26T09:15:26Z</time>
      </trkpt>
      <trkpt lat="48.69398" lon="2.0462">
        <ele>154</ele>
        <time>2026-02-26T09:15:27Z</time>
      </trkpt>
      <trkpt lat="48.69398" lon="2.04615">
        <ele>156</ele>
        <time>2026-02-26T09:15:30Z</time>
      </trkpt>
      <trkpt lat="48.69398" lon="2.04611">
        <ele>157</ele>
        <time>2026-02-26T09:15:33Z</time>
      </trkpt>
      <trkpt lat="48.694" lon="2.04607">
        <ele>156</ele>
        <time>2026-02-26T09:15:36Z</time>
      </trkpt>
      <trkpt lat="48.69402" lon="2.04603">
        <ele>156</ele>
        <time>2026-02-26T09:15:40Z</time>
      </trkpt>
      <trkpt lat="48.69402" lon="2.04598">
        <ele>155</ele>
        <time>2026-02-26T09:15:43Z</time>
      </trkpt>
      <trkpt lat="48.69403" lon="2.04593">
        <ele>156</ele>
        <time>2026-02-26T09:15:46Z</time>
      </trkpt>
      <trkpt lat="48.69404" lon="2.04588">
        <ele>156</ele>
        <time>2026-02-26T09:15:48Z</time>
      </trkpt>
      <trkpt lat="48.69404" lon="2.04583">
        <ele>156</ele>
        <time>2026-02-26T09:15:50Z</time>
      </trkpt>
      <trkpt lat="48.69405" lon="2.04579">
        <ele>156</ele>
        <time>2026-02-26T09:15:53Z</time>
      </trkpt>
      <trkpt lat="48.69405" lon="2.04574">
        <ele>157</ele>
        <time>2026-02-26T09:15:56Z</time>
      </trkpt>
      <trkpt lat="48.69406" lon="2.04569">
        <ele>157</ele>
        <time>2026-02-26T09:16:00Z</time>
      </trkpt>
      <trkpt lat="48.69406" lon="2.04565">
        <ele>157</ele>
        <time>2026-02-26T09:16:03Z</time>
      </trkpt>
      <trkpt lat="48.69405" lon="2.0456">
        <ele>157</ele>
        <time>2026-02-26T09:16:06Z</time>
      </trkpt>
      <trkpt lat="48.69405" lon="2.04555">
        <ele>157</ele>
        <time>2026-02-26T09:16:09Z</time>
      </trkpt>
      <trkpt lat="48.69405" lon="2.0455">
        <ele>157</ele>
        <time>2026-02-26T09:16:12Z</time>
      </trkpt>
      <trkpt lat="48.69406" lon="2.04547">
        <ele>156</ele>
        <time>2026-02-26T09:16:16Z</time>
      </trkpt>
      <trkpt lat="48.69405" lon="2.04544">
        <ele>155</ele>
        <time>2026-02-26T09:16:19Z</time>
      </trkpt>
      <trkpt lat="48.69405" lon="2.04539">
        <ele>155</ele>
        <time>2026-02-26T09:16:22Z</time>
      </trkpt>
      <trkpt lat="48.69405" lon="2.04535">
        <ele>155</ele>
        <time>2026-02-26T09:16:24Z</time>
      </trkpt>
      <trkpt lat="48.69405" lon="2.0453">
        <ele>155</ele>
        <time>2026-02-26T09:16:27Z</time>
      </trkpt>
      <trkpt lat="48.69405" lon="2.04525">
        <ele>155</ele>
        <time>2026-02-26T09:16:30Z</time>
      </trkpt>
      <trkpt lat="48.69405" lon="2.0452">
        <ele>156</ele>
        <time>2026-02-26T09:16:33Z</time>
      </trkpt>
      <trkpt lat="48.69405" lon="2.04515">
        <ele>157</ele>
        <time>2026-02-26T09:16:36Z</time>
      </trkpt>
      <trkpt lat="48.69405" lon="2.04511">
        <ele>157</ele>
        <time>2026-02-26T09:16:39Z</time>
      </trkpt>
      <trkpt lat="48.69406" lon="2.04506">
        <ele>157</ele>
        <time>2026-02-26T09:16:42Z</time>
      </trkpt>
      <trkpt lat="48.69406" lon="2.04502">
        <ele>157</ele>
        <time>2026-02-26T09:16:45Z</time>
      </trkpt>
      <trkpt lat="48.69406" lon="2.04497">
        <ele>157</ele>
        <time>2026-02-26T09:16:48Z</time>
      </trkpt>
      <trkpt lat="48.69406" lon="2.04492">
        <ele>157</ele>
        <time>2026-02-26T09:16:51Z</time>
      </trkpt>
      <trkpt lat="48.69406" lon="2.04487">
        <ele>157</ele>
        <time>2026-02-26T09:16:54Z</time>
      </trkpt>
      <trkpt lat="48.69406" lon="2.04481">
        <ele>158</ele>
        <time>2026-02-26T09:16:57Z</time>
      </trkpt>
      <trkpt lat="48.69406" lon="2.04476">
        <ele>157</ele>
        <time>2026-02-26T09:17:00Z</time>
      </trkpt>
      <trkpt lat="48.69406" lon="2.04471">
        <ele>157</ele>
        <time>2026-02-26T09:17:04Z</time>
      </trkpt>
      <trkpt lat="48.69406" lon="2.04466">
        <ele>157</ele>
        <time>2026-02-26T09:17:07Z</time>
      </trkpt>
      <trkpt lat="48.69407" lon="2.04461">
        <ele>156</ele>
        <time>2026-02-26T09:17:10Z</time>
      </trkpt>
      <trkpt lat="48.69409" lon="2.04456">
        <ele>155</ele>
        <time>2026-02-26T09:17:12Z</time>
      </trkpt>
      <trkpt lat="48.6941" lon="2.04451">
        <ele>155</ele>
        <time>2026-02-26T09:17:14Z</time>
      </trkpt>
      <trkpt lat="48.69411" lon="2.04447">
        <ele>155</ele>
        <time>2026-02-26T09:17:17Z</time>
      </trkpt>
      <trkpt lat="48.6941" lon="2.04442">
        <ele>156</ele>
        <time>2026-02-26T09:17:21Z</time>
      </trkpt>
      <trkpt lat="48.6941" lon="2.04437">
        <ele>156</ele>
        <time>2026-02-26T09:17:24Z</time>
      </trkpt>
      <trkpt lat="48.69409" lon="2.04432">
        <ele>156</ele>
        <time>2026-02-26T09:17:27Z</time>
      </trkpt>
      <trkpt lat="48.69409" lon="2.04428">
        <ele>156</ele>
        <time>2026-02-26T09:17:30Z</time>
      </trkpt>
      <trkpt lat="48.69409" lon="2.04423">
        <ele>156</ele>
        <time>2026-02-26T09:17:33Z</time>
      </trkpt>
      <trkpt lat="48.6941" lon="2.04419">
        <ele>156</ele>
        <time>2026-02-26T09:17:37Z</time>
      </trkpt>
      <trkpt lat="48.6941" lon="2.04414">
        <ele>156</ele>
        <time>2026-02-26T09:17:41Z</time>
      </trkpt>
      <trkpt lat="48.6941" lon="2.04409">
        <ele>156</ele>
        <time>2026-02-26T09:17:44Z</time>
      </trkpt>
      <trkpt lat="48.6941" lon="2.04404">
        <ele>155</ele>
        <time>2026-02-26T09:17:48Z</time>
      </trkpt>
      <trkpt lat="48.6941" lon="2.04399">
        <ele>155</ele>
        <time>2026-02-26T09:17:51Z</time>
      </trkpt>
      <trkpt lat="48.69411" lon="2.04394">
        <ele>155</ele>
        <time>2026-02-26T09:17:54Z</time>
      </trkpt>
      <trkpt lat="48.69411" lon="2.04389">
        <ele>155</ele>
        <time>2026-02-26T09:17:58Z</time>
      </trkpt>
      <trkpt lat="48.69412" lon="2.04385">
        <ele>154</ele>
        <time>2026-02-26T09:18:01Z</time>
      </trkpt>
      <trkpt lat="48.69412" lon="2.0438">
        <ele>154</ele>
        <time>2026-02-26T09:18:04Z</time>
      </trkpt>
      <trkpt lat="48.69412" lon="2.04374">
        <ele>150</ele>
        <time>2026-02-26T09:18:06Z</time>
      </trkpt>
      <trkpt lat="48.69411" lon="2.04369">
        <ele>149</ele>
        <time>2026-02-26T09:18:10Z</time>
      </trkpt>
      <trkpt lat="48.69412" lon="2.04365">
        <ele>149</ele>
        <time>2026-02-26T09:18:15Z</time>
      </trkpt>
      <trkpt lat="48.69412" lon="2.04361">
        <ele>150</ele>
        <time>2026-02-26T09:18:18Z</time>
      </trkpt>
      <trkpt lat="48.69412" lon="2.04356">
        <ele>151</ele>
        <time>2026-02-26T09:18:20Z</time>
      </trkpt>
      <trkpt lat="48.69413" lon="2.04351">
        <ele>152</ele>
        <time>2026-02-26T09:18:23Z</time>
      </trkpt>
      <trkpt lat="48.69414" lon="2.04346">
        <ele>152</ele>
        <time>2026-02-26T09:18:25Z</time>
      </trkpt>
      <trkpt lat="48.69414" lon="2.04342">
        <ele>153</ele>
        <time>2026-02-26T09:18:27Z</time>
      </trkpt>
      <trkpt lat="48.69414" lon="2.04337">
        <ele>154</ele>
        <time>2026-02-26T09:18:31Z</time>
      </trkpt>
      <trkpt lat="48.69415" lon="2.04333">
        <ele>154</ele>
        <time>2026-02-26T09:18:34Z</time>
      </trkpt>
      <trkpt lat="48.69415" lon="2.04328">
        <ele>155</ele>
        <time>2026-02-26T09:18:38Z</time>
      </trkpt>
      <trkpt lat="48.69416" lon="2.04323">
        <ele>155</ele>
        <time>2026-02-26T09:18:41Z</time>
      </trkpt>
      <trkpt lat="48.69417" lon="2.04318">
        <ele>156</ele>
        <time>2026-02-26T09:18:44Z</time>
      </trkpt>
      <trkpt lat="48.69417" lon="2.04313">
        <ele>156</ele>
        <time>2026-02-26T09:18:47Z</time>
      </trkpt>
      <trkpt lat="48.69418" lon="2.04308">
        <ele>157</ele>
        <time>2026-02-26T09:18:52Z</time>
      </trkpt>
      <trkpt lat="48.69419" lon="2.04304">
        <ele>157</ele>
        <time>2026-02-26T09:18:55Z</time>
      </trkpt>
      <trkpt lat="48.6942" lon="2.04299">
        <ele>157</ele>
        <time>2026-02-26T09:18:58Z</time>
      </trkpt>
      <trkpt lat="48.6942" lon="2.04294">
        <ele>157</ele>
        <time>2026-02-26T09:19:01Z</time>
      </trkpt>
      <trkpt lat="48.6942" lon="2.04289">
        <ele>157</ele>
        <time>2026-02-26T09:19:04Z</time>
      </trkpt>
      <trkpt lat="48.6942" lon="2.04283">
        <ele>158</ele>
        <time>2026-02-26T09:19:07Z</time>
      </trkpt>
      <trkpt lat="48.6942" lon="2.04278">
        <ele>157</ele>
        <time>2026-02-26T09:19:10Z</time>
      </trkpt>
      <trkpt lat="48.69421" lon="2.04273">
        <ele>157</ele>
        <time>2026-02-26T09:19:13Z</time>
      </trkpt>
      <trkpt lat="48.69421" lon="2.04268">
        <ele>157</ele>
        <time>2026-02-26T09:19:17Z</time>
      </trkpt>
      <trkpt lat="48.69421" lon="2.04263">
        <ele>157</ele>
        <time>2026-02-26T09:19:20Z</time>
      </trkpt>
      <trkpt lat="48.69421" lon="2.04258">
        <ele>157</ele>
        <time>2026-02-26T09:19:23Z</time>
      </trkpt>
      <trkpt lat="48.69422" lon="2.04253">
        <ele>157</ele>
        <time>2026-02-26T09:19:26Z</time>
      </trkpt>
      <trkpt lat="48.69423" lon="2.04249">
        <ele>157</ele>
        <time>2026-02-26T09:19:29Z</time>
      </trkpt>
      <trkpt lat="48.69424" lon="2.04244">
        <ele>156</ele>
        <time>2026-02-26T09:19:32Z</time>
      </trkpt>
      <trkpt lat="48.69424" lon="2.0424">
        <ele>156</ele>
        <time>2026-02-26T09:19:35Z</time>
      </trkpt>
      <trkpt lat="48.69424" lon="2.04235">
        <ele>156</ele>
        <time>2026-02-26T09:19:38Z</time>
      </trkpt>
      <trkpt lat="48.69424" lon="2.04231">
        <ele>156</ele>
        <time>2026-02-26T09:19:42Z</time>
      </trkpt>
      <trkpt lat="48.69424" lon="2.04226">
        <ele>156</ele>
        <time>2026-02-26T09:19:46Z</time>
      </trkpt>
      <trkpt lat="48.69425" lon="2.04222">
        <ele>155</ele>
        <time>2026-02-26T09:19:49Z</time>
      </trkpt>
      <trkpt lat="48.69426" lon="2.04218">
        <ele>154</ele>
        <time>2026-02-26T09:19:52Z</time>
      </trkpt>
      <trkpt lat="48.69427" lon="2.04214">
        <ele>154</ele>
        <time>2026-02-26T09:19:55Z</time>
      </trkpt>
      <trkpt lat="48.69427" lon="2.04209">
        <ele>154</ele>
        <time>2026-02-26T09:19:59Z</time>
      </trkpt>
      <trkpt lat="48.69427" lon="2.04204">
        <ele>154</ele>
        <time>2026-02-26T09:20:02Z</time>
      </trkpt>
      <trkpt lat="48.69426" lon="2.04198">
        <ele>154</ele>
        <time>2026-02-26T09:20:05Z</time>
      </trkpt>
      <trkpt lat="48.69426" lon="2.04193">
        <ele>154</ele>
        <time>2026-02-26T09:20:08Z</time>
      </trkpt>
      <trkpt lat="48.69425" lon="2.04188">
        <ele>154</ele>
        <time>2026-02-26T09:20:11Z</time>
      </trkpt>
      <trkpt lat="48.69425" lon="2.04183">
        <ele>154</ele>
        <time>2026-02-26T09:20:16Z</time>
      </trkpt>
      <trkpt lat="48.69425" lon="2.04178">
        <ele>154</ele>
        <time>2026-02-26T09:20:19Z</time>
      </trkpt>
      <trkpt lat="48.69425" lon="2.04173">
        <ele>155</ele>
        <time>2026-02-26T09:20:23Z</time>
      </trkpt>
      <trkpt lat="48.69424" lon="2.04168">
        <ele>155</ele>
        <time>2026-02-26T09:20:25Z</time>
      </trkpt>
      <trkpt lat="48.69424" lon="2.04163">
        <ele>154</ele>
        <time>2026-02-26T09:20:28Z</time>
      </trkpt>
      <trkpt lat="48.69424" lon="2.04159">
        <ele>153</ele>
        <time>2026-02-26T09:20:30Z</time>
      </trkpt>
      <trkpt lat="48.69424" lon="2.04153">
        <ele>153</ele>
        <time>2026-02-26T09:20:33Z</time>
      </trkpt>
      <trkpt lat="48.69426" lon="2.04141">
        <ele>156</ele>
        <time>2026-02-26T09:20:39Z</time>
      </trkpt>
      <trkpt lat="48.69421" lon="2.0414">
        <ele>150</ele>
        <time>2026-02-26T09:20:41Z</time>
      </trkpt>
      <trkpt lat="48.6942" lon="2.04137">
        <ele>147</ele>
        <time>2026-02-26T09:20:42Z</time>
      </trkpt>
      <trkpt lat="48.69421" lon="2.04132">
        <ele>148</ele>
        <time>2026-02-26T09:20:45Z</time>
      </trkpt>
      <trkpt lat="48.69422" lon="2.04127">
        <ele>149</ele>
        <time>2026-02-26T09:20:47Z</time>
      </trkpt>
      <trkpt lat="48.69423" lon="2.04122">
        <ele>149</ele>
        <time>2026-02-26T09:20:49Z</time>
      </trkpt>
      <trkpt lat="48.69423" lon="2.04117">
        <ele>150</ele>
        <time>2026-02-26T09:20:52Z</time>
      </trkpt>
      <trkpt lat="48.69421" lon="2.04115">
        <ele>149</ele>
        <time>2026-02-26T09:20:56Z</time>
      </trkpt>
      <trkpt lat="48.69423" lon="2.04103">
        <ele>153</ele>
        <time>2026-02-26T09:21:01Z</time>
      </trkpt>
      <trkpt lat="48.69424" lon="2.04095">
        <ele>153</ele>
        <time>2026-02-26T09:21:05Z</time>
      </trkpt>
      <trkpt lat="48.69424" lon="2.0409">
        <ele>152</ele>
        <time>2026-02-26T09:21:08Z</time>
      </trkpt>
      <trkpt lat="48.69423" lon="2.04085">
        <ele>152</ele>
        <time>2026-02-26T09:21:12Z</time>
      </trkpt>
      <trkpt lat="48.69422" lon="2.0408">
        <ele>150</ele>
        <time>2026-02-26T09:21:15Z</time>
      </trkpt>
      <trkpt lat="48.69421" lon="2.04075">
        <ele>150</ele>
        <time>2026-02-26T09:21:18Z</time>
      </trkpt>
      <trkpt lat="48.6942" lon="2.0407">
        <ele>150</ele>
        <time>2026-02-26T09:21:21Z</time>
      </trkpt>
      <trkpt lat="48.69419" lon="2.04066">
        <ele>150</ele>
        <time>2026-02-26T09:21:24Z</time>
      </trkpt>
      <trkpt lat="48.69419" lon="2.04061">
        <ele>149</ele>
        <time>2026-02-26T09:21:27Z</time>
      </trkpt>
      <trkpt lat="48.69418" lon="2.04057">
        <ele>149</ele>
        <time>2026-02-26T09:21:30Z</time>
      </trkpt>
      <trkpt lat="48.69418" lon="2.04052">
        <ele>149</ele>
        <time>2026-02-26T09:21:33Z</time>
      </trkpt>
      <trkpt lat="48.69418" lon="2.04047">
        <ele>149</ele>
        <time>2026-02-26T09:21:36Z</time>
      </trkpt>
      <trkpt lat="48.69418" lon="2.04042">
        <ele>149</ele>
        <time>2026-02-26T09:21:39Z</time>
      </trkpt>
      <trkpt lat="48.69417" lon="2.04038">
        <ele>148</ele>
        <time>2026-02-26T09:21:42Z</time>
      </trkpt>
      <trkpt lat="48.69417" lon="2.04033">
        <ele>148</ele>
        <time>2026-02-26T09:21:45Z</time>
      </trkpt>
      <trkpt lat="48.69417" lon="2.04028">
        <ele>148</ele>
        <time>2026-02-26T09:21:48Z</time>
      </trkpt>
      <trkpt lat="48.69416" lon="2.04023">
        <ele>148</ele>
        <time>2026-02-26T09:21:51Z</time>
      </trkpt>
      <trkpt lat="48.69415" lon="2.04018">
        <ele>148</ele>
        <time>2026-02-26T09:21:54Z</time>
      </trkpt>
      <trkpt lat="48.69414" lon="2.04013">
        <ele>148</ele>
        <time>2026-02-26T09:21:57Z</time>
      </trkpt>
      <trkpt lat="48.69414" lon="2.04007">
        <ele>148</ele>
        <time>2026-02-26T09:22:00Z</time>
      </trkpt>
      <trkpt lat="48.69413" lon="2.04001">
        <ele>148</ele>
        <time>2026-02-26T09:22:03Z</time>
      </trkpt>
      <trkpt lat="48.69413" lon="2.03997">
        <ele>148</ele>
        <time>2026-02-26T09:22:06Z</time>
      </trkpt>
      <trkpt lat="48.69413" lon="2.03992">
        <ele>148</ele>
        <time>2026-02-26T09:22:09Z</time>
      </trkpt>
      <trkpt lat="48.69413" lon="2.03987">
        <ele>148</ele>
        <time>2026-02-26T09:22:13Z</time>
      </trkpt>
      <trkpt lat="48.69412" lon="2.03982">
        <ele>148</ele>
        <time>2026-02-26T09:22:17Z</time>
      </trkpt>
      <trkpt lat="48.69411" lon="2.03976">
        <ele>148</ele>
        <time>2026-02-26T09:22:21Z</time>
      </trkpt>
      <trkpt lat="48.69411" lon="2.03971">
        <ele>148</ele>
        <time>2026-02-26T09:22:24Z</time>
      </trkpt>
      <trkpt lat="48.6941" lon="2.03967">
        <ele>147</ele>
        <time>2026-02-26T09:22:28Z</time>
      </trkpt>
      <trkpt lat="48.69409" lon="2.03962">
        <ele>147</ele>
        <time>2026-02-26T09:22:31Z</time>
      </trkpt>
      <trkpt lat="48.69408" lon="2.03957">
        <ele>148</ele>
        <time>2026-02-26T09:22:34Z</time>
      </trkpt>
      <trkpt lat="48.69408" lon="2.03952">
        <ele>148</ele>
        <time>2026-02-26T09:22:37Z</time>
      </trkpt>
      <trkpt lat="48.69406" lon="2.03948">
        <ele>149</ele>
        <time>2026-02-26T09:22:41Z</time>
      </trkpt>
      <trkpt lat="48.69405" lon="2.03943">
        <ele>148</ele>
        <time>2026-02-26T09:22:44Z</time>
      </trkpt>
      <trkpt lat="48.69403" lon="2.03939">
        <ele>148</ele>
        <time>2026-02-26T09:22:47Z</time>
      </trkpt>
      <trkpt lat="48.69403" lon="2.03934">
        <ele>149</ele>
        <time>2026-02-26T09:22:50Z</time>
      </trkpt>
      <trkpt lat="48.69403" lon="2.03929">
        <ele>149</ele>
        <time>2026-02-26T09:22:53Z</time>
      </trkpt>
      <trkpt lat="48.69402" lon="2.03924">
        <ele>149</ele>
        <time>2026-02-26T09:22:56Z</time>
      </trkpt>
      <trkpt lat="48.69401" lon="2.0392">
        <ele>149</ele>
        <time>2026-02-26T09:23:00Z</time>
      </trkpt>
      <trkpt lat="48.69401" lon="2.03915">
        <ele>149</ele>
        <time>2026-02-26T09:23:03Z</time>
      </trkpt>
      <trkpt lat="48.694" lon="2.0391">
        <ele>149</ele>
        <time>2026-02-26T09:23:06Z</time>
      </trkpt>
      <trkpt lat="48.694" lon="2.03906">
        <ele>149</ele>
        <time>2026-02-26T09:23:09Z</time>
      </trkpt>
      <trkpt lat="48.69399" lon="2.03901">
        <ele>148</ele>
        <time>2026-02-26T09:23:12Z</time>
      </trkpt>
      <trkpt lat="48.69399" lon="2.03896">
        <ele>148</ele>
        <time>2026-02-26T09:23:15Z</time>
      </trkpt>
      <trkpt lat="48.69398" lon="2.03891">
        <ele>148</ele>
        <time>2026-02-26T09:23:18Z</time>
      </trkpt>
      <trkpt lat="48.69398" lon="2.03886">
        <ele>148</ele>
        <time>2026-02-26T09:23:21Z</time>
      </trkpt>
      <trkpt lat="48.69397" lon="2.03877">
        <ele>153</ele>
        <time>2026-02-26T09:23:28Z</time>
      </trkpt>
      <trkpt lat="48.69398" lon="2.0387">
        <ele>161</ele>
        <time>2026-02-26T09:23:30Z</time>
      </trkpt>
      <trkpt lat="48.69396" lon="2.03869">
        <ele>158</ele>
        <time>2026-02-26T09:23:31Z</time>
      </trkpt>
      <trkpt lat="48.69395" lon="2.03864">
        <ele>153</ele>
        <time>2026-02-26T09:23:34Z</time>
      </trkpt>
      <trkpt lat="48.69394" lon="2.0386">
        <ele>152</ele>
        <time>2026-02-26T09:23:38Z</time>
      </trkpt>
      <trkpt lat="48.69394" lon="2.03844">
        <ele>154</ele>
        <time>2026-02-26T09:23:47Z</time>
      </trkpt>
      <trkpt lat="48.69392" lon="2.03839">
        <ele>154</ele>
        <time>2026-02-26T09:23:48Z</time>
      </trkpt>
      <trkpt lat="48.69393" lon="2.03839">
        <ele>160</ele>
        <time>2026-02-26T09:23:49Z</time>
      </trkpt>
      <trkpt lat="48.6939" lon="2.03839">
        <ele>160</ele>
        <time>2026-02-26T09:23:50Z</time>
      </trkpt>
      <trkpt lat="48.6939" lon="2.03838">
        <ele>158</ele>
        <time>2026-02-26T09:23:51Z</time>
      </trkpt>
      <trkpt lat="48.69389" lon="2.03834">
        <ele>157</ele>
        <time>2026-02-26T09:23:56Z</time>
      </trkpt>
      <trkpt lat="48.69391" lon="2.0383">
        <ele>157</ele>
        <time>2026-02-26T09:23:59Z</time>
      </trkpt>
      <trkpt lat="48.69392" lon="2.03826">
        <ele>155</ele>
        <time>2026-02-26T09:24:06Z</time>
      </trkpt>
      <trkpt lat="48.69392" lon="2.0382">
        <ele>152</ele>
        <time>2026-02-26T09:24:08Z</time>
      </trkpt>
      <trkpt lat="48.69392" lon="2.03815">
        <ele>152</ele>
        <time>2026-02-26T09:24:10Z</time>
      </trkpt>
      <trkpt lat="48.69392" lon="2.03811">
        <ele>150</ele>
        <time>2026-02-26T09:24:13Z</time>
      </trkpt>
      <trkpt lat="48.69393" lon="2.03806">
        <ele>150</ele>
        <time>2026-02-26T09:24:16Z</time>
      </trkpt>
      <trkpt lat="48.69395" lon="2.03802">
        <ele>149</ele>
        <time>2026-02-26T09:24:19Z</time>
      </trkpt>
      <trkpt lat="48.69396" lon="2.03798">
        <ele>149</ele>
        <time>2026-02-26T09:24:21Z</time>
      </trkpt>
      <trkpt lat="48.69398" lon="2.03793">
        <ele>150</ele>
        <time>2026-02-26T09:24:23Z</time>
      </trkpt>
      <trkpt lat="48.69401" lon="2.03789">
        <ele>150</ele>
        <time>2026-02-26T09:24:25Z</time>
      </trkpt>
      <trkpt lat="48.69403" lon="2.03785">
        <ele>150</ele>
        <time>2026-02-26T09:24:28Z</time>
      </trkpt>
      <trkpt lat="48.69405" lon="2.0378">
        <ele>149</ele>
        <time>2026-02-26T09:24:33Z</time>
      </trkpt>
      <trkpt lat="48.69406" lon="2.03775">
        <ele>149</ele>
        <time>2026-02-26T09:24:35Z</time>
      </trkpt>
      <trkpt lat="48.69408" lon="2.0377">
        <ele>149</ele>
        <time>2026-02-26T09:24:40Z</time>
      </trkpt>
      <trkpt lat="48.69409" lon="2.03766">
        <ele>149</ele>
        <time>2026-02-26T09:24:43Z</time>
      </trkpt>
      <trkpt lat="48.6941" lon="2.03761">
        <ele>149</ele>
        <time>2026-02-26T09:24:48Z</time>
      </trkpt>
      <trkpt lat="48.69411" lon="2.03756">
        <ele>149</ele>
        <time>2026-02-26T09:24:50Z</time>
      </trkpt>
      <trkpt lat="48.69413" lon="2.03751">
        <ele>149</ele>
        <time>2026-02-26T09:24:53Z</time>
      </trkpt>
      <trkpt lat="48.69414" lon="2.03747">
        <ele>150</ele>
        <time>2026-02-26T09:25:05Z</time>
      </trkpt>
      <trkpt lat="48.69415" lon="2.03742">
        <ele>149</ele>
        <time>2026-02-26T09:25:07Z</time>
      </trkpt>
      <trkpt lat="48.69415" lon="2.03735">
        <ele>149</ele>
        <time>2026-02-26T09:25:10Z</time>
      </trkpt>
      <trkpt lat="48.69415" lon="2.03729">
        <ele>149</ele>
        <time>2026-02-26T09:25:11Z</time>
      </trkpt>
      <trkpt lat="48.69417" lon="2.03723">
        <ele>149</ele>
        <time>2026-02-26T09:25:13Z</time>
      </trkpt>
      <trkpt lat="48.69419" lon="2.03717">
        <ele>150</ele>
        <time>2026-02-26T09:25:15Z</time>
      </trkpt>
      <trkpt lat="48.6942" lon="2.03711">
        <ele>150</ele>
        <time>2026-02-26T09:25:21Z</time>
      </trkpt>
      <trkpt lat="48.69421" lon="2.03705">
        <ele>150</ele>
        <time>2026-02-26T09:25:23Z</time>
      </trkpt>
      <trkpt lat="48.69422" lon="2.037">
        <ele>150</ele>
        <time>2026-02-26T09:25:26Z</time>
      </trkpt>
      <trkpt lat="48.69421" lon="2.03696">
        <ele>151</ele>
        <time>2026-02-26T09:25:29Z</time>
      </trkpt>
      <trkpt lat="48.6942" lon="2.0369">
        <ele>152</ele>
        <time>2026-02-26T09:25:32Z</time>
      </trkpt>
      <trkpt lat="48.69419" lon="2.03685">
        <ele>152</ele>
        <time>2026-02-26T09:25:35Z</time>
      </trkpt>
      <trkpt lat="48.69419" lon="2.03679">
        <ele>153</ele>
        <time>2026-02-26T09:25:38Z</time>
      </trkpt>
      <trkpt lat="48.69417" lon="2.03675">
        <ele>153</ele>
        <time>2026-02-26T09:25:41Z</time>
      </trkpt>
      <trkpt lat="48.69415" lon="2.0367">
        <ele>153</ele>
        <time>2026-02-26T09:25:45Z</time>
      </trkpt>
      <trkpt lat="48.69413" lon="2.03666">
        <ele>152</ele>
        <time>2026-02-26T09:25:47Z</time>
      </trkpt>
      <trkpt lat="48.69411" lon="2.03662">
        <ele>153</ele>
        <time>2026-02-26T09:25:54Z</time>
      </trkpt>
      <trkpt lat="48.69408" lon="2.03659">
        <ele>153</ele>
        <time>2026-02-26T09:25:59Z</time>
      </trkpt>
      <trkpt lat="48.69405" lon="2.03656">
        <ele>152</ele>
        <time>2026-02-26T09:26:02Z</time>
      </trkpt>
      <trkpt lat="48.69401" lon="2.03653">
        <ele>151</ele>
        <time>2026-02-26T09:26:05Z</time>
      </trkpt>
      <trkpt lat="48.69398" lon="2.0365">
        <ele>151</ele>
        <time>2026-02-26T09:26:08Z</time>
      </trkpt>
      <trkpt lat="48.69396" lon="2.03648">
        <ele>151</ele>
        <time>2026-02-26T09:26:15Z</time>
      </trkpt>
      <trkpt lat="48.69392" lon="2.03647">
        <ele>150</ele>
        <time>2026-02-26T09:26:21Z</time>
      </trkpt>
      <trkpt lat="48.69389" lon="2.03644">
        <ele>149</ele>
        <time>2026-02-26T09:26:27Z</time>
      </trkpt>
      <trkpt lat="48.69385" lon="2.03642">
        <ele>149</ele>
        <time>2026-02-26T09:26:31Z</time>
      </trkpt>
      <trkpt lat="48.69383" lon="2.03641">
        <ele>149</ele>
        <time>2026-02-26T09:26:35Z</time>
      </trkpt>
      <trkpt lat="48.69379" lon="2.03639">
        <ele>149</ele>
        <time>2026-02-26T09:26:40Z</time>
      </trkpt>
      <trkpt lat="48.69375" lon="2.03638">
        <ele>149</ele>
        <time>2026-02-26T09:26:43Z</time>
      </trkpt>
      <trkpt lat="48.6937" lon="2.03638">
        <ele>149</ele>
        <time>2026-02-26T09:26:47Z</time>
      </trkpt>
      <trkpt lat="48.69367" lon="2.03636">
        <ele>149</ele>
        <time>2026-02-26T09:26:50Z</time>
      </trkpt>
      <trkpt lat="48.69364" lon="2.03634">
        <ele>150</ele>
        <time>2026-02-26T09:26:52Z</time>
      </trkpt>
      <trkpt lat="48.69361" lon="2.03633">
        <ele>150</ele>
        <time>2026-02-26T09:26:54Z</time>
      </trkpt>
      <trkpt lat="48.69359" lon="2.03629">
        <ele>149</ele>
        <time>2026-02-26T09:26:56Z</time>
      </trkpt>
      <trkpt lat="48.69356" lon="2.03627">
        <ele>149</ele>
        <time>2026-02-26T09:26:59Z</time>
      </trkpt>
      <trkpt lat="48.69353" lon="2.03625">
        <ele>149</ele>
        <time>2026-02-26T09:27:02Z</time>
      </trkpt>
      <trkpt lat="48.69349" lon="2.03622">
        <ele>149</ele>
        <time>2026-02-26T09:27:07Z</time>
      </trkpt>
      <trkpt lat="48.69345" lon="2.03621">
        <ele>149</ele>
        <time>2026-02-26T09:27:11Z</time>
      </trkpt>
      <trkpt lat="48.69342" lon="2.0362">
        <ele>149</ele>
        <time>2026-02-26T09:27:13Z</time>
      </trkpt>
      <trkpt lat="48.69339" lon="2.03619">
        <ele>149</ele>
        <time>2026-02-26T09:27:15Z</time>
      </trkpt>
      <trkpt lat="48.69335" lon="2.03619">
        <ele>148</ele>
        <time>2026-02-26T09:27:17Z</time>
      </trkpt>
      <trkpt lat="48.69332" lon="2.03617">
        <ele>148</ele>
        <time>2026-02-26T09:27:19Z</time>
      </trkpt>
      <trkpt lat="48.69329" lon="2.03614">
        <ele>148</ele>
        <time>2026-02-26T09:27:22Z</time>
      </trkpt>
      <trkpt lat="48.69326" lon="2.03612">
        <ele>147</ele>
        <time>2026-02-26T09:27:26Z</time>
      </trkpt>
      <trkpt lat="48.69323" lon="2.0361">
        <ele>147</ele>
        <time>2026-02-26T09:27:29Z</time>
      </trkpt>
      <trkpt lat="48.6932" lon="2.03607">
        <ele>146</ele>
        <time>2026-02-26T09:27:31Z</time>
      </trkpt>
      <trkpt lat="48.69316" lon="2.03605">
        <ele>146</ele>
        <time>2026-02-26T09:27:34Z</time>
      </trkpt>
      <trkpt lat="48.69313" lon="2.03602">
        <ele>146</ele>
        <time>2026-02-26T09:27:37Z</time>
      </trkpt>
      <trkpt lat="48.6931" lon="2.036">
        <ele>147</ele>
        <time>2026-02-26T09:27:42Z</time>
      </trkpt>
      <trkpt lat="48.69305" lon="2.03595">
        <ele>153</ele>
        <time>2026-02-26T09:27:52Z</time>
      </trkpt>
      <trkpt lat="48.69301" lon="2.03592">
        <ele>148</ele>
        <time>2026-02-26T09:27:54Z</time>
      </trkpt>
      <trkpt lat="48.69296" lon="2.0359">
        <ele>147</ele>
        <time>2026-02-26T09:27:58Z</time>
      </trkpt>
      <trkpt lat="48.69292" lon="2.03588">
        <ele>144</ele>
        <time>2026-02-26T09:28:01Z</time>
      </trkpt>
      <trkpt lat="48.69288" lon="2.03587">
        <ele>142</ele>
        <time>2026-02-26T09:28:04Z</time>
      </trkpt>
      <trkpt lat="48.69286" lon="2.03584">
        <ele>141</ele>
        <time>2026-02-26T09:28:07Z</time>
      </trkpt>
      <trkpt lat="48.69283" lon="2.03581">
        <ele>141</ele>
        <time>2026-02-26T09:28:10Z</time>
      </trkpt>
      <trkpt lat="48.69281" lon="2.03577">
        <ele>141</ele>
        <time>2026-02-26T09:28:13Z</time>
      </trkpt>
      <trkpt lat="48.69279" lon="2.03575">
        <ele>141</ele>
        <time>2026-02-26T09:28:16Z</time>
      </trkpt>
      <trkpt lat="48.69277" lon="2.03571">
        <ele>141</ele>
        <time>2026-02-26T09:28:20Z</time>
      </trkpt>
      <trkpt lat="48.69274" lon="2.0357">
        <ele>142</ele>
        <time>2026-02-26T09:28:25Z</time>
      </trkpt>
      <trkpt lat="48.69271" lon="2.03568">
        <ele>143</ele>
        <time>2026-02-26T09:28:27Z</time>
      </trkpt>
      <trkpt lat="48.69268" lon="2.03566">
        <ele>143</ele>
        <time>2026-02-26T09:28:31Z</time>
      </trkpt>
      <trkpt lat="48.69265" lon="2.03565">
        <ele>143</ele>
        <time>2026-02-26T09:28:33Z</time>
      </trkpt>
      <trkpt lat="48.69261" lon="2.03564">
        <ele>142</ele>
        <time>2026-02-26T09:28:38Z</time>
      </trkpt>
      <trkpt lat="48.69258" lon="2.03562">
        <ele>141</ele>
        <time>2026-02-26T09:28:41Z</time>
      </trkpt>
      <trkpt lat="48.69255" lon="2.03561">
        <ele>141</ele>
        <time>2026-02-26T09:28:45Z</time>
      </trkpt>
      <trkpt lat="48.69252" lon="2.0356">
        <ele>141</ele>
        <time>2026-02-26T09:28:47Z</time>
      </trkpt>
      <trkpt lat="48.69249" lon="2.03559">
        <ele>141</ele>
        <time>2026-02-26T09:28:50Z</time>
      </trkpt>
      <trkpt lat="48.69246" lon="2.03557">
        <ele>141</ele>
        <time>2026-02-26T09:28:52Z</time>
      </trkpt>
      <trkpt lat="48.69243" lon="2.03553">
        <ele>141</ele>
        <time>2026-02-26T09:28:56Z</time>
      </trkpt>
      <trkpt lat="48.6924" lon="2.03551">
        <ele>141</ele>
        <time>2026-02-26T09:28:59Z</time>
      </trkpt>
      <trkpt lat="48.69237" lon="2.03549">
        <ele>142</ele>
        <time>2026-02-26T09:29:03Z</time>
      </trkpt>
      <trkpt lat="48.69233" lon="2.03546">
        <ele>143</ele>
        <time>2026-02-26T09:29:08Z</time>
      </trkpt>
      <trkpt lat="48.69231" lon="2.03542">
        <ele>142</ele>
        <time>2026-02-26T09:29:12Z</time>
      </trkpt>
      <trkpt lat="48.6923" lon="2.03538">
        <ele>138</ele>
        <time>2026-02-26T09:29:15Z</time>
      </trkpt>
      <trkpt lat="48.69228" lon="2.03536">
        <ele>137</ele>
        <time>2026-02-26T09:29:18Z</time>
      </trkpt>
      <trkpt lat="48.69225" lon="2.03533">
        <ele>139</ele>
        <time>2026-02-26T09:29:23Z</time>
      </trkpt>
      <trkpt lat="48.69222" lon="2.03531">
        <ele>140</ele>
        <time>2026-02-26T09:29:25Z</time>
      </trkpt>
      <trkpt lat="48.69219" lon="2.03528">
        <ele>142</ele>
        <time>2026-02-26T09:29:27Z</time>
      </trkpt>
      <trkpt lat="48.69215" lon="2.03526">
        <ele>144</ele>
        <time>2026-02-26T09:29:29Z</time>
      </trkpt>
      <trkpt lat="48.69214" lon="2.0352">
        <ele>144</ele>
        <time>2026-02-26T09:29:32Z</time>
      </trkpt>
      <trkpt lat="48.69212" lon="2.03515">
        <ele>145</ele>
        <time>2026-02-26T09:29:36Z</time>
      </trkpt>
      <trkpt lat="48.6921" lon="2.03511">
        <ele>144</ele>
        <time>2026-02-26T09:29:49Z</time>
      </trkpt>
      <trkpt lat="48.69211" lon="2.03507">
        <ele>143</ele>
        <time>2026-02-26T09:30:07Z</time>
      </trkpt>
      <trkpt lat="48.69214" lon="2.03503">
        <ele>140</ele>
        <time>2026-02-26T09:30:09Z</time>
      </trkpt>
      <trkpt lat="48.69213" lon="2.03502">
        <ele>137</ele>
        <time>2026-02-26T09:30:13Z</time>
      </trkpt>
      <trkpt lat="48.69213" lon="2.03504">
        <ele>136</ele>
        <time>2026-02-26T09:31:02Z</time>
      </trkpt>
      <trkpt lat="48.69213" lon="2.03507">
        <ele>133</ele>
        <time>2026-02-26T09:31:06Z</time>
      </trkpt>
      <trkpt lat="48.69212" lon="2.03509">
        <ele>133</ele>
        <time>2026-02-26T09:31:22Z</time>
      </trkpt>
      <trkpt lat="48.6921" lon="2.03513">
        <ele>137</ele>
        <time>2026-02-26T09:31:40Z</time>
      </trkpt>
      <trkpt lat="48.69208" lon="2.03516">
        <ele>139</ele>
        <time>2026-02-26T09:31:52Z</time>
      </trkpt>
      <trkpt lat="48.69205" lon="2.03518">
        <ele>141</ele>
        <time>2026-02-26T09:31:57Z</time>
      </trkpt>
      <trkpt lat="48.69202" lon="2.03518">
        <ele>143</ele>
        <time>2026-02-26T09:32:06Z</time>
      </trkpt>
      <trkpt lat="48.69199" lon="2.03517">
        <ele>144</ele>
        <time>2026-02-26T09:32:08Z</time>
      </trkpt>
      <trkpt lat="48.69195" lon="2.03515">
        <ele>144</ele>
        <time>2026-02-26T09:32:15Z</time>
      </trkpt>
      <trkpt lat="48.69191" lon="2.03513">
        <ele>145</ele>
        <time>2026-02-26T09:32:17Z</time>
      </trkpt>
      <trkpt lat="48.69187" lon="2.03511">
        <ele>145</ele>
        <time>2026-02-26T09:32:25Z</time>
      </trkpt>
      <trkpt lat="48.69184" lon="2.03509">
        <ele>146</ele>
        <time>2026-02-26T09:32:27Z</time>
      </trkpt>
      <trkpt lat="48.6918" lon="2.03507">
        <ele>145</ele>
        <time>2026-02-26T09:32:31Z</time>
      </trkpt>
      <trkpt lat="48.69176" lon="2.03505">
        <ele>145</ele>
        <time>2026-02-26T09:32:37Z</time>
      </trkpt>
      <trkpt lat="48.69172" lon="2.03503">
        <ele>145</ele>
        <time>2026-02-26T09:32:40Z</time>
      </trkpt>
      <trkpt lat="48.69169" lon="2.03502">
        <ele>146</ele>
        <time>2026-02-26T09:32:43Z</time>
      </trkpt>
      <trkpt lat="48.69166" lon="2.035">
        <ele>147</ele>
        <time>2026-02-26T09:32:45Z</time>
      </trkpt>
      <trkpt lat="48.69164" lon="2.03497">
        <ele>149</ele>
        <time>2026-02-26T09:32:49Z</time>
      </trkpt>
      <trkpt lat="48.69161" lon="2.03495">
        <ele>150</ele>
        <time>2026-02-26T09:32:52Z</time>
      </trkpt>
      <trkpt lat="48.69158" lon="2.03493">
        <ele>150</ele>
        <time>2026-02-26T09:32:55Z</time>
      </trkpt>
      <trkpt lat="48.69155" lon="2.0349">
        <ele>151</ele>
        <time>2026-02-26T09:33:02Z</time>
      </trkpt>
      <trkpt lat="48.69152" lon="2.03486">
        <ele>152</ele>
        <time>2026-02-26T09:33:07Z</time>
      </trkpt>
      <trkpt lat="48.69149" lon="2.03482">
        <ele>152</ele>
        <time>2026-02-26T09:33:10Z</time>
      </trkpt>
      <trkpt lat="48.69147" lon="2.0348">
        <ele>153</ele>
        <time>2026-02-26T09:33:13Z</time>
      </trkpt>
      <trkpt lat="48.69144" lon="2.03477">
        <ele>154</ele>
        <time>2026-02-26T09:33:17Z</time>
      </trkpt>
      <trkpt lat="48.69142" lon="2.03473">
        <ele>154</ele>
        <time>2026-02-26T09:33:22Z</time>
      </trkpt>
      <trkpt lat="48.69139" lon="2.03471">
        <ele>154</ele>
        <time>2026-02-26T09:33:26Z</time>
      </trkpt>
      <trkpt lat="48.69137" lon="2.03468">
        <ele>154</ele>
        <time>2026-02-26T09:33:32Z</time>
      </trkpt>
      <trkpt lat="48.69133" lon="2.03464">
        <ele>155</ele>
        <time>2026-02-26T09:33:38Z</time>
      </trkpt>
      <trkpt lat="48.6913" lon="2.03461">
        <ele>155</ele>
        <time>2026-02-26T09:33:41Z</time>
      </trkpt>
      <trkpt lat="48.69128" lon="2.03457">
        <ele>156</ele>
        <time>2026-02-26T09:33:45Z</time>
      </trkpt>
      <trkpt lat="48.69125" lon="2.03453">
        <ele>157</ele>
        <time>2026-02-26T09:33:49Z</time>
      </trkpt>
      <trkpt lat="48.69122" lon="2.03449">
        <ele>157</ele>
        <time>2026-02-26T09:33:55Z</time>
      </trkpt>
      <trkpt lat="48.69119" lon="2.03446">
        <ele>157</ele>
        <time>2026-02-26T09:33:58Z</time>
      </trkpt>
      <trkpt lat="48.69117" lon="2.03442">
        <ele>157</ele>
        <time>2026-02-26T09:34:00Z</time>
      </trkpt>
      <trkpt lat="48.69114" lon="2.03438">
        <ele>155</ele>
        <time>2026-02-26T09:34:06Z</time>
      </trkpt>
      <trkpt lat="48.69111" lon="2.03434">
        <ele>156</ele>
        <time>2026-02-26T09:34:12Z</time>
      </trkpt>
      <trkpt lat="48.69108" lon="2.0343">
        <ele>156</ele>
        <time>2026-02-26T09:34:16Z</time>
      </trkpt>
      <trkpt lat="48.69105" lon="2.03427">
        <ele>155</ele>
        <time>2026-02-26T09:34:21Z</time>
      </trkpt>
      <trkpt lat="48.69102" lon="2.03426">
        <ele>155</ele>
        <time>2026-02-26T09:34:24Z</time>
      </trkpt>
      <trkpt lat="48.69099" lon="2.03425">
        <ele>154</ele>
        <time>2026-02-26T09:34:28Z</time>
      </trkpt>
      <trkpt lat="48.69096" lon="2.03425">
        <ele>154</ele>
        <time>2026-02-26T09:34:31Z</time>
      </trkpt>
      <trkpt lat="48.69093" lon="2.03424">
        <ele>154</ele>
        <time>2026-02-26T09:34:34Z</time>
      </trkpt>
      <trkpt lat="48.69089" lon="2.03423">
        <ele>154</ele>
        <time>2026-02-26T09:34:37Z</time>
      </trkpt>
      <trkpt lat="48.69087" lon="2.03423">
        <ele>155</ele>
        <time>2026-02-26T09:34:39Z</time>
      </trkpt>
      <trkpt lat="48.69084" lon="2.03422">
        <ele>155</ele>
        <time>2026-02-26T09:34:43Z</time>
      </trkpt>
      <trkpt lat="48.6908" lon="2.0342">
        <ele>156</ele>
        <time>2026-02-26T09:34:46Z</time>
      </trkpt>
      <trkpt lat="48.69077" lon="2.03419">
        <ele>156</ele>
        <time>2026-02-26T09:34:50Z</time>
      </trkpt>
      <trkpt lat="48.69074" lon="2.03418">
        <ele>157</ele>
        <time>2026-02-26T09:34:53Z</time>
      </trkpt>
      <trkpt lat="48.69071" lon="2.03414">
        <ele>156</ele>
        <time>2026-02-26T09:34:58Z</time>
      </trkpt>
      <trkpt lat="48.69068" lon="2.03411">
        <ele>157</ele>
        <time>2026-02-26T09:35:01Z</time>
      </trkpt>
      <trkpt lat="48.69066" lon="2.03408">
        <ele>157</ele>
        <time>2026-02-26T09:35:04Z</time>
      </trkpt>
      <trkpt lat="48.69065" lon="2.03404">
        <ele>157</ele>
        <time>2026-02-26T09:35:07Z</time>
      </trkpt>
      <trkpt lat="48.69064" lon="2.03399">
        <ele>157</ele>
        <time>2026-02-26T09:35:10Z</time>
      </trkpt>
      <trkpt lat="48.69064" lon="2.03394">
        <ele>157</ele>
        <time>2026-02-26T09:35:14Z</time>
      </trkpt>
      <trkpt lat="48.69064" lon="2.03387">
        <ele>157</ele>
        <time>2026-02-26T09:35:20Z</time>
      </trkpt>
      <trkpt lat="48.69064" lon="2.03382">
        <ele>157</ele>
        <time>2026-02-26T09:35:23Z</time>
      </trkpt>
      <trkpt lat="48.69065" lon="2.03377">
        <ele>157</ele>
        <time>2026-02-26T09:35:27Z</time>
      </trkpt>
      <trkpt lat="48.69065" lon="2.03371">
        <ele>156</ele>
        <time>2026-02-26T09:35:32Z</time>
      </trkpt>
      <trkpt lat="48.69065" lon="2.03366">
        <ele>157</ele>
        <time>2026-02-26T09:35:35Z</time>
      </trkpt>
      <trkpt lat="48.69065" lon="2.03361">
        <ele>157</ele>
        <time>2026-02-26T09:35:57Z</time>
      </trkpt>
      <trkpt lat="48.69064" lon="2.03356">
        <ele>157</ele>
        <time>2026-02-26T09:36:02Z</time>
      </trkpt>
      <trkpt lat="48.69063" lon="2.03352">
        <ele>158</ele>
        <time>2026-02-26T09:36:08Z</time>
      </trkpt>
      <trkpt lat="48.69061" lon="2.03348">
        <ele>158</ele>
        <time>2026-02-26T09:36:13Z</time>
      </trkpt>
      <trkpt lat="48.69057" lon="2.03346">
        <ele>159</ele>
        <time>2026-02-26T09:36:18Z</time>
      </trkpt>
      <trkpt lat="48.69054" lon="2.03343">
        <ele>159</ele>
        <time>2026-02-26T09:36:22Z</time>
      </trkpt>
      <trkpt lat="48.69051" lon="2.0334">
        <ele>158</ele>
        <time>2026-02-26T09:36:25Z</time>
      </trkpt>
      <trkpt lat="48.69048" lon="2.03338">
        <ele>158</ele>
        <time>2026-02-26T09:36:30Z</time>
      </trkpt>
      <trkpt lat="48.69045" lon="2.03337">
        <ele>158</ele>
        <time>2026-02-26T09:36:34Z</time>
      </trkpt>
      <trkpt lat="48.69042" lon="2.03335">
        <ele>158</ele>
        <time>2026-02-26T09:36:38Z</time>
      </trkpt>
      <trkpt lat="48.69039" lon="2.03334">
        <ele>158</ele>
        <time>2026-02-26T09:36:41Z</time>
      </trkpt>
      <trkpt lat="48.69035" lon="2.03333">
        <ele>158</ele>
        <time>2026-02-26T09:36:45Z</time>
      </trkpt>
      <trkpt lat="48.69032" lon="2.03332">
        <ele>158</ele>
        <time>2026-02-26T09:36:49Z</time>
      </trkpt>
      <trkpt lat="48.69029" lon="2.03331">
        <ele>157</ele>
        <time>2026-02-26T09:36:52Z</time>
      </trkpt>
      <trkpt lat="48.69025" lon="2.03329">
        <ele>158</ele>
        <time>2026-02-26T09:36:56Z</time>
      </trkpt>
      <trkpt lat="48.69022" lon="2.03328">
        <ele>158</ele>
        <time>2026-02-26T09:36:59Z</time>
      </trkpt>
      <trkpt lat="48.69019" lon="2.03326">
        <ele>159</ele>
        <time>2026-02-26T09:37:02Z</time>
      </trkpt>
      <trkpt lat="48.69016" lon="2.03325">
        <ele>159</ele>
        <time>2026-02-26T09:37:05Z</time>
      </trkpt>
      <trkpt lat="48.69014" lon="2.03324">
        <ele>159</ele>
        <time>2026-02-26T09:37:08Z</time>
      </trkpt>
      <trkpt lat="48.6901" lon="2.03322">
        <ele>159</ele>
        <time>2026-02-26T09:37:11Z</time>
      </trkpt>
      <trkpt lat="48.69007" lon="2.0332">
        <ele>159</ele>
        <time>2026-02-26T09:37:14Z</time>
      </trkpt>
      <trkpt lat="48.69003" lon="2.0332">
        <ele>159</ele>
        <time>2026-02-26T09:37:17Z</time>
      </trkpt>
      <trkpt lat="48.69" lon="2.03319">
        <ele>159</ele>
        <time>2026-02-26T09:37:20Z</time>
      </trkpt>
      <trkpt lat="48.68997" lon="2.03317">
        <ele>159</ele>
        <time>2026-02-26T09:37:23Z</time>
      </trkpt>
      <trkpt lat="48.68994" lon="2.03316">
        <ele>158</ele>
        <time>2026-02-26T09:37:26Z</time>
      </trkpt>
      <trkpt lat="48.6899" lon="2.03315">
        <ele>159</ele>
        <time>2026-02-26T09:37:29Z</time>
      </trkpt>
      <trkpt lat="48.68987" lon="2.03314">
        <ele>159</ele>
        <time>2026-02-26T09:37:32Z</time>
      </trkpt>
      <trkpt lat="48.68984" lon="2.03313">
        <ele>160</ele>
        <time>2026-02-26T09:37:35Z</time>
      </trkpt>
      <trkpt lat="48.68981" lon="2.03313">
        <ele>160</ele>
        <time>2026-02-26T09:37:38Z</time>
      </trkpt>
      <trkpt lat="48.68978" lon="2.03312">
        <ele>160</ele>
        <time>2026-02-26T09:37:41Z</time>
      </trkpt>
      <trkpt lat="48.68975" lon="2.0331">
        <ele>161</ele>
        <time>2026-02-26T09:37:44Z</time>
      </trkpt>
      <trkpt lat="48.68971" lon="2.03309">
        <ele>161</ele>
        <time>2026-02-26T09:37:48Z</time>
      </trkpt>
      <trkpt lat="48.68968" lon="2.03307">
        <ele>161</ele>
        <time>2026-02-26T09:37:52Z</time>
      </trkpt>
      <trkpt lat="48.68965" lon="2.03306">
        <ele>161</ele>
        <time>2026-02-26T09:37:55Z</time>
      </trkpt>
      <trkpt lat="48.68962" lon="2.03304">
        <ele>161</ele>
        <time>2026-02-26T09:37:58Z</time>
      </trkpt>
      <trkpt lat="48.68959" lon="2.03302">
        <ele>161</ele>
        <time>2026-02-26T09:38:01Z</time>
      </trkpt>
      <trkpt lat="48.68956" lon="2.03301">
        <ele>160</ele>
        <time>2026-02-26T09:38:04Z</time>
      </trkpt>
      <trkpt lat="48.68953" lon="2.033">
        <ele>160</ele>
        <time>2026-02-26T09:38:07Z</time>
      </trkpt>
      <trkpt lat="48.6895" lon="2.03299">
        <ele>160</ele>
        <time>2026-02-26T09:38:10Z</time>
      </trkpt>
      <trkpt lat="48.68947" lon="2.03298">
        <ele>160</ele>
        <time>2026-02-26T09:38:13Z</time>
      </trkpt>
      <trkpt lat="48.68946" lon="2.03295">
        <ele>161</ele>
        <time>2026-02-26T09:38:16Z</time>
      </trkpt>
      <trkpt lat="48.68945" lon="2.03291">
        <ele>158</ele>
        <time>2026-02-26T09:38:21Z</time>
      </trkpt>
      <trkpt lat="48.68942" lon="2.03291">
        <ele>154</ele>
        <time>2026-02-26T09:38:23Z</time>
      </trkpt>
      <trkpt lat="48.6894" lon="2.03293">
        <ele>153</ele>
        <time>2026-02-26T09:38:25Z</time>
      </trkpt>
      <trkpt lat="48.68938" lon="2.03295">
        <ele>153</ele>
        <time>2026-02-26T09:38:28Z</time>
      </trkpt>
      <trkpt lat="48.68935" lon="2.03294">
        <ele>154</ele>
        <time>2026-02-26T09:38:31Z</time>
      </trkpt>
      <trkpt lat="48.68932" lon="2.03292">
        <ele>154</ele>
        <time>2026-02-26T09:38:34Z</time>
      </trkpt>
      <trkpt lat="48.6893" lon="2.03291">
        <ele>155</ele>
        <time>2026-02-26T09:38:37Z</time>
      </trkpt>
      <trkpt lat="48.68926" lon="2.03291">
        <ele>156</ele>
        <time>2026-02-26T09:38:42Z</time>
      </trkpt>
      <trkpt lat="48.68923" lon="2.0329">
        <ele>156</ele>
        <time>2026-02-26T09:38:45Z</time>
      </trkpt>
      <trkpt lat="48.68917" lon="2.0328">
        <ele>151</ele>
        <time>2026-02-26T09:38:50Z</time>
      </trkpt>
      <trkpt lat="48.68915" lon="2.03281">
        <ele>155</ele>
        <time>2026-02-26T09:38:51Z</time>
      </trkpt>
      <trkpt lat="48.68912" lon="2.0328">
        <ele>160</ele>
        <time>2026-02-26T09:38:56Z</time>
      </trkpt>
      <trkpt lat="48.68904" lon="2.03273">
        <ele>156</ele>
        <time>2026-02-26T09:39:07Z</time>
      </trkpt>
      <trkpt lat="48.68903" lon="2.03273">
        <ele>162</ele>
        <time>2026-02-26T09:39:09Z</time>
      </trkpt>
      <trkpt lat="48.689" lon="2.03271">
        <ele>159</ele>
        <time>2026-02-26T09:39:10Z</time>
      </trkpt>
      <trkpt lat="48.68897" lon="2.03271">
        <ele>157</ele>
        <time>2026-02-26T09:39:11Z</time>
      </trkpt>
      <trkpt lat="48.68894" lon="2.03271">
        <ele>159</ele>
        <time>2026-02-26T09:39:13Z</time>
      </trkpt>
      <trkpt lat="48.6889" lon="2.03271">
        <ele>160</ele>
        <time>2026-02-26T09:39:16Z</time>
      </trkpt>
      <trkpt lat="48.68886" lon="2.03269">
        <ele>160</ele>
        <time>2026-02-26T09:39:19Z</time>
      </trkpt>
      <trkpt lat="48.68883" lon="2.03269">
        <ele>161</ele>
        <time>2026-02-26T09:39:22Z</time>
      </trkpt>
      <trkpt lat="48.68879" lon="2.03268">
        <ele>161</ele>
        <time>2026-02-26T09:39:26Z</time>
      </trkpt>
      <trkpt lat="48.68876" lon="2.03267">
        <ele>161</ele>
        <time>2026-02-26T09:39:28Z</time>
      </trkpt>
      <trkpt lat="48.68874" lon="2.03267">
        <ele>161</ele>
        <time>2026-02-26T09:39:32Z</time>
      </trkpt>
      <trkpt lat="48.68871" lon="2.03266">
        <ele>162</ele>
        <time>2026-02-26T09:39:35Z</time>
      </trkpt>
      <trkpt lat="48.68867" lon="2.03266">
        <ele>162</ele>
        <time>2026-02-26T09:39:38Z</time>
      </trkpt>
      <trkpt lat="48.68864" lon="2.03265">
        <ele>162</ele>
        <time>2026-02-26T09:39:41Z</time>
      </trkpt>
      <trkpt lat="48.68861" lon="2.03263">
        <ele>162</ele>
        <time>2026-02-26T09:39:43Z</time>
      </trkpt>
      <trkpt lat="48.68858" lon="2.03262">
        <ele>162</ele>
        <time>2026-02-26T09:39:46Z</time>
      </trkpt>
      <trkpt lat="48.68855" lon="2.0326">
        <ele>162</ele>
        <time>2026-02-26T09:39:52Z</time>
      </trkpt>
      <trkpt lat="48.68853" lon="2.03258">
        <ele>162</ele>
        <time>2026-02-26T09:39:54Z</time>
      </trkpt>
      <trkpt lat="48.68849" lon="2.03256">
        <ele>162</ele>
        <time>2026-02-26T09:39:58Z</time>
      </trkpt>
      <trkpt lat="48.68845" lon="2.03255">
        <ele>162</ele>
        <time>2026-02-26T09:40:01Z</time>
      </trkpt>
      <trkpt lat="48.68843" lon="2.03251">
        <ele>159</ele>
        <time>2026-02-26T09:40:07Z</time>
      </trkpt>
      <trkpt lat="48.68841" lon="2.03247">
        <ele>158</ele>
        <time>2026-02-26T09:40:10Z</time>
      </trkpt>
      <trkpt lat="48.68838" lon="2.03246">
        <ele>158</ele>
        <time>2026-02-26T09:40:12Z</time>
      </trkpt>
      <trkpt lat="48.68834" lon="2.03245">
        <ele>158</ele>
        <time>2026-02-26T09:40:14Z</time>
      </trkpt>
      <trkpt lat="48.6883" lon="2.03244">
        <ele>158</ele>
        <time>2026-02-26T09:40:17Z</time>
      </trkpt>
      <trkpt lat="48.68827" lon="2.03244">
        <ele>158</ele>
        <time>2026-02-26T09:40:19Z</time>
      </trkpt>
      <trkpt lat="48.68824" lon="2.03243">
        <ele>158</ele>
        <time>2026-02-26T09:40:22Z</time>
      </trkpt>
      <trkpt lat="48.6882" lon="2.03243">
        <ele>158</ele>
        <time>2026-02-26T09:40:28Z</time>
      </trkpt>
      <trkpt lat="48.68816" lon="2.03242">
        <ele>159</ele>
        <time>2026-02-26T09:40:33Z</time>
      </trkpt>
      <trkpt lat="48.68812" lon="2.03241">
        <ele>159</ele>
        <time>2026-02-26T09:40:36Z</time>
      </trkpt>
      <trkpt lat="48.68809" lon="2.0324">
        <ele>159</ele>
        <time>2026-02-26T09:40:40Z</time>
      </trkpt>
      <trkpt lat="48.68805" lon="2.03239">
        <ele>159</ele>
        <time>2026-02-26T09:40:42Z</time>
      </trkpt>
      <trkpt lat="48.68803" lon="2.03237">
        <ele>159</ele>
        <time>2026-02-26T09:40:47Z</time>
      </trkpt>
      <trkpt lat="48.688" lon="2.03233">
        <ele>159</ele>
        <time>2026-02-26T09:41:00Z</time>
      </trkpt>
      <trkpt lat="48.68797" lon="2.03232">
        <ele>159</ele>
        <time>2026-02-26T09:41:05Z</time>
      </trkpt>
      <trkpt lat="48.68794" lon="2.0323">
        <ele>159</ele>
        <time>2026-02-26T09:41:08Z</time>
      </trkpt>
      <trkpt lat="48.6879" lon="2.03229">
        <ele>160</ele>
        <time>2026-02-26T09:41:11Z</time>
      </trkpt>
      <trkpt lat="48.68786" lon="2.03228">
        <ele>160</ele>
        <time>2026-02-26T09:41:14Z</time>
      </trkpt>
      <trkpt lat="48.68783" lon="2.03228">
        <ele>160</ele>
        <time>2026-02-26T09:41:17Z</time>
      </trkpt>
      <trkpt lat="48.6878" lon="2.03226">
        <ele>161</ele>
        <time>2026-02-26T09:41:21Z</time>
      </trkpt>
      <trkpt lat="48.68776" lon="2.03225">
        <ele>161</ele>
        <time>2026-02-26T09:41:24Z</time>
      </trkpt>
      <trkpt lat="48.68773" lon="2.03223">
        <ele>161</ele>
        <time>2026-02-26T09:41:27Z</time>
      </trkpt>
      <trkpt lat="48.68769" lon="2.03223">
        <ele>161</ele>
        <time>2026-02-26T09:41:30Z</time>
      </trkpt>
      <trkpt lat="48.68766" lon="2.03221">
        <ele>161</ele>
        <time>2026-02-26T09:41:33Z</time>
      </trkpt>
      <trkpt lat="48.68762" lon="2.03219">
        <ele>161</ele>
        <time>2026-02-26T09:41:37Z</time>
      </trkpt>
      <trkpt lat="48.68758" lon="2.03218">
        <ele>161</ele>
        <time>2026-02-26T09:41:40Z</time>
      </trkpt>
      <trkpt lat="48.68755" lon="2.03217">
        <ele>162</ele>
        <time>2026-02-26T09:41:42Z</time>
      </trkpt>
      <trkpt lat="48.68751" lon="2.03216">
        <ele>162</ele>
        <time>2026-02-26T09:41:45Z</time>
      </trkpt>
      <trkpt lat="48.68748" lon="2.03215">
        <ele>162</ele>
        <time>2026-02-26T09:41:48Z</time>
      </trkpt>
      <trkpt lat="48.68745" lon="2.03213">
        <ele>163</ele>
        <time>2026-02-26T09:41:51Z</time>
      </trkpt>
      <trkpt lat="48.68742" lon="2.03212">
        <ele>163</ele>
        <time>2026-02-26T09:41:54Z</time>
      </trkpt>
      <trkpt lat="48.68739" lon="2.0321">
        <ele>163</ele>
        <time>2026-02-26T09:41:57Z</time>
      </trkpt>
      <trkpt lat="48.68735" lon="2.03208">
        <ele>163</ele>
        <time>2026-02-26T09:42:00Z</time>
      </trkpt>
      <trkpt lat="48.68732" lon="2.03207">
        <ele>162</ele>
        <time>2026-02-26T09:42:03Z</time>
      </trkpt>
      <trkpt lat="48.68729" lon="2.03205">
        <ele>162</ele>
        <time>2026-02-26T09:42:06Z</time>
      </trkpt>
      <trkpt lat="48.68725" lon="2.03203">
        <ele>162</ele>
        <time>2026-02-26T09:42:09Z</time>
      </trkpt>
      <trkpt lat="48.68722" lon="2.03202">
        <ele>162</ele>
        <time>2026-02-26T09:42:12Z</time>
      </trkpt>
      <trkpt lat="48.68719" lon="2.03201">
        <ele>162</ele>
        <time>2026-02-26T09:42:15Z</time>
      </trkpt>
      <trkpt lat="48.68715" lon="2.032">
        <ele>162</ele>
        <time>2026-02-26T09:42:20Z</time>
      </trkpt>
      <trkpt lat="48.68711" lon="2.03199">
        <ele>162</ele>
        <time>2026-02-26T09:42:23Z</time>
      </trkpt>
      <trkpt lat="48.68707" lon="2.03198">
        <ele>163</ele>
        <time>2026-02-26T09:42:27Z</time>
      </trkpt>
      <trkpt lat="48.68704" lon="2.03197">
        <ele>163</ele>
        <time>2026-02-26T09:42:30Z</time>
      </trkpt>
      <trkpt lat="48.68701" lon="2.03194">
        <ele>163</ele>
        <time>2026-02-26T09:42:33Z</time>
      </trkpt>
      <trkpt lat="48.68696" lon="2.03192">
        <ele>163</ele>
        <time>2026-02-26T09:42:38Z</time>
      </trkpt>
      <trkpt lat="48.68693" lon="2.0319">
        <ele>163</ele>
        <time>2026-02-26T09:42:41Z</time>
      </trkpt>
      <trkpt lat="48.6869" lon="2.03188">
        <ele>163</ele>
        <time>2026-02-26T09:42:44Z</time>
      </trkpt>
      <trkpt lat="48.68687" lon="2.03187">
        <ele>164</ele>
        <time>2026-02-26T09:42:47Z</time>
      </trkpt>
      <trkpt lat="48.68683" lon="2.03186">
        <ele>164</ele>
        <time>2026-02-26T09:42:50Z</time>
      </trkpt>
      <trkpt lat="48.6868" lon="2.03185">
        <ele>164</ele>
        <time>2026-02-26T09:42:54Z</time>
      </trkpt>
      <trkpt lat="48.68677" lon="2.03184">
        <ele>165</ele>
        <time>2026-02-26T09:42:57Z</time>
      </trkpt>
      <trkpt lat="48.68673" lon="2.03182">
        <ele>165</ele>
        <time>2026-02-26T09:43:00Z</time>
      </trkpt>
      <trkpt lat="48.6867" lon="2.03181">
        <ele>165</ele>
        <time>2026-02-26T09:43:03Z</time>
      </trkpt>
      <trkpt lat="48.68666" lon="2.03179">
        <ele>166</ele>
        <time>2026-02-26T09:43:07Z</time>
      </trkpt>
      <trkpt lat="48.68663" lon="2.03178">
        <ele>166</ele>
        <time>2026-02-26T09:43:10Z</time>
      </trkpt>
      <trkpt lat="48.68659" lon="2.03176">
        <ele>166</ele>
        <time>2026-02-26T09:43:14Z</time>
      </trkpt>
      <trkpt lat="48.68656" lon="2.03175">
        <ele>166</ele>
        <time>2026-02-26T09:43:17Z</time>
      </trkpt>
      <trkpt lat="48.68653" lon="2.03173">
        <ele>166</ele>
        <time>2026-02-26T09:43:20Z</time>
      </trkpt>
      <trkpt lat="48.68649" lon="2.0317">
        <ele>165</ele>
        <time>2026-02-26T09:43:23Z</time>
      </trkpt>
      <trkpt lat="48.68646" lon="2.03169">
        <ele>165</ele>
        <time>2026-02-26T09:43:26Z</time>
      </trkpt>
      <trkpt lat="48.68643" lon="2.03167">
        <ele>165</ele>
        <time>2026-02-26T09:43:29Z</time>
      </trkpt>
      <trkpt lat="48.6864" lon="2.03167">
        <ele>166</ele>
        <time>2026-02-26T09:43:31Z</time>
      </trkpt>
      <trkpt lat="48.68637" lon="2.03166">
        <ele>165</ele>
        <time>2026-02-26T09:43:33Z</time>
      </trkpt>
      <trkpt lat="48.68634" lon="2.03165">
        <ele>165</ele>
        <time>2026-02-26T09:43:36Z</time>
      </trkpt>
      <trkpt lat="48.68631" lon="2.03164">
        <ele>165</ele>
        <time>2026-02-26T09:43:39Z</time>
      </trkpt>
      <trkpt lat="48.68629" lon="2.03162">
        <ele>165</ele>
        <time>2026-02-26T09:43:41Z</time>
      </trkpt>
      <trkpt lat="48.68626" lon="2.03161">
        <ele>165</ele>
        <time>2026-02-26T09:43:44Z</time>
      </trkpt>
      <trkpt lat="48.68623" lon="2.0316">
        <ele>164</ele>
        <time>2026-02-26T09:43:47Z</time>
      </trkpt>
      <trkpt lat="48.6862" lon="2.0316">
        <ele>164</ele>
        <time>2026-02-26T09:43:50Z</time>
      </trkpt>
      <trkpt lat="48.68616" lon="2.03159">
        <ele>165</ele>
        <time>2026-02-26T09:43:53Z</time>
      </trkpt>
      <trkpt lat="48.68613" lon="2.03158">
        <ele>165</ele>
        <time>2026-02-26T09:43:57Z</time>
      </trkpt>
      <trkpt lat="48.68609" lon="2.03158">
        <ele>166</ele>
        <time>2026-02-26T09:44:00Z</time>
      </trkpt>
      <trkpt lat="48.68606" lon="2.03156">
        <ele>167</ele>
        <time>2026-02-26T09:44:04Z</time>
      </trkpt>
      <trkpt lat="48.68602" lon="2.03156">
        <ele>167</ele>
        <time>2026-02-26T09:44:07Z</time>
      </trkpt>
      <trkpt lat="48.68599" lon="2.03155">
        <ele>168</ele>
        <time>2026-02-26T09:44:11Z</time>
      </trkpt>
      <trkpt lat="48.68595" lon="2.03155">
        <ele>168</ele>
        <time>2026-02-26T09:44:16Z</time>
      </trkpt>
      <trkpt lat="48.68592" lon="2.03156">
        <ele>168</ele>
        <time>2026-02-26T09:44:18Z</time>
      </trkpt>
      <trkpt lat="48.68589" lon="2.03157">
        <ele>168</ele>
        <time>2026-02-26T09:44:22Z</time>
      </trkpt>
      <trkpt lat="48.68586" lon="2.03159">
        <ele>168</ele>
        <time>2026-02-26T09:44:25Z</time>
      </trkpt>
      <trkpt lat="48.68582" lon="2.0316">
        <ele>169</ele>
        <time>2026-02-26T09:44:28Z</time>
      </trkpt>
      <trkpt lat="48.68579" lon="2.03162">
        <ele>169</ele>
        <time>2026-02-26T09:44:31Z</time>
      </trkpt>
      <trkpt lat="48.68575" lon="2.03163">
        <ele>169</ele>
        <time>2026-02-26T09:44:34Z</time>
      </trkpt>
      <trkpt lat="48.68572" lon="2.03164">
        <ele>169</ele>
        <time>2026-02-26T09:44:37Z</time>
      </trkpt>
      <trkpt lat="48.68569" lon="2.03166">
        <ele>168</ele>
        <time>2026-02-26T09:44:42Z</time>
      </trkpt>
      <trkpt lat="48.68566" lon="2.03168">
        <ele>168</ele>
        <time>2026-02-26T09:44:45Z</time>
      </trkpt>
      <trkpt lat="48.68564" lon="2.03171">
        <ele>167</ele>
        <time>2026-02-26T09:44:50Z</time>
      </trkpt>
      <trkpt lat="48.68563" lon="2.03174">
        <ele>167</ele>
        <time>2026-02-26T09:44:54Z</time>
      </trkpt>
      <trkpt lat="48.68561" lon="2.03179">
        <ele>167</ele>
        <time>2026-02-26T09:44:59Z</time>
      </trkpt>
      <trkpt lat="48.68559" lon="2.03184">
        <ele>166</ele>
        <time>2026-02-26T09:45:02Z</time>
      </trkpt>
      <trkpt lat="48.68557" lon="2.03188">
        <ele>166</ele>
        <time>2026-02-26T09:45:06Z</time>
      </trkpt>
      <trkpt lat="48.68555" lon="2.03191">
        <ele>166</ele>
        <time>2026-02-26T09:45:09Z</time>
      </trkpt>
      <trkpt lat="48.68552" lon="2.03193">
        <ele>165</ele>
        <time>2026-02-26T09:45:14Z</time>
      </trkpt>
      <trkpt lat="48.68549" lon="2.03195">
        <ele>165</ele>
        <time>2026-02-26T09:45:19Z</time>
      </trkpt>
      <trkpt lat="48.68546" lon="2.03197">
        <ele>165</ele>
        <time>2026-02-26T09:45:23Z</time>
      </trkpt>
      <trkpt lat="48.68542" lon="2.032">
        <ele>165</ele>
        <time>2026-02-26T09:45:49Z</time>
      </trkpt>
      <trkpt lat="48.68542" lon="2.03203">
        <ele>162</ele>
        <time>2026-02-26T09:47:00Z</time>
      </trkpt>
      <trkpt lat="48.68541" lon="2.03207">
        <ele>162</ele>
        <time>2026-02-26T09:47:03Z</time>
      </trkpt>
      <trkpt lat="48.68539" lon="2.03207">
        <ele>164</ele>
        <time>2026-02-26T09:47:07Z</time>
      </trkpt>
      <trkpt lat="48.6854" lon="2.03207">
        <ele>164</ele>
        <time>2026-02-26T09:48:40Z</time>
      </trkpt>
      <trkpt lat="48.6854" lon="2.0321">
        <ele>163</ele>
        <time>2026-02-26T09:48:42Z</time>
      </trkpt>
      <trkpt lat="48.68542" lon="2.0321">
        <ele>164</ele>
        <time>2026-02-26T09:48:45Z</time>
      </trkpt>
      <trkpt lat="48.68541" lon="2.03207">
        <ele>164</ele>
        <time>2026-02-26T09:48:48Z</time>
      </trkpt>
      <trkpt lat="48.6854" lon="2.03204">
        <ele>165</ele>
        <time>2026-02-26T09:49:00Z</time>
      </trkpt>
      <trkpt lat="48.68538" lon="2.03201">
        <ele>164</ele>
        <time>2026-02-26T09:49:05Z</time>
      </trkpt>
      <trkpt lat="48.68536" lon="2.032">
        <ele>163</ele>
        <time>2026-02-26T09:49:09Z</time>
      </trkpt>
      <trkpt lat="48.68533" lon="2.03199">
        <ele>162</ele>
        <time>2026-02-26T09:49:20Z</time>
      </trkpt>
      <trkpt lat="48.6853" lon="2.03197">
        <ele>162</ele>
        <time>2026-02-26T09:49:22Z</time>
      </trkpt>
      <trkpt lat="48.68528" lon="2.03196">
        <ele>163</ele>
        <time>2026-02-26T09:49:28Z</time>
      </trkpt>
      <trkpt lat="48.68524" lon="2.03195">
        <ele>164</ele>
        <time>2026-02-26T09:49:32Z</time>
      </trkpt>
      <trkpt lat="48.68521" lon="2.03193">
        <ele>164</ele>
        <time>2026-02-26T09:49:34Z</time>
      </trkpt>
      <trkpt lat="48.68519" lon="2.03191">
        <ele>165</ele>
        <time>2026-02-26T09:49:37Z</time>
      </trkpt>
      <trkpt lat="48.68516" lon="2.0319">
        <ele>166</ele>
        <time>2026-02-26T09:49:40Z</time>
      </trkpt>
      <trkpt lat="48.68514" lon="2.03188">
        <ele>167</ele>
        <time>2026-02-26T09:49:50Z</time>
      </trkpt>
      <trkpt lat="48.68511" lon="2.03186">
        <ele>167</ele>
        <time>2026-02-26T09:49:56Z</time>
      </trkpt>
      <trkpt lat="48.68508" lon="2.03185">
        <ele>168</ele>
        <time>2026-02-26T09:50:01Z</time>
      </trkpt>
      <trkpt lat="48.68505" lon="2.03184">
        <ele>168</ele>
        <time>2026-02-26T09:50:10Z</time>
      </trkpt>
      <trkpt lat="48.68502" lon="2.03184">
        <ele>168</ele>
        <time>2026-02-26T09:50:12Z</time>
      </trkpt>
      <trkpt lat="48.68498" lon="2.03182">
        <ele>168</ele>
        <time>2026-02-26T09:50:19Z</time>
      </trkpt>
      <trkpt lat="48.68495" lon="2.03181">
        <ele>168</ele>
        <time>2026-02-26T09:50:21Z</time>
      </trkpt>
      <trkpt lat="48.68491" lon="2.03181">
        <ele>169</ele>
        <time>2026-02-26T09:50:25Z</time>
      </trkpt>
      <trkpt lat="48.68487" lon="2.03179">
        <ele>168</ele>
        <time>2026-02-26T09:50:28Z</time>
      </trkpt>
      <trkpt lat="48.68483" lon="2.03176">
        <ele>168</ele>
        <time>2026-02-26T09:50:30Z</time>
      </trkpt>
      <trkpt lat="48.6848" lon="2.03177">
        <ele>163</ele>
        <time>2026-02-26T09:50:34Z</time>
      </trkpt>
      <trkpt lat="48.68477" lon="2.0318">
        <ele>161</ele>
        <time>2026-02-26T09:50:36Z</time>
      </trkpt>
      <trkpt lat="48.68475" lon="2.03181">
        <ele>160</ele>
        <time>2026-02-26T09:50:38Z</time>
      </trkpt>
      <trkpt lat="48.68471" lon="2.0318">
        <ele>160</ele>
        <time>2026-02-26T09:50:40Z</time>
      </trkpt>
      <trkpt lat="48.68468" lon="2.03179">
        <ele>161</ele>
        <time>2026-02-26T09:50:42Z</time>
      </trkpt>
      <trkpt lat="48.68465" lon="2.03177">
        <ele>162</ele>
        <time>2026-02-26T09:50:44Z</time>
      </trkpt>
      <trkpt lat="48.68463" lon="2.03174">
        <ele>160</ele>
        <time>2026-02-26T09:50:47Z</time>
      </trkpt>
      <trkpt lat="48.68461" lon="2.0317">
        <ele>159</ele>
        <time>2026-02-26T09:50:52Z</time>
      </trkpt>
      <trkpt lat="48.68458" lon="2.03169">
        <ele>160</ele>
        <time>2026-02-26T09:50:54Z</time>
      </trkpt>
      <trkpt lat="48.68455" lon="2.03169">
        <ele>161</ele>
        <time>2026-02-26T09:50:56Z</time>
      </trkpt>
      <trkpt lat="48.68452" lon="2.03167">
        <ele>161</ele>
        <time>2026-02-26T09:51:01Z</time>
      </trkpt>
      <trkpt lat="48.68449" lon="2.03166">
        <ele>162</ele>
        <time>2026-02-26T09:51:03Z</time>
      </trkpt>
      <trkpt lat="48.68445" lon="2.03164">
        <ele>162</ele>
        <time>2026-02-26T09:51:09Z</time>
      </trkpt>
      <trkpt lat="48.68442" lon="2.03163">
        <ele>162</ele>
        <time>2026-02-26T09:51:11Z</time>
      </trkpt>
      <trkpt lat="48.68438" lon="2.03161">
        <ele>162</ele>
        <time>2026-02-26T09:51:39Z</time>
      </trkpt>
      <trkpt lat="48.68434" lon="2.03159">
        <ele>162</ele>
        <time>2026-02-26T09:51:41Z</time>
      </trkpt>
      <trkpt lat="48.6843" lon="2.03157">
        <ele>161</ele>
        <time>2026-02-26T09:51:45Z</time>
      </trkpt>
      <trkpt lat="48.68427" lon="2.03154">
        <ele>161</ele>
        <time>2026-02-26T09:51:47Z</time>
      </trkpt>
      <trkpt lat="48.68424" lon="2.03153">
        <ele>161</ele>
        <time>2026-02-26T09:51:50Z</time>
      </trkpt>
      <trkpt lat="48.68419" lon="2.03151">
        <ele>161</ele>
        <time>2026-02-26T09:51:52Z</time>
      </trkpt>
      <trkpt lat="48.68414" lon="2.03148">
        <ele>161</ele>
        <time>2026-02-26T09:51:56Z</time>
      </trkpt>
      <trkpt lat="48.68409" lon="2.03147">
        <ele>161</ele>
        <time>2026-02-26T09:51:58Z</time>
      </trkpt>
      <trkpt lat="48.68404" lon="2.03145">
        <ele>161</ele>
        <time>2026-02-26T09:52:02Z</time>
      </trkpt>
      <trkpt lat="48.684" lon="2.03144">
        <ele>161</ele>
        <time>2026-02-26T09:52:04Z</time>
      </trkpt>
      <trkpt lat="48.68395" lon="2.03143">
        <ele>161</ele>
        <time>2026-02-26T09:52:08Z</time>
      </trkpt>
      <trkpt lat="48.68391" lon="2.03141">
        <ele>161</ele>
        <time>2026-02-26T09:52:10Z</time>
      </trkpt>
      <trkpt lat="48.68386" lon="2.03138">
        <ele>162</ele>
        <time>2026-02-26T09:52:14Z</time>
      </trkpt>
      <trkpt lat="48.68382" lon="2.03136">
        <ele>162</ele>
        <time>2026-02-26T09:52:16Z</time>
      </trkpt>
      <trkpt lat="48.68378" lon="2.03132">
        <ele>156</ele>
        <time>2026-02-26T09:52:18Z</time>
      </trkpt>
      <trkpt lat="48.68375" lon="2.0313">
        <ele>154</ele>
        <time>2026-02-26T09:52:20Z</time>
      </trkpt>
      <trkpt lat="48.68372" lon="2.03128">
        <ele>155</ele>
        <time>2026-02-26T09:52:22Z</time>
      </trkpt>
      <trkpt lat="48.68368" lon="2.03126">
        <ele>155</ele>
        <time>2026-02-26T09:52:27Z</time>
      </trkpt>
      <trkpt lat="48.68364" lon="2.03125">
        <ele>156</ele>
        <time>2026-02-26T09:52:29Z</time>
      </trkpt>
      <trkpt lat="48.68351" lon="2.03125">
        <ele>162</ele>
        <time>2026-02-26T09:52:36Z</time>
      </trkpt>
      <trkpt lat="48.68343" lon="2.03122">
        <ele>167</ele>
        <time>2026-02-26T09:52:38Z</time>
      </trkpt>
      <trkpt lat="48.68338" lon="2.0312">
        <ele>170</ele>
        <time>2026-02-26T09:52:45Z</time>
      </trkpt>
      <trkpt lat="48.68335" lon="2.03118">
        <ele>171</ele>
        <time>2026-02-26T09:52:48Z</time>
      </trkpt>
      <trkpt lat="48.68332" lon="2.03116">
        <ele>171</ele>
        <time>2026-02-26T09:53:00Z</time>
      </trkpt>
      <trkpt lat="48.68329" lon="2.03114">
        <ele>172</ele>
        <time>2026-02-26T09:53:04Z</time>
      </trkpt>
      <trkpt lat="48.68326" lon="2.03113">
        <ele>173</ele>
        <time>2026-02-26T09:53:06Z</time>
      </trkpt>
      <trkpt lat="48.68323" lon="2.03111">
        <ele>173</ele>
        <time>2026-02-26T09:53:15Z</time>
      </trkpt>
      <trkpt lat="48.6832" lon="2.03111">
        <ele>173</ele>
        <time>2026-02-26T09:53:18Z</time>
      </trkpt>
      <trkpt lat="48.68317" lon="2.03109">
        <ele>173</ele>
        <time>2026-02-26T09:53:30Z</time>
      </trkpt>
      <trkpt lat="48.68313" lon="2.03107">
        <ele>172</ele>
        <time>2026-02-26T09:53:32Z</time>
      </trkpt>
      <trkpt lat="48.68309" lon="2.03106">
        <ele>172</ele>
        <time>2026-02-26T09:53:35Z</time>
      </trkpt>
      <trkpt lat="48.68305" lon="2.03103">
        <ele>172</ele>
        <time>2026-02-26T09:53:37Z</time>
      </trkpt>
      <trkpt lat="48.68302" lon="2.031">
        <ele>172</ele>
        <time>2026-02-26T09:53:39Z</time>
      </trkpt>
      <trkpt lat="48.68297" lon="2.03099">
        <ele>171</ele>
        <time>2026-02-26T09:53:42Z</time>
      </trkpt>
      <trkpt lat="48.68294" lon="2.03097">
        <ele>172</ele>
        <time>2026-02-26T09:53:44Z</time>
      </trkpt>
      <trkpt lat="48.68289" lon="2.03096">
        <ele>172</ele>
        <time>2026-02-26T09:53:48Z</time>
      </trkpt>
      <trkpt lat="48.68285" lon="2.03094">
        <ele>172</ele>
        <time>2026-02-26T09:53:50Z</time>
      </trkpt>
      <trkpt lat="48.68279" lon="2.03091">
        <ele>172</ele>
        <time>2026-02-26T09:53:54Z</time>
      </trkpt>
      <trkpt lat="48.68274" lon="2.03087">
        <ele>171</ele>
        <time>2026-02-26T09:53:56Z</time>
      </trkpt>
      <trkpt lat="48.68271" lon="2.03085">
        <ele>171</ele>
        <time>2026-02-26T09:53:57Z</time>
      </trkpt>
      <trkpt lat="48.68266" lon="2.03083">
        <ele>171</ele>
        <time>2026-02-26T09:54:00Z</time>
      </trkpt>
      <trkpt lat="48.68262" lon="2.03081">
        <ele>170</ele>
        <time>2026-02-26T09:54:03Z</time>
      </trkpt>
      <trkpt lat="48.68258" lon="2.03079">
        <ele>169</ele>
        <time>2026-02-26T09:54:07Z</time>
      </trkpt>
      <trkpt lat="48.68255" lon="2.03076">
        <ele>167</ele>
        <time>2026-02-26T09:54:09Z</time>
      </trkpt>
      <trkpt lat="48.68252" lon="2.03074">
        <ele>166</ele>
        <time>2026-02-26T09:54:13Z</time>
      </trkpt>
      <trkpt lat="48.68248" lon="2.03072">
        <ele>165</ele>
        <time>2026-02-26T09:54:15Z</time>
      </trkpt>
      <trkpt lat="48.68244" lon="2.03071">
        <ele>163</ele>
        <time>2026-02-26T09:54:19Z</time>
      </trkpt>
      <trkpt lat="48.6824" lon="2.03069">
        <ele>161</ele>
        <time>2026-02-26T09:54:25Z</time>
      </trkpt>
      <trkpt lat="48.68237" lon="2.03066">
        <ele>160</ele>
        <time>2026-02-26T09:54:28Z</time>
      </trkpt>
      <trkpt lat="48.68235" lon="2.03063">
        <ele>160</ele>
        <time>2026-02-26T09:54:32Z</time>
      </trkpt>
      <trkpt lat="48.68233" lon="2.03059">
        <ele>160</ele>
        <time>2026-02-26T09:54:36Z</time>
      </trkpt>
      <trkpt lat="48.68232" lon="2.03054">
        <ele>160</ele>
        <time>2026-02-26T09:54:40Z</time>
      </trkpt>
      <trkpt lat="48.68231" lon="2.0305">
        <ele>161</ele>
        <time>2026-02-26T09:54:46Z</time>
      </trkpt>
      <trkpt lat="48.6823" lon="2.03044">
        <ele>160</ele>
        <time>2026-02-26T09:54:49Z</time>
      </trkpt>
      <trkpt lat="48.6823" lon="2.03039">
        <ele>160</ele>
        <time>2026-02-26T09:54:51Z</time>
      </trkpt>
      <trkpt lat="48.68229" lon="2.03034">
        <ele>160</ele>
        <time>2026-02-26T09:54:54Z</time>
      </trkpt>
      <trkpt lat="48.68228" lon="2.03029">
        <ele>160</ele>
        <time>2026-02-26T09:54:57Z</time>
      </trkpt>
      <trkpt lat="48.68227" lon="2.03025">
        <ele>160</ele>
        <time>2026-02-26T09:55:00Z</time>
      </trkpt>
      <trkpt lat="48.68224" lon="2.03022">
        <ele>160</ele>
        <time>2026-02-26T09:55:03Z</time>
      </trkpt>
      <trkpt lat="48.68221" lon="2.03019">
        <ele>159</ele>
        <time>2026-02-26T09:55:06Z</time>
      </trkpt>
      <trkpt lat="48.68218" lon="2.03015">
        <ele>158</ele>
        <time>2026-02-26T09:55:12Z</time>
      </trkpt>
      <trkpt lat="48.68216" lon="2.03012">
        <ele>158</ele>
        <time>2026-02-26T09:55:15Z</time>
      </trkpt>
      <trkpt lat="48.68212" lon="2.03008">
        <ele>158</ele>
        <time>2026-02-26T09:55:20Z</time>
      </trkpt>
      <trkpt lat="48.6821" lon="2.03004">
        <ele>158</ele>
        <time>2026-02-26T09:55:24Z</time>
      </trkpt>
      <trkpt lat="48.68207" lon="2.03002">
        <ele>158</ele>
        <time>2026-02-26T09:55:28Z</time>
      </trkpt>
      <trkpt lat="48.68203" lon="2.02999">
        <ele>157</ele>
        <time>2026-02-26T09:55:34Z</time>
      </trkpt>
      <trkpt lat="48.682" lon="2.02997">
        <ele>157</ele>
        <time>2026-02-26T09:55:37Z</time>
      </trkpt>
      <trkpt lat="48.68197" lon="2.02996">
        <ele>157</ele>
        <time>2026-02-26T09:55:42Z</time>
      </trkpt>
      <trkpt lat="48.68193" lon="2.02995">
        <ele>157</ele>
        <time>2026-02-26T09:55:46Z</time>
      </trkpt>
      <trkpt lat="48.68189" lon="2.02995">
        <ele>156</ele>
        <time>2026-02-26T09:55:52Z</time>
      </trkpt>
      <trkpt lat="48.68186" lon="2.02997">
        <ele>155</ele>
        <time>2026-02-26T09:55:55Z</time>
      </trkpt>
      <trkpt lat="48.68182" lon="2.02997">
        <ele>155</ele>
        <time>2026-02-26T09:55:59Z</time>
      </trkpt>
      <trkpt lat="48.68178" lon="2.02997">
        <ele>155</ele>
        <time>2026-02-26T09:56:04Z</time>
      </trkpt>
      <trkpt lat="48.68175" lon="2.02998">
        <ele>155</ele>
        <time>2026-02-26T09:56:08Z</time>
      </trkpt>
      <trkpt lat="48.68172" lon="2.02998">
        <ele>155</ele>
        <time>2026-02-26T09:56:11Z</time>
      </trkpt>
      <trkpt lat="48.68169" lon="2.02997">
        <ele>155</ele>
        <time>2026-02-26T09:56:14Z</time>
      </trkpt>
      <trkpt lat="48.68166" lon="2.02996">
        <ele>154</ele>
        <time>2026-02-26T09:56:17Z</time>
      </trkpt>
      <trkpt lat="48.68162" lon="2.02996">
        <ele>154</ele>
        <time>2026-02-26T09:56:21Z</time>
      </trkpt>
      <trkpt lat="48.68158" lon="2.02996">
        <ele>154</ele>
        <time>2026-02-26T09:56:26Z</time>
      </trkpt>
      <trkpt lat="48.68155" lon="2.02995">
        <ele>155</ele>
        <time>2026-02-26T09:56:29Z</time>
      </trkpt>
      <trkpt lat="48.68151" lon="2.02995">
        <ele>155</ele>
        <time>2026-02-26T09:56:33Z</time>
      </trkpt>
      <trkpt lat="48.68147" lon="2.02995">
        <ele>155</ele>
        <time>2026-02-26T09:56:38Z</time>
      </trkpt>
      <trkpt lat="48.68143" lon="2.02996">
        <ele>154</ele>
        <time>2026-02-26T09:56:41Z</time>
      </trkpt>
      <trkpt lat="48.6814" lon="2.02997">
        <ele>154</ele>
        <time>2026-02-26T09:56:44Z</time>
      </trkpt>
      <trkpt lat="48.68137" lon="2.02998">
        <ele>154</ele>
        <time>2026-02-26T09:56:47Z</time>
      </trkpt>
      <trkpt lat="48.68134" lon="2.02997">
        <ele>153</ele>
        <time>2026-02-26T09:56:51Z</time>
      </trkpt>
      <trkpt lat="48.6813" lon="2.02996">
        <ele>153</ele>
        <time>2026-02-26T09:56:55Z</time>
      </trkpt>
      <trkpt lat="48.68127" lon="2.02995">
        <ele>154</ele>
        <time>2026-02-26T09:56:58Z</time>
      </trkpt>
      <trkpt lat="48.68123" lon="2.02994">
        <ele>154</ele>
        <time>2026-02-26T09:57:01Z</time>
      </trkpt>
      <trkpt lat="48.6812" lon="2.02993">
        <ele>155</ele>
        <time>2026-02-26T09:57:04Z</time>
      </trkpt>
      <trkpt lat="48.68117" lon="2.02992">
        <ele>156</ele>
        <time>2026-02-26T09:57:07Z</time>
      </trkpt>
      <trkpt lat="48.68113" lon="2.02991">
        <ele>157</ele>
        <time>2026-02-26T09:57:11Z</time>
      </trkpt>
      <trkpt lat="48.68109" lon="2.0299">
        <ele>159</ele>
        <time>2026-02-26T09:57:17Z</time>
      </trkpt>
      <trkpt lat="48.68105" lon="2.0299">
        <ele>159</ele>
        <time>2026-02-26T09:57:20Z</time>
      </trkpt>
      <trkpt lat="48.68102" lon="2.02991">
        <ele>159</ele>
        <time>2026-02-26T09:57:23Z</time>
      </trkpt>
      <trkpt lat="48.68099" lon="2.02991">
        <ele>160</ele>
        <time>2026-02-26T09:57:26Z</time>
      </trkpt>
      <trkpt lat="48.68096" lon="2.02991">
        <ele>160</ele>
        <time>2026-02-26T09:57:29Z</time>
      </trkpt>
      <trkpt lat="48.68093" lon="2.0299">
        <ele>160</ele>
        <time>2026-02-26T09:57:32Z</time>
      </trkpt>
      <trkpt lat="48.68089" lon="2.0299">
        <ele>160</ele>
        <time>2026-02-26T09:57:36Z</time>
      </trkpt>
      <trkpt lat="48.68086" lon="2.0299">
        <ele>160</ele>
        <time>2026-02-26T09:57:39Z</time>
      </trkpt>
      <trkpt lat="48.68083" lon="2.02991">
        <ele>160</ele>
        <time>2026-02-26T09:57:42Z</time>
      </trkpt>
      <trkpt lat="48.68079" lon="2.02991">
        <ele>159</ele>
        <time>2026-02-26T09:57:46Z</time>
      </trkpt>
      <trkpt lat="48.68076" lon="2.02991">
        <ele>159</ele>
        <time>2026-02-26T09:57:49Z</time>
      </trkpt>
      <trkpt lat="48.68072" lon="2.0299">
        <ele>158</ele>
        <time>2026-02-26T09:57:52Z</time>
      </trkpt>
      <trkpt lat="48.68069" lon="2.0299">
        <ele>159</ele>
        <time>2026-02-26T09:57:55Z</time>
      </trkpt>
      <trkpt lat="48.68066" lon="2.0299">
        <ele>160</ele>
        <time>2026-02-26T09:57:58Z</time>
      </trkpt>
      <trkpt lat="48.68062" lon="2.02989">
        <ele>160</ele>
        <time>2026-02-26T09:58:01Z</time>
      </trkpt>
      <trkpt lat="48.68059" lon="2.02988">
        <ele>161</ele>
        <time>2026-02-26T09:58:04Z</time>
      </trkpt>
      <trkpt lat="48.68056" lon="2.02987">
        <ele>161</ele>
        <time>2026-02-26T09:58:07Z</time>
      </trkpt>
      <trkpt lat="48.68053" lon="2.02987">
        <ele>161</ele>
        <time>2026-02-26T09:58:10Z</time>
      </trkpt>
      <trkpt lat="48.6805" lon="2.02987">
        <ele>162</ele>
        <time>2026-02-26T09:58:13Z</time>
      </trkpt>
      <trkpt lat="48.68047" lon="2.02989">
        <ele>162</ele>
        <time>2026-02-26T09:58:17Z</time>
      </trkpt>
      <trkpt lat="48.68044" lon="2.02991">
        <ele>162</ele>
        <time>2026-02-26T09:58:21Z</time>
      </trkpt>
      <trkpt lat="48.68042" lon="2.02994">
        <ele>162</ele>
        <time>2026-02-26T09:58:29Z</time>
      </trkpt>
      <trkpt lat="48.68039" lon="2.02994">
        <ele>160</ele>
        <time>2026-02-26T09:58:50Z</time>
      </trkpt>
      <trkpt lat="48.6804" lon="2.02993">
        <ele>160</ele>
        <time>2026-02-26T09:58:56Z</time>
      </trkpt>
      <trkpt lat="48.6804" lon="2.0299">
        <ele>159</ele>
        <time>2026-02-26T09:59:00Z</time>
      </trkpt>
      <trkpt lat="48.68041" lon="2.02987">
        <ele>158</ele>
        <time>2026-02-26T09:59:03Z</time>
      </trkpt>
      <trkpt lat="48.68041" lon="2.02982">
        <ele>158</ele>
        <time>2026-02-26T09:59:06Z</time>
      </trkpt>
      <trkpt lat="48.6804" lon="2.02978">
        <ele>158</ele>
        <time>2026-02-26T09:59:10Z</time>
      </trkpt>
      <trkpt lat="48.68039" lon="2.02975">
        <ele>158</ele>
        <time>2026-02-26T09:59:13Z</time>
      </trkpt>
      <trkpt lat="48.68036" lon="2.02972">
        <ele>158</ele>
        <time>2026-02-26T09:59:16Z</time>
      </trkpt>
      <trkpt lat="48.68034" lon="2.02969">
        <ele>159</ele>
        <time>2026-02-26T09:59:19Z</time>
      </trkpt>
      <trkpt lat="48.68031" lon="2.02966">
        <ele>159</ele>
        <time>2026-02-26T09:59:22Z</time>
      </trkpt>
      <trkpt lat="48.68029" lon="2.02963">
        <ele>159</ele>
        <time>2026-02-26T09:59:25Z</time>
      </trkpt>
      <trkpt lat="48.68026" lon="2.0296">
        <ele>159</ele>
        <time>2026-02-26T09:59:28Z</time>
      </trkpt>
      <trkpt lat="48.68024" lon="2.02956">
        <ele>158</ele>
        <time>2026-02-26T09:59:31Z</time>
      </trkpt>
      <trkpt lat="48.68021" lon="2.02953">
        <ele>159</ele>
        <time>2026-02-26T09:59:34Z</time>
      </trkpt>
      <trkpt lat="48.68019" lon="2.02951">
        <ele>159</ele>
        <time>2026-02-26T09:59:37Z</time>
      </trkpt>
      <trkpt lat="48.68016" lon="2.02948">
        <ele>159</ele>
        <time>2026-02-26T09:59:40Z</time>
      </trkpt>
      <trkpt lat="48.68013" lon="2.02945">
        <ele>159</ele>
        <time>2026-02-26T09:59:43Z</time>
      </trkpt>
      <trkpt lat="48.6801" lon="2.02943">
        <ele>159</ele>
        <time>2026-02-26T09:59:46Z</time>
      </trkpt>
      <trkpt lat="48.68007" lon="2.02943">
        <ele>158</ele>
        <time>2026-02-26T09:59:49Z</time>
      </trkpt>
      <trkpt lat="48.68005" lon="2.02941">
        <ele>158</ele>
        <time>2026-02-26T09:59:52Z</time>
      </trkpt>
      <trkpt lat="48.68002" lon="2.0294">
        <ele>157</ele>
        <time>2026-02-26T09:59:55Z</time>
      </trkpt>
      <trkpt lat="48.67998" lon="2.02939">
        <ele>157</ele>
        <time>2026-02-26T09:59:58Z</time>
      </trkpt>
      <trkpt lat="48.67995" lon="2.02938">
        <ele>157</ele>
        <time>2026-02-26T10:00:01Z</time>
      </trkpt>
      <trkpt lat="48.67992" lon="2.02936">
        <ele>158</ele>
        <time>2026-02-26T10:00:04Z</time>
      </trkpt>
      <trkpt lat="48.67988" lon="2.02934">
        <ele>158</ele>
        <time>2026-02-26T10:00:07Z</time>
      </trkpt>
      <trkpt lat="48.67985" lon="2.02932">
        <ele>158</ele>
        <time>2026-02-26T10:00:10Z</time>
      </trkpt>
      <trkpt lat="48.67982" lon="2.0293">
        <ele>157</ele>
        <time>2026-02-26T10:00:13Z</time>
      </trkpt>
      <trkpt lat="48.67979" lon="2.02927">
        <ele>157</ele>
        <time>2026-02-26T10:00:16Z</time>
      </trkpt>
      <trkpt lat="48.67976" lon="2.02925">
        <ele>157</ele>
        <time>2026-02-26T10:00:19Z</time>
      </trkpt>
      <trkpt lat="48.67974" lon="2.02924">
        <ele>157</ele>
        <time>2026-02-26T10:00:22Z</time>
      </trkpt>
      <trkpt lat="48.67971" lon="2.02921">
        <ele>156</ele>
        <time>2026-02-26T10:00:25Z</time>
      </trkpt>
      <trkpt lat="48.6797" lon="2.02917">
        <ele>156</ele>
        <time>2026-02-26T10:00:28Z</time>
      </trkpt>
      <trkpt lat="48.67969" lon="2.02912">
        <ele>156</ele>
        <time>2026-02-26T10:00:31Z</time>
      </trkpt>
      <trkpt lat="48.67968" lon="2.02908">
        <ele>155</ele>
        <time>2026-02-26T10:00:34Z</time>
      </trkpt>
      <trkpt lat="48.67968" lon="2.02904">
        <ele>155</ele>
        <time>2026-02-26T10:00:38Z</time>
      </trkpt>
      <trkpt lat="48.67968" lon="2.029">
        <ele>154</ele>
        <time>2026-02-26T10:00:42Z</time>
      </trkpt>
      <trkpt lat="48.67969" lon="2.02896">
        <ele>154</ele>
        <time>2026-02-26T10:00:47Z</time>
      </trkpt>
      <trkpt lat="48.67969" lon="2.02891">
        <ele>153</ele>
        <time>2026-02-26T10:00:50Z</time>
      </trkpt>
      <trkpt lat="48.6797" lon="2.02887">
        <ele>152</ele>
        <time>2026-02-26T10:00:54Z</time>
      </trkpt>
      <trkpt lat="48.6797" lon="2.02882">
        <ele>153</ele>
        <time>2026-02-26T10:00:58Z</time>
      </trkpt>
      <trkpt lat="48.67971" lon="2.02878">
        <ele>153</ele>
        <time>2026-02-26T10:01:01Z</time>
      </trkpt>
      <trkpt lat="48.67973" lon="2.02873">
        <ele>154</ele>
        <time>2026-02-26T10:01:05Z</time>
      </trkpt>
      <trkpt lat="48.67974" lon="2.02869">
        <ele>155</ele>
        <time>2026-02-26T10:01:08Z</time>
      </trkpt>
      <trkpt lat="48.67974" lon="2.02865">
        <ele>155</ele>
        <time>2026-02-26T10:01:11Z</time>
      </trkpt>
      <trkpt lat="48.67975" lon="2.0286">
        <ele>154</ele>
        <time>2026-02-26T10:01:15Z</time>
      </trkpt>
      <trkpt lat="48.67976" lon="2.02855">
        <ele>154</ele>
        <time>2026-02-26T10:01:18Z</time>
      </trkpt>
      <trkpt lat="48.67976" lon="2.02851">
        <ele>153</ele>
        <time>2026-02-26T10:01:20Z</time>
      </trkpt>
      <trkpt lat="48.67977" lon="2.02846">
        <ele>153</ele>
        <time>2026-02-26T10:01:23Z</time>
      </trkpt>
      <trkpt lat="48.67978" lon="2.02841">
        <ele>153</ele>
        <time>2026-02-26T10:01:27Z</time>
      </trkpt>
      <trkpt lat="48.67979" lon="2.02836">
        <ele>152</ele>
        <time>2026-02-26T10:01:30Z</time>
      </trkpt>
      <trkpt lat="48.67979" lon="2.02831">
        <ele>152</ele>
        <time>2026-02-26T10:01:33Z</time>
      </trkpt>
      <trkpt lat="48.67979" lon="2.02825">
        <ele>153</ele>
        <time>2026-02-26T10:01:36Z</time>
      </trkpt>
      <trkpt lat="48.67978" lon="2.0282">
        <ele>153</ele>
        <time>2026-02-26T10:01:39Z</time>
      </trkpt>
      <trkpt lat="48.67977" lon="2.02816">
        <ele>154</ele>
        <time>2026-02-26T10:01:42Z</time>
      </trkpt>
      <trkpt lat="48.67976" lon="2.02811">
        <ele>154</ele>
        <time>2026-02-26T10:01:46Z</time>
      </trkpt>
      <trkpt lat="48.67976" lon="2.02806">
        <ele>154</ele>
        <time>2026-02-26T10:01:49Z</time>
      </trkpt>
      <trkpt lat="48.67976" lon="2.02801">
        <ele>154</ele>
        <time>2026-02-26T10:01:52Z</time>
      </trkpt>
      <trkpt lat="48.67976" lon="2.02797">
        <ele>154</ele>
        <time>2026-02-26T10:01:56Z</time>
      </trkpt>
      <trkpt lat="48.67977" lon="2.02793">
        <ele>153</ele>
        <time>2026-02-26T10:02:00Z</time>
      </trkpt>
      <trkpt lat="48.67978" lon="2.02788">
        <ele>153</ele>
        <time>2026-02-26T10:02:03Z</time>
      </trkpt>
      <trkpt lat="48.6798" lon="2.02784">
        <ele>154</ele>
        <time>2026-02-26T10:02:07Z</time>
      </trkpt>
      <trkpt lat="48.67981" lon="2.02779">
        <ele>154</ele>
        <time>2026-02-26T10:02:10Z</time>
      </trkpt>
      <trkpt lat="48.67982" lon="2.02775">
        <ele>154</ele>
        <time>2026-02-26T10:02:14Z</time>
      </trkpt>
      <trkpt lat="48.67983" lon="2.0277">
        <ele>153</ele>
        <time>2026-02-26T10:02:17Z</time>
      </trkpt>
      <trkpt lat="48.67984" lon="2.02765">
        <ele>152</ele>
        <time>2026-02-26T10:02:20Z</time>
      </trkpt>
      <trkpt lat="48.67985" lon="2.0276">
        <ele>152</ele>
        <time>2026-02-26T10:02:23Z</time>
      </trkpt>
      <trkpt lat="48.67986" lon="2.02756">
        <ele>153</ele>
        <time>2026-02-26T10:02:26Z</time>
      </trkpt>
      <trkpt lat="48.67987" lon="2.02751">
        <ele>153</ele>
        <time>2026-02-26T10:02:30Z</time>
      </trkpt>
      <trkpt lat="48.67987" lon="2.02746">
        <ele>153</ele>
        <time>2026-02-26T10:02:34Z</time>
      </trkpt>
      <trkpt lat="48.67987" lon="2.0274">
        <ele>153</ele>
        <time>2026-02-26T10:02:37Z</time>
      </trkpt>
      <trkpt lat="48.67988" lon="2.02735">
        <ele>153</ele>
        <time>2026-02-26T10:02:40Z</time>
      </trkpt>
      <trkpt lat="48.67988" lon="2.02731">
        <ele>153</ele>
        <time>2026-02-26T10:02:44Z</time>
      </trkpt>
      <trkpt lat="48.67988" lon="2.02726">
        <ele>153</ele>
        <time>2026-02-26T10:02:48Z</time>
      </trkpt>
      <trkpt lat="48.67989" lon="2.02722">
        <ele>153</ele>
        <time>2026-02-26T10:02:51Z</time>
      </trkpt>
      <trkpt lat="48.67989" lon="2.02717">
        <ele>152</ele>
        <time>2026-02-26T10:02:56Z</time>
      </trkpt>
      <trkpt lat="48.67989" lon="2.02713">
        <ele>153</ele>
        <time>2026-02-26T10:02:59Z</time>
      </trkpt>
      <trkpt lat="48.67987" lon="2.02709">
        <ele>152</ele>
        <time>2026-02-26T10:03:04Z</time>
      </trkpt>
      <trkpt lat="48.67986" lon="2.02705">
        <ele>152</ele>
        <time>2026-02-26T10:03:07Z</time>
      </trkpt>
      <trkpt lat="48.67983" lon="2.02701">
        <ele>152</ele>
        <time>2026-02-26T10:03:13Z</time>
      </trkpt>
      <trkpt lat="48.67981" lon="2.02698">
        <ele>151</ele>
        <time>2026-02-26T10:03:16Z</time>
      </trkpt>
      <trkpt lat="48.67978" lon="2.02693">
        <ele>151</ele>
        <time>2026-02-26T10:03:21Z</time>
      </trkpt>
      <trkpt lat="48.67975" lon="2.02688">
        <ele>150</ele>
        <time>2026-02-26T10:03:26Z</time>
      </trkpt>
      <trkpt lat="48.67973" lon="2.02685">
        <ele>151</ele>
        <time>2026-02-26T10:03:29Z</time>
      </trkpt>
      <trkpt lat="48.6797" lon="2.02683">
        <ele>150</ele>
        <time>2026-02-26T10:03:32Z</time>
      </trkpt>
      <trkpt lat="48.67967" lon="2.02682">
        <ele>149</ele>
        <time>2026-02-26T10:03:36Z</time>
      </trkpt>
      <trkpt lat="48.67964" lon="2.02679">
        <ele>148</ele>
        <time>2026-02-26T10:03:39Z</time>
      </trkpt>
      <trkpt lat="48.6796" lon="2.02678">
        <ele>148</ele>
        <time>2026-02-26T10:03:42Z</time>
      </trkpt>
      <trkpt lat="48.67957" lon="2.02677">
        <ele>148</ele>
        <time>2026-02-26T10:03:45Z</time>
      </trkpt>
      <trkpt lat="48.67954" lon="2.02675">
        <ele>146</ele>
        <time>2026-02-26T10:03:48Z</time>
      </trkpt>
      <trkpt lat="48.67952" lon="2.02672">
        <ele>146</ele>
        <time>2026-02-26T10:03:52Z</time>
      </trkpt>
      <trkpt lat="48.6795" lon="2.02669">
        <ele>145</ele>
        <time>2026-02-26T10:03:55Z</time>
      </trkpt>
      <trkpt lat="48.67947" lon="2.02667">
        <ele>144</ele>
        <time>2026-02-26T10:04:01Z</time>
      </trkpt>
      <trkpt lat="48.67944" lon="2.02667">
        <ele>144</ele>
        <time>2026-02-26T10:04:10Z</time>
      </trkpt>
      <trkpt lat="48.67941" lon="2.02666">
        <ele>144</ele>
        <time>2026-02-26T10:04:17Z</time>
      </trkpt>
      <trkpt lat="48.67939" lon="2.02664">
        <ele>146</ele>
        <time>2026-02-26T10:04:22Z</time>
      </trkpt>
      <trkpt lat="48.67934" lon="2.02661">
        <ele>147</ele>
        <time>2026-02-26T10:04:27Z</time>
      </trkpt>
      <trkpt lat="48.67931" lon="2.02658">
        <ele>147</ele>
        <time>2026-02-26T10:04:35Z</time>
      </trkpt>
      <trkpt lat="48.67927" lon="2.02656">
        <ele>146</ele>
        <time>2026-02-26T10:04:38Z</time>
      </trkpt>
      <trkpt lat="48.67924" lon="2.02654">
        <ele>146</ele>
        <time>2026-02-26T10:04:40Z</time>
      </trkpt>
      <trkpt lat="48.67921" lon="2.02652">
        <ele>146</ele>
        <time>2026-02-26T10:04:45Z</time>
      </trkpt>
      <trkpt lat="48.67918" lon="2.02651">
        <ele>146</ele>
        <time>2026-02-26T10:04:48Z</time>
      </trkpt>
      <trkpt lat="48.67915" lon="2.02649">
        <ele>146</ele>
        <time>2026-02-26T10:04:51Z</time>
      </trkpt>
      <trkpt lat="48.67912" lon="2.02647">
        <ele>146</ele>
        <time>2026-02-26T10:04:55Z</time>
      </trkpt>
      <trkpt lat="48.67909" lon="2.02645">
        <ele>146</ele>
        <time>2026-02-26T10:04:58Z</time>
      </trkpt>
      <trkpt lat="48.67906" lon="2.02642">
        <ele>146</ele>
        <time>2026-02-26T10:05:01Z</time>
      </trkpt>
      <trkpt lat="48.67903" lon="2.02639">
        <ele>145</ele>
        <time>2026-02-26T10:05:04Z</time>
      </trkpt>
      <trkpt lat="48.679" lon="2.02636">
        <ele>146</ele>
        <time>2026-02-26T10:05:07Z</time>
      </trkpt>
      <trkpt lat="48.67897" lon="2.02633">
        <ele>146</ele>
        <time>2026-02-26T10:05:11Z</time>
      </trkpt>
      <trkpt lat="48.67894" lon="2.02631">
        <ele>146</ele>
        <time>2026-02-26T10:05:13Z</time>
      </trkpt>
      <trkpt lat="48.67891" lon="2.02628">
        <ele>147</ele>
        <time>2026-02-26T10:05:16Z</time>
      </trkpt>
      <trkpt lat="48.67888" lon="2.02625">
        <ele>147</ele>
        <time>2026-02-26T10:05:21Z</time>
      </trkpt>
      <trkpt lat="48.67885" lon="2.02621">
        <ele>148</ele>
        <time>2026-02-26T10:05:24Z</time>
      </trkpt>
      <trkpt lat="48.67881" lon="2.02617">
        <ele>149</ele>
        <time>2026-02-26T10:05:28Z</time>
      </trkpt>
      <trkpt lat="48.67879" lon="2.02613">
        <ele>150</ele>
        <time>2026-02-26T10:05:30Z</time>
      </trkpt>
      <trkpt lat="48.67877" lon="2.0261">
        <ele>150</ele>
        <time>2026-02-26T10:05:32Z</time>
      </trkpt>
      <trkpt lat="48.67875" lon="2.02606">
        <ele>150</ele>
        <time>2026-02-26T10:05:35Z</time>
      </trkpt>
      <trkpt lat="48.67873" lon="2.02602">
        <ele>151</ele>
        <time>2026-02-26T10:05:38Z</time>
      </trkpt>
      <trkpt lat="48.67871" lon="2.02598">
        <ele>151</ele>
        <time>2026-02-26T10:05:42Z</time>
      </trkpt>
      <trkpt lat="48.67869" lon="2.02594">
        <ele>149</ele>
        <time>2026-02-26T10:05:46Z</time>
      </trkpt>
      <trkpt lat="48.67867" lon="2.0259">
        <ele>147</ele>
        <time>2026-02-26T10:05:48Z</time>
      </trkpt>
      <trkpt lat="48.67864" lon="2.02585">
        <ele>149</ele>
        <time>2026-02-26T10:05:52Z</time>
      </trkpt>
      <trkpt lat="48.67862" lon="2.02581">
        <ele>149</ele>
        <time>2026-02-26T10:05:54Z</time>
      </trkpt>
      <trkpt lat="48.67858" lon="2.02578">
        <ele>149</ele>
        <time>2026-02-26T10:05:57Z</time>
      </trkpt>
      <trkpt lat="48.67855" lon="2.02575">
        <ele>150</ele>
        <time>2026-02-26T10:06:00Z</time>
      </trkpt>
      <trkpt lat="48.67855" lon="2.02571">
        <ele>151</ele>
        <time>2026-02-26T10:06:11Z</time>
      </trkpt>
      <trkpt lat="48.67855" lon="2.02566">
        <ele>151</ele>
        <time>2026-02-26T10:06:16Z</time>
      </trkpt>
      <trkpt lat="48.67856" lon="2.02561">
        <ele>151</ele>
        <time>2026-02-26T10:06:21Z</time>
      </trkpt>
      <trkpt lat="48.67856" lon="2.02556">
        <ele>150</ele>
        <time>2026-02-26T10:06:23Z</time>
      </trkpt>
      <trkpt lat="48.67857" lon="2.02552">
        <ele>150</ele>
        <time>2026-02-26T10:06:25Z</time>
      </trkpt>
      <trkpt lat="48.67857" lon="2.02547">
        <ele>151</ele>
        <time>2026-02-26T10:06:28Z</time>
      </trkpt>
      <trkpt lat="48.67857" lon="2.02542">
        <ele>151</ele>
        <time>2026-02-26T10:06:31Z</time>
      </trkpt>
      <trkpt lat="48.67857" lon="2.02537">
        <ele>152</ele>
        <time>2026-02-26T10:06:35Z</time>
      </trkpt>
      <trkpt lat="48.67856" lon="2.02532">
        <ele>152</ele>
        <time>2026-02-26T10:06:40Z</time>
      </trkpt>
      <trkpt lat="48.67857" lon="2.02528">
        <ele>149</ele>
        <time>2026-02-26T10:06:47Z</time>
      </trkpt>
      <trkpt lat="48.67858" lon="2.02524">
        <ele>149</ele>
        <time>2026-02-26T10:06:53Z</time>
      </trkpt>
      <trkpt lat="48.67859" lon="2.0252">
        <ele>150</ele>
        <time>2026-02-26T10:06:57Z</time>
      </trkpt>
      <trkpt lat="48.67858" lon="2.02516">
        <ele>150</ele>
        <time>2026-02-26T10:07:03Z</time>
      </trkpt>
      <trkpt lat="48.67858" lon="2.02511">
        <ele>151</ele>
        <time>2026-02-26T10:07:08Z</time>
      </trkpt>
      <trkpt lat="48.67857" lon="2.02506">
        <ele>153</ele>
        <time>2026-02-26T10:07:12Z</time>
      </trkpt>
      <trkpt lat="48.67857" lon="2.025">
        <ele>155</ele>
        <time>2026-02-26T10:07:16Z</time>
      </trkpt>
      <trkpt lat="48.67857" lon="2.02495">
        <ele>153</ele>
        <time>2026-02-26T10:07:17Z</time>
      </trkpt>
      <trkpt lat="48.67856" lon="2.02486">
        <ele>149</ele>
        <time>2026-02-26T10:07:19Z</time>
      </trkpt>
      <trkpt lat="48.67856" lon="2.02479">
        <ele>150</ele>
        <time>2026-02-26T10:07:29Z</time>
      </trkpt>
      <trkpt lat="48.67857" lon="2.02474">
        <ele>150</ele>
        <time>2026-02-26T10:07:40Z</time>
      </trkpt>
      <trkpt lat="48.67858" lon="2.02469">
        <ele>151</ele>
        <time>2026-02-26T10:07:49Z</time>
      </trkpt>
      <trkpt lat="48.67858" lon="2.02464">
        <ele>152</ele>
        <time>2026-02-26T10:07:58Z</time>
      </trkpt>
      <trkpt lat="48.67857" lon="2.0246">
        <ele>154</ele>
        <time>2026-02-26T10:08:02Z</time>
      </trkpt>
      <trkpt lat="48.67855" lon="2.02456">
        <ele>155</ele>
        <time>2026-02-26T10:08:07Z</time>
      </trkpt>
      <trkpt lat="48.67855" lon="2.02451">
        <ele>155</ele>
        <time>2026-02-26T10:08:13Z</time>
      </trkpt>
      <trkpt lat="48.67854" lon="2.02446">
        <ele>153</ele>
        <time>2026-02-26T10:08:14Z</time>
      </trkpt>
      <trkpt lat="48.67837" lon="2.02424">
        <ele>148</ele>
        <time>2026-02-26T10:08:17Z</time>
      </trkpt>
      <trkpt lat="48.67839" lon="2.0242">
        <ele>151</ele>
        <time>2026-02-26T10:08:18Z</time>
      </trkpt>
      <trkpt lat="48.67844" lon="2.02418">
        <ele>154</ele>
        <time>2026-02-26T10:08:19Z</time>
      </trkpt>
      <trkpt lat="48.6785" lon="2.02418">
        <ele>157</ele>
        <time>2026-02-26T10:08:20Z</time>
      </trkpt>
      <trkpt lat="48.67852" lon="2.02414">
        <ele>161</ele>
        <time>2026-02-26T10:08:27Z</time>
      </trkpt>
      <trkpt lat="48.67854" lon="2.0241">
        <ele>162</ele>
        <time>2026-02-26T10:08:32Z</time>
      </trkpt>
      <trkpt lat="48.67857" lon="2.02404">
        <ele>164</ele>
        <time>2026-02-26T10:08:34Z</time>
      </trkpt>
      <trkpt lat="48.67859" lon="2.024">
        <ele>166</ele>
        <time>2026-02-26T10:08:42Z</time>
      </trkpt>
      <trkpt lat="48.67861" lon="2.02396">
        <ele>167</ele>
        <time>2026-02-26T10:08:51Z</time>
      </trkpt>
      <trkpt lat="48.67863" lon="2.02391">
        <ele>167</ele>
        <time>2026-02-26T10:08:54Z</time>
      </trkpt>
      <trkpt lat="48.67864" lon="2.02386">
        <ele>168</ele>
        <time>2026-02-26T10:08:58Z</time>
      </trkpt>
      <trkpt lat="48.67866" lon="2.0238">
        <ele>168</ele>
        <time>2026-02-26T10:09:03Z</time>
      </trkpt>
      <trkpt lat="48.67867" lon="2.02375">
        <ele>168</ele>
        <time>2026-02-26T10:09:06Z</time>
      </trkpt>
      <trkpt lat="48.67869" lon="2.0237">
        <ele>166</ele>
        <time>2026-02-26T10:09:23Z</time>
      </trkpt>
      <trkpt lat="48.67871" lon="2.02366">
        <ele>165</ele>
        <time>2026-02-26T10:09:25Z</time>
      </trkpt>
      <trkpt lat="48.67872" lon="2.02361">
        <ele>165</ele>
        <time>2026-02-26T10:09:33Z</time>
      </trkpt>
      <trkpt lat="48.67874" lon="2.02356">
        <ele>165</ele>
        <time>2026-02-26T10:09:40Z</time>
      </trkpt>
      <trkpt lat="48.67874" lon="2.02351">
        <ele>166</ele>
        <time>2026-02-26T10:09:42Z</time>
      </trkpt>
      <trkpt lat="48.67874" lon="2.02346">
        <ele>166</ele>
        <time>2026-02-26T10:09:56Z</time>
      </trkpt>
      <trkpt lat="48.67874" lon="2.0234">
        <ele>166</ele>
        <time>2026-02-26T10:10:18Z</time>
      </trkpt>
      <trkpt lat="48.67875" lon="2.02339">
        <ele>166</ele>
        <time>2026-02-26T10:10:24Z</time>
      </trkpt>
      <trkpt lat="48.67876" lon="2.02341">
        <ele>166</ele>
        <time>2026-02-26T10:10:27Z</time>
      </trkpt>
      <trkpt lat="48.67879" lon="2.02345">
        <ele>166</ele>
        <time>2026-02-26T10:10:34Z</time>
      </trkpt>
      <trkpt lat="48.6788" lon="2.02349">
        <ele>167</ele>
        <time>2026-02-26T10:10:38Z</time>
      </trkpt>
      <trkpt lat="48.67879" lon="2.02353">
        <ele>168</ele>
        <time>2026-02-26T10:10:49Z</time>
      </trkpt>
      <trkpt lat="48.67878" lon="2.02356">
        <ele>168</ele>
        <time>2026-02-26T10:11:57Z</time>
      </trkpt>
      <trkpt lat="48.67875" lon="2.02358">
        <ele>167</ele>
        <time>2026-02-26T10:12:06Z</time>
      </trkpt>
      <trkpt lat="48.67874" lon="2.02362">
        <ele>167</ele>
        <time>2026-02-26T10:12:22Z</time>
      </trkpt>
      <trkpt lat="48.67874" lon="2.02361">
        <ele>168</ele>
        <time>2026-02-26T10:12:37Z</time>
      </trkpt>
      <trkpt lat="48.67872" lon="2.02361">
        <ele>168</ele>
        <time>2026-02-26T10:13:28Z</time>
      </trkpt>
      <trkpt lat="48.6787" lon="2.0236">
        <ele>162</ele>
        <time>2026-02-26T10:15:22Z</time>
      </trkpt>
      <trkpt lat="48.67867" lon="2.02359">
        <ele>159</ele>
        <time>2026-02-26T10:15:30Z</time>
      </trkpt>
      <trkpt lat="48.67865" lon="2.02361">
        <ele>158</ele>
        <time>2026-02-26T10:15:36Z</time>
      </trkpt>
      <trkpt lat="48.67866" lon="2.02361">
        <ele>161</ele>
        <time>2026-02-26T10:15:45Z</time>
      </trkpt>
      <trkpt lat="48.67867" lon="2.02358">
        <ele>165</ele>
        <time>2026-02-26T10:16:10Z</time>
      </trkpt>
      <trkpt lat="48.67868" lon="2.0236">
        <ele>164</ele>
        <time>2026-02-26T10:16:16Z</time>
      </trkpt>
      <trkpt lat="48.67867" lon="2.02347">
        <ele>176</ele>
        <time>2026-02-26T10:16:27Z</time>
      </trkpt>
      <trkpt lat="48.67867" lon="2.02346">
        <ele>179</ele>
        <time>2026-02-26T10:16:29Z</time>
      </trkpt>
      <trkpt lat="48.67868" lon="2.02341">
        <ele>182</ele>
        <time>2026-02-26T10:16:31Z</time>
      </trkpt>
      <trkpt lat="48.67868" lon="2.02343">
        <ele>182</ele>
        <time>2026-02-26T10:16:32Z</time>
      </trkpt>
      <trkpt lat="48.67869" lon="2.02346">
        <ele>181</ele>
        <time>2026-02-26T10:16:43Z</time>
      </trkpt>
      <trkpt lat="48.67869" lon="2.02351">
        <ele>180</ele>
        <time>2026-02-26T10:16:52Z</time>
      </trkpt>
      <trkpt lat="48.67869" lon="2.02355">
        <ele>182</ele>
        <time>2026-02-26T10:17:00Z</time>
      </trkpt>
      <trkpt lat="48.67868" lon="2.0236">
        <ele>179</ele>
        <time>2026-02-26T10:17:06Z</time>
      </trkpt>
      <trkpt lat="48.67868" lon="2.02364">
        <ele>177</ele>
        <time>2026-02-26T10:17:10Z</time>
      </trkpt>
      <trkpt lat="48.6787" lon="2.02367">
        <ele>170</ele>
        <time>2026-02-26T10:17:13Z</time>
      </trkpt>
      <trkpt lat="48.67872" lon="2.02371">
        <ele>167</ele>
        <time>2026-02-26T10:17:16Z</time>
      </trkpt>
      <trkpt lat="48.67873" lon="2.02375">
        <ele>160</ele>
        <time>2026-02-26T10:17:18Z</time>
      </trkpt>
      <trkpt lat="48.67872" lon="2.02379">
        <ele>159</ele>
        <time>2026-02-26T10:17:20Z</time>
      </trkpt>
      <trkpt lat="48.67874" lon="2.02379">
        <ele>153</ele>
        <time>2026-02-26T10:17:27Z</time>
      </trkpt>
      <trkpt lat="48.67874" lon="2.02381">
        <ele>151</ele>
        <time>2026-02-26T10:17:30Z</time>
      </trkpt>
      <trkpt lat="48.67872" lon="2.02386">
        <ele>153</ele>
        <time>2026-02-26T10:17:38Z</time>
      </trkpt>
      <trkpt lat="48.67869" lon="2.0239">
        <ele>155</ele>
        <time>2026-02-26T10:17:41Z</time>
      </trkpt>
      <trkpt lat="48.67868" lon="2.02394">
        <ele>158</ele>
        <time>2026-02-26T10:17:48Z</time>
      </trkpt>
      <trkpt lat="48.67868" lon="2.02398">
        <ele>158</ele>
        <time>2026-02-26T10:17:52Z</time>
      </trkpt>
      <trkpt lat="48.67866" lon="2.02402">
        <ele>159</ele>
        <time>2026-02-26T10:17:55Z</time>
      </trkpt>
      <trkpt lat="48.67866" lon="2.02407">
        <ele>159</ele>
        <time>2026-02-26T10:17:57Z</time>
      </trkpt>
      <trkpt lat="48.67864" lon="2.0241">
        <ele>159</ele>
        <time>2026-02-26T10:18:00Z</time>
      </trkpt>
      <trkpt lat="48.67864" lon="2.02415">
        <ele>160</ele>
        <time>2026-02-26T10:18:04Z</time>
      </trkpt>
      <trkpt lat="48.67864" lon="2.02419">
        <ele>160</ele>
        <time>2026-02-26T10:18:09Z</time>
      </trkpt>
      <trkpt lat="48.67864" lon="2.02423">
        <ele>160</ele>
        <time>2026-02-26T10:18:13Z</time>
      </trkpt>
      <trkpt lat="48.67864" lon="2.02428">
        <ele>160</ele>
        <time>2026-02-26T10:18:17Z</time>
      </trkpt>
      <trkpt lat="48.67865" lon="2.02433">
        <ele>160</ele>
        <time>2026-02-26T10:18:24Z</time>
      </trkpt>
      <trkpt lat="48.67866" lon="2.02436">
        <ele>160</ele>
        <time>2026-02-26T10:18:29Z</time>
      </trkpt>
      <trkpt lat="48.67867" lon="2.02441">
        <ele>160</ele>
        <time>2026-02-26T10:18:36Z</time>
      </trkpt>
      <trkpt lat="48.67867" lon="2.02445">
        <ele>156</ele>
        <time>2026-02-26T10:18:44Z</time>
      </trkpt>
      <trkpt lat="48.67866" lon="2.02449">
        <ele>153</ele>
        <time>2026-02-26T10:18:51Z</time>
      </trkpt>
      <trkpt lat="48.67868" lon="2.02453">
        <ele>153</ele>
        <time>2026-02-26T10:18:55Z</time>
      </trkpt>
      <trkpt lat="48.67867" lon="2.02455">
        <ele>154</ele>
        <time>2026-02-26T10:19:00Z</time>
      </trkpt>
      <trkpt lat="48.67865" lon="2.02454">
        <ele>154</ele>
        <time>2026-02-26T10:19:03Z</time>
      </trkpt>
      <trkpt lat="48.67862" lon="2.02455">
        <ele>155</ele>
        <time>2026-02-26T10:19:07Z</time>
      </trkpt>
      <trkpt lat="48.67862" lon="2.02458">
        <ele>159</ele>
        <time>2026-02-26T10:19:21Z</time>
      </trkpt>
      <trkpt lat="48.67862" lon="2.02462">
        <ele>161</ele>
        <time>2026-02-26T10:19:27Z</time>
      </trkpt>
      <trkpt lat="48.67863" lon="2.02467">
        <ele>162</ele>
        <time>2026-02-26T10:19:30Z</time>
      </trkpt>
      <trkpt lat="48.67861" lon="2.02467">
        <ele>161</ele>
        <time>2026-02-26T10:19:40Z</time>
      </trkpt>
      <trkpt lat="48.67862" lon="2.0247">
        <ele>162</ele>
        <time>2026-02-26T10:19:44Z</time>
      </trkpt>
      <trkpt lat="48.67863" lon="2.02474">
        <ele>162</ele>
        <time>2026-02-26T10:19:47Z</time>
      </trkpt>
      <trkpt lat="48.67863" lon="2.02478">
        <ele>163</ele>
        <time>2026-02-26T10:19:49Z</time>
      </trkpt>
      <trkpt lat="48.67861" lon="2.02482">
        <ele>161</ele>
        <time>2026-02-26T10:19:52Z</time>
      </trkpt>
      <trkpt lat="48.67859" lon="2.02484">
        <ele>158</ele>
        <time>2026-02-26T10:19:53Z</time>
      </trkpt>
      <trkpt lat="48.67857" lon="2.02483">
        <ele>153</ele>
        <time>2026-02-26T10:19:58Z</time>
      </trkpt>
      <trkpt lat="48.67855" lon="2.02486">
        <ele>150</ele>
        <time>2026-02-26T10:20:00Z</time>
      </trkpt>
      <trkpt lat="48.67854" lon="2.0249">
        <ele>150</ele>
        <time>2026-02-26T10:20:03Z</time>
      </trkpt>
      <trkpt lat="48.67854" lon="2.02495">
        <ele>152</ele>
        <time>2026-02-26T10:20:07Z</time>
      </trkpt>
      <trkpt lat="48.67854" lon="2.025">
        <ele>154</ele>
        <time>2026-02-26T10:20:09Z</time>
      </trkpt>
      <trkpt lat="48.67854" lon="2.02505">
        <ele>155</ele>
        <time>2026-02-26T10:20:11Z</time>
      </trkpt>
      <trkpt lat="48.67853" lon="2.02509">
        <ele>156</ele>
        <time>2026-02-26T10:20:13Z</time>
      </trkpt>
      <trkpt lat="48.67854" lon="2.02513">
        <ele>157</ele>
        <time>2026-02-26T10:20:16Z</time>
      </trkpt>
      <trkpt lat="48.67855" lon="2.02517">
        <ele>158</ele>
        <time>2026-02-26T10:20:19Z</time>
      </trkpt>
      <trkpt lat="48.67856" lon="2.02522">
        <ele>158</ele>
        <time>2026-02-26T10:20:22Z</time>
      </trkpt>
      <trkpt lat="48.67857" lon="2.02527">
        <ele>158</ele>
        <time>2026-02-26T10:20:25Z</time>
      </trkpt>
      <trkpt lat="48.67858" lon="2.02532">
        <ele>158</ele>
        <time>2026-02-26T10:20:28Z</time>
      </trkpt>
      <trkpt lat="48.67861" lon="2.02537">
        <ele>158</ele>
        <time>2026-02-26T10:20:30Z</time>
      </trkpt>
      <trkpt lat="48.67862" lon="2.02541">
        <ele>158</ele>
        <time>2026-02-26T10:20:32Z</time>
      </trkpt>
      <trkpt lat="48.67863" lon="2.02546">
        <ele>158</ele>
        <time>2026-02-26T10:20:35Z</time>
      </trkpt>
      <trkpt lat="48.67864" lon="2.02551">
        <ele>159</ele>
        <time>2026-02-26T10:20:38Z</time>
      </trkpt>
      <trkpt lat="48.67865" lon="2.02555">
        <ele>157</ele>
        <time>2026-02-26T10:20:44Z</time>
      </trkpt>
      <trkpt lat="48.67863" lon="2.02559">
        <ele>155</ele>
        <time>2026-02-26T10:20:45Z</time>
      </trkpt>
      <trkpt lat="48.67865" lon="2.0256">
        <ele>153</ele>
        <time>2026-02-26T10:20:58Z</time>
      </trkpt>
      <trkpt lat="48.67867" lon="2.02558">
        <ele>152</ele>
        <time>2026-02-26T10:21:00Z</time>
      </trkpt>
      <trkpt lat="48.67871" lon="2.02559">
        <ele>152</ele>
        <time>2026-02-26T10:21:04Z</time>
      </trkpt>
      <trkpt lat="48.67874" lon="2.02558">
        <ele>152</ele>
        <time>2026-02-26T10:21:06Z</time>
      </trkpt>
      <trkpt lat="48.67877" lon="2.02558">
        <ele>152</ele>
        <time>2026-02-26T10:21:09Z</time>
      </trkpt>
      <trkpt lat="48.6788" lon="2.02555">
        <ele>152</ele>
        <time>2026-02-26T10:21:12Z</time>
      </trkpt>
      <trkpt lat="48.67881" lon="2.0255">
        <ele>152</ele>
        <time>2026-02-26T10:21:15Z</time>
      </trkpt>
      <trkpt lat="48.67884" lon="2.0255">
        <ele>151</ele>
        <time>2026-02-26T10:21:20Z</time>
      </trkpt>
      <trkpt lat="48.67886" lon="2.02551">
        <ele>151</ele>
        <time>2026-02-26T10:21:23Z</time>
      </trkpt>
      <trkpt lat="48.67889" lon="2.02551">
        <ele>151</ele>
        <time>2026-02-26T10:21:26Z</time>
      </trkpt>
      <trkpt lat="48.67893" lon="2.0255">
        <ele>150</ele>
        <time>2026-02-26T10:21:28Z</time>
      </trkpt>
      <trkpt lat="48.67896" lon="2.02549">
        <ele>150</ele>
        <time>2026-02-26T10:21:31Z</time>
      </trkpt>
      <trkpt lat="48.67899" lon="2.02548">
        <ele>150</ele>
        <time>2026-02-26T10:21:34Z</time>
      </trkpt>
      <trkpt lat="48.67903" lon="2.02548">
        <ele>150</ele>
        <time>2026-02-26T10:21:37Z</time>
      </trkpt>
      <trkpt lat="48.67906" lon="2.02547">
        <ele>151</ele>
        <time>2026-02-26T10:21:40Z</time>
      </trkpt>
      <trkpt lat="48.6791" lon="2.02547">
        <ele>151</ele>
        <time>2026-02-26T10:21:42Z</time>
      </trkpt>
      <trkpt lat="48.67913" lon="2.02548">
        <ele>152</ele>
        <time>2026-02-26T10:21:46Z</time>
      </trkpt>
      <trkpt lat="48.67916" lon="2.02548">
        <ele>152</ele>
        <time>2026-02-26T10:21:49Z</time>
      </trkpt>
      <trkpt lat="48.67919" lon="2.02548">
        <ele>153</ele>
        <time>2026-02-26T10:21:53Z</time>
      </trkpt>
      <trkpt lat="48.67922" lon="2.02549">
        <ele>153</ele>
        <time>2026-02-26T10:21:55Z</time>
      </trkpt>
      <trkpt lat="48.67923" lon="2.02552">
        <ele>154</ele>
        <time>2026-02-26T10:22:00Z</time>
      </trkpt>
      <trkpt lat="48.67923" lon="2.02556">
        <ele>154</ele>
        <time>2026-02-26T10:22:03Z</time>
      </trkpt>
      <trkpt lat="48.67924" lon="2.02561">
        <ele>155</ele>
        <time>2026-02-26T10:22:06Z</time>
      </trkpt>
      <trkpt lat="48.67925" lon="2.02566">
        <ele>156</ele>
        <time>2026-02-26T10:22:09Z</time>
      </trkpt>
      <trkpt lat="48.67926" lon="2.02571">
        <ele>157</ele>
        <time>2026-02-26T10:22:11Z</time>
      </trkpt>
      <trkpt lat="48.67927" lon="2.02576">
        <ele>157</ele>
        <time>2026-02-26T10:22:14Z</time>
      </trkpt>
      <trkpt lat="48.67927" lon="2.02582">
        <ele>157</ele>
        <time>2026-02-26T10:22:18Z</time>
      </trkpt>
      <trkpt lat="48.67926" lon="2.02587">
        <ele>158</ele>
        <time>2026-02-26T10:22:21Z</time>
      </trkpt>
      <trkpt lat="48.67927" lon="2.0259">
        <ele>150</ele>
        <time>2026-02-26T10:22:32Z</time>
      </trkpt>
      <trkpt lat="48.67928" lon="2.02594">
        <ele>147</ele>
        <time>2026-02-26T10:22:34Z</time>
      </trkpt>
      <trkpt lat="48.67929" lon="2.02598">
        <ele>146</ele>
        <time>2026-02-26T10:22:35Z</time>
      </trkpt>
      <trkpt lat="48.67929" lon="2.02604">
        <ele>146</ele>
        <time>2026-02-26T10:22:41Z</time>
      </trkpt>
      <trkpt lat="48.6793" lon="2.0261">
        <ele>147</ele>
        <time>2026-02-26T10:22:44Z</time>
      </trkpt>
      <trkpt lat="48.67929" lon="2.02615">
        <ele>144</ele>
        <time>2026-02-26T10:22:48Z</time>
      </trkpt>
      <trkpt lat="48.67929" lon="2.02621">
        <ele>143</ele>
        <time>2026-02-26T10:22:51Z</time>
      </trkpt>
      <trkpt lat="48.67927" lon="2.02627">
        <ele>144</ele>
        <time>2026-02-26T10:22:57Z</time>
      </trkpt>
      <trkpt lat="48.67926" lon="2.02632">
        <ele>144</ele>
        <time>2026-02-26T10:22:59Z</time>
      </trkpt>
      <trkpt lat="48.67928" lon="2.02632">
        <ele>143</ele>
        <time>2026-02-26T10:23:06Z</time>
      </trkpt>
      <trkpt lat="48.67931" lon="2.02632">
        <ele>144</ele>
        <time>2026-02-26T10:23:12Z</time>
      </trkpt>
      <trkpt lat="48.67932" lon="2.02635">
        <ele>142</ele>
        <time>2026-02-26T10:23:18Z</time>
      </trkpt>
      <trkpt lat="48.67934" lon="2.02636">
        <ele>138</ele>
        <time>2026-02-26T10:23:20Z</time>
      </trkpt>
      <trkpt lat="48.67935" lon="2.0264">
        <ele>138</ele>
        <time>2026-02-26T10:23:23Z</time>
      </trkpt>
      <trkpt lat="48.67935" lon="2.02645">
        <ele>139</ele>
        <time>2026-02-26T10:23:53Z</time>
      </trkpt>
      <trkpt lat="48.67936" lon="2.0265">
        <ele>140</ele>
        <time>2026-02-26T10:24:04Z</time>
      </trkpt>
      <trkpt lat="48.67939" lon="2.02649">
        <ele>134</ele>
        <time>2026-02-26T10:24:09Z</time>
      </trkpt>
      <trkpt lat="48.67942" lon="2.02648">
        <ele>133</ele>
        <time>2026-02-26T10:24:13Z</time>
      </trkpt>
      <trkpt lat="48.67945" lon="2.0265">
        <ele>133</ele>
        <time>2026-02-26T10:24:17Z</time>
      </trkpt>
      <trkpt lat="48.67947" lon="2.02652">
        <ele>134</ele>
        <time>2026-02-26T10:24:21Z</time>
      </trkpt>
      <trkpt lat="48.6795" lon="2.02652">
        <ele>135</ele>
        <time>2026-02-26T10:24:29Z</time>
      </trkpt>
      <trkpt lat="48.67953" lon="2.02652">
        <ele>136</ele>
        <time>2026-02-26T10:24:34Z</time>
      </trkpt>
      <trkpt lat="48.67955" lon="2.02655">
        <ele>138</ele>
        <time>2026-02-26T10:24:39Z</time>
      </trkpt>
      <trkpt lat="48.67957" lon="2.02659">
        <ele>140</ele>
        <time>2026-02-26T10:24:43Z</time>
      </trkpt>
      <trkpt lat="48.67959" lon="2.02662">
        <ele>142</ele>
        <time>2026-02-26T10:24:46Z</time>
      </trkpt>
      <trkpt lat="48.67962" lon="2.02664">
        <ele>144</ele>
        <time>2026-02-26T10:24:50Z</time>
      </trkpt>
      <trkpt lat="48.67964" lon="2.02668">
        <ele>145</ele>
        <time>2026-02-26T10:24:54Z</time>
      </trkpt>
      <trkpt lat="48.67967" lon="2.02672">
        <ele>147</ele>
        <time>2026-02-26T10:25:08Z</time>
      </trkpt>
      <trkpt lat="48.67969" lon="2.02676">
        <ele>148</ele>
        <time>2026-02-26T10:25:11Z</time>
      </trkpt>
      <trkpt lat="48.67971" lon="2.0268">
        <ele>149</ele>
        <time>2026-02-26T10:25:13Z</time>
      </trkpt>
      <trkpt lat="48.67971" lon="2.02685">
        <ele>149</ele>
        <time>2026-02-26T10:25:16Z</time>
      </trkpt>
      <trkpt lat="48.6797" lon="2.0269">
        <ele>148</ele>
        <time>2026-02-26T10:25:18Z</time>
      </trkpt>
      <trkpt lat="48.67969" lon="2.02695">
        <ele>149</ele>
        <time>2026-02-26T10:25:21Z</time>
      </trkpt>
      <trkpt lat="48.6797" lon="2.02699">
        <ele>149</ele>
        <time>2026-02-26T10:25:23Z</time>
      </trkpt>
      <trkpt lat="48.67973" lon="2.02706">
        <ele>150</ele>
        <time>2026-02-26T10:25:27Z</time>
      </trkpt>
      <trkpt lat="48.67975" lon="2.0271">
        <ele>150</ele>
        <time>2026-02-26T10:25:29Z</time>
      </trkpt>
      <trkpt lat="48.67977" lon="2.02715">
        <ele>151</ele>
        <time>2026-02-26T10:25:31Z</time>
      </trkpt>
      <trkpt lat="48.67978" lon="2.02719">
        <ele>152</ele>
        <time>2026-02-26T10:25:33Z</time>
      </trkpt>
      <trkpt lat="48.67979" lon="2.02724">
        <ele>152</ele>
        <time>2026-02-26T10:25:35Z</time>
      </trkpt>
      <trkpt lat="48.6798" lon="2.02729">
        <ele>153</ele>
        <time>2026-02-26T10:25:38Z</time>
      </trkpt>
      <trkpt lat="48.67981" lon="2.02732">
        <ele>156</ele>
        <time>2026-02-26T10:25:42Z</time>
      </trkpt>
      <trkpt lat="48.67983" lon="2.02737">
        <ele>159</ele>
        <time>2026-02-26T10:25:48Z</time>
      </trkpt>
      <trkpt lat="48.67983" lon="2.02742">
        <ele>158</ele>
        <time>2026-02-26T10:25:54Z</time>
      </trkpt>
      <trkpt lat="48.67985" lon="2.02746">
        <ele>159</ele>
        <time>2026-02-26T10:25:56Z</time>
      </trkpt>
      <trkpt lat="48.67986" lon="2.02751">
        <ele>161</ele>
        <time>2026-02-26T10:26:05Z</time>
      </trkpt>
      <trkpt lat="48.67985" lon="2.02755">
        <ele>164</ele>
        <time>2026-02-26T10:26:09Z</time>
      </trkpt>
      <trkpt lat="48.67984" lon="2.02759">
        <ele>166</ele>
        <time>2026-02-26T10:26:13Z</time>
      </trkpt>
      <trkpt lat="48.67983" lon="2.02763">
        <ele>166</ele>
        <time>2026-02-26T10:26:16Z</time>
      </trkpt>
      <trkpt lat="48.67982" lon="2.02768">
        <ele>167</ele>
        <time>2026-02-26T10:26:19Z</time>
      </trkpt>
      <trkpt lat="48.6798" lon="2.02771">
        <ele>168</ele>
        <time>2026-02-26T10:26:22Z</time>
      </trkpt>
      <trkpt lat="48.67979" lon="2.02777">
        <ele>169</ele>
        <time>2026-02-26T10:26:25Z</time>
      </trkpt>
      <trkpt lat="48.67979" lon="2.02781">
        <ele>169</ele>
        <time>2026-02-26T10:26:28Z</time>
      </trkpt>
      <trkpt lat="48.67977" lon="2.02787">
        <ele>170</ele>
        <time>2026-02-26T10:26:31Z</time>
      </trkpt>
      <trkpt lat="48.67976" lon="2.02791">
        <ele>170</ele>
        <time>2026-02-26T10:26:34Z</time>
      </trkpt>
      <trkpt lat="48.67975" lon="2.02796">
        <ele>170</ele>
        <time>2026-02-26T10:26:37Z</time>
      </trkpt>
      <trkpt lat="48.67976" lon="2.028">
        <ele>170</ele>
        <time>2026-02-26T10:26:39Z</time>
      </trkpt>
      <trkpt lat="48.67976" lon="2.02805">
        <ele>169</ele>
        <time>2026-02-26T10:26:42Z</time>
      </trkpt>
      <trkpt lat="48.67976" lon="2.02809">
        <ele>162</ele>
        <time>2026-02-26T10:26:46Z</time>
      </trkpt>
      <trkpt lat="48.67976" lon="2.02814">
        <ele>160</ele>
        <time>2026-02-26T10:26:50Z</time>
      </trkpt>
      <trkpt lat="48.67976" lon="2.02819">
        <ele>162</ele>
        <time>2026-02-26T10:26:53Z</time>
      </trkpt>
      <trkpt lat="48.67974" lon="2.02824">
        <ele>162</ele>
        <time>2026-02-26T10:26:57Z</time>
      </trkpt>
      <trkpt lat="48.67972" lon="2.02829">
        <ele>159</ele>
        <time>2026-02-26T10:26:58Z</time>
      </trkpt>
      <trkpt lat="48.67972" lon="2.02834">
        <ele>158</ele>
        <time>2026-02-26T10:27:03Z</time>
      </trkpt>
      <trkpt lat="48.6797" lon="2.02835">
        <ele>158</ele>
        <time>2026-02-26T10:27:05Z</time>
      </trkpt>
      <trkpt lat="48.67969" lon="2.02838">
        <ele>160</ele>
        <time>2026-02-26T10:27:10Z</time>
      </trkpt>
      <trkpt lat="48.67969" lon="2.02843">
        <ele>162</ele>
        <time>2026-02-26T10:27:13Z</time>
      </trkpt>
      <trkpt lat="48.6797" lon="2.02847">
        <ele>163</ele>
        <time>2026-02-26T10:27:17Z</time>
      </trkpt>
      <trkpt lat="48.6797" lon="2.02852">
        <ele>164</ele>
        <time>2026-02-26T10:27:20Z</time>
      </trkpt>
      <trkpt lat="48.6797" lon="2.0286">
        <ele>163</ele>
        <time>2026-02-26T10:27:33Z</time>
      </trkpt>
      <trkpt lat="48.6796" lon="2.0287">
        <ele>166</ele>
        <time>2026-02-26T10:27:37Z</time>
      </trkpt>
      <trkpt lat="48.67958" lon="2.02878">
        <ele>168</ele>
        <time>2026-02-26T10:27:38Z</time>
      </trkpt>
      <trkpt lat="48.67961" lon="2.02883">
        <ele>171</ele>
        <time>2026-02-26T10:27:39Z</time>
      </trkpt>
      <trkpt lat="48.67964" lon="2.02887">
        <ele>172</ele>
        <time>2026-02-26T10:27:40Z</time>
      </trkpt>
      <trkpt lat="48.67963" lon="2.02891">
        <ele>168</ele>
        <time>2026-02-26T10:27:42Z</time>
      </trkpt>
      <trkpt lat="48.67962" lon="2.02894">
        <ele>166</ele>
        <time>2026-02-26T10:28:04Z</time>
      </trkpt>
      <trkpt lat="48.67959" lon="2.02897">
        <ele>164</ele>
        <time>2026-02-26T10:28:07Z</time>
      </trkpt>
      <trkpt lat="48.67956" lon="2.02901">
        <ele>163</ele>
        <time>2026-02-26T10:28:37Z</time>
      </trkpt>
      <trkpt lat="48.67953" lon="2.02906">
        <ele>162</ele>
        <time>2026-02-26T10:28:39Z</time>
      </trkpt>
      <trkpt lat="48.6795" lon="2.0291">
        <ele>162</ele>
        <time>2026-02-26T10:28:40Z</time>
      </trkpt>
      <trkpt lat="48.67947" lon="2.02913">
        <ele>162</ele>
        <time>2026-02-26T10:28:54Z</time>
      </trkpt>
      <trkpt lat="48.67943" lon="2.02915">
        <ele>162</ele>
        <time>2026-02-26T10:28:56Z</time>
      </trkpt>
      <trkpt lat="48.67937" lon="2.02919">
        <ele>161</ele>
        <time>2026-02-26T10:29:00Z</time>
      </trkpt>
      <trkpt lat="48.67932" lon="2.02921">
        <ele>159</ele>
        <time>2026-02-26T10:29:02Z</time>
      </trkpt>
      <trkpt lat="48.67926" lon="2.02926">
        <ele>157</ele>
        <time>2026-02-26T10:29:06Z</time>
      </trkpt>
      <trkpt lat="48.67922" lon="2.02929">
        <ele>155</ele>
        <time>2026-02-26T10:29:08Z</time>
      </trkpt>
      <trkpt lat="48.67916" lon="2.02932">
        <ele>153</ele>
        <time>2026-02-26T10:29:12Z</time>
      </trkpt>
      <trkpt lat="48.67911" lon="2.02935">
        <ele>152</ele>
        <time>2026-02-26T10:29:14Z</time>
      </trkpt>
      <trkpt lat="48.67905" lon="2.02937">
        <ele>152</ele>
        <time>2026-02-26T10:29:18Z</time>
      </trkpt>
      <trkpt lat="48.67902" lon="2.02939">
        <ele>151</ele>
        <time>2026-02-26T10:29:20Z</time>
      </trkpt>
      <trkpt lat="48.67898" lon="2.0294">
        <ele>152</ele>
        <time>2026-02-26T10:29:24Z</time>
      </trkpt>
      <trkpt lat="48.67894" lon="2.02942">
        <ele>152</ele>
        <time>2026-02-26T10:29:27Z</time>
      </trkpt>
      <trkpt lat="48.67891" lon="2.02944">
        <ele>152</ele>
        <time>2026-02-26T10:29:30Z</time>
      </trkpt>
      <trkpt lat="48.67888" lon="2.02946">
        <ele>153</ele>
        <time>2026-02-26T10:29:32Z</time>
      </trkpt>
      <trkpt lat="48.67884" lon="2.02948">
        <ele>155</ele>
        <time>2026-02-26T10:29:36Z</time>
      </trkpt>
      <trkpt lat="48.67881" lon="2.0295">
        <ele>156</ele>
        <time>2026-02-26T10:29:38Z</time>
      </trkpt>
      <trkpt lat="48.67877" lon="2.02951">
        <ele>158</ele>
        <time>2026-02-26T10:29:42Z</time>
      </trkpt>
      <trkpt lat="48.67874" lon="2.02952">
        <ele>159</ele>
        <time>2026-02-26T10:29:44Z</time>
      </trkpt>
      <trkpt lat="48.6787" lon="2.02952">
        <ele>159</ele>
        <time>2026-02-26T10:29:48Z</time>
      </trkpt>
      <trkpt lat="48.67866" lon="2.02953">
        <ele>159</ele>
        <time>2026-02-26T10:29:50Z</time>
      </trkpt>
      <trkpt lat="48.67863" lon="2.02953">
        <ele>159</ele>
        <time>2026-02-26T10:29:54Z</time>
      </trkpt>
      <trkpt lat="48.6786" lon="2.02953">
        <ele>159</ele>
        <time>2026-02-26T10:29:56Z</time>
      </trkpt>
      <trkpt lat="48.67856" lon="2.02953">
        <ele>160</ele>
        <time>2026-02-26T10:29:59Z</time>
      </trkpt>
      <trkpt lat="48.67853" lon="2.02953">
        <ele>160</ele>
        <time>2026-02-26T10:30:02Z</time>
      </trkpt>
      <trkpt lat="48.6785" lon="2.02953">
        <ele>161</ele>
        <time>2026-02-26T10:30:05Z</time>
      </trkpt>
      <trkpt lat="48.67847" lon="2.02952">
        <ele>161</ele>
        <time>2026-02-26T10:30:08Z</time>
      </trkpt>
      <trkpt lat="48.67843" lon="2.02951">
        <ele>161</ele>
        <time>2026-02-26T10:30:12Z</time>
      </trkpt>
      <trkpt lat="48.6784" lon="2.02948">
        <ele>162</ele>
        <time>2026-02-26T10:30:17Z</time>
      </trkpt>
      <trkpt lat="48.67837" lon="2.02945">
        <ele>164</ele>
        <time>2026-02-26T10:30:20Z</time>
      </trkpt>
      <trkpt lat="48.67832" lon="2.02943">
        <ele>162</ele>
        <time>2026-02-26T10:30:22Z</time>
      </trkpt>
      <trkpt lat="48.67822" lon="2.02948">
        <ele>167</ele>
        <time>2026-02-26T10:30:25Z</time>
      </trkpt>
      <trkpt lat="48.67827" lon="2.02942">
        <ele>168</ele>
        <time>2026-02-26T10:30:26Z</time>
      </trkpt>
      <trkpt lat="48.67831" lon="2.02942">
        <ele>172</ele>
        <time>2026-02-26T10:30:27Z</time>
      </trkpt>
      <trkpt lat="48.67831" lon="2.02942">
        <ele>173</ele>
        <time>2026-02-26T10:30:28Z</time>
      </trkpt>
      <trkpt lat="48.67828" lon="2.02941">
        <ele>171</ele>
        <time>2026-02-26T10:30:30Z</time>
      </trkpt>
      <trkpt lat="48.67827" lon="2.02938">
        <ele>172</ele>
        <time>2026-02-26T10:30:35Z</time>
      </trkpt>
      <trkpt lat="48.67825" lon="2.02934">
        <ele>174</ele>
        <time>2026-02-26T10:30:41Z</time>
      </trkpt>
      <trkpt lat="48.67823" lon="2.02931">
        <ele>176</ele>
        <time>2026-02-26T10:30:43Z</time>
      </trkpt>
      <trkpt lat="48.6782" lon="2.02928">
        <ele>176</ele>
        <time>2026-02-26T10:30:46Z</time>
      </trkpt>
      <trkpt lat="48.67817" lon="2.02926">
        <ele>176</ele>
        <time>2026-02-26T10:30:56Z</time>
      </trkpt>
      <trkpt lat="48.67814" lon="2.02924">
        <ele>176</ele>
        <time>2026-02-26T10:30:58Z</time>
      </trkpt>
      <trkpt lat="48.67811" lon="2.02921">
        <ele>176</ele>
        <time>2026-02-26T10:31:00Z</time>
      </trkpt>
      <trkpt lat="48.67807" lon="2.0292">
        <ele>176</ele>
        <time>2026-02-26T10:31:02Z</time>
      </trkpt>
      <trkpt lat="48.67804" lon="2.02918">
        <ele>176</ele>
        <time>2026-02-26T10:31:06Z</time>
      </trkpt>
      <trkpt lat="48.67801" lon="2.02916">
        <ele>176</ele>
        <time>2026-02-26T10:31:09Z</time>
      </trkpt>
      <trkpt lat="48.67798" lon="2.02913">
        <ele>176</ele>
        <time>2026-02-26T10:31:11Z</time>
      </trkpt>
      <trkpt lat="48.67795" lon="2.0291">
        <ele>175</ele>
        <time>2026-02-26T10:31:13Z</time>
      </trkpt>
      <trkpt lat="48.67792" lon="2.02907">
        <ele>173</ele>
        <time>2026-02-26T10:31:16Z</time>
      </trkpt>
      <trkpt lat="48.67789" lon="2.02904">
        <ele>172</ele>
        <time>2026-02-26T10:31:20Z</time>
      </trkpt>
      <trkpt lat="48.67786" lon="2.02902">
        <ele>171</ele>
        <time>2026-02-26T10:31:23Z</time>
      </trkpt>
      <trkpt lat="48.67783" lon="2.029">
        <ele>171</ele>
        <time>2026-02-26T10:31:26Z</time>
      </trkpt>
      <trkpt lat="48.6778" lon="2.02898">
        <ele>170</ele>
        <time>2026-02-26T10:31:33Z</time>
      </trkpt>
      <trkpt lat="48.67776" lon="2.02897">
        <ele>171</ele>
        <time>2026-02-26T10:31:44Z</time>
      </trkpt>
      <trkpt lat="48.67772" lon="2.02895">
        <ele>171</ele>
        <time>2026-02-26T10:31:50Z</time>
      </trkpt>
      <trkpt lat="48.67767" lon="2.02894">
        <ele>172</ele>
        <time>2026-02-26T10:31:56Z</time>
      </trkpt>
      <trkpt lat="48.67763" lon="2.02893">
        <ele>173</ele>
        <time>2026-02-26T10:31:59Z</time>
      </trkpt>
      <trkpt lat="48.67759" lon="2.02893">
        <ele>174</ele>
        <time>2026-02-26T10:32:02Z</time>
      </trkpt>
      <trkpt lat="48.67755" lon="2.02892">
        <ele>175</ele>
        <time>2026-02-26T10:32:05Z</time>
      </trkpt>
      <trkpt lat="48.67752" lon="2.02892">
        <ele>175</ele>
        <time>2026-02-26T10:32:08Z</time>
      </trkpt>
      <trkpt lat="48.67749" lon="2.02892">
        <ele>175</ele>
        <time>2026-02-26T10:32:11Z</time>
      </trkpt>
      <trkpt lat="48.67746" lon="2.02893">
        <ele>175</ele>
        <time>2026-02-26T10:32:14Z</time>
      </trkpt>
      <trkpt lat="48.67742" lon="2.02894">
        <ele>172</ele>
        <time>2026-02-26T10:32:17Z</time>
      </trkpt>
      <trkpt lat="48.67739" lon="2.02897">
        <ele>167</ele>
        <time>2026-02-26T10:32:19Z</time>
      </trkpt>
      <trkpt lat="48.67736" lon="2.02899">
        <ele>166</ele>
        <time>2026-02-26T10:32:22Z</time>
      </trkpt>
      <trkpt lat="48.67733" lon="2.02899">
        <ele>167</ele>
        <time>2026-02-26T10:32:30Z</time>
      </trkpt>
      <trkpt lat="48.67729" lon="2.029">
        <ele>168</ele>
        <time>2026-02-26T10:32:32Z</time>
      </trkpt>
      <trkpt lat="48.67726" lon="2.02901">
        <ele>169</ele>
        <time>2026-02-26T10:32:35Z</time>
      </trkpt>
      <trkpt lat="48.67722" lon="2.02902">
        <ele>170</ele>
        <time>2026-02-26T10:32:37Z</time>
      </trkpt>
      <trkpt lat="48.67719" lon="2.02903">
        <ele>171</ele>
        <time>2026-02-26T10:32:40Z</time>
      </trkpt>
      <trkpt lat="48.67716" lon="2.02903">
        <ele>171</ele>
        <time>2026-02-26T10:32:42Z</time>
      </trkpt>
      <trkpt lat="48.67712" lon="2.02905">
        <ele>172</ele>
        <time>2026-02-26T10:32:49Z</time>
      </trkpt>
      <trkpt lat="48.67709" lon="2.02905">
        <ele>173</ele>
        <time>2026-02-26T10:32:51Z</time>
      </trkpt>
      <trkpt lat="48.67705" lon="2.02906">
        <ele>174</ele>
        <time>2026-02-26T10:32:59Z</time>
      </trkpt>
      <trkpt lat="48.67702" lon="2.02907">
        <ele>175</ele>
        <time>2026-02-26T10:33:02Z</time>
      </trkpt>
      <trkpt lat="48.67699" lon="2.0291">
        <ele>175</ele>
        <time>2026-02-26T10:33:10Z</time>
      </trkpt>
      <trkpt lat="48.67695" lon="2.02913">
        <ele>176</ele>
        <time>2026-02-26T10:33:13Z</time>
      </trkpt>
      <trkpt lat="48.67691" lon="2.02915">
        <ele>175</ele>
        <time>2026-02-26T10:33:21Z</time>
      </trkpt>
      <trkpt lat="48.67689" lon="2.02917">
        <ele>174</ele>
        <time>2026-02-26T10:33:24Z</time>
      </trkpt>
      <trkpt lat="48.67686" lon="2.02921">
        <ele>173</ele>
        <time>2026-02-26T10:33:29Z</time>
      </trkpt>
      <trkpt lat="48.67685" lon="2.02925">
        <ele>173</ele>
        <time>2026-02-26T10:33:34Z</time>
      </trkpt>
      <trkpt lat="48.67683" lon="2.02929">
        <ele>172</ele>
        <time>2026-02-26T10:33:37Z</time>
      </trkpt>
      <trkpt lat="48.67682" lon="2.02933">
        <ele>173</ele>
        <time>2026-02-26T10:33:40Z</time>
      </trkpt>
      <trkpt lat="48.67681" lon="2.02937">
        <ele>173</ele>
        <time>2026-02-26T10:33:43Z</time>
      </trkpt>
      <trkpt lat="48.67681" lon="2.02943">
        <ele>175</ele>
        <time>2026-02-26T10:33:49Z</time>
      </trkpt>
      <trkpt lat="48.67681" lon="2.02949">
        <ele>176</ele>
        <time>2026-02-26T10:33:54Z</time>
      </trkpt>
      <trkpt lat="48.6768" lon="2.02955">
        <ele>178</ele>
        <time>2026-02-26T10:34:00Z</time>
      </trkpt>
      <trkpt lat="48.6768" lon="2.02961">
        <ele>178</ele>
        <time>2026-02-26T10:34:03Z</time>
      </trkpt>
      <trkpt lat="48.6768" lon="2.02966">
        <ele>179</ele>
        <time>2026-02-26T10:34:07Z</time>
      </trkpt>
      <trkpt lat="48.6768" lon="2.02973">
        <ele>180</ele>
        <time>2026-02-26T10:34:12Z</time>
      </trkpt>
      <trkpt lat="48.6768" lon="2.02979">
        <ele>180</ele>
        <time>2026-02-26T10:34:15Z</time>
      </trkpt>
      <trkpt lat="48.67679" lon="2.02984">
        <ele>180</ele>
        <time>2026-02-26T10:34:20Z</time>
      </trkpt>
      <trkpt lat="48.67679" lon="2.02988">
        <ele>180</ele>
        <time>2026-02-26T10:34:25Z</time>
      </trkpt>
      <trkpt lat="48.67679" lon="2.02993">
        <ele>180</ele>
        <time>2026-02-26T10:34:29Z</time>
      </trkpt>
      <trkpt lat="48.67679" lon="2.02999">
        <ele>180</ele>
        <time>2026-02-26T10:34:32Z</time>
      </trkpt>
      <trkpt lat="48.67679" lon="2.03004">
        <ele>180</ele>
        <time>2026-02-26T10:34:35Z</time>
      </trkpt>
      <trkpt lat="48.6768" lon="2.0301">
        <ele>180</ele>
        <time>2026-02-26T10:34:40Z</time>
      </trkpt>
      <trkpt lat="48.67679" lon="2.03015">
        <ele>180</ele>
        <time>2026-02-26T10:34:43Z</time>
      </trkpt>
      <trkpt lat="48.67679" lon="2.0302">
        <ele>179</ele>
        <time>2026-02-26T10:34:48Z</time>
      </trkpt>
      <trkpt lat="48.67679" lon="2.03024">
        <ele>178</ele>
        <time>2026-02-26T10:34:51Z</time>
      </trkpt>
      <trkpt lat="48.67678" lon="2.03029">
        <ele>178</ele>
        <time>2026-02-26T10:34:54Z</time>
      </trkpt>
      <trkpt lat="48.67678" lon="2.03034">
        <ele>178</ele>
        <time>2026-02-26T10:34:57Z</time>
      </trkpt>
      <trkpt lat="48.67678" lon="2.03039">
        <ele>178</ele>
        <time>2026-02-26T10:35:01Z</time>
      </trkpt>
      <trkpt lat="48.67679" lon="2.03044">
        <ele>178</ele>
        <time>2026-02-26T10:35:04Z</time>
      </trkpt>
      <trkpt lat="48.67679" lon="2.0305">
        <ele>178</ele>
        <time>2026-02-26T10:35:08Z</time>
      </trkpt>
      <trkpt lat="48.67678" lon="2.03057">
        <ele>178</ele>
        <time>2026-02-26T10:35:13Z</time>
      </trkpt>
      <trkpt lat="48.67678" lon="2.03063">
        <ele>178</ele>
        <time>2026-02-26T10:35:16Z</time>
      </trkpt>
      <trkpt lat="48.67678" lon="2.03068">
        <ele>179</ele>
        <time>2026-02-26T10:35:19Z</time>
      </trkpt>
      <trkpt lat="48.67677" lon="2.03072">
        <ele>178</ele>
        <time>2026-02-26T10:35:22Z</time>
      </trkpt>
      <trkpt lat="48.67677" lon="2.03077">
        <ele>178</ele>
        <time>2026-02-26T10:35:26Z</time>
      </trkpt>
      <trkpt lat="48.67677" lon="2.03082">
        <ele>177</ele>
        <time>2026-02-26T10:35:29Z</time>
      </trkpt>
      <trkpt lat="48.67677" lon="2.03089">
        <ele>177</ele>
        <time>2026-02-26T10:35:34Z</time>
      </trkpt>
      <trkpt lat="48.67677" lon="2.03094">
        <ele>176</ele>
        <time>2026-02-26T10:35:37Z</time>
      </trkpt>
      <trkpt lat="48.67676" lon="2.03099">
        <ele>176</ele>
        <time>2026-02-26T10:35:40Z</time>
      </trkpt>
      <trkpt lat="48.67676" lon="2.03104">
        <ele>176</ele>
        <time>2026-02-26T10:35:43Z</time>
      </trkpt>
      <trkpt lat="48.67675" lon="2.03109">
        <ele>175</ele>
        <time>2026-02-26T10:35:46Z</time>
      </trkpt>
      <trkpt lat="48.67675" lon="2.03115">
        <ele>175</ele>
        <time>2026-02-26T10:35:49Z</time>
      </trkpt>
      <trkpt lat="48.67675" lon="2.0312">
        <ele>175</ele>
        <time>2026-02-26T10:35:53Z</time>
      </trkpt>
      <trkpt lat="48.67675" lon="2.03125">
        <ele>175</ele>
        <time>2026-02-26T10:35:56Z</time>
      </trkpt>
      <trkpt lat="48.67674" lon="2.0313">
        <ele>175</ele>
        <time>2026-02-26T10:36:00Z</time>
      </trkpt>
      <trkpt lat="48.67674" lon="2.03135">
        <ele>175</ele>
        <time>2026-02-26T10:36:03Z</time>
      </trkpt>
      <trkpt lat="48.67673" lon="2.0314">
        <ele>175</ele>
        <time>2026-02-26T10:36:06Z</time>
      </trkpt>
      <trkpt lat="48.67673" lon="2.03145">
        <ele>175</ele>
        <time>2026-02-26T10:36:10Z</time>
      </trkpt>
      <trkpt lat="48.67672" lon="2.0315">
        <ele>175</ele>
        <time>2026-02-26T10:36:13Z</time>
      </trkpt>
      <trkpt lat="48.67672" lon="2.03156">
        <ele>175</ele>
        <time>2026-02-26T10:36:16Z</time>
      </trkpt>
      <trkpt lat="48.67672" lon="2.03161">
        <ele>175</ele>
        <time>2026-02-26T10:36:19Z</time>
      </trkpt>
      <trkpt lat="48.67671" lon="2.03166">
        <ele>175</ele>
        <time>2026-02-26T10:36:22Z</time>
      </trkpt>
      <trkpt lat="48.67671" lon="2.03172">
        <ele>175</ele>
        <time>2026-02-26T10:36:26Z</time>
      </trkpt>
      <trkpt lat="48.6767" lon="2.03177">
        <ele>175</ele>
        <time>2026-02-26T10:36:29Z</time>
      </trkpt>
      <trkpt lat="48.67669" lon="2.03182">
        <ele>174</ele>
        <time>2026-02-26T10:36:32Z</time>
      </trkpt>
      <trkpt lat="48.67668" lon="2.03187">
        <ele>174</ele>
        <time>2026-02-26T10:36:35Z</time>
      </trkpt>
      <trkpt lat="48.67667" lon="2.03192">
        <ele>175</ele>
        <time>2026-02-26T10:36:37Z</time>
      </trkpt>
      <trkpt lat="48.67667" lon="2.03197">
        <ele>175</ele>
        <time>2026-02-26T10:36:40Z</time>
      </trkpt>
      <trkpt lat="48.67666" lon="2.03202">
        <ele>174</ele>
        <time>2026-02-26T10:36:43Z</time>
      </trkpt>
      <trkpt lat="48.67666" lon="2.03206">
        <ele>174</ele>
        <time>2026-02-26T10:36:46Z</time>
      </trkpt>
      <trkpt lat="48.67666" lon="2.03211">
        <ele>174</ele>
        <time>2026-02-26T10:36:49Z</time>
      </trkpt>
      <trkpt lat="48.67665" lon="2.03216">
        <ele>174</ele>
        <time>2026-02-26T10:36:52Z</time>
      </trkpt>
      <trkpt lat="48.67664" lon="2.03221">
        <ele>174</ele>
        <time>2026-02-26T10:36:55Z</time>
      </trkpt>
      <trkpt lat="48.67663" lon="2.03226">
        <ele>175</ele>
        <time>2026-02-26T10:36:58Z</time>
      </trkpt>
      <trkpt lat="48.67663" lon="2.0323">
        <ele>175</ele>
        <time>2026-02-26T10:37:01Z</time>
      </trkpt>
      <trkpt lat="48.67662" lon="2.03235">
        <ele>175</ele>
        <time>2026-02-26T10:37:05Z</time>
      </trkpt>
      <trkpt lat="48.67662" lon="2.0324">
        <ele>175</ele>
        <time>2026-02-26T10:37:09Z</time>
      </trkpt>
      <trkpt lat="48.67661" lon="2.03245">
        <ele>176</ele>
        <time>2026-02-26T10:37:12Z</time>
      </trkpt>
      <trkpt lat="48.67661" lon="2.0325">
        <ele>176</ele>
        <time>2026-02-26T10:37:15Z</time>
      </trkpt>
      <trkpt lat="48.67661" lon="2.03256">
        <ele>176</ele>
        <time>2026-02-26T10:37:18Z</time>
      </trkpt>
      <trkpt lat="48.6766" lon="2.03261">
        <ele>177</ele>
        <time>2026-02-26T10:37:22Z</time>
      </trkpt>
      <trkpt lat="48.6766" lon="2.03266">
        <ele>177</ele>
        <time>2026-02-26T10:37:25Z</time>
      </trkpt>
      <trkpt lat="48.67659" lon="2.0327">
        <ele>176</ele>
        <time>2026-02-26T10:37:30Z</time>
      </trkpt>
      <trkpt lat="48.67659" lon="2.03275">
        <ele>176</ele>
        <time>2026-02-26T10:37:35Z</time>
      </trkpt>
      <trkpt lat="48.67659" lon="2.0328">
        <ele>176</ele>
        <time>2026-02-26T10:37:38Z</time>
      </trkpt>
      <trkpt lat="48.67658" lon="2.03285">
        <ele>176</ele>
        <time>2026-02-26T10:37:41Z</time>
      </trkpt>
      <trkpt lat="48.67658" lon="2.0329">
        <ele>176</ele>
        <time>2026-02-26T10:37:44Z</time>
      </trkpt>
      <trkpt lat="48.67658" lon="2.03295">
        <ele>176</ele>
        <time>2026-02-26T10:37:47Z</time>
      </trkpt>
      <trkpt lat="48.67657" lon="2.03299">
        <ele>175</ele>
        <time>2026-02-26T10:37:51Z</time>
      </trkpt>
      <trkpt lat="48.67656" lon="2.03304">
        <ele>174</ele>
        <time>2026-02-26T10:37:54Z</time>
      </trkpt>
      <trkpt lat="48.67656" lon="2.03308">
        <ele>174</ele>
        <time>2026-02-26T10:37:57Z</time>
      </trkpt>
      <trkpt lat="48.67656" lon="2.03313">
        <ele>174</ele>
        <time>2026-02-26T10:38:00Z</time>
      </trkpt>
      <trkpt lat="48.67656" lon="2.03318">
        <ele>173</ele>
        <time>2026-02-26T10:38:04Z</time>
      </trkpt>
      <trkpt lat="48.67656" lon="2.03322">
        <ele>173</ele>
        <time>2026-02-26T10:38:06Z</time>
      </trkpt>
      <trkpt lat="48.67656" lon="2.03327">
        <ele>173</ele>
        <time>2026-02-26T10:38:09Z</time>
      </trkpt>
      <trkpt lat="48.67656" lon="2.03332">
        <ele>174</ele>
        <time>2026-02-26T10:38:12Z</time>
      </trkpt>
      <trkpt lat="48.67656" lon="2.03337">
        <ele>174</ele>
        <time>2026-02-26T10:38:15Z</time>
      </trkpt>
      <trkpt lat="48.67656" lon="2.03342">
        <ele>174</ele>
        <time>2026-02-26T10:38:18Z</time>
      </trkpt>
      <trkpt lat="48.67655" lon="2.03347">
        <ele>175</ele>
        <time>2026-02-26T10:38:21Z</time>
      </trkpt>
      <trkpt lat="48.67655" lon="2.03352">
        <ele>175</ele>
        <time>2026-02-26T10:38:24Z</time>
      </trkpt>
      <trkpt lat="48.67653" lon="2.03357">
        <ele>175</ele>
        <time>2026-02-26T10:38:27Z</time>
      </trkpt>
      <trkpt lat="48.67651" lon="2.03359">
        <ele>176</ele>
        <time>2026-02-26T10:38:30Z</time>
      </trkpt>
      <trkpt lat="48.67648" lon="2.03359">
        <ele>177</ele>
        <time>2026-02-26T10:38:33Z</time>
      </trkpt>
      <trkpt lat="48.67646" lon="2.03357">
        <ele>178</ele>
        <time>2026-02-26T10:38:42Z</time>
      </trkpt>
      <trkpt lat="48.67642" lon="2.03358">
        <ele>178</ele>
        <time>2026-02-26T10:38:46Z</time>
      </trkpt>
      <trkpt lat="48.67638" lon="2.03358">
        <ele>178</ele>
        <time>2026-02-26T10:38:50Z</time>
      </trkpt>
      <trkpt lat="48.67635" lon="2.03358">
        <ele>178</ele>
        <time>2026-02-26T10:38:53Z</time>
      </trkpt>
      <trkpt lat="48.67631" lon="2.03358">
        <ele>178</ele>
        <time>2026-02-26T10:38:56Z</time>
      </trkpt>
      <trkpt lat="48.67628" lon="2.03357">
        <ele>179</ele>
        <time>2026-02-26T10:38:58Z</time>
      </trkpt>
      <trkpt lat="48.67625" lon="2.03357">
        <ele>179</ele>
        <time>2026-02-26T10:39:00Z</time>
      </trkpt>
      <trkpt lat="48.67622" lon="2.03356">
        <ele>179</ele>
        <time>2026-02-26T10:39:03Z</time>
      </trkpt>
      <trkpt lat="48.6762" lon="2.03356">
        <ele>180</ele>
        <time>2026-02-26T10:39:06Z</time>
      </trkpt>
      <trkpt lat="48.67616" lon="2.03356">
        <ele>180</ele>
        <time>2026-02-26T10:39:10Z</time>
      </trkpt>
      <trkpt lat="48.67613" lon="2.03356">
        <ele>179</ele>
        <time>2026-02-26T10:39:13Z</time>
      </trkpt>
      <trkpt lat="48.6761" lon="2.03355">
        <ele>179</ele>
        <time>2026-02-26T10:39:16Z</time>
      </trkpt>
      <trkpt lat="48.67607" lon="2.03355">
        <ele>179</ele>
        <time>2026-02-26T10:39:19Z</time>
      </trkpt>
      <trkpt lat="48.67603" lon="2.03354">
        <ele>180</ele>
        <time>2026-02-26T10:39:23Z</time>
      </trkpt>
      <trkpt lat="48.676" lon="2.03354">
        <ele>180</ele>
        <time>2026-02-26T10:39:26Z</time>
      </trkpt>
      <trkpt lat="48.67597" lon="2.03353">
        <ele>181</ele>
        <time>2026-02-26T10:39:29Z</time>
      </trkpt>
      <trkpt lat="48.67593" lon="2.03353">
        <ele>181</ele>
        <time>2026-02-26T10:39:32Z</time>
      </trkpt>
      <trkpt lat="48.6759" lon="2.03352">
        <ele>181</ele>
        <time>2026-02-26T10:39:35Z</time>
      </trkpt>
      <trkpt lat="48.67587" lon="2.03352">
        <ele>181</ele>
        <time>2026-02-26T10:39:38Z</time>
      </trkpt>
      <trkpt lat="48.67584" lon="2.03352">
        <ele>181</ele>
        <time>2026-02-26T10:39:41Z</time>
      </trkpt>
      <trkpt lat="48.67581" lon="2.03352">
        <ele>181</ele>
        <time>2026-02-26T10:39:44Z</time>
      </trkpt>
      <trkpt lat="48.67577" lon="2.03351">
        <ele>182</ele>
        <time>2026-02-26T10:39:47Z</time>
      </trkpt>
      <trkpt lat="48.67574" lon="2.03351">
        <ele>182</ele>
        <time>2026-02-26T10:39:50Z</time>
      </trkpt>
      <trkpt lat="48.67571" lon="2.0335">
        <ele>182</ele>
        <time>2026-02-26T10:39:53Z</time>
      </trkpt>
      <trkpt lat="48.67568" lon="2.0335">
        <ele>182</ele>
        <time>2026-02-26T10:39:57Z</time>
      </trkpt>
      <trkpt lat="48.67565" lon="2.03349">
        <ele>182</ele>
        <time>2026-02-26T10:40:00Z</time>
      </trkpt>
      <trkpt lat="48.67561" lon="2.03348">
        <ele>182</ele>
        <time>2026-02-26T10:40:03Z</time>
      </trkpt>
      <trkpt lat="48.67558" lon="2.03348">
        <ele>181</ele>
        <time>2026-02-26T10:40:06Z</time>
      </trkpt>
      <trkpt lat="48.67555" lon="2.03348">
        <ele>181</ele>
        <time>2026-02-26T10:40:09Z</time>
      </trkpt>
      <trkpt lat="48.67552" lon="2.03348">
        <ele>181</ele>
        <time>2026-02-26T10:40:12Z</time>
      </trkpt>
      <trkpt lat="48.67549" lon="2.03349">
        <ele>181</ele>
        <time>2026-02-26T10:40:15Z</time>
      </trkpt>
      <trkpt lat="48.67546" lon="2.03349">
        <ele>181</ele>
        <time>2026-02-26T10:40:18Z</time>
      </trkpt>
      <trkpt lat="48.67543" lon="2.03349">
        <ele>181</ele>
        <time>2026-02-26T10:40:21Z</time>
      </trkpt>
      <trkpt lat="48.6754" lon="2.03349">
        <ele>181</ele>
        <time>2026-02-26T10:40:24Z</time>
      </trkpt>
      <trkpt lat="48.67537" lon="2.0335">
        <ele>181</ele>
        <time>2026-02-26T10:40:27Z</time>
      </trkpt>
      <trkpt lat="48.67534" lon="2.0335">
        <ele>181</ele>
        <time>2026-02-26T10:40:29Z</time>
      </trkpt>
      <trkpt lat="48.6753" lon="2.03349">
        <ele>181</ele>
        <time>2026-02-26T10:40:32Z</time>
      </trkpt>
      <trkpt lat="48.67527" lon="2.03349">
        <ele>181</ele>
        <time>2026-02-26T10:40:35Z</time>
      </trkpt>
      <trkpt lat="48.67524" lon="2.03349">
        <ele>181</ele>
        <time>2026-02-26T10:40:37Z</time>
      </trkpt>
      <trkpt lat="48.67521" lon="2.03349">
        <ele>181</ele>
        <time>2026-02-26T10:40:40Z</time>
      </trkpt>
      <trkpt lat="48.67518" lon="2.03349">
        <ele>181</ele>
        <time>2026-02-26T10:40:43Z</time>
      </trkpt>
      <trkpt lat="48.67515" lon="2.03349">
        <ele>181</ele>
        <time>2026-02-26T10:40:46Z</time>
      </trkpt>
      <trkpt lat="48.67511" lon="2.0335">
        <ele>181</ele>
        <time>2026-02-26T10:40:50Z</time>
      </trkpt>
      <trkpt lat="48.67508" lon="2.03349">
        <ele>182</ele>
        <time>2026-02-26T10:40:53Z</time>
      </trkpt>
      <trkpt lat="48.67504" lon="2.03349">
        <ele>183</ele>
        <time>2026-02-26T10:40:56Z</time>
      </trkpt>
      <trkpt lat="48.67501" lon="2.03349">
        <ele>183</ele>
        <time>2026-02-26T10:40:59Z</time>
      </trkpt>
      <trkpt lat="48.67498" lon="2.03349">
        <ele>183</ele>
        <time>2026-02-26T10:41:02Z</time>
      </trkpt>
      <trkpt lat="48.67495" lon="2.03348">
        <ele>183</ele>
        <time>2026-02-26T10:41:05Z</time>
      </trkpt>
      <trkpt lat="48.67492" lon="2.03348">
        <ele>183</ele>
        <time>2026-02-26T10:41:07Z</time>
      </trkpt>
      <trkpt lat="48.6749" lon="2.03349">
        <ele>183</ele>
        <time>2026-02-26T10:41:09Z</time>
      </trkpt>
      <trkpt lat="48.67487" lon="2.03349">
        <ele>183</ele>
        <time>2026-02-26T10:41:13Z</time>
      </trkpt>
      <trkpt lat="48.67484" lon="2.03348">
        <ele>184</ele>
        <time>2026-02-26T10:41:17Z</time>
      </trkpt>
      <trkpt lat="48.6748" lon="2.03349">
        <ele>184</ele>
        <time>2026-02-26T10:41:21Z</time>
      </trkpt>
      <trkpt lat="48.67477" lon="2.03349">
        <ele>185</ele>
        <time>2026-02-26T10:41:24Z</time>
      </trkpt>
      <trkpt lat="48.67473" lon="2.0335">
        <ele>184</ele>
        <time>2026-02-26T10:41:27Z</time>
      </trkpt>
      <trkpt lat="48.67469" lon="2.0335">
        <ele>184</ele>
        <time>2026-02-26T10:41:29Z</time>
      </trkpt>
      <trkpt lat="48.67466" lon="2.0335">
        <ele>184</ele>
        <time>2026-02-26T10:41:32Z</time>
      </trkpt>
      <trkpt lat="48.67462" lon="2.03351">
        <ele>184</ele>
        <time>2026-02-26T10:41:35Z</time>
      </trkpt>
      <trkpt lat="48.67458" lon="2.0335">
        <ele>182</ele>
        <time>2026-02-26T10:41:38Z</time>
      </trkpt>
      <trkpt lat="48.67455" lon="2.0335">
        <ele>182</ele>
        <time>2026-02-26T10:41:41Z</time>
      </trkpt>
      <trkpt lat="48.67451" lon="2.0335">
        <ele>182</ele>
        <time>2026-02-26T10:41:44Z</time>
      </trkpt>
      <trkpt lat="48.67447" lon="2.0335">
        <ele>182</ele>
        <time>2026-02-26T10:41:47Z</time>
      </trkpt>
      <trkpt lat="48.67444" lon="2.0335">
        <ele>183</ele>
        <time>2026-02-26T10:41:50Z</time>
      </trkpt>
      <trkpt lat="48.6744" lon="2.03351">
        <ele>183</ele>
        <time>2026-02-26T10:41:52Z</time>
      </trkpt>
      <trkpt lat="48.67437" lon="2.0335">
        <ele>184</ele>
        <time>2026-02-26T10:41:54Z</time>
      </trkpt>
      <trkpt lat="48.67433" lon="2.0335">
        <ele>184</ele>
        <time>2026-02-26T10:41:57Z</time>
      </trkpt>
      <trkpt lat="48.6743" lon="2.0335">
        <ele>185</ele>
        <time>2026-02-26T10:42:00Z</time>
      </trkpt>
      <trkpt lat="48.67427" lon="2.0335">
        <ele>186</ele>
        <time>2026-02-26T10:42:04Z</time>
      </trkpt>
      <trkpt lat="48.67424" lon="2.0335">
        <ele>185</ele>
        <time>2026-02-26T10:42:09Z</time>
      </trkpt>
      <trkpt lat="48.67421" lon="2.03351">
        <ele>185</ele>
        <time>2026-02-26T10:42:12Z</time>
      </trkpt>
      <trkpt lat="48.67418" lon="2.03351">
        <ele>185</ele>
        <time>2026-02-26T10:42:15Z</time>
      </trkpt>
      <trkpt lat="48.67415" lon="2.03351">
        <ele>186</ele>
        <time>2026-02-26T10:42:18Z</time>
      </trkpt>
      <trkpt lat="48.67412" lon="2.03352">
        <ele>184</ele>
        <time>2026-02-26T10:42:22Z</time>
      </trkpt>
      <trkpt lat="48.67409" lon="2.03352">
        <ele>184</ele>
        <time>2026-02-26T10:42:25Z</time>
      </trkpt>
      <trkpt lat="48.67406" lon="2.03353">
        <ele>184</ele>
        <time>2026-02-26T10:42:27Z</time>
      </trkpt>
      <trkpt lat="48.67404" lon="2.03354">
        <ele>183</ele>
        <time>2026-02-26T10:42:29Z</time>
      </trkpt>
      <trkpt lat="48.67402" lon="2.03357">
        <ele>183</ele>
        <time>2026-02-26T10:42:32Z</time>
      </trkpt>
      <trkpt lat="48.67401" lon="2.03361">
        <ele>183</ele>
        <time>2026-02-26T10:42:35Z</time>
      </trkpt>
      <trkpt lat="48.674" lon="2.03366">
        <ele>182</ele>
        <time>2026-02-26T10:42:38Z</time>
      </trkpt>
      <trkpt lat="48.674" lon="2.03371">
        <ele>182</ele>
        <time>2026-02-26T10:42:42Z</time>
      </trkpt>
      <trkpt lat="48.67399" lon="2.03376">
        <ele>182</ele>
        <time>2026-02-26T10:42:45Z</time>
      </trkpt>
      <trkpt lat="48.67398" lon="2.03381">
        <ele>182</ele>
        <time>2026-02-26T10:42:48Z</time>
      </trkpt>
      <trkpt lat="48.67397" lon="2.03386">
        <ele>182</ele>
        <time>2026-02-26T10:42:51Z</time>
      </trkpt>
      <trkpt lat="48.67396" lon="2.0339">
        <ele>181</ele>
        <time>2026-02-26T10:42:53Z</time>
      </trkpt>
      <trkpt lat="48.67395" lon="2.03394">
        <ele>181</ele>
        <time>2026-02-26T10:42:56Z</time>
      </trkpt>
      <trkpt lat="48.67394" lon="2.03399">
        <ele>180</ele>
        <time>2026-02-26T10:42:59Z</time>
      </trkpt>
      <trkpt lat="48.67394" lon="2.03404">
        <ele>180</ele>
        <time>2026-02-26T10:43:02Z</time>
      </trkpt>
      <trkpt lat="48.67394" lon="2.03409">
        <ele>180</ele>
        <time>2026-02-26T10:43:06Z</time>
      </trkpt>
      <trkpt lat="48.67393" lon="2.03413">
        <ele>180</ele>
        <time>2026-02-26T10:43:10Z</time>
      </trkpt>
      <trkpt lat="48.67393" lon="2.03418">
        <ele>180</ele>
        <time>2026-02-26T10:43:14Z</time>
      </trkpt>
      <trkpt lat="48.67393" lon="2.03423">
        <ele>180</ele>
        <time>2026-02-26T10:43:17Z</time>
      </trkpt>
      <trkpt lat="48.67393" lon="2.03429">
        <ele>180</ele>
        <time>2026-02-26T10:43:20Z</time>
      </trkpt>
      <trkpt lat="48.67393" lon="2.03434">
        <ele>180</ele>
        <time>2026-02-26T10:43:23Z</time>
      </trkpt>
      <trkpt lat="48.67392" lon="2.03439">
        <ele>180</ele>
        <time>2026-02-26T10:43:26Z</time>
      </trkpt>
      <trkpt lat="48.67391" lon="2.03444">
        <ele>180</ele>
        <time>2026-02-26T10:43:30Z</time>
      </trkpt>
      <trkpt lat="48.6739" lon="2.03449">
        <ele>180</ele>
        <time>2026-02-26T10:43:33Z</time>
      </trkpt>
      <trkpt lat="48.67389" lon="2.03454">
        <ele>180</ele>
        <time>2026-02-26T10:43:36Z</time>
      </trkpt>
      <trkpt lat="48.67389" lon="2.03459">
        <ele>181</ele>
        <time>2026-02-26T10:43:39Z</time>
      </trkpt>
      <trkpt lat="48.67389" lon="2.03464">
        <ele>181</ele>
        <time>2026-02-26T10:43:42Z</time>
      </trkpt>
      <trkpt lat="48.67389" lon="2.03469">
        <ele>181</ele>
        <time>2026-02-26T10:43:45Z</time>
      </trkpt>
      <trkpt lat="48.67389" lon="2.03474">
        <ele>181</ele>
        <time>2026-02-26T10:43:48Z</time>
      </trkpt>
      <trkpt lat="48.67388" lon="2.03478">
        <ele>181</ele>
        <time>2026-02-26T10:43:50Z</time>
      </trkpt>
      <trkpt lat="48.67388" lon="2.03482">
        <ele>181</ele>
        <time>2026-02-26T10:43:53Z</time>
      </trkpt>
      <trkpt lat="48.67387" lon="2.03487">
        <ele>182</ele>
        <time>2026-02-26T10:43:56Z</time>
      </trkpt>
      <trkpt lat="48.67386" lon="2.03491">
        <ele>182</ele>
        <time>2026-02-26T10:43:59Z</time>
      </trkpt>
      <trkpt lat="48.67386" lon="2.03496">
        <ele>182</ele>
        <time>2026-02-26T10:44:02Z</time>
      </trkpt>
      <trkpt lat="48.67385" lon="2.03502">
        <ele>182</ele>
        <time>2026-02-26T10:44:05Z</time>
      </trkpt>
      <trkpt lat="48.67384" lon="2.03506">
        <ele>182</ele>
        <time>2026-02-26T10:44:08Z</time>
      </trkpt>
      <trkpt lat="48.67383" lon="2.03511">
        <ele>181</ele>
        <time>2026-02-26T10:44:11Z</time>
      </trkpt>
      <trkpt lat="48.67383" lon="2.03516">
        <ele>181</ele>
        <time>2026-02-26T10:44:14Z</time>
      </trkpt>
      <trkpt lat="48.67382" lon="2.03521">
        <ele>181</ele>
        <time>2026-02-26T10:44:17Z</time>
      </trkpt>
      <trkpt lat="48.67382" lon="2.03526">
        <ele>181</ele>
        <time>2026-02-26T10:44:20Z</time>
      </trkpt>
      <trkpt lat="48.67382" lon="2.03531">
        <ele>180</ele>
        <time>2026-02-26T10:44:23Z</time>
      </trkpt>
      <trkpt lat="48.67382" lon="2.03536">
        <ele>180</ele>
        <time>2026-02-26T10:44:26Z</time>
      </trkpt>
      <trkpt lat="48.67382" lon="2.03541">
        <ele>180</ele>
        <time>2026-02-26T10:44:29Z</time>
      </trkpt>
      <trkpt lat="48.67382" lon="2.03546">
        <ele>180</ele>
        <time>2026-02-26T10:44:32Z</time>
      </trkpt>
      <trkpt lat="48.67381" lon="2.03551">
        <ele>180</ele>
        <time>2026-02-26T10:44:35Z</time>
      </trkpt>
      <trkpt lat="48.67381" lon="2.03556">
        <ele>180</ele>
        <time>2026-02-26T10:44:38Z</time>
      </trkpt>
      <trkpt lat="48.67381" lon="2.03561">
        <ele>180</ele>
        <time>2026-02-26T10:44:41Z</time>
      </trkpt>
      <trkpt lat="48.6738" lon="2.03567">
        <ele>181</ele>
        <time>2026-02-26T10:44:44Z</time>
      </trkpt>
      <trkpt lat="48.67379" lon="2.03571">
        <ele>181</ele>
        <time>2026-02-26T10:44:47Z</time>
      </trkpt>
      <trkpt lat="48.67379" lon="2.03576">
        <ele>181</ele>
        <time>2026-02-26T10:44:50Z</time>
      </trkpt>
      <trkpt lat="48.67379" lon="2.03581">
        <ele>181</ele>
        <time>2026-02-26T10:44:53Z</time>
      </trkpt>
      <trkpt lat="48.67378" lon="2.03586">
        <ele>180</ele>
        <time>2026-02-26T10:44:56Z</time>
      </trkpt>
      <trkpt lat="48.67378" lon="2.03592">
        <ele>180</ele>
        <time>2026-02-26T10:44:59Z</time>
      </trkpt>
      <trkpt lat="48.67378" lon="2.03597">
        <ele>180</ele>
        <time>2026-02-26T10:45:02Z</time>
      </trkpt>
      <trkpt lat="48.67377" lon="2.03601">
        <ele>180</ele>
        <time>2026-02-26T10:45:05Z</time>
      </trkpt>
      <trkpt lat="48.67377" lon="2.03606">
        <ele>180</ele>
        <time>2026-02-26T10:45:08Z</time>
      </trkpt>
      <trkpt lat="48.67376" lon="2.03611">
        <ele>179</ele>
        <time>2026-02-26T10:45:11Z</time>
      </trkpt>
      <trkpt lat="48.67375" lon="2.03615">
        <ele>180</ele>
        <time>2026-02-26T10:45:14Z</time>
      </trkpt>
      <trkpt lat="48.67375" lon="2.0362">
        <ele>180</ele>
        <time>2026-02-26T10:45:17Z</time>
      </trkpt>
      <trkpt lat="48.67374" lon="2.03626">
        <ele>180</ele>
        <time>2026-02-26T10:45:20Z</time>
      </trkpt>
      <trkpt lat="48.67373" lon="2.03631">
        <ele>181</ele>
        <time>2026-02-26T10:45:23Z</time>
      </trkpt>
      <trkpt lat="48.67373" lon="2.03636">
        <ele>181</ele>
        <time>2026-02-26T10:45:26Z</time>
      </trkpt>
      <trkpt lat="48.67373" lon="2.03641">
        <ele>181</ele>
        <time>2026-02-26T10:45:29Z</time>
      </trkpt>
      <trkpt lat="48.67372" lon="2.03645">
        <ele>181</ele>
        <time>2026-02-26T10:45:31Z</time>
      </trkpt>
      <trkpt lat="48.67372" lon="2.0365">
        <ele>181</ele>
        <time>2026-02-26T10:45:34Z</time>
      </trkpt>
      <trkpt lat="48.67371" lon="2.03655">
        <ele>181</ele>
        <time>2026-02-26T10:45:37Z</time>
      </trkpt>
      <trkpt lat="48.67371" lon="2.03661">
        <ele>181</ele>
        <time>2026-02-26T10:45:40Z</time>
      </trkpt>
      <trkpt lat="48.6737" lon="2.03666">
        <ele>181</ele>
        <time>2026-02-26T10:45:43Z</time>
      </trkpt>
      <trkpt lat="48.6737" lon="2.03671">
        <ele>180</ele>
        <time>2026-02-26T10:45:46Z</time>
      </trkpt>
      <trkpt lat="48.6737" lon="2.03676">
        <ele>180</ele>
        <time>2026-02-26T10:45:49Z</time>
      </trkpt>
      <trkpt lat="48.6737" lon="2.0368">
        <ele>179</ele>
        <time>2026-02-26T10:45:52Z</time>
      </trkpt>
      <trkpt lat="48.6737" lon="2.03685">
        <ele>179</ele>
        <time>2026-02-26T10:45:55Z</time>
      </trkpt>
      <trkpt lat="48.67369" lon="2.03691">
        <ele>179</ele>
        <time>2026-02-26T10:45:58Z</time>
      </trkpt>
      <trkpt lat="48.67368" lon="2.03695">
        <ele>178</ele>
        <time>2026-02-26T10:46:01Z</time>
      </trkpt>
      <trkpt lat="48.67368" lon="2.03701">
        <ele>178</ele>
        <time>2026-02-26T10:46:04Z</time>
      </trkpt>
      <trkpt lat="48.67367" lon="2.03706">
        <ele>178</ele>
        <time>2026-02-26T10:46:07Z</time>
      </trkpt>
      <trkpt lat="48.67367" lon="2.03711">
        <ele>178</ele>
        <time>2026-02-26T10:46:10Z</time>
      </trkpt>
      <trkpt lat="48.67366" lon="2.03716">
        <ele>178</ele>
        <time>2026-02-26T10:46:13Z</time>
      </trkpt>
      <trkpt lat="48.67366" lon="2.03721">
        <ele>179</ele>
        <time>2026-02-26T10:46:16Z</time>
      </trkpt>
      <trkpt lat="48.67366" lon="2.03727">
        <ele>179</ele>
        <time>2026-02-26T10:46:19Z</time>
      </trkpt>
      <trkpt lat="48.67366" lon="2.03732">
        <ele>179</ele>
        <time>2026-02-26T10:46:22Z</time>
      </trkpt>
      <trkpt lat="48.67365" lon="2.03737">
        <ele>179</ele>
        <time>2026-02-26T10:46:24Z</time>
      </trkpt>
      <trkpt lat="48.67365" lon="2.03741">
        <ele>179</ele>
        <time>2026-02-26T10:46:27Z</time>
      </trkpt>
      <trkpt lat="48.67365" lon="2.03747">
        <ele>179</ele>
        <time>2026-02-26T10:46:30Z</time>
      </trkpt>
      <trkpt lat="48.67364" lon="2.03752">
        <ele>179</ele>
        <time>2026-02-26T10:46:33Z</time>
      </trkpt>
      <trkpt lat="48.67364" lon="2.03758">
        <ele>179</ele>
        <time>2026-02-26T10:46:36Z</time>
      </trkpt>
      <trkpt lat="48.67364" lon="2.03763">
        <ele>179</ele>
        <time>2026-02-26T10:46:39Z</time>
      </trkpt>
      <trkpt lat="48.67363" lon="2.03767">
        <ele>179</ele>
        <time>2026-02-26T10:46:42Z</time>
      </trkpt>
      <trkpt lat="48.67363" lon="2.03772">
        <ele>178</ele>
        <time>2026-02-26T10:46:45Z</time>
      </trkpt>
      <trkpt lat="48.67362" lon="2.03777">
        <ele>178</ele>
        <time>2026-02-26T10:46:48Z</time>
      </trkpt>
      <trkpt lat="48.67361" lon="2.03782">
        <ele>179</ele>
        <time>2026-02-26T10:46:51Z</time>
      </trkpt>
      <trkpt lat="48.67361" lon="2.03787">
        <ele>179</ele>
        <time>2026-02-26T10:46:54Z</time>
      </trkpt>
      <trkpt lat="48.6736" lon="2.03793">
        <ele>179</ele>
        <time>2026-02-26T10:46:57Z</time>
      </trkpt>
      <trkpt lat="48.67359" lon="2.03797">
        <ele>178</ele>
        <time>2026-02-26T10:46:59Z</time>
      </trkpt>
      <trkpt lat="48.67359" lon="2.03803">
        <ele>179</ele>
        <time>2026-02-26T10:47:03Z</time>
      </trkpt>
      <trkpt lat="48.67359" lon="2.03808">
        <ele>179</ele>
        <time>2026-02-26T10:47:06Z</time>
      </trkpt>
      <trkpt lat="48.67358" lon="2.03813">
        <ele>180</ele>
        <time>2026-02-26T10:47:11Z</time>
      </trkpt>
      <trkpt lat="48.67358" lon="2.03818">
        <ele>180</ele>
        <time>2026-02-26T10:47:14Z</time>
      </trkpt>
      <trkpt lat="48.67357" lon="2.03823">
        <ele>180</ele>
        <time>2026-02-26T10:47:17Z</time>
      </trkpt>
      <trkpt lat="48.67356" lon="2.03828">
        <ele>180</ele>
        <time>2026-02-26T10:47:20Z</time>
      </trkpt>
      <trkpt lat="48.67355" lon="2.03833">
        <ele>179</ele>
        <time>2026-02-26T10:47:23Z</time>
      </trkpt>
      <trkpt lat="48.67355" lon="2.03839">
        <ele>178</ele>
        <time>2026-02-26T10:47:26Z</time>
      </trkpt>
      <trkpt lat="48.67355" lon="2.03844">
        <ele>177</ele>
        <time>2026-02-26T10:47:29Z</time>
      </trkpt>
      <trkpt lat="48.67355" lon="2.03848">
        <ele>177</ele>
        <time>2026-02-26T10:47:32Z</time>
      </trkpt>
      <trkpt lat="48.67354" lon="2.03853">
        <ele>177</ele>
        <time>2026-02-26T10:47:35Z</time>
      </trkpt>
      <trkpt lat="48.67354" lon="2.03857">
        <ele>177</ele>
        <time>2026-02-26T10:47:38Z</time>
      </trkpt>
      <trkpt lat="48.67353" lon="2.03863">
        <ele>177</ele>
        <time>2026-02-26T10:47:41Z</time>
      </trkpt>
      <trkpt lat="48.67353" lon="2.03867">
        <ele>178</ele>
        <time>2026-02-26T10:47:44Z</time>
      </trkpt>
      <trkpt lat="48.67353" lon="2.03872">
        <ele>178</ele>
        <time>2026-02-26T10:47:47Z</time>
      </trkpt>
      <trkpt lat="48.67352" lon="2.03877">
        <ele>178</ele>
        <time>2026-02-26T10:47:50Z</time>
      </trkpt>
      <trkpt lat="48.67351" lon="2.03883">
        <ele>178</ele>
        <time>2026-02-26T10:47:53Z</time>
      </trkpt>
      <trkpt lat="48.67351" lon="2.03888">
        <ele>178</ele>
        <time>2026-02-26T10:47:56Z</time>
      </trkpt>
      <trkpt lat="48.6735" lon="2.03893">
        <ele>178</ele>
        <time>2026-02-26T10:47:59Z</time>
      </trkpt>
      <trkpt lat="48.6735" lon="2.03898">
        <ele>178</ele>
        <time>2026-02-26T10:48:02Z</time>
      </trkpt>
      <trkpt lat="48.67349" lon="2.03903">
        <ele>177</ele>
        <time>2026-02-26T10:48:05Z</time>
      </trkpt>
      <trkpt lat="48.67348" lon="2.03908">
        <ele>177</ele>
        <time>2026-02-26T10:48:08Z</time>
      </trkpt>
      <trkpt lat="48.67348" lon="2.03913">
        <ele>177</ele>
        <time>2026-02-26T10:48:11Z</time>
      </trkpt>
      <trkpt lat="48.67347" lon="2.03917">
        <ele>178</ele>
        <time>2026-02-26T10:48:13Z</time>
      </trkpt>
      <trkpt lat="48.67347" lon="2.03921">
        <ele>177</ele>
        <time>2026-02-26T10:48:15Z</time>
      </trkpt>
      <trkpt lat="48.67346" lon="2.03926">
        <ele>177</ele>
        <time>2026-02-26T10:48:18Z</time>
      </trkpt>
      <trkpt lat="48.67346" lon="2.03931">
        <ele>177</ele>
        <time>2026-02-26T10:48:21Z</time>
      </trkpt>
      <trkpt lat="48.67345" lon="2.03936">
        <ele>176</ele>
        <time>2026-02-26T10:48:27Z</time>
      </trkpt>
      <trkpt lat="48.67344" lon="2.03941">
        <ele>175</ele>
        <time>2026-02-26T10:48:30Z</time>
      </trkpt>
      <trkpt lat="48.67344" lon="2.03945">
        <ele>174</ele>
        <time>2026-02-26T10:48:34Z</time>
      </trkpt>
      <trkpt lat="48.67343" lon="2.0395">
        <ele>173</ele>
        <time>2026-02-26T10:48:37Z</time>
      </trkpt>
      <trkpt lat="48.67343" lon="2.03955">
        <ele>174</ele>
        <time>2026-02-26T10:48:40Z</time>
      </trkpt>
      <trkpt lat="48.67343" lon="2.0396">
        <ele>173</ele>
        <time>2026-02-26T10:48:43Z</time>
      </trkpt>
      <trkpt lat="48.67342" lon="2.03965">
        <ele>173</ele>
        <time>2026-02-26T10:48:46Z</time>
      </trkpt>
      <trkpt lat="48.67341" lon="2.0397">
        <ele>173</ele>
        <time>2026-02-26T10:48:49Z</time>
      </trkpt>
      <trkpt lat="48.67341" lon="2.03974">
        <ele>172</ele>
        <time>2026-02-26T10:48:52Z</time>
      </trkpt>
      <trkpt lat="48.67341" lon="2.03979">
        <ele>172</ele>
        <time>2026-02-26T10:48:56Z</time>
      </trkpt>
      <trkpt lat="48.67341" lon="2.03983">
        <ele>172</ele>
        <time>2026-02-26T10:48:59Z</time>
      </trkpt>
      <trkpt lat="48.67341" lon="2.03988">
        <ele>172</ele>
        <time>2026-02-26T10:49:02Z</time>
      </trkpt>
      <trkpt lat="48.6734" lon="2.03994">
        <ele>173</ele>
        <time>2026-02-26T10:49:05Z</time>
      </trkpt>
      <trkpt lat="48.67339" lon="2.03999">
        <ele>173</ele>
        <time>2026-02-26T10:49:07Z</time>
      </trkpt>
      <trkpt lat="48.67337" lon="2.04003">
        <ele>172</ele>
        <time>2026-02-26T10:49:09Z</time>
      </trkpt>
      <trkpt lat="48.67337" lon="2.04009">
        <ele>172</ele>
        <time>2026-02-26T10:49:12Z</time>
      </trkpt>
      <trkpt lat="48.67336" lon="2.04015">
        <ele>171</ele>
        <time>2026-02-26T10:49:14Z</time>
      </trkpt>
      <trkpt lat="48.67337" lon="2.0402">
        <ele>170</ele>
        <time>2026-02-26T10:49:16Z</time>
      </trkpt>
      <trkpt lat="48.67337" lon="2.04024">
        <ele>170</ele>
        <time>2026-02-26T10:49:20Z</time>
      </trkpt>
      <trkpt lat="48.67338" lon="2.04028">
        <ele>170</ele>
        <time>2026-02-26T10:49:22Z</time>
      </trkpt>
      <trkpt lat="48.67338" lon="2.04033">
        <ele>171</ele>
        <time>2026-02-26T10:49:26Z</time>
      </trkpt>
      <trkpt lat="48.67338" lon="2.04038">
        <ele>171</ele>
        <time>2026-02-26T10:49:30Z</time>
      </trkpt>
      <trkpt lat="48.67338" lon="2.04043">
        <ele>171</ele>
        <time>2026-02-26T10:49:33Z</time>
      </trkpt>
      <trkpt lat="48.67338" lon="2.04047">
        <ele>172</ele>
        <time>2026-02-26T10:49:38Z</time>
      </trkpt>
      <trkpt lat="48.67337" lon="2.04052">
        <ele>173</ele>
        <time>2026-02-26T10:49:43Z</time>
      </trkpt>
      <trkpt lat="48.67335" lon="2.04057">
        <ele>173</ele>
        <time>2026-02-26T10:49:46Z</time>
      </trkpt>
      <trkpt lat="48.67335" lon="2.04062">
        <ele>173</ele>
        <time>2026-02-26T10:49:48Z</time>
      </trkpt>
      <trkpt lat="48.67335" lon="2.04067">
        <ele>173</ele>
        <time>2026-02-26T10:49:51Z</time>
      </trkpt>
      <trkpt lat="48.67334" lon="2.04072">
        <ele>173</ele>
        <time>2026-02-26T10:49:54Z</time>
      </trkpt>
      <trkpt lat="48.67334" lon="2.04077">
        <ele>173</ele>
        <time>2026-02-26T10:49:57Z</time>
      </trkpt>
      <trkpt lat="48.67334" lon="2.04082">
        <ele>173</ele>
        <time>2026-02-26T10:50:00Z</time>
      </trkpt>
      <trkpt lat="48.67333" lon="2.04087">
        <ele>173</ele>
        <time>2026-02-26T10:50:03Z</time>
      </trkpt>
      <trkpt lat="48.67333" lon="2.04092">
        <ele>174</ele>
        <time>2026-02-26T10:50:06Z</time>
      </trkpt>
      <trkpt lat="48.67333" lon="2.04097">
        <ele>174</ele>
        <time>2026-02-26T10:50:09Z</time>
      </trkpt>
      <trkpt lat="48.67333" lon="2.04102">
        <ele>174</ele>
        <time>2026-02-26T10:50:12Z</time>
      </trkpt>
      <trkpt lat="48.67332" lon="2.04106">
        <ele>174</ele>
        <time>2026-02-26T10:50:15Z</time>
      </trkpt>
      <trkpt lat="48.67332" lon="2.04111">
        <ele>174</ele>
        <time>2026-02-26T10:50:18Z</time>
      </trkpt>
      <trkpt lat="48.67332" lon="2.04116">
        <ele>174</ele>
        <time>2026-02-26T10:50:21Z</time>
      </trkpt>
      <trkpt lat="48.67331" lon="2.0412">
        <ele>174</ele>
        <time>2026-02-26T10:50:30Z</time>
      </trkpt>
      <trkpt lat="48.67331" lon="2.04125">
        <ele>174</ele>
        <time>2026-02-26T10:50:35Z</time>
      </trkpt>
      <trkpt lat="48.6733" lon="2.04129">
        <ele>174</ele>
        <time>2026-02-26T10:50:37Z</time>
      </trkpt>
      <trkpt lat="48.67329" lon="2.04135">
        <ele>174</ele>
        <time>2026-02-26T10:50:41Z</time>
      </trkpt>
      <trkpt lat="48.67328" lon="2.04141">
        <ele>175</ele>
        <time>2026-02-26T10:50:44Z</time>
      </trkpt>
      <trkpt lat="48.67328" lon="2.04145">
        <ele>176</ele>
        <time>2026-02-26T10:50:47Z</time>
      </trkpt>
      <trkpt lat="48.67327" lon="2.0415">
        <ele>175</ele>
        <time>2026-02-26T10:50:52Z</time>
      </trkpt>
      <trkpt lat="48.67326" lon="2.04155">
        <ele>176</ele>
        <time>2026-02-26T10:50:55Z</time>
      </trkpt>
      <trkpt lat="48.67325" lon="2.0416">
        <ele>176</ele>
        <time>2026-02-26T10:50:58Z</time>
      </trkpt>
      <trkpt lat="48.67325" lon="2.04165">
        <ele>176</ele>
        <time>2026-02-26T10:51:01Z</time>
      </trkpt>
      <trkpt lat="48.67324" lon="2.04169">
        <ele>177</ele>
        <time>2026-02-26T10:51:04Z</time>
      </trkpt>
      <trkpt lat="48.67324" lon="2.04175">
        <ele>177</ele>
        <time>2026-02-26T10:51:08Z</time>
      </trkpt>
      <trkpt lat="48.67324" lon="2.04181">
        <ele>177</ele>
        <time>2026-02-26T10:51:11Z</time>
      </trkpt>
      <trkpt lat="48.67324" lon="2.04186">
        <ele>176</ele>
        <time>2026-02-26T10:51:14Z</time>
      </trkpt>
      <trkpt lat="48.67323" lon="2.04191">
        <ele>176</ele>
        <time>2026-02-26T10:51:17Z</time>
      </trkpt>
      <trkpt lat="48.67323" lon="2.04196">
        <ele>176</ele>
        <time>2026-02-26T10:51:21Z</time>
      </trkpt>
      <trkpt lat="48.67322" lon="2.04202">
        <ele>176</ele>
        <time>2026-02-26T10:51:24Z</time>
      </trkpt>
      <trkpt lat="48.67321" lon="2.04208">
        <ele>176</ele>
        <time>2026-02-26T10:51:29Z</time>
      </trkpt>
      <trkpt lat="48.67321" lon="2.04213">
        <ele>177</ele>
        <time>2026-02-26T10:51:32Z</time>
      </trkpt>
      <trkpt lat="48.6732" lon="2.04219">
        <ele>176</ele>
        <time>2026-02-26T10:51:35Z</time>
      </trkpt>
      <trkpt lat="48.6732" lon="2.04225">
        <ele>176</ele>
        <time>2026-02-26T10:51:38Z</time>
      </trkpt>
      <trkpt lat="48.6732" lon="2.0423">
        <ele>176</ele>
        <time>2026-02-26T10:51:41Z</time>
      </trkpt>
      <trkpt lat="48.6732" lon="2.04235">
        <ele>177</ele>
        <time>2026-02-26T10:51:44Z</time>
      </trkpt>
      <trkpt lat="48.6732" lon="2.0424">
        <ele>177</ele>
        <time>2026-02-26T10:51:47Z</time>
      </trkpt>
      <trkpt lat="48.67319" lon="2.04246">
        <ele>177</ele>
        <time>2026-02-26T10:51:50Z</time>
      </trkpt>
      <trkpt lat="48.67319" lon="2.04251">
        <ele>177</ele>
        <time>2026-02-26T10:51:53Z</time>
      </trkpt>
      <trkpt lat="48.67319" lon="2.04255">
        <ele>177</ele>
        <time>2026-02-26T10:51:56Z</time>
      </trkpt>
      <trkpt lat="48.67319" lon="2.0426">
        <ele>177</ele>
        <time>2026-02-26T10:51:59Z</time>
      </trkpt>
      <trkpt lat="48.67319" lon="2.04264">
        <ele>177</ele>
        <time>2026-02-26T10:52:02Z</time>
      </trkpt>
      <trkpt lat="48.67319" lon="2.04268">
        <ele>178</ele>
        <time>2026-02-26T10:52:05Z</time>
      </trkpt>
      <trkpt lat="48.67319" lon="2.04273">
        <ele>178</ele>
        <time>2026-02-26T10:52:08Z</time>
      </trkpt>
      <trkpt lat="48.67319" lon="2.04278">
        <ele>179</ele>
        <time>2026-02-26T10:52:11Z</time>
      </trkpt>
      <trkpt lat="48.67319" lon="2.04283">
        <ele>180</ele>
        <time>2026-02-26T10:52:14Z</time>
      </trkpt>
      <trkpt lat="48.67318" lon="2.04289">
        <ele>179</ele>
        <time>2026-02-26T10:52:17Z</time>
      </trkpt>
      <trkpt lat="48.67318" lon="2.04293">
        <ele>179</ele>
        <time>2026-02-26T10:52:20Z</time>
      </trkpt>
      <trkpt lat="48.67317" lon="2.04298">
        <ele>178</ele>
        <time>2026-02-26T10:52:23Z</time>
      </trkpt>
      <trkpt lat="48.67316" lon="2.04303">
        <ele>178</ele>
        <time>2026-02-26T10:52:26Z</time>
      </trkpt>
      <trkpt lat="48.67316" lon="2.04308">
        <ele>177</ele>
        <time>2026-02-26T10:52:29Z</time>
      </trkpt>
      <trkpt lat="48.67316" lon="2.04313">
        <ele>178</ele>
        <time>2026-02-26T10:52:32Z</time>
      </trkpt>
      <trkpt lat="48.67315" lon="2.04318">
        <ele>178</ele>
        <time>2026-02-26T10:52:35Z</time>
      </trkpt>
      <trkpt lat="48.67315" lon="2.04323">
        <ele>178</ele>
        <time>2026-02-26T10:52:39Z</time>
      </trkpt>
      <trkpt lat="48.67314" lon="2.04328">
        <ele>179</ele>
        <time>2026-02-26T10:52:42Z</time>
      </trkpt>
      <trkpt lat="48.67313" lon="2.04333">
        <ele>179</ele>
        <time>2026-02-26T10:52:45Z</time>
      </trkpt>
      <trkpt lat="48.67312" lon="2.04339">
        <ele>179</ele>
        <time>2026-02-26T10:52:49Z</time>
      </trkpt>
      <trkpt lat="48.67312" lon="2.04343">
        <ele>180</ele>
        <time>2026-02-26T10:52:51Z</time>
      </trkpt>
      <trkpt lat="48.67311" lon="2.04348">
        <ele>180</ele>
        <time>2026-02-26T10:52:54Z</time>
      </trkpt>
      <trkpt lat="48.6731" lon="2.04353">
        <ele>180</ele>
        <time>2026-02-26T10:52:57Z</time>
      </trkpt>
      <trkpt lat="48.67309" lon="2.04357">
        <ele>179</ele>
        <time>2026-02-26T10:53:00Z</time>
      </trkpt>
      <trkpt lat="48.67309" lon="2.04362">
        <ele>179</ele>
        <time>2026-02-26T10:53:03Z</time>
      </trkpt>
      <trkpt lat="48.67308" lon="2.04366">
        <ele>178</ele>
        <time>2026-02-26T10:53:06Z</time>
      </trkpt>
      <trkpt lat="48.67307" lon="2.04371">
        <ele>177</ele>
        <time>2026-02-26T10:53:11Z</time>
      </trkpt>
      <trkpt lat="48.67307" lon="2.04377">
        <ele>177</ele>
        <time>2026-02-26T10:53:14Z</time>
      </trkpt>
      <trkpt lat="48.67306" lon="2.04381">
        <ele>177</ele>
        <time>2026-02-26T10:53:17Z</time>
      </trkpt>
      <trkpt lat="48.67305" lon="2.04386">
        <ele>177</ele>
        <time>2026-02-26T10:53:20Z</time>
      </trkpt>
      <trkpt lat="48.67305" lon="2.04392">
        <ele>177</ele>
        <time>2026-02-26T10:53:23Z</time>
      </trkpt>
      <trkpt lat="48.67305" lon="2.04397">
        <ele>178</ele>
        <time>2026-02-26T10:53:26Z</time>
      </trkpt>
      <trkpt lat="48.67305" lon="2.04403">
        <ele>178</ele>
        <time>2026-02-26T10:53:29Z</time>
      </trkpt>
      <trkpt lat="48.67305" lon="2.04407">
        <ele>178</ele>
        <time>2026-02-26T10:53:33Z</time>
      </trkpt>
      <trkpt lat="48.67306" lon="2.04412">
        <ele>179</ele>
        <time>2026-02-26T10:53:35Z</time>
      </trkpt>
      <trkpt lat="48.67305" lon="2.04417">
        <ele>179</ele>
        <time>2026-02-26T10:53:38Z</time>
      </trkpt>
      <trkpt lat="48.67305" lon="2.04422">
        <ele>179</ele>
        <time>2026-02-26T10:53:41Z</time>
      </trkpt>
      <trkpt lat="48.67305" lon="2.04429">
        <ele>180</ele>
        <time>2026-02-26T10:53:45Z</time>
      </trkpt>
      <trkpt lat="48.67304" lon="2.04435">
        <ele>180</ele>
        <time>2026-02-26T10:53:48Z</time>
      </trkpt>
      <trkpt lat="48.67304" lon="2.0444">
        <ele>180</ele>
        <time>2026-02-26T10:53:51Z</time>
      </trkpt>
      <trkpt lat="48.67303" lon="2.04445">
        <ele>181</ele>
        <time>2026-02-26T10:53:54Z</time>
      </trkpt>
      <trkpt lat="48.67303" lon="2.0445">
        <ele>181</ele>
        <time>2026-02-26T10:53:57Z</time>
      </trkpt>
      <trkpt lat="48.67303" lon="2.04456">
        <ele>181</ele>
        <time>2026-02-26T10:54:00Z</time>
      </trkpt>
      <trkpt lat="48.67302" lon="2.0446">
        <ele>180</ele>
        <time>2026-02-26T10:54:03Z</time>
      </trkpt>
      <trkpt lat="48.67302" lon="2.04465">
        <ele>180</ele>
        <time>2026-02-26T10:54:06Z</time>
      </trkpt>
      <trkpt lat="48.67301" lon="2.04469">
        <ele>180</ele>
        <time>2026-02-26T10:54:09Z</time>
      </trkpt>
      <trkpt lat="48.67301" lon="2.04476">
        <ele>181</ele>
        <time>2026-02-26T10:54:15Z</time>
      </trkpt>
      <trkpt lat="48.67301" lon="2.04482">
        <ele>182</ele>
        <time>2026-02-26T10:54:18Z</time>
      </trkpt>
      <trkpt lat="48.673" lon="2.04486">
        <ele>182</ele>
        <time>2026-02-26T10:54:21Z</time>
      </trkpt>
      <trkpt lat="48.673" lon="2.04492">
        <ele>182</ele>
        <time>2026-02-26T10:54:24Z</time>
      </trkpt>
      <trkpt lat="48.673" lon="2.04497">
        <ele>182</ele>
        <time>2026-02-26T10:54:27Z</time>
      </trkpt>
      <trkpt lat="48.673" lon="2.04502">
        <ele>182</ele>
        <time>2026-02-26T10:54:30Z</time>
      </trkpt>
      <trkpt lat="48.673" lon="2.04508">
        <ele>183</ele>
        <time>2026-02-26T10:54:33Z</time>
      </trkpt>
      <trkpt lat="48.67299" lon="2.04513">
        <ele>183</ele>
        <time>2026-02-26T10:54:36Z</time>
      </trkpt>
      <trkpt lat="48.67298" lon="2.04518">
        <ele>183</ele>
        <time>2026-02-26T10:54:41Z</time>
      </trkpt>
      <trkpt lat="48.67299" lon="2.04523">
        <ele>183</ele>
        <time>2026-02-26T10:54:44Z</time>
      </trkpt>
      <trkpt lat="48.673" lon="2.04527">
        <ele>183</ele>
        <time>2026-02-26T10:54:48Z</time>
      </trkpt>
      <trkpt lat="48.67302" lon="2.0453">
        <ele>182</ele>
        <time>2026-02-26T10:54:54Z</time>
      </trkpt>
      <trkpt lat="48.67305" lon="2.04533">
        <ele>180</ele>
        <time>2026-02-26T10:54:59Z</time>
      </trkpt>
      <trkpt lat="48.67308" lon="2.04535">
        <ele>179</ele>
        <time>2026-02-26T10:55:02Z</time>
      </trkpt>
      <trkpt lat="48.67311" lon="2.04536">
        <ele>178</ele>
        <time>2026-02-26T10:55:07Z</time>
      </trkpt>
      <trkpt lat="48.67314" lon="2.04537">
        <ele>178</ele>
        <time>2026-02-26T10:55:10Z</time>
      </trkpt>
      <trkpt lat="48.67317" lon="2.04538">
        <ele>179</ele>
        <time>2026-02-26T10:55:15Z</time>
      </trkpt>
      <trkpt lat="48.6732" lon="2.04538">
        <ele>178</ele>
        <time>2026-02-26T10:55:17Z</time>
      </trkpt>
      <trkpt lat="48.67323" lon="2.04539">
        <ele>178</ele>
        <time>2026-02-26T10:55:22Z</time>
      </trkpt>
      <trkpt lat="48.67326" lon="2.0454">
        <ele>178</ele>
        <time>2026-02-26T10:55:24Z</time>
      </trkpt>
      <trkpt lat="48.67329" lon="2.04541">
        <ele>177</ele>
        <time>2026-02-26T10:55:26Z</time>
      </trkpt>
      <trkpt lat="48.67332" lon="2.04542">
        <ele>177</ele>
        <time>2026-02-26T10:55:28Z</time>
      </trkpt>
      <trkpt lat="48.67336" lon="2.04544">
        <ele>177</ele>
        <time>2026-02-26T10:55:31Z</time>
      </trkpt>
      <trkpt lat="48.6734" lon="2.04545">
        <ele>177</ele>
        <time>2026-02-26T10:55:34Z</time>
      </trkpt>
      <trkpt lat="48.67343" lon="2.04546">
        <ele>177</ele>
        <time>2026-02-26T10:55:37Z</time>
      </trkpt>
      <trkpt lat="48.67347" lon="2.04547">
        <ele>177</ele>
        <time>2026-02-26T10:55:40Z</time>
      </trkpt>
      <trkpt lat="48.6735" lon="2.04548">
        <ele>177</ele>
        <time>2026-02-26T10:55:43Z</time>
      </trkpt>
      <trkpt lat="48.67354" lon="2.04549">
        <ele>177</ele>
        <time>2026-02-26T10:55:47Z</time>
      </trkpt>
      <trkpt lat="48.67357" lon="2.04549">
        <ele>177</ele>
        <time>2026-02-26T10:55:50Z</time>
      </trkpt>
      <trkpt lat="48.6736" lon="2.04551">
        <ele>176</ele>
        <time>2026-02-26T10:55:53Z</time>
      </trkpt>
      <trkpt lat="48.67364" lon="2.04551">
        <ele>175</ele>
        <time>2026-02-26T10:55:57Z</time>
      </trkpt>
      <trkpt lat="48.67367" lon="2.04552">
        <ele>175</ele>
        <time>2026-02-26T10:56:00Z</time>
      </trkpt>
      <trkpt lat="48.67371" lon="2.04553">
        <ele>175</ele>
        <time>2026-02-26T10:56:03Z</time>
      </trkpt>
      <trkpt lat="48.67374" lon="2.04555">
        <ele>175</ele>
        <time>2026-02-26T10:56:06Z</time>
      </trkpt>
      <trkpt lat="48.67377" lon="2.04556">
        <ele>175</ele>
        <time>2026-02-26T10:56:09Z</time>
      </trkpt>
      <trkpt lat="48.67381" lon="2.04557">
        <ele>175</ele>
        <time>2026-02-26T10:56:12Z</time>
      </trkpt>
      <trkpt lat="48.67384" lon="2.04559">
        <ele>175</ele>
        <time>2026-02-26T10:56:14Z</time>
      </trkpt>
      <trkpt lat="48.67387" lon="2.0456">
        <ele>175</ele>
        <time>2026-02-26T10:56:17Z</time>
      </trkpt>
      <trkpt lat="48.6739" lon="2.04561">
        <ele>175</ele>
        <time>2026-02-26T10:56:20Z</time>
      </trkpt>
      <trkpt lat="48.67394" lon="2.04562">
        <ele>175</ele>
        <time>2026-02-26T10:56:23Z</time>
      </trkpt>
      <trkpt lat="48.67397" lon="2.04563">
        <ele>175</ele>
        <time>2026-02-26T10:56:26Z</time>
      </trkpt>
      <trkpt lat="48.674" lon="2.04564">
        <ele>175</ele>
        <time>2026-02-26T10:56:30Z</time>
      </trkpt>
      <trkpt lat="48.67404" lon="2.04565">
        <ele>175</ele>
        <time>2026-02-26T10:56:33Z</time>
      </trkpt>
      <trkpt lat="48.67407" lon="2.04566">
        <ele>174</ele>
        <time>2026-02-26T10:56:36Z</time>
      </trkpt>
      <trkpt lat="48.67411" lon="2.04567">
        <ele>174</ele>
        <time>2026-02-26T10:56:39Z</time>
      </trkpt>
      <trkpt lat="48.67414" lon="2.04569">
        <ele>174</ele>
        <time>2026-02-26T10:56:42Z</time>
      </trkpt>
      <trkpt lat="48.67417" lon="2.0457">
        <ele>174</ele>
        <time>2026-02-26T10:56:45Z</time>
      </trkpt>
      <trkpt lat="48.67421" lon="2.0457">
        <ele>173</ele>
        <time>2026-02-26T10:56:48Z</time>
      </trkpt>
      <trkpt lat="48.67424" lon="2.04572">
        <ele>173</ele>
        <time>2026-02-26T10:56:51Z</time>
      </trkpt>
      <trkpt lat="48.67428" lon="2.04573">
        <ele>173</ele>
        <time>2026-02-26T10:56:54Z</time>
      </trkpt>
      <trkpt lat="48.67431" lon="2.04574">
        <ele>173</ele>
        <time>2026-02-26T10:56:57Z</time>
      </trkpt>
      <trkpt lat="48.67434" lon="2.04575">
        <ele>173</ele>
        <time>2026-02-26T10:57:00Z</time>
      </trkpt>
      <trkpt lat="48.67438" lon="2.04577">
        <ele>172</ele>
        <time>2026-02-26T10:57:03Z</time>
      </trkpt>
      <trkpt lat="48.67441" lon="2.04578">
        <ele>172</ele>
        <time>2026-02-26T10:57:06Z</time>
      </trkpt>
      <trkpt lat="48.67444" lon="2.0458">
        <ele>171</ele>
        <time>2026-02-26T10:57:10Z</time>
      </trkpt>
      <trkpt lat="48.67448" lon="2.04581">
        <ele>171</ele>
        <time>2026-02-26T10:57:13Z</time>
      </trkpt>
      <trkpt lat="48.67451" lon="2.04582">
        <ele>171</ele>
        <time>2026-02-26T10:57:16Z</time>
      </trkpt>
      <trkpt lat="48.67454" lon="2.04583">
        <ele>170</ele>
        <time>2026-02-26T10:57:18Z</time>
      </trkpt>
      <trkpt lat="48.67458" lon="2.04585">
        <ele>170</ele>
        <time>2026-02-26T10:57:21Z</time>
      </trkpt>
      <trkpt lat="48.67461" lon="2.04586">
        <ele>170</ele>
        <time>2026-02-26T10:57:24Z</time>
      </trkpt>
      <trkpt lat="48.67465" lon="2.04587">
        <ele>170</ele>
        <time>2026-02-26T10:57:27Z</time>
      </trkpt>
      <trkpt lat="48.67468" lon="2.04589">
        <ele>170</ele>
        <time>2026-02-26T10:57:30Z</time>
      </trkpt>
      <trkpt lat="48.67471" lon="2.0459">
        <ele>170</ele>
        <time>2026-02-26T10:57:33Z</time>
      </trkpt>
      <trkpt lat="48.67475" lon="2.04591">
        <ele>170</ele>
        <time>2026-02-26T10:57:36Z</time>
      </trkpt>
      <trkpt lat="48.67478" lon="2.04592">
        <ele>169</ele>
        <time>2026-02-26T10:57:39Z</time>
      </trkpt>
      <trkpt lat="48.67481" lon="2.04593">
        <ele>169</ele>
        <time>2026-02-26T10:57:41Z</time>
      </trkpt>
      <trkpt lat="48.67484" lon="2.04594">
        <ele>169</ele>
        <time>2026-02-26T10:57:44Z</time>
      </trkpt>
      <trkpt lat="48.67487" lon="2.04595">
        <ele>168</ele>
        <time>2026-02-26T10:57:47Z</time>
      </trkpt>
      <trkpt lat="48.6749" lon="2.04597">
        <ele>168</ele>
        <time>2026-02-26T10:57:50Z</time>
      </trkpt>
      <trkpt lat="48.67494" lon="2.04598">
        <ele>168</ele>
        <time>2026-02-26T10:57:53Z</time>
      </trkpt>
      <trkpt lat="48.67496" lon="2.04599">
        <ele>167</ele>
        <time>2026-02-26T10:57:55Z</time>
      </trkpt>
      <trkpt lat="48.675" lon="2.046">
        <ele>167</ele>
        <time>2026-02-26T10:57:58Z</time>
      </trkpt>
      <trkpt lat="48.67503" lon="2.04601">
        <ele>167</ele>
        <time>2026-02-26T10:58:01Z</time>
      </trkpt>
      <trkpt lat="48.67507" lon="2.04602">
        <ele>168</ele>
        <time>2026-02-26T10:58:04Z</time>
      </trkpt>
      <trkpt lat="48.6751" lon="2.04603">
        <ele>168</ele>
        <time>2026-02-26T10:58:07Z</time>
      </trkpt>
      <trkpt lat="48.67513" lon="2.04604">
        <ele>167</ele>
        <time>2026-02-26T10:58:10Z</time>
      </trkpt>
      <trkpt lat="48.67516" lon="2.04605">
        <ele>167</ele>
        <time>2026-02-26T10:58:13Z</time>
      </trkpt>
      <trkpt lat="48.67519" lon="2.04606">
        <ele>166</ele>
        <time>2026-02-26T10:58:16Z</time>
      </trkpt>
      <trkpt lat="48.67523" lon="2.04607">
        <ele>165</ele>
        <time>2026-02-26T10:58:19Z</time>
      </trkpt>
      <trkpt lat="48.67526" lon="2.04609">
        <ele>165</ele>
        <time>2026-02-26T10:58:22Z</time>
      </trkpt>
      <trkpt lat="48.67529" lon="2.0461">
        <ele>164</ele>
        <time>2026-02-26T10:58:25Z</time>
      </trkpt>
      <trkpt lat="48.67532" lon="2.04611">
        <ele>164</ele>
        <time>2026-02-26T10:58:28Z</time>
      </trkpt>
      <trkpt lat="48.67536" lon="2.04612">
        <ele>164</ele>
        <time>2026-02-26T10:58:31Z</time>
      </trkpt>
      <trkpt lat="48.67539" lon="2.04612">
        <ele>164</ele>
        <time>2026-02-26T10:58:34Z</time>
      </trkpt>
      <trkpt lat="48.67542" lon="2.04613">
        <ele>164</ele>
        <time>2026-02-26T10:58:38Z</time>
      </trkpt>
      <trkpt lat="48.67545" lon="2.04614">
        <ele>164</ele>
        <time>2026-02-26T10:58:41Z</time>
      </trkpt>
      <trkpt lat="48.67549" lon="2.04615">
        <ele>164</ele>
        <time>2026-02-26T10:58:44Z</time>
      </trkpt>
      <trkpt lat="48.67552" lon="2.04616">
        <ele>164</ele>
        <time>2026-02-26T10:58:47Z</time>
      </trkpt>
      <trkpt lat="48.67555" lon="2.04617">
        <ele>163</ele>
        <time>2026-02-26T10:58:50Z</time>
      </trkpt>
      <trkpt lat="48.67559" lon="2.04617">
        <ele>164</ele>
        <time>2026-02-26T10:58:53Z</time>
      </trkpt>
      <trkpt lat="48.67562" lon="2.04617">
        <ele>164</ele>
        <time>2026-02-26T10:58:57Z</time>
      </trkpt>
      <trkpt lat="48.67565" lon="2.04618">
        <ele>165</ele>
        <time>2026-02-26T10:59:00Z</time>
      </trkpt>
      <trkpt lat="48.67568" lon="2.04619">
        <ele>165</ele>
        <time>2026-02-26T10:59:03Z</time>
      </trkpt>
      <trkpt lat="48.67572" lon="2.04621">
        <ele>165</ele>
        <time>2026-02-26T10:59:06Z</time>
      </trkpt>
      <trkpt lat="48.67575" lon="2.04621">
        <ele>166</ele>
        <time>2026-02-26T10:59:09Z</time>
      </trkpt>
      <trkpt lat="48.67578" lon="2.04622">
        <ele>166</ele>
        <time>2026-02-26T10:59:12Z</time>
      </trkpt>
      <trkpt lat="48.67581" lon="2.04622">
        <ele>166</ele>
        <time>2026-02-26T10:59:15Z</time>
      </trkpt>
      <trkpt lat="48.67584" lon="2.04623">
        <ele>166</ele>
        <time>2026-02-26T10:59:18Z</time>
      </trkpt>
      <trkpt lat="48.67587" lon="2.04624">
        <ele>167</ele>
        <time>2026-02-26T10:59:20Z</time>
      </trkpt>
      <trkpt lat="48.67591" lon="2.04625">
        <ele>167</ele>
        <time>2026-02-26T10:59:23Z</time>
      </trkpt>
      <trkpt lat="48.67593" lon="2.04627">
        <ele>167</ele>
        <time>2026-02-26T10:59:25Z</time>
      </trkpt>
      <trkpt lat="48.67597" lon="2.04629">
        <ele>168</ele>
        <time>2026-02-26T10:59:29Z</time>
      </trkpt>
      <trkpt lat="48.67601" lon="2.0463">
        <ele>168</ele>
        <time>2026-02-26T10:59:32Z</time>
      </trkpt>
      <trkpt lat="48.67604" lon="2.04632">
        <ele>168</ele>
        <time>2026-02-26T10:59:35Z</time>
      </trkpt>
      <trkpt lat="48.67607" lon="2.04634">
        <ele>168</ele>
        <time>2026-02-26T10:59:38Z</time>
      </trkpt>
      <trkpt lat="48.67611" lon="2.04636">
        <ele>167</ele>
        <time>2026-02-26T10:59:42Z</time>
      </trkpt>
      <trkpt lat="48.67614" lon="2.04638">
        <ele>167</ele>
        <time>2026-02-26T10:59:45Z</time>
      </trkpt>
      <trkpt lat="48.67618" lon="2.0464">
        <ele>167</ele>
        <time>2026-02-26T10:59:49Z</time>
      </trkpt>
      <trkpt lat="48.67621" lon="2.04642">
        <ele>167</ele>
        <time>2026-02-26T10:59:52Z</time>
      </trkpt>
      <trkpt lat="48.67625" lon="2.04644">
        <ele>167</ele>
        <time>2026-02-26T10:59:55Z</time>
      </trkpt>
      <trkpt lat="48.67628" lon="2.04647">
        <ele>167</ele>
        <time>2026-02-26T10:59:58Z</time>
      </trkpt>
      <trkpt lat="48.6763" lon="2.04649">
        <ele>167</ele>
        <time>2026-02-26T11:00:01Z</time>
      </trkpt>
      <trkpt lat="48.67633" lon="2.04651">
        <ele>167</ele>
        <time>2026-02-26T11:00:05Z</time>
      </trkpt>
      <trkpt lat="48.67636" lon="2.04655">
        <ele>166</ele>
        <time>2026-02-26T11:00:11Z</time>
      </trkpt>
      <trkpt lat="48.67639" lon="2.04659">
        <ele>166</ele>
        <time>2026-02-26T11:00:14Z</time>
      </trkpt>
      <trkpt lat="48.67641" lon="2.04662">
        <ele>166</ele>
        <time>2026-02-26T11:00:17Z</time>
      </trkpt>
      <trkpt lat="48.67642" lon="2.04666">
        <ele>167</ele>
        <time>2026-02-26T11:00:20Z</time>
      </trkpt>
      <trkpt lat="48.67643" lon="2.04671">
        <ele>168</ele>
        <time>2026-02-26T11:00:23Z</time>
      </trkpt>
      <trkpt lat="48.67644" lon="2.04675">
        <ele>168</ele>
        <time>2026-02-26T11:00:26Z</time>
      </trkpt>
      <trkpt lat="48.67645" lon="2.04679">
        <ele>168</ele>
        <time>2026-02-26T11:00:29Z</time>
      </trkpt>
      <trkpt lat="48.67646" lon="2.04685">
        <ele>168</ele>
        <time>2026-02-26T11:00:33Z</time>
      </trkpt>
      <trkpt lat="48.67646" lon="2.04689">
        <ele>168</ele>
        <time>2026-02-26T11:00:35Z</time>
      </trkpt>
      <trkpt lat="48.67647" lon="2.04694">
        <ele>168</ele>
        <time>2026-02-26T11:00:37Z</time>
      </trkpt>
      <trkpt lat="48.67647" lon="2.04699">
        <ele>167</ele>
        <time>2026-02-26T11:00:40Z</time>
      </trkpt>
      <trkpt lat="48.67648" lon="2.04704">
        <ele>168</ele>
        <time>2026-02-26T11:00:57Z</time>
      </trkpt>
      <trkpt lat="48.67648" lon="2.04708">
        <ele>168</ele>
        <time>2026-02-26T11:00:59Z</time>
      </trkpt>
      <trkpt lat="48.67648" lon="2.04714">
        <ele>169</ele>
        <time>2026-02-26T11:01:02Z</time>
      </trkpt>
      <trkpt lat="48.67648" lon="2.04718">
        <ele>169</ele>
        <time>2026-02-26T11:01:04Z</time>
      </trkpt>
      <trkpt lat="48.67649" lon="2.04723">
        <ele>169</ele>
        <time>2026-02-26T11:01:07Z</time>
      </trkpt>
      <trkpt lat="48.67649" lon="2.04728">
        <ele>168</ele>
        <time>2026-02-26T11:01:10Z</time>
      </trkpt>
      <trkpt lat="48.6765" lon="2.04734">
        <ele>168</ele>
        <time>2026-02-26T11:01:13Z</time>
      </trkpt>
      <trkpt lat="48.6765" lon="2.04738">
        <ele>168</ele>
        <time>2026-02-26T11:01:16Z</time>
      </trkpt>
      <trkpt lat="48.67651" lon="2.04743">
        <ele>168</ele>
        <time>2026-02-26T11:01:19Z</time>
      </trkpt>
      <trkpt lat="48.67652" lon="2.04748">
        <ele>169</ele>
        <time>2026-02-26T11:01:22Z</time>
      </trkpt>
      <trkpt lat="48.67653" lon="2.04753">
        <ele>170</ele>
        <time>2026-02-26T11:01:25Z</time>
      </trkpt>
      <trkpt lat="48.67654" lon="2.04757">
        <ele>170</ele>
        <time>2026-02-26T11:01:28Z</time>
      </trkpt>
      <trkpt lat="48.67656" lon="2.04761">
        <ele>171</ele>
        <time>2026-02-26T11:01:34Z</time>
      </trkpt>
      <trkpt lat="48.67657" lon="2.04765">
        <ele>171</ele>
        <time>2026-02-26T11:01:37Z</time>
      </trkpt>
      <trkpt lat="48.67659" lon="2.04769">
        <ele>171</ele>
        <time>2026-02-26T11:01:40Z</time>
      </trkpt>
      <trkpt lat="48.67661" lon="2.04773">
        <ele>171</ele>
        <time>2026-02-26T11:01:43Z</time>
      </trkpt>
      <trkpt lat="48.67663" lon="2.04778">
        <ele>171</ele>
        <time>2026-02-26T11:01:46Z</time>
      </trkpt>
      <trkpt lat="48.67665" lon="2.04781">
        <ele>172</ele>
        <time>2026-02-26T11:01:49Z</time>
      </trkpt>
      <trkpt lat="48.67667" lon="2.04785">
        <ele>172</ele>
        <time>2026-02-26T11:01:52Z</time>
      </trkpt>
      <trkpt lat="48.67669" lon="2.04789">
        <ele>172</ele>
        <time>2026-02-26T11:01:55Z</time>
      </trkpt>
      <trkpt lat="48.6767" lon="2.04793">
        <ele>171</ele>
        <time>2026-02-26T11:01:59Z</time>
      </trkpt>
      <trkpt lat="48.67671" lon="2.04797">
        <ele>168</ele>
        <time>2026-02-26T11:02:04Z</time>
      </trkpt>
      <trkpt lat="48.67673" lon="2.04802">
        <ele>167</ele>
        <time>2026-02-26T11:02:13Z</time>
      </trkpt>
      <trkpt lat="48.67675" lon="2.04806">
        <ele>166</ele>
        <time>2026-02-26T11:02:18Z</time>
      </trkpt>
      <trkpt lat="48.67677" lon="2.0481">
        <ele>166</ele>
        <time>2026-02-26T11:02:23Z</time>
      </trkpt>
      <trkpt lat="48.67679" lon="2.04813">
        <ele>166</ele>
        <time>2026-02-26T11:02:27Z</time>
      </trkpt>
      <trkpt lat="48.67681" lon="2.04816">
        <ele>165</ele>
        <time>2026-02-26T11:03:05Z</time>
      </trkpt>
      <trkpt lat="48.67681" lon="2.04819">
        <ele>165</ele>
        <time>2026-02-26T11:03:31Z</time>
      </trkpt>
      <trkpt lat="48.67681" lon="2.04823">
        <ele>165</ele>
        <time>2026-02-26T11:03:35Z</time>
      </trkpt>
      <trkpt lat="48.6768" lon="2.04828">
        <ele>165</ele>
        <time>2026-02-26T11:03:38Z</time>
      </trkpt>
      <trkpt lat="48.67679" lon="2.04832">
        <ele>166</ele>
        <time>2026-02-26T11:03:43Z</time>
      </trkpt>
      <trkpt lat="48.67679" lon="2.04837">
        <ele>166</ele>
        <time>2026-02-26T11:04:05Z</time>
      </trkpt>
      <trkpt lat="48.6768" lon="2.0484">
        <ele>167</ele>
        <time>2026-02-26T11:04:09Z</time>
      </trkpt>
      <trkpt lat="48.67682" lon="2.04844">
        <ele>168</ele>
        <time>2026-02-26T11:04:12Z</time>
      </trkpt>
      <trkpt lat="48.67683" lon="2.04848">
        <ele>168</ele>
        <time>2026-02-26T11:04:15Z</time>
      </trkpt>
      <trkpt lat="48.67684" lon="2.04852">
        <ele>167</ele>
        <time>2026-02-26T11:04:17Z</time>
      </trkpt>
      <trkpt lat="48.67686" lon="2.04856">
        <ele>166</ele>
        <time>2026-02-26T11:04:19Z</time>
      </trkpt>
      <trkpt lat="48.67687" lon="2.0486">
        <ele>166</ele>
        <time>2026-02-26T11:04:22Z</time>
      </trkpt>
      <trkpt lat="48.67687" lon="2.04864">
        <ele>166</ele>
        <time>2026-02-26T11:04:26Z</time>
      </trkpt>
      <trkpt lat="48.67688" lon="2.04868">
        <ele>166</ele>
        <time>2026-02-26T11:04:30Z</time>
      </trkpt>
      <trkpt lat="48.67689" lon="2.04873">
        <ele>166</ele>
        <time>2026-02-26T11:04:34Z</time>
      </trkpt>
      <trkpt lat="48.67691" lon="2.04878">
        <ele>166</ele>
        <time>2026-02-26T11:04:41Z</time>
      </trkpt>
      <trkpt lat="48.67692" lon="2.04883">
        <ele>165</ele>
        <time>2026-02-26T11:04:44Z</time>
      </trkpt>
      <trkpt lat="48.67694" lon="2.04887">
        <ele>165</ele>
        <time>2026-02-26T11:04:46Z</time>
      </trkpt>
      <trkpt lat="48.67696" lon="2.04892">
        <ele>165</ele>
        <time>2026-02-26T11:04:49Z</time>
      </trkpt>
      <trkpt lat="48.67698" lon="2.04896">
        <ele>165</ele>
        <time>2026-02-26T11:04:52Z</time>
      </trkpt>
      <trkpt lat="48.677" lon="2.04901">
        <ele>164</ele>
        <time>2026-02-26T11:04:55Z</time>
      </trkpt>
      <trkpt lat="48.67701" lon="2.04905">
        <ele>164</ele>
        <time>2026-02-26T11:04:58Z</time>
      </trkpt>
      <trkpt lat="48.67703" lon="2.0491">
        <ele>164</ele>
        <time>2026-02-26T11:05:02Z</time>
      </trkpt>
      <trkpt lat="48.67704" lon="2.04914">
        <ele>164</ele>
        <time>2026-02-26T11:05:05Z</time>
      </trkpt>
      <trkpt lat="48.67705" lon="2.04918">
        <ele>164</ele>
        <time>2026-02-26T11:05:07Z</time>
      </trkpt>
      <trkpt lat="48.67705" lon="2.04922">
        <ele>163</ele>
        <time>2026-02-26T11:05:09Z</time>
      </trkpt>
      <trkpt lat="48.67705" lon="2.04927">
        <ele>162</ele>
        <time>2026-02-26T11:05:12Z</time>
      </trkpt>
      <trkpt lat="48.67704" lon="2.04932">
        <ele>162</ele>
        <time>2026-02-26T11:05:14Z</time>
      </trkpt>
      <trkpt lat="48.67704" lon="2.04937">
        <ele>161</ele>
        <time>2026-02-26T11:05:16Z</time>
      </trkpt>
      <trkpt lat="48.67704" lon="2.04942">
        <ele>160</ele>
        <time>2026-02-26T11:05:18Z</time>
      </trkpt>
      <trkpt lat="48.67704" lon="2.04946">
        <ele>159</ele>
        <time>2026-02-26T11:05:21Z</time>
      </trkpt>
      <trkpt lat="48.67704" lon="2.04951">
        <ele>158</ele>
        <time>2026-02-26T11:05:24Z</time>
      </trkpt>
      <trkpt lat="48.67704" lon="2.04956">
        <ele>157</ele>
        <time>2026-02-26T11:05:27Z</time>
      </trkpt>
      <trkpt lat="48.67704" lon="2.0496">
        <ele>155</ele>
        <time>2026-02-26T11:05:31Z</time>
      </trkpt>
      <trkpt lat="48.67703" lon="2.04965">
        <ele>155</ele>
        <time>2026-02-26T11:05:36Z</time>
      </trkpt>
      <trkpt lat="48.67703" lon="2.0497">
        <ele>155</ele>
        <time>2026-02-26T11:05:42Z</time>
      </trkpt>
      <trkpt lat="48.67703" lon="2.04976">
        <ele>156</ele>
        <time>2026-02-26T11:05:48Z</time>
      </trkpt>
      <trkpt lat="48.67703" lon="2.04981">
        <ele>158</ele>
        <time>2026-02-26T11:05:51Z</time>
      </trkpt>
      <trkpt lat="48.67703" lon="2.04987">
        <ele>158</ele>
        <time>2026-02-26T11:05:54Z</time>
      </trkpt>
      <trkpt lat="48.67702" lon="2.04992">
        <ele>159</ele>
        <time>2026-02-26T11:05:57Z</time>
      </trkpt>
      <trkpt lat="48.67702" lon="2.04996">
        <ele>159</ele>
        <time>2026-02-26T11:06:00Z</time>
      </trkpt>
      <trkpt lat="48.67701" lon="2.05">
        <ele>160</ele>
        <time>2026-02-26T11:06:02Z</time>
      </trkpt>
      <trkpt lat="48.677" lon="2.05005">
        <ele>160</ele>
        <time>2026-02-26T11:06:04Z</time>
      </trkpt>
      <trkpt lat="48.67699" lon="2.05009">
        <ele>160</ele>
        <time>2026-02-26T11:06:06Z</time>
      </trkpt>
      <trkpt lat="48.677" lon="2.05014">
        <ele>162</ele>
        <time>2026-02-26T11:06:11Z</time>
      </trkpt>
      <trkpt lat="48.67701" lon="2.05018">
        <ele>162</ele>
        <time>2026-02-26T11:06:13Z</time>
      </trkpt>
      <trkpt lat="48.67701" lon="2.05022">
        <ele>161</ele>
        <time>2026-02-26T11:06:15Z</time>
      </trkpt>
      <trkpt lat="48.67701" lon="2.05026">
        <ele>161</ele>
        <time>2026-02-26T11:06:17Z</time>
      </trkpt>
      <trkpt lat="48.67702" lon="2.05031">
        <ele>160</ele>
        <time>2026-02-26T11:06:19Z</time>
      </trkpt>
      <trkpt lat="48.67702" lon="2.05037">
        <ele>160</ele>
        <time>2026-02-26T11:06:22Z</time>
      </trkpt>
      <trkpt lat="48.67701" lon="2.05041">
        <ele>159</ele>
        <time>2026-02-26T11:06:24Z</time>
      </trkpt>
      <trkpt lat="48.67699" lon="2.05046">
        <ele>159</ele>
        <time>2026-02-26T11:06:26Z</time>
      </trkpt>
      <trkpt lat="48.67698" lon="2.05051">
        <ele>158</ele>
        <time>2026-02-26T11:06:28Z</time>
      </trkpt>
      <trkpt lat="48.67696" lon="2.05056">
        <ele>156</ele>
        <time>2026-02-26T11:06:31Z</time>
      </trkpt>
      <trkpt lat="48.67696" lon="2.0506">
        <ele>154</ele>
        <time>2026-02-26T11:06:34Z</time>
      </trkpt>
      <trkpt lat="48.67694" lon="2.05065">
        <ele>153</ele>
        <time>2026-02-26T11:06:37Z</time>
      </trkpt>
      <trkpt lat="48.67694" lon="2.0507">
        <ele>152</ele>
        <time>2026-02-26T11:06:40Z</time>
      </trkpt>
      <trkpt lat="48.67694" lon="2.05074">
        <ele>152</ele>
        <time>2026-02-26T11:06:43Z</time>
      </trkpt>
      <trkpt lat="48.67695" lon="2.05079">
        <ele>151</ele>
        <time>2026-02-26T11:06:47Z</time>
      </trkpt>
      <trkpt lat="48.67695" lon="2.05083">
        <ele>150</ele>
        <time>2026-02-26T11:06:51Z</time>
      </trkpt>
      <trkpt lat="48.67696" lon="2.05087">
        <ele>151</ele>
        <time>2026-02-26T11:06:55Z</time>
      </trkpt>
      <trkpt lat="48.67696" lon="2.05093">
        <ele>153</ele>
        <time>2026-02-26T11:07:00Z</time>
      </trkpt>
      <trkpt lat="48.67696" lon="2.05097">
        <ele>154</ele>
        <time>2026-02-26T11:07:06Z</time>
      </trkpt>
      <trkpt lat="48.67696" lon="2.05102">
        <ele>155</ele>
        <time>2026-02-26T11:07:09Z</time>
      </trkpt>
      <trkpt lat="48.67695" lon="2.05106">
        <ele>155</ele>
        <time>2026-02-26T11:07:12Z</time>
      </trkpt>
      <trkpt lat="48.67695" lon="2.05111">
        <ele>156</ele>
        <time>2026-02-26T11:07:15Z</time>
      </trkpt>
      <trkpt lat="48.67695" lon="2.05116">
        <ele>157</ele>
        <time>2026-02-26T11:07:19Z</time>
      </trkpt>
      <trkpt lat="48.67695" lon="2.05121">
        <ele>157</ele>
        <time>2026-02-26T11:07:22Z</time>
      </trkpt>
      <trkpt lat="48.67695" lon="2.05126">
        <ele>157</ele>
        <time>2026-02-26T11:07:25Z</time>
      </trkpt>
      <trkpt lat="48.67694" lon="2.0513">
        <ele>158</ele>
        <time>2026-02-26T11:07:27Z</time>
      </trkpt>
      <trkpt lat="48.67695" lon="2.05135">
        <ele>159</ele>
        <time>2026-02-26T11:07:30Z</time>
      </trkpt>
      <trkpt lat="48.67695" lon="2.05139">
        <ele>159</ele>
        <time>2026-02-26T11:07:34Z</time>
      </trkpt>
      <trkpt lat="48.67696" lon="2.05144">
        <ele>160</ele>
        <time>2026-02-26T11:07:36Z</time>
      </trkpt>
      <trkpt lat="48.67697" lon="2.05149">
        <ele>160</ele>
        <time>2026-02-26T11:07:38Z</time>
      </trkpt>
      <trkpt lat="48.67697" lon="2.05154">
        <ele>160</ele>
        <time>2026-02-26T11:07:41Z</time>
      </trkpt>
      <trkpt lat="48.67697" lon="2.05159">
        <ele>160</ele>
        <time>2026-02-26T11:07:44Z</time>
      </trkpt>
      <trkpt lat="48.67696" lon="2.05164">
        <ele>159</ele>
        <time>2026-02-26T11:07:47Z</time>
      </trkpt>
      <trkpt lat="48.67695" lon="2.05169">
        <ele>157</ele>
        <time>2026-02-26T11:07:50Z</time>
      </trkpt>
      <trkpt lat="48.67695" lon="2.05173">
        <ele>157</ele>
        <time>2026-02-26T11:07:56Z</time>
      </trkpt>
      <trkpt lat="48.67693" lon="2.05177">
        <ele>157</ele>
        <time>2026-02-26T11:08:00Z</time>
      </trkpt>
      <trkpt lat="48.67692" lon="2.05181">
        <ele>156</ele>
        <time>2026-02-26T11:08:03Z</time>
      </trkpt>
      <trkpt lat="48.67691" lon="2.05186">
        <ele>156</ele>
        <time>2026-02-26T11:08:05Z</time>
      </trkpt>
      <trkpt lat="48.67689" lon="2.05189">
        <ele>156</ele>
        <time>2026-02-26T11:08:07Z</time>
      </trkpt>
      <trkpt lat="48.67687" lon="2.05193">
        <ele>156</ele>
        <time>2026-02-26T11:08:09Z</time>
      </trkpt>
      <trkpt lat="48.67685" lon="2.05195">
        <ele>156</ele>
        <time>2026-02-26T11:08:11Z</time>
      </trkpt>
      <trkpt lat="48.67684" lon="2.05199">
        <ele>156</ele>
        <time>2026-02-26T11:08:15Z</time>
      </trkpt>
      <trkpt lat="48.67686" lon="2.05203">
        <ele>155</ele>
        <time>2026-02-26T11:08:18Z</time>
      </trkpt>
      <trkpt lat="48.67685" lon="2.05208">
        <ele>155</ele>
        <time>2026-02-26T11:08:20Z</time>
      </trkpt>
      <trkpt lat="48.67687" lon="2.05212">
        <ele>155</ele>
        <time>2026-02-26T11:08:21Z</time>
      </trkpt>
      <trkpt lat="48.67689" lon="2.05215">
        <ele>155</ele>
        <time>2026-02-26T11:08:22Z</time>
      </trkpt>
      <trkpt lat="48.67692" lon="2.05218">
        <ele>155</ele>
        <time>2026-02-26T11:08:23Z</time>
      </trkpt>
      <trkpt lat="48.67694" lon="2.05222">
        <ele>155</ele>
        <time>2026-02-26T11:08:24Z</time>
      </trkpt>
      <trkpt lat="48.67696" lon="2.05226">
        <ele>155</ele>
        <time>2026-02-26T11:08:26Z</time>
      </trkpt>
      <trkpt lat="48.67696" lon="2.05231">
        <ele>155</ele>
        <time>2026-02-26T11:08:28Z</time>
      </trkpt>
      <trkpt lat="48.67697" lon="2.05236">
        <ele>155</ele>
        <time>2026-02-26T11:08:30Z</time>
      </trkpt>
      <trkpt lat="48.67696" lon="2.05241">
        <ele>154</ele>
        <time>2026-02-26T11:08:32Z</time>
      </trkpt>
      <trkpt lat="48.67695" lon="2.05245">
        <ele>154</ele>
        <time>2026-02-26T11:08:33Z</time>
      </trkpt>
      <trkpt lat="48.67695" lon="2.0525">
        <ele>154</ele>
        <time>2026-02-26T11:08:35Z</time>
      </trkpt>
      <trkpt lat="48.67695" lon="2.05255">
        <ele>153</ele>
        <time>2026-02-26T11:08:39Z</time>
      </trkpt>
      <trkpt lat="48.67697" lon="2.05256">
        <ele>152</ele>
        <time>2026-02-26T11:09:02Z</time>
      </trkpt>
      <trkpt lat="48.67699" lon="2.05256">
        <ele>152</ele>
        <time>2026-02-26T11:09:07Z</time>
      </trkpt>
      <trkpt lat="48.67702" lon="2.05255">
        <ele>151</ele>
        <time>2026-02-26T11:09:12Z</time>
      </trkpt>
      <trkpt lat="48.67705" lon="2.05254">
        <ele>150</ele>
        <time>2026-02-26T11:09:24Z</time>
      </trkpt>
      <trkpt lat="48.67708" lon="2.05255">
        <ele>150</ele>
        <time>2026-02-26T11:09:27Z</time>
      </trkpt>
      <trkpt lat="48.67711" lon="2.05255">
        <ele>150</ele>
        <time>2026-02-26T11:09:33Z</time>
      </trkpt>
      <trkpt lat="48.67714" lon="2.05255">
        <ele>150</ele>
        <time>2026-02-26T11:09:36Z</time>
      </trkpt>
      <trkpt lat="48.67717" lon="2.05256">
        <ele>150</ele>
        <time>2026-02-26T11:09:39Z</time>
      </trkpt>
      <trkpt lat="48.6772" lon="2.05257">
        <ele>151</ele>
        <time>2026-02-26T11:09:44Z</time>
      </trkpt>
      <trkpt lat="48.67723" lon="2.0526">
        <ele>150</ele>
        <time>2026-02-26T11:09:46Z</time>
      </trkpt>
      <trkpt lat="48.67726" lon="2.05264">
        <ele>149</ele>
        <time>2026-02-26T11:09:48Z</time>
      </trkpt>
      <trkpt lat="48.67729" lon="2.05268">
        <ele>148</ele>
        <time>2026-02-26T11:09:51Z</time>
      </trkpt>
      <trkpt lat="48.67732" lon="2.05273">
        <ele>148</ele>
        <time>2026-02-26T11:09:57Z</time>
      </trkpt>
      <trkpt lat="48.67734" lon="2.05277">
        <ele>148</ele>
        <time>2026-02-26T11:10:00Z</time>
      </trkpt>
      <trkpt lat="48.67737" lon="2.05279">
        <ele>148</ele>
        <time>2026-02-26T11:10:04Z</time>
      </trkpt>
      <trkpt lat="48.6774" lon="2.05279">
        <ele>148</ele>
        <time>2026-02-26T11:10:08Z</time>
      </trkpt>
      <trkpt lat="48.67744" lon="2.05279">
        <ele>147</ele>
        <time>2026-02-26T11:10:13Z</time>
      </trkpt>
      <trkpt lat="48.67748" lon="2.0528">
        <ele>146</ele>
        <time>2026-02-26T11:10:19Z</time>
      </trkpt>
      <trkpt lat="48.67754" lon="2.05273">
        <ele>157</ele>
        <time>2026-02-26T11:10:28Z</time>
      </trkpt>
      <trkpt lat="48.67754" lon="2.05271">
        <ele>157</ele>
        <time>2026-02-26T11:10:29Z</time>
      </trkpt>
      <trkpt lat="48.67752" lon="2.05265">
        <ele>162</ele>
        <time>2026-02-26T11:10:30Z</time>
      </trkpt>
      <trkpt lat="48.67752" lon="2.05263">
        <ele>158</ele>
        <time>2026-02-26T11:10:31Z</time>
      </trkpt>
      <trkpt lat="48.67755" lon="2.05263">
        <ele>154</ele>
        <time>2026-02-26T11:10:33Z</time>
      </trkpt>
      <trkpt lat="48.67757" lon="2.05261">
        <ele>155</ele>
        <time>2026-02-26T11:10:39Z</time>
      </trkpt>
      <trkpt lat="48.6776" lon="2.05259">
        <ele>156</ele>
        <time>2026-02-26T11:10:48Z</time>
      </trkpt>
      <trkpt lat="48.67762" lon="2.05255">
        <ele>156</ele>
        <time>2026-02-26T11:10:57Z</time>
      </trkpt>
      <trkpt lat="48.67765" lon="2.05253">
        <ele>154</ele>
        <time>2026-02-26T11:11:00Z</time>
      </trkpt>
      <trkpt lat="48.67768" lon="2.05252">
        <ele>155</ele>
        <time>2026-02-26T11:11:05Z</time>
      </trkpt>
      <trkpt lat="48.67771" lon="2.0525">
        <ele>156</ele>
        <time>2026-02-26T11:11:15Z</time>
      </trkpt>
      <trkpt lat="48.67773" lon="2.05247">
        <ele>159</ele>
        <time>2026-02-26T11:11:26Z</time>
      </trkpt>
      <trkpt lat="48.67778" lon="2.05246">
        <ele>160</ele>
        <time>2026-02-26T11:11:38Z</time>
      </trkpt>
      <trkpt lat="48.67781" lon="2.05247">
        <ele>160</ele>
        <time>2026-02-26T11:11:41Z</time>
      </trkpt>
      <trkpt lat="48.67784" lon="2.05249">
        <ele>161</ele>
        <time>2026-02-26T11:11:44Z</time>
      </trkpt>
      <trkpt lat="48.67787" lon="2.0525">
        <ele>161</ele>
        <time>2026-02-26T11:11:48Z</time>
      </trkpt>
      <trkpt lat="48.67789" lon="2.05252">
        <ele>162</ele>
        <time>2026-02-26T11:11:52Z</time>
      </trkpt>
      <trkpt lat="48.67792" lon="2.05252">
        <ele>164</ele>
        <time>2026-02-26T11:12:00Z</time>
      </trkpt>
      <trkpt lat="48.67795" lon="2.05253">
        <ele>165</ele>
        <time>2026-02-26T11:12:06Z</time>
      </trkpt>
      <trkpt lat="48.67798" lon="2.05254">
        <ele>165</ele>
        <time>2026-02-26T11:12:13Z</time>
      </trkpt>
      <trkpt lat="48.67801" lon="2.05257">
        <ele>165</ele>
        <time>2026-02-26T11:12:18Z</time>
      </trkpt>
      <trkpt lat="48.67803" lon="2.0526">
        <ele>165</ele>
        <time>2026-02-26T11:12:23Z</time>
      </trkpt>
      <trkpt lat="48.67806" lon="2.05262">
        <ele>164</ele>
        <time>2026-02-26T11:12:26Z</time>
      </trkpt>
      <trkpt lat="48.67809" lon="2.05264">
        <ele>164</ele>
        <time>2026-02-26T11:12:29Z</time>
      </trkpt>
      <trkpt lat="48.67811" lon="2.05267">
        <ele>163</ele>
        <time>2026-02-26T11:12:33Z</time>
      </trkpt>
      <trkpt lat="48.67813" lon="2.05271">
        <ele>163</ele>
        <time>2026-02-26T11:12:36Z</time>
      </trkpt>
      <trkpt lat="48.67814" lon="2.0527">
        <ele>159</ele>
        <time>2026-02-26T11:12:59Z</time>
      </trkpt>
      <trkpt lat="48.67815" lon="2.05267">
        <ele>157</ele>
        <time>2026-02-26T11:13:09Z</time>
      </trkpt>
      <trkpt lat="48.67813" lon="2.05266">
        <ele>154</ele>
        <time>2026-02-26T11:13:26Z</time>
      </trkpt>
      <trkpt lat="48.67814" lon="2.05268">
        <ele>154</ele>
        <time>2026-02-26T11:14:30Z</time>
      </trkpt>
      <trkpt lat="48.67815" lon="2.05267">
        <ele>149</ele>
        <time>2026-02-26T11:18:24Z</time>
      </trkpt>
      <trkpt lat="48.67817" lon="2.05268">
        <ele>147</ele>
        <time>2026-02-26T11:19:11Z</time>
      </trkpt>
      <trkpt lat="48.67816" lon="2.0527">
        <ele>146</ele>
        <time>2026-02-26T11:19:14Z</time>
      </trkpt>
      <trkpt lat="48.67816" lon="2.05268">
        <ele>144</ele>
        <time>2026-02-26T11:19:21Z</time>
      </trkpt>
      <trkpt lat="48.67816" lon="2.0527">
        <ele>164</ele>
        <time>2026-02-26T11:20:07Z</time>
      </trkpt>
      <trkpt lat="48.67813" lon="2.05275">
        <ele>164</ele>
        <time>2026-02-26T11:20:08Z</time>
      </trkpt>
      <trkpt lat="48.67816" lon="2.05275">
        <ele>162</ele>
        <time>2026-02-26T11:20:10Z</time>
      </trkpt>
      <trkpt lat="48.67815" lon="2.05275">
        <ele>156</ele>
        <time>2026-02-26T11:20:14Z</time>
      </trkpt>
      <trkpt lat="48.67813" lon="2.05274">
        <ele>154</ele>
        <time>2026-02-26T11:20:56Z</time>
      </trkpt>
      <trkpt lat="48.67814" lon="2.05273">
        <ele>148</ele>
        <time>2026-02-26T11:21:18Z</time>
      </trkpt>
      <trkpt lat="48.67814" lon="2.0527">
        <ele>150</ele>
        <time>2026-02-26T11:22:56Z</time>
      </trkpt>
      <trkpt lat="48.67815" lon="2.05271">
        <ele>147</ele>
        <time>2026-02-26T11:23:43Z</time>
      </trkpt>
      <trkpt lat="48.67817" lon="2.05272">
        <ele>145</ele>
        <time>2026-02-26T11:23:45Z</time>
      </trkpt>
      <trkpt lat="48.6782" lon="2.05271">
        <ele>157</ele>
        <time>2026-02-26T11:24:17Z</time>
      </trkpt>
      <trkpt lat="48.67819" lon="2.05268">
        <ele>157</ele>
        <time>2026-02-26T11:24:19Z</time>
      </trkpt>
      <trkpt lat="48.67817" lon="2.05269">
        <ele>152</ele>
        <time>2026-02-26T11:24:48Z</time>
      </trkpt>
      <trkpt lat="48.67814" lon="2.05271">
        <ele>149</ele>
        <time>2026-02-26T11:24:51Z</time>
      </trkpt>
      <trkpt lat="48.67816" lon="2.05267">
        <ele>151</ele>
        <time>2026-02-26T11:25:11Z</time>
      </trkpt>
      <trkpt lat="48.67814" lon="2.05266">
        <ele>152</ele>
        <time>2026-02-26T11:25:12Z</time>
      </trkpt>
      <trkpt lat="48.67812" lon="2.05268">
        <ele>148</ele>
        <time>2026-02-26T11:25:26Z</time>
      </trkpt>
      <trkpt lat="48.67818" lon="2.05266">
        <ele>166</ele>
        <time>2026-02-26T11:25:53Z</time>
      </trkpt>
      <trkpt lat="48.67819" lon="2.05268">
        <ele>165</ele>
        <time>2026-02-26T11:25:55Z</time>
      </trkpt>
      <trkpt lat="48.67818" lon="2.05267">
        <ele>164</ele>
        <time>2026-02-26T11:26:03Z</time>
      </trkpt>
      <trkpt lat="48.67815" lon="2.05271">
        <ele>151</ele>
        <time>2026-02-26T11:26:43Z</time>
      </trkpt>
      <trkpt lat="48.67813" lon="2.05271">
        <ele>148</ele>
        <time>2026-02-26T11:26:45Z</time>
      </trkpt>
      <trkpt lat="48.67814" lon="2.05272">
        <ele>159</ele>
        <time>2026-02-26T11:26:57Z</time>
      </trkpt>
      <trkpt lat="48.67815" lon="2.05275">
        <ele>153</ele>
        <time>2026-02-26T11:26:59Z</time>
      </trkpt>
      <trkpt lat="48.67811" lon="2.05276">
        <ele>145</ele>
        <time>2026-02-26T11:27:25Z</time>
      </trkpt>
      <trkpt lat="48.67811" lon="2.05271">
        <ele>148</ele>
        <time>2026-02-26T11:27:28Z</time>
      </trkpt>
      <trkpt lat="48.67809" lon="2.05268">
        <ele>148</ele>
        <time>2026-02-26T11:27:30Z</time>
      </trkpt>
      <trkpt lat="48.6781" lon="2.05267">
        <ele>149</ele>
        <time>2026-02-26T11:27:54Z</time>
      </trkpt>
      <trkpt lat="48.67813" lon="2.05268">
        <ele>152</ele>
        <time>2026-02-26T11:27:55Z</time>
      </trkpt>
      <trkpt lat="48.67818" lon="2.05271">
        <ele>155</ele>
        <time>2026-02-26T11:28:34Z</time>
      </trkpt>
      <trkpt lat="48.67818" lon="2.05267">
        <ele>165</ele>
        <time>2026-02-26T11:28:36Z</time>
      </trkpt>
      <trkpt lat="48.67816" lon="2.05268">
        <ele>158</ele>
        <time>2026-02-26T11:28:37Z</time>
      </trkpt>
      <trkpt lat="48.67817" lon="2.0527">
        <ele>150</ele>
        <time>2026-02-26T11:28:56Z</time>
      </trkpt>
      <trkpt lat="48.6782" lon="2.05273">
        <ele>163</ele>
        <time>2026-02-26T11:29:05Z</time>
      </trkpt>
      <trkpt lat="48.67816" lon="2.05275">
        <ele>136</ele>
        <time>2026-02-26T11:29:35Z</time>
      </trkpt>
      <trkpt lat="48.67817" lon="2.05274">
        <ele>157</ele>
        <time>2026-02-26T11:29:37Z</time>
      </trkpt>
      <trkpt lat="48.67814" lon="2.05273">
        <ele>154</ele>
        <time>2026-02-26T11:29:39Z</time>
      </trkpt>
      <trkpt lat="48.67818" lon="2.05277">
        <ele>142</ele>
        <time>2026-02-26T11:30:39Z</time>
      </trkpt>
      <trkpt lat="48.67818" lon="2.05271">
        <ele>152</ele>
        <time>2026-02-26T11:30:41Z</time>
      </trkpt>
      <trkpt lat="48.67816" lon="2.05272">
        <ele>152</ele>
        <time>2026-02-26T11:31:35Z</time>
      </trkpt>
      <trkpt lat="48.67814" lon="2.05272">
        <ele>153</ele>
        <time>2026-02-26T11:31:37Z</time>
      </trkpt>
      <trkpt lat="48.67812" lon="2.05274">
        <ele>155</ele>
        <time>2026-02-26T11:32:14Z</time>
      </trkpt>
      <trkpt lat="48.67809" lon="2.05273">
        <ele>160</ele>
        <time>2026-02-26T11:32:23Z</time>
      </trkpt>
      <trkpt lat="48.6781" lon="2.05273">
        <ele>159</ele>
        <time>2026-02-26T11:33:02Z</time>
      </trkpt>
      <trkpt lat="48.67811" lon="2.05275">
        <ele>155</ele>
        <time>2026-02-26T11:33:14Z</time>
      </trkpt>
      <trkpt lat="48.6781" lon="2.05268">
        <ele>168</ele>
        <time>2026-02-26T11:33:17Z</time>
      </trkpt>
      <trkpt lat="48.67813" lon="2.05266">
        <ele>160</ele>
        <time>2026-02-26T11:33:20Z</time>
      </trkpt>
      <trkpt lat="48.67813" lon="2.05268">
        <ele>158</ele>
        <time>2026-02-26T11:34:07Z</time>
      </trkpt>
      <trkpt lat="48.67814" lon="2.05268">
        <ele>154</ele>
        <time>2026-02-26T11:35:10Z</time>
      </trkpt>
      <trkpt lat="48.67816" lon="2.05265">
        <ele>152</ele>
        <time>2026-02-26T11:35:13Z</time>
      </trkpt>
      <trkpt lat="48.6782" lon="2.05263">
        <ele>148</ele>
        <time>2026-02-26T11:35:51Z</time>
      </trkpt>
      <trkpt lat="48.67821" lon="2.05261">
        <ele>148</ele>
        <time>2026-02-26T11:35:56Z</time>
      </trkpt>
      <trkpt lat="48.67819" lon="2.0526">
        <ele>149</ele>
        <time>2026-02-26T11:36:00Z</time>
      </trkpt>
      <trkpt lat="48.67816" lon="2.05257">
        <ele>150</ele>
        <time>2026-02-26T11:36:02Z</time>
      </trkpt>
      <trkpt lat="48.67817" lon="2.05257">
        <ele>150</ele>
        <time>2026-02-26T11:36:06Z</time>
      </trkpt>
      <trkpt lat="48.67816" lon="2.05261">
        <ele>149</ele>
        <time>2026-02-26T11:36:14Z</time>
      </trkpt>
      <trkpt lat="48.67815" lon="2.05267">
        <ele>148</ele>
        <time>2026-02-26T11:36:16Z</time>
      </trkpt>
      <trkpt lat="48.67814" lon="2.05272">
        <ele>148</ele>
        <time>2026-02-26T11:36:19Z</time>
      </trkpt>
      <trkpt lat="48.67803" lon="2.05261">
        <ele>149</ele>
        <time>2026-02-26T11:36:33Z</time>
      </trkpt>
      <trkpt lat="48.678" lon="2.05262">
        <ele>144</ele>
        <time>2026-02-26T11:36:34Z</time>
      </trkpt>
      <trkpt lat="48.67804" lon="2.0526">
        <ele>134</ele>
        <time>2026-02-26T11:36:35Z</time>
      </trkpt>
      <trkpt lat="48.67808" lon="2.05263">
        <ele>136</ele>
        <time>2026-02-26T11:36:36Z</time>
      </trkpt>
      <trkpt lat="48.67814" lon="2.05268">
        <ele>143</ele>
        <time>2026-02-26T11:36:37Z</time>
      </trkpt>
      <trkpt lat="48.67819" lon="2.0527">
        <ele>147</ele>
        <time>2026-02-26T11:36:45Z</time>
      </trkpt>
      <trkpt lat="48.67821" lon="2.05273">
        <ele>156</ele>
        <time>2026-02-26T11:36:50Z</time>
      </trkpt>
      <trkpt lat="48.6782" lon="2.05276">
        <ele>156</ele>
        <time>2026-02-26T11:37:00Z</time>
      </trkpt>
      <trkpt lat="48.6782" lon="2.05274">
        <ele>155</ele>
        <time>2026-02-26T11:37:27Z</time>
      </trkpt>
      <trkpt lat="48.67819" lon="2.05271">
        <ele>153</ele>
        <time>2026-02-26T11:37:32Z</time>
      </trkpt>
      <trkpt lat="48.67819" lon="2.05267">
        <ele>150</ele>
        <time>2026-02-26T11:37:41Z</time>
      </trkpt>
      <trkpt lat="48.67817" lon="2.05264">
        <ele>149</ele>
        <time>2026-02-26T11:37:43Z</time>
      </trkpt>
      <trkpt lat="48.67817" lon="2.0526">
        <ele>148</ele>
        <time>2026-02-26T11:37:46Z</time>
      </trkpt>
      <trkpt lat="48.67817" lon="2.05255">
        <ele>148</ele>
        <time>2026-02-26T11:37:49Z</time>
      </trkpt>
      <trkpt lat="48.67818" lon="2.05256">
        <ele>147</ele>
        <time>2026-02-26T11:37:59Z</time>
      </trkpt>
      <trkpt lat="48.67818" lon="2.05259">
        <ele>146</ele>
        <time>2026-02-26T11:38:01Z</time>
      </trkpt>
      <trkpt lat="48.67819" lon="2.05262">
        <ele>146</ele>
        <time>2026-02-26T11:38:05Z</time>
      </trkpt>
      <trkpt lat="48.67821" lon="2.05262">
        <ele>145</ele>
        <time>2026-02-26T11:38:07Z</time>
      </trkpt>
      <trkpt lat="48.67824" lon="2.05261">
        <ele>145</ele>
        <time>2026-02-26T11:38:09Z</time>
      </trkpt>
      <trkpt lat="48.67827" lon="2.0526">
        <ele>145</ele>
        <time>2026-02-26T11:38:12Z</time>
      </trkpt>
      <trkpt lat="48.67827" lon="2.05263">
        <ele>146</ele>
        <time>2026-02-26T11:38:19Z</time>
      </trkpt>
      <trkpt lat="48.67825" lon="2.05265">
        <ele>146</ele>
        <time>2026-02-26T11:38:27Z</time>
      </trkpt>
      <trkpt lat="48.67822" lon="2.05265">
        <ele>146</ele>
        <time>2026-02-26T11:38:28Z</time>
      </trkpt>
      <trkpt lat="48.67819" lon="2.0526">
        <ele>146</ele>
        <time>2026-02-26T11:38:29Z</time>
      </trkpt>
      <trkpt lat="48.67818" lon="2.05255">
        <ele>146</ele>
        <time>2026-02-26T11:38:30Z</time>
      </trkpt>
      <trkpt lat="48.67817" lon="2.05256">
        <ele>146</ele>
        <time>2026-02-26T11:38:54Z</time>
      </trkpt>
      <trkpt lat="48.67817" lon="2.0526">
        <ele>146</ele>
        <time>2026-02-26T11:38:59Z</time>
      </trkpt>
      <trkpt lat="48.67814" lon="2.05265">
        <ele>147</ele>
        <time>2026-02-26T11:39:10Z</time>
      </trkpt>
      <trkpt lat="48.67815" lon="2.0527">
        <ele>146</ele>
        <time>2026-02-26T11:39:24Z</time>
      </trkpt>
      <trkpt lat="48.67813" lon="2.05274">
        <ele>148</ele>
        <time>2026-02-26T11:39:31Z</time>
      </trkpt>
      <trkpt lat="48.67811" lon="2.05272">
        <ele>148</ele>
        <time>2026-02-26T11:39:49Z</time>
      </trkpt>
      <trkpt lat="48.67811" lon="2.05269">
        <ele>146</ele>
        <time>2026-02-26T11:40:01Z</time>
      </trkpt>
      <trkpt lat="48.67809" lon="2.05267">
        <ele>146</ele>
        <time>2026-02-26T11:40:29Z</time>
      </trkpt>
      <trkpt lat="48.6781" lon="2.05267">
        <ele>145</ele>
        <time>2026-02-26T11:40:43Z</time>
      </trkpt>
      <trkpt lat="48.67812" lon="2.05269">
        <ele>145</ele>
        <time>2026-02-26T11:40:56Z</time>
      </trkpt>
      <trkpt lat="48.67814" lon="2.05271">
        <ele>147</ele>
        <time>2026-02-26T11:41:36Z</time>
      </trkpt>
      <trkpt lat="48.67816" lon="2.05274">
        <ele>148</ele>
        <time>2026-02-26T11:42:13Z</time>
      </trkpt>
      <trkpt lat="48.67818" lon="2.05276">
        <ele>148</ele>
        <time>2026-02-26T11:42:23Z</time>
      </trkpt>
      <trkpt lat="48.67818" lon="2.0528">
        <ele>150</ele>
        <time>2026-02-26T11:42:30Z</time>
      </trkpt>
      <trkpt lat="48.67819" lon="2.05279">
        <ele>152</ele>
        <time>2026-02-26T11:43:02Z</time>
      </trkpt>
      <trkpt lat="48.6782" lon="2.05276">
        <ele>151</ele>
        <time>2026-02-26T11:44:24Z</time>
      </trkpt>
      <trkpt lat="48.67822" lon="2.05273">
        <ele>147</ele>
        <time>2026-02-26T11:44:54Z</time>
      </trkpt>
      <trkpt lat="48.67826" lon="2.0527">
        <ele>141</ele>
        <time>2026-02-26T11:44:56Z</time>
      </trkpt>
      <trkpt lat="48.67826" lon="2.05272">
        <ele>140</ele>
        <time>2026-02-26T11:45:30Z</time>
      </trkpt>
      <trkpt lat="48.67828" lon="2.05273">
        <ele>138</ele>
        <time>2026-02-26T11:45:32Z</time>
      </trkpt>
      <trkpt lat="48.67826" lon="2.05274">
        <ele>142</ele>
        <time>2026-02-26T11:45:55Z</time>
      </trkpt>
      <trkpt lat="48.67827" lon="2.05273">
        <ele>144</ele>
        <time>2026-02-26T11:46:16Z</time>
      </trkpt>
      <trkpt lat="48.6783" lon="2.05272">
        <ele>142</ele>
        <time>2026-02-26T11:46:35Z</time>
      </trkpt>
      <trkpt lat="48.67832" lon="2.05274">
        <ele>144</ele>
        <time>2026-02-26T11:46:43Z</time>
      </trkpt>
      <trkpt lat="48.67834" lon="2.05278">
        <ele>147</ele>
        <time>2026-02-26T11:46:49Z</time>
      </trkpt>
      <trkpt lat="48.67837" lon="2.05281">
        <ele>150</ele>
        <time>2026-02-26T11:46:54Z</time>
      </trkpt>
      <trkpt lat="48.67839" lon="2.05283">
        <ele>152</ele>
        <time>2026-02-26T11:46:59Z</time>
      </trkpt>
      <trkpt lat="48.67842" lon="2.05285">
        <ele>154</ele>
        <time>2026-02-26T11:47:03Z</time>
      </trkpt>
      <trkpt lat="48.67844" lon="2.05287">
        <ele>155</ele>
        <time>2026-02-26T11:47:09Z</time>
      </trkpt>
      <trkpt lat="48.67844" lon="2.05269">
        <ele>171</ele>
        <time>2026-02-26T11:47:13Z</time>
      </trkpt>
      <trkpt lat="48.67845" lon="2.0527">
        <ele>178</ele>
        <time>2026-02-26T11:47:14Z</time>
      </trkpt>
      <trkpt lat="48.67845" lon="2.05275">
        <ele>179</ele>
        <time>2026-02-26T11:47:15Z</time>
      </trkpt>
      <trkpt lat="48.67847" lon="2.0528">
        <ele>176</ele>
        <time>2026-02-26T11:47:17Z</time>
      </trkpt>
      <trkpt lat="48.67849" lon="2.05284">
        <ele>175</ele>
        <time>2026-02-26T11:47:19Z</time>
      </trkpt>
      <trkpt lat="48.67852" lon="2.05288">
        <ele>172</ele>
        <time>2026-02-26T11:47:22Z</time>
      </trkpt>
      <trkpt lat="48.67855" lon="2.05291">
        <ele>169</ele>
        <time>2026-02-26T11:47:25Z</time>
      </trkpt>
      <trkpt lat="48.67857" lon="2.05294">
        <ele>168</ele>
        <time>2026-02-26T11:47:29Z</time>
      </trkpt>
      <trkpt lat="48.67859" lon="2.05297">
        <ele>169</ele>
        <time>2026-02-26T11:47:32Z</time>
      </trkpt>
      <trkpt lat="48.67862" lon="2.053">
        <ele>163</ele>
        <time>2026-02-26T11:47:35Z</time>
      </trkpt>
      <trkpt lat="48.67865" lon="2.053">
        <ele>161</ele>
        <time>2026-02-26T11:47:38Z</time>
      </trkpt>
      <trkpt lat="48.67868" lon="2.05304">
        <ele>163</ele>
        <time>2026-02-26T11:47:43Z</time>
      </trkpt>
      <trkpt lat="48.67872" lon="2.05308">
        <ele>165</ele>
        <time>2026-02-26T11:47:49Z</time>
      </trkpt>
      <trkpt lat="48.67876" lon="2.05312">
        <ele>165</ele>
        <time>2026-02-26T11:47:55Z</time>
      </trkpt>
      <trkpt lat="48.67879" lon="2.05316">
        <ele>165</ele>
        <time>2026-02-26T11:47:58Z</time>
      </trkpt>
      <trkpt lat="48.67884" lon="2.05318">
        <ele>164</ele>
        <time>2026-02-26T11:48:02Z</time>
      </trkpt>
      <trkpt lat="48.67887" lon="2.0532">
        <ele>165</ele>
        <time>2026-02-26T11:48:04Z</time>
      </trkpt>
      <trkpt lat="48.67891" lon="2.05323">
        <ele>165</ele>
        <time>2026-02-26T11:48:10Z</time>
      </trkpt>
      <trkpt lat="48.67894" lon="2.05326">
        <ele>166</ele>
        <time>2026-02-26T11:48:14Z</time>
      </trkpt>
      <trkpt lat="48.67896" lon="2.05328">
        <ele>166</ele>
        <time>2026-02-26T11:48:17Z</time>
      </trkpt>
      <trkpt lat="48.67899" lon="2.05331">
        <ele>167</ele>
        <time>2026-02-26T11:48:21Z</time>
      </trkpt>
      <trkpt lat="48.67901" lon="2.05333">
        <ele>166</ele>
        <time>2026-02-26T11:48:24Z</time>
      </trkpt>
      <trkpt lat="48.67904" lon="2.05336">
        <ele>166</ele>
        <time>2026-02-26T11:48:27Z</time>
      </trkpt>
      <trkpt lat="48.67907" lon="2.05337">
        <ele>165</ele>
        <time>2026-02-26T11:48:29Z</time>
      </trkpt>
      <trkpt lat="48.6791" lon="2.05339">
        <ele>164</ele>
        <time>2026-02-26T11:48:32Z</time>
      </trkpt>
      <trkpt lat="48.67913" lon="2.05343">
        <ele>164</ele>
        <time>2026-02-26T11:48:35Z</time>
      </trkpt>
      <trkpt lat="48.67917" lon="2.05345">
        <ele>165</ele>
        <time>2026-02-26T11:48:40Z</time>
      </trkpt>
      <trkpt lat="48.6792" lon="2.05347">
        <ele>164</ele>
        <time>2026-02-26T11:48:43Z</time>
      </trkpt>
      <trkpt lat="48.67924" lon="2.05348">
        <ele>164</ele>
        <time>2026-02-26T11:48:46Z</time>
      </trkpt>
      <trkpt lat="48.67927" lon="2.05349">
        <ele>164</ele>
        <time>2026-02-26T11:48:49Z</time>
      </trkpt>
      <trkpt lat="48.6793" lon="2.0535">
        <ele>163</ele>
        <time>2026-02-26T11:48:52Z</time>
      </trkpt>
      <trkpt lat="48.67933" lon="2.0535">
        <ele>162</ele>
        <time>2026-02-26T11:48:55Z</time>
      </trkpt>
      <trkpt lat="48.67937" lon="2.05351">
        <ele>159</ele>
        <time>2026-02-26T11:48:59Z</time>
      </trkpt>
      <trkpt lat="48.67939" lon="2.05352">
        <ele>158</ele>
        <time>2026-02-26T11:49:02Z</time>
      </trkpt>
      <trkpt lat="48.67942" lon="2.05354">
        <ele>157</ele>
        <time>2026-02-26T11:49:05Z</time>
      </trkpt>
      <trkpt lat="48.67944" lon="2.05357">
        <ele>157</ele>
        <time>2026-02-26T11:49:08Z</time>
      </trkpt>
      <trkpt lat="48.67947" lon="2.0536">
        <ele>157</ele>
        <time>2026-02-26T11:49:11Z</time>
      </trkpt>
      <trkpt lat="48.6795" lon="2.05362">
        <ele>157</ele>
        <time>2026-02-26T11:49:15Z</time>
      </trkpt>
      <trkpt lat="48.67953" lon="2.05364">
        <ele>156</ele>
        <time>2026-02-26T11:49:19Z</time>
      </trkpt>
      <trkpt lat="48.67956" lon="2.05367">
        <ele>156</ele>
        <time>2026-02-26T11:49:22Z</time>
      </trkpt>
      <trkpt lat="48.67959" lon="2.05369">
        <ele>155</ele>
        <time>2026-02-26T11:49:25Z</time>
      </trkpt>
      <trkpt lat="48.67963" lon="2.05371">
        <ele>154</ele>
        <time>2026-02-26T11:49:29Z</time>
      </trkpt>
      <trkpt lat="48.67966" lon="2.05372">
        <ele>154</ele>
        <time>2026-02-26T11:49:32Z</time>
      </trkpt>
      <trkpt lat="48.67969" lon="2.05374">
        <ele>154</ele>
        <time>2026-02-26T11:49:36Z</time>
      </trkpt>
      <trkpt lat="48.67972" lon="2.05375">
        <ele>154</ele>
        <time>2026-02-26T11:49:39Z</time>
      </trkpt>
      <trkpt lat="48.67976" lon="2.05377">
        <ele>154</ele>
        <time>2026-02-26T11:49:43Z</time>
      </trkpt>
      <trkpt lat="48.67979" lon="2.05379">
        <ele>154</ele>
        <time>2026-02-26T11:49:46Z</time>
      </trkpt>
      <trkpt lat="48.67982" lon="2.05381">
        <ele>154</ele>
        <time>2026-02-26T11:49:50Z</time>
      </trkpt>
      <trkpt lat="48.67985" lon="2.05383">
        <ele>153</ele>
        <time>2026-02-26T11:49:53Z</time>
      </trkpt>
      <trkpt lat="48.67987" lon="2.05385">
        <ele>153</ele>
        <time>2026-02-26T11:49:56Z</time>
      </trkpt>
      <trkpt lat="48.6799" lon="2.05388">
        <ele>152</ele>
        <time>2026-02-26T11:49:59Z</time>
      </trkpt>
      <trkpt lat="48.67994" lon="2.05389">
        <ele>150</ele>
        <time>2026-02-26T11:50:06Z</time>
      </trkpt>
      <trkpt lat="48.67997" lon="2.05391">
        <ele>148</ele>
        <time>2026-02-26T11:50:09Z</time>
      </trkpt>
      <trkpt lat="48.68001" lon="2.05392">
        <ele>147</ele>
        <time>2026-02-26T11:50:12Z</time>
      </trkpt>
      <trkpt lat="48.68004" lon="2.05393">
        <ele>146</ele>
        <time>2026-02-26T11:50:15Z</time>
      </trkpt>
      <trkpt lat="48.68007" lon="2.05396">
        <ele>146</ele>
        <time>2026-02-26T11:50:22Z</time>
      </trkpt>
      <trkpt lat="48.6801" lon="2.05398">
        <ele>147</ele>
        <time>2026-02-26T11:50:25Z</time>
      </trkpt>
      <trkpt lat="48.68013" lon="2.05399">
        <ele>149</ele>
        <time>2026-02-26T11:50:29Z</time>
      </trkpt>
      <trkpt lat="48.68016" lon="2.05401">
        <ele>150</ele>
        <time>2026-02-26T11:50:31Z</time>
      </trkpt>
      <trkpt lat="48.68019" lon="2.05403">
        <ele>149</ele>
        <time>2026-02-26T11:50:34Z</time>
      </trkpt>
      <trkpt lat="48.68022" lon="2.05405">
        <ele>148</ele>
        <time>2026-02-26T11:50:37Z</time>
      </trkpt>
      <trkpt lat="48.68025" lon="2.05408">
        <ele>148</ele>
        <time>2026-02-26T11:50:40Z</time>
      </trkpt>
      <trkpt lat="48.68028" lon="2.0541">
        <ele>148</ele>
        <time>2026-02-26T11:50:43Z</time>
      </trkpt>
      <trkpt lat="48.68032" lon="2.05414">
        <ele>147</ele>
        <time>2026-02-26T11:50:48Z</time>
      </trkpt>
      <trkpt lat="48.68035" lon="2.05417">
        <ele>146</ele>
        <time>2026-02-26T11:50:51Z</time>
      </trkpt>
      <trkpt lat="48.68038" lon="2.0542">
        <ele>146</ele>
        <time>2026-02-26T11:50:54Z</time>
      </trkpt>
      <trkpt lat="48.68041" lon="2.05423">
        <ele>146</ele>
        <time>2026-02-26T11:50:56Z</time>
      </trkpt>
      <trkpt lat="48.68043" lon="2.05426">
        <ele>146</ele>
        <time>2026-02-26T11:50:58Z</time>
      </trkpt>
      <trkpt lat="48.68046" lon="2.05428">
        <ele>146</ele>
        <time>2026-02-26T11:51:02Z</time>
      </trkpt>
      <trkpt lat="48.68049" lon="2.0543">
        <ele>147</ele>
        <time>2026-02-26T11:51:05Z</time>
      </trkpt>
      <trkpt lat="48.68053" lon="2.05432">
        <ele>148</ele>
        <time>2026-02-26T11:51:10Z</time>
      </trkpt>
      <trkpt lat="48.68056" lon="2.05434">
        <ele>148</ele>
        <time>2026-02-26T11:51:13Z</time>
      </trkpt>
      <trkpt lat="48.68059" lon="2.05437">
        <ele>149</ele>
        <time>2026-02-26T11:51:16Z</time>
      </trkpt>
      <trkpt lat="48.68062" lon="2.05439">
        <ele>149</ele>
        <time>2026-02-26T11:51:19Z</time>
      </trkpt>
      <trkpt lat="48.68065" lon="2.05442">
        <ele>149</ele>
        <time>2026-02-26T11:51:22Z</time>
      </trkpt>
      <trkpt lat="48.68067" lon="2.05445">
        <ele>150</ele>
        <time>2026-02-26T11:51:26Z</time>
      </trkpt>
      <trkpt lat="48.6807" lon="2.05447">
        <ele>150</ele>
        <time>2026-02-26T11:51:29Z</time>
      </trkpt>
      <trkpt lat="48.68073" lon="2.05448">
        <ele>150</ele>
        <time>2026-02-26T11:51:32Z</time>
      </trkpt>
      <trkpt lat="48.68075" lon="2.0545">
        <ele>150</ele>
        <time>2026-02-26T11:51:35Z</time>
      </trkpt>
      <trkpt lat="48.68078" lon="2.05452">
        <ele>151</ele>
        <time>2026-02-26T11:51:40Z</time>
      </trkpt>
      <trkpt lat="48.68081" lon="2.05454">
        <ele>147</ele>
        <time>2026-02-26T11:51:42Z</time>
      </trkpt>
      <trkpt lat="48.68084" lon="2.05457">
        <ele>142</ele>
        <time>2026-02-26T11:51:46Z</time>
      </trkpt>
      <trkpt lat="48.68087" lon="2.05458">
        <ele>143</ele>
        <time>2026-02-26T11:51:48Z</time>
      </trkpt>
      <trkpt lat="48.6809" lon="2.05459">
        <ele>144</ele>
        <time>2026-02-26T11:51:50Z</time>
      </trkpt>
      <trkpt lat="48.68093" lon="2.05461">
        <ele>145</ele>
        <time>2026-02-26T11:51:56Z</time>
      </trkpt>
      <trkpt lat="48.68096" lon="2.05464">
        <ele>144</ele>
        <time>2026-02-26T11:51:59Z</time>
      </trkpt>
      <trkpt lat="48.68099" lon="2.05467">
        <ele>142</ele>
        <time>2026-02-26T11:52:02Z</time>
      </trkpt>
      <trkpt lat="48.68102" lon="2.0547">
        <ele>143</ele>
        <time>2026-02-26T11:52:04Z</time>
      </trkpt>
      <trkpt lat="48.68105" lon="2.05473">
        <ele>144</ele>
        <time>2026-02-26T11:52:20Z</time>
      </trkpt>
      <trkpt lat="48.68108" lon="2.05475">
        <ele>144</ele>
        <time>2026-02-26T11:52:22Z</time>
      </trkpt>
      <trkpt lat="48.68111" lon="2.05479">
        <ele>144</ele>
        <time>2026-02-26T11:52:29Z</time>
      </trkpt>
      <trkpt lat="48.68115" lon="2.05482">
        <ele>145</ele>
        <time>2026-02-26T11:52:31Z</time>
      </trkpt>
      <trkpt lat="48.68118" lon="2.05484">
        <ele>146</ele>
        <time>2026-02-26T11:52:35Z</time>
      </trkpt>
      <trkpt lat="48.68121" lon="2.05488">
        <ele>147</ele>
        <time>2026-02-26T11:52:37Z</time>
      </trkpt>
      <trkpt lat="48.68124" lon="2.05491">
        <ele>148</ele>
        <time>2026-02-26T11:52:38Z</time>
      </trkpt>
      <trkpt lat="48.68128" lon="2.05495">
        <ele>150</ele>
        <time>2026-02-26T11:52:40Z</time>
      </trkpt>
      <trkpt lat="48.68133" lon="2.05498">
        <ele>151</ele>
        <time>2026-02-26T11:52:42Z</time>
      </trkpt>
      <trkpt lat="48.68137" lon="2.05501">
        <ele>152</ele>
        <time>2026-02-26T11:52:44Z</time>
      </trkpt>
      <trkpt lat="48.68141" lon="2.05503">
        <ele>151</ele>
        <time>2026-02-26T11:52:47Z</time>
      </trkpt>
      <trkpt lat="48.68144" lon="2.05506">
        <ele>151</ele>
        <time>2026-02-26T11:53:04Z</time>
      </trkpt>
      <trkpt lat="48.68146" lon="2.05509">
        <ele>152</ele>
        <time>2026-02-26T11:53:06Z</time>
      </trkpt>
      <trkpt lat="48.68149" lon="2.05511">
        <ele>152</ele>
        <time>2026-02-26T11:53:10Z</time>
      </trkpt>
      <trkpt lat="48.68152" lon="2.05515">
        <ele>152</ele>
        <time>2026-02-26T11:53:12Z</time>
      </trkpt>
      <trkpt lat="48.68155" lon="2.05518">
        <ele>152</ele>
        <time>2026-02-26T11:53:16Z</time>
      </trkpt>
      <trkpt lat="48.68158" lon="2.05521">
        <ele>152</ele>
        <time>2026-02-26T11:53:18Z</time>
      </trkpt>
      <trkpt lat="48.68161" lon="2.05524">
        <ele>152</ele>
        <time>2026-02-26T11:53:21Z</time>
      </trkpt>
      <trkpt lat="48.68164" lon="2.05528">
        <ele>152</ele>
        <time>2026-02-26T11:53:23Z</time>
      </trkpt>
      <trkpt lat="48.68167" lon="2.05533">
        <ele>152</ele>
        <time>2026-02-26T11:53:36Z</time>
      </trkpt>
      <trkpt lat="48.6817" lon="2.05538">
        <ele>152</ele>
        <time>2026-02-26T11:53:38Z</time>
      </trkpt>
      <trkpt lat="48.68172" lon="2.05542">
        <ele>152</ele>
        <time>2026-02-26T11:53:40Z</time>
      </trkpt>
      <trkpt lat="48.68175" lon="2.05546">
        <ele>152</ele>
        <time>2026-02-26T11:53:42Z</time>
      </trkpt>
      <trkpt lat="48.68178" lon="2.05551">
        <ele>153</ele>
        <time>2026-02-26T11:53:50Z</time>
      </trkpt>
      <trkpt lat="48.68181" lon="2.05555">
        <ele>152</ele>
        <time>2026-02-26T11:53:52Z</time>
      </trkpt>
      <trkpt lat="48.68183" lon="2.05559">
        <ele>152</ele>
        <time>2026-02-26T11:53:54Z</time>
      </trkpt>
      <trkpt lat="48.68186" lon="2.05564">
        <ele>152</ele>
        <time>2026-02-26T11:53:57Z</time>
      </trkpt>
      <trkpt lat="48.68189" lon="2.05568">
        <ele>152</ele>
        <time>2026-02-26T11:53:59Z</time>
      </trkpt>
      <trkpt lat="48.68192" lon="2.05574">
        <ele>153</ele>
        <time>2026-02-26T11:54:03Z</time>
      </trkpt>
      <trkpt lat="48.68194" lon="2.05578">
        <ele>153</ele>
        <time>2026-02-26T11:54:05Z</time>
      </trkpt>
      <trkpt lat="48.68198" lon="2.05583">
        <ele>154</ele>
        <time>2026-02-26T11:54:09Z</time>
      </trkpt>
      <trkpt lat="48.682" lon="2.05587">
        <ele>154</ele>
        <time>2026-02-26T11:54:11Z</time>
      </trkpt>
      <trkpt lat="48.68203" lon="2.05593">
        <ele>154</ele>
        <time>2026-02-26T11:54:15Z</time>
      </trkpt>
      <trkpt lat="48.68205" lon="2.05597">
        <ele>153</ele>
        <time>2026-02-26T11:54:17Z</time>
      </trkpt>
      <trkpt lat="48.68208" lon="2.05602">
        <ele>154</ele>
        <time>2026-02-26T11:54:21Z</time>
      </trkpt>
      <trkpt lat="48.68212" lon="2.05605">
        <ele>155</ele>
        <time>2026-02-26T11:54:24Z</time>
      </trkpt>
      <trkpt lat="48.68214" lon="2.0561">
        <ele>156</ele>
        <time>2026-02-26T11:54:27Z</time>
      </trkpt>
      <trkpt lat="48.68215" lon="2.05614">
        <ele>156</ele>
        <time>2026-02-26T11:54:30Z</time>
      </trkpt>
      <trkpt lat="48.68217" lon="2.05618">
        <ele>156</ele>
        <time>2026-02-26T11:54:33Z</time>
      </trkpt>
      <trkpt lat="48.68219" lon="2.05622">
        <ele>156</ele>
        <time>2026-02-26T11:54:35Z</time>
      </trkpt>
      <trkpt lat="48.68221" lon="2.05627">
        <ele>156</ele>
        <time>2026-02-26T11:54:39Z</time>
      </trkpt>
      <trkpt lat="48.68223" lon="2.05631">
        <ele>156</ele>
        <time>2026-02-26T11:54:41Z</time>
      </trkpt>
      <trkpt lat="48.68226" lon="2.05635">
        <ele>155</ele>
        <time>2026-02-26T11:54:45Z</time>
      </trkpt>
      <trkpt lat="48.68228" lon="2.0564">
        <ele>155</ele>
        <time>2026-02-26T11:54:48Z</time>
      </trkpt>
      <trkpt lat="48.68229" lon="2.05644">
        <ele>154</ele>
        <time>2026-02-26T11:54:52Z</time>
      </trkpt>
      <trkpt lat="48.68232" lon="2.0565">
        <ele>153</ele>
        <time>2026-02-26T11:54:57Z</time>
      </trkpt>
      <trkpt lat="48.68235" lon="2.05654">
        <ele>152</ele>
        <time>2026-02-26T11:55:01Z</time>
      </trkpt>
      <trkpt lat="48.68237" lon="2.05657">
        <ele>152</ele>
        <time>2026-02-26T11:55:03Z</time>
      </trkpt>
      <trkpt lat="48.68239" lon="2.05662">
        <ele>152</ele>
        <time>2026-02-26T11:55:06Z</time>
      </trkpt>
      <trkpt lat="48.68241" lon="2.05667">
        <ele>152</ele>
        <time>2026-02-26T11:55:08Z</time>
      </trkpt>
      <trkpt lat="48.68243" lon="2.05673">
        <ele>151</ele>
        <time>2026-02-26T11:55:12Z</time>
      </trkpt>
      <trkpt lat="48.68245" lon="2.05677">
        <ele>150</ele>
        <time>2026-02-26T11:55:14Z</time>
      </trkpt>
      <trkpt lat="48.68247" lon="2.05683">
        <ele>150</ele>
        <time>2026-02-26T11:55:18Z</time>
      </trkpt>
      <trkpt lat="48.6825" lon="2.05688">
        <ele>149</ele>
        <time>2026-02-26T11:55:21Z</time>
      </trkpt>
      <trkpt lat="48.68252" lon="2.05692">
        <ele>149</ele>
        <time>2026-02-26T11:55:24Z</time>
      </trkpt>
      <trkpt lat="48.68254" lon="2.05696">
        <ele>149</ele>
        <time>2026-02-26T11:55:26Z</time>
      </trkpt>
      <trkpt lat="48.68256" lon="2.05702">
        <ele>148</ele>
        <time>2026-02-26T11:55:33Z</time>
      </trkpt>
      <trkpt lat="48.68257" lon="2.05706">
        <ele>147</ele>
        <time>2026-02-26T11:55:36Z</time>
      </trkpt>
      <trkpt lat="48.68259" lon="2.05712">
        <ele>147</ele>
        <time>2026-02-26T11:55:39Z</time>
      </trkpt>
      <trkpt lat="48.68261" lon="2.05716">
        <ele>147</ele>
        <time>2026-02-26T11:55:41Z</time>
      </trkpt>
      <trkpt lat="48.68262" lon="2.0572">
        <ele>147</ele>
        <time>2026-02-26T11:55:44Z</time>
      </trkpt>
      <trkpt lat="48.68263" lon="2.05724">
        <ele>147</ele>
        <time>2026-02-26T11:55:47Z</time>
      </trkpt>
      <trkpt lat="48.68265" lon="2.05728">
        <ele>147</ele>
        <time>2026-02-26T11:55:49Z</time>
      </trkpt>
      <trkpt lat="48.68267" lon="2.05734">
        <ele>147</ele>
        <time>2026-02-26T11:55:53Z</time>
      </trkpt>
      <trkpt lat="48.68269" lon="2.05738">
        <ele>146</ele>
        <time>2026-02-26T11:55:57Z</time>
      </trkpt>
      <trkpt lat="48.6827" lon="2.05742">
        <ele>146</ele>
        <time>2026-02-26T11:56:00Z</time>
      </trkpt>
      <trkpt lat="48.68271" lon="2.05746">
        <ele>147</ele>
        <time>2026-02-26T11:56:03Z</time>
      </trkpt>
      <trkpt lat="48.68272" lon="2.05751">
        <ele>146</ele>
        <time>2026-02-26T11:56:06Z</time>
      </trkpt>
      <trkpt lat="48.68274" lon="2.05758">
        <ele>147</ele>
        <time>2026-02-26T11:56:12Z</time>
      </trkpt>
      <trkpt lat="48.68275" lon="2.05762">
        <ele>147</ele>
        <time>2026-02-26T11:56:15Z</time>
      </trkpt>
      <trkpt lat="48.68277" lon="2.05767">
        <ele>147</ele>
        <time>2026-02-26T11:56:18Z</time>
      </trkpt>
      <trkpt lat="48.68278" lon="2.05771">
        <ele>148</ele>
        <time>2026-02-26T11:56:21Z</time>
      </trkpt>
      <trkpt lat="48.68279" lon="2.05775">
        <ele>147</ele>
        <time>2026-02-26T11:56:25Z</time>
      </trkpt>
      <trkpt lat="48.68281" lon="2.0578">
        <ele>147</ele>
        <time>2026-02-26T11:56:28Z</time>
      </trkpt>
      <trkpt lat="48.68283" lon="2.05786">
        <ele>145</ele>
        <time>2026-02-26T11:56:33Z</time>
      </trkpt>
      <trkpt lat="48.68285" lon="2.05791">
        <ele>145</ele>
        <time>2026-02-26T11:56:36Z</time>
      </trkpt>
      <trkpt lat="48.68287" lon="2.05796">
        <ele>144</ele>
        <time>2026-02-26T11:56:39Z</time>
      </trkpt>
      <trkpt lat="48.68288" lon="2.058">
        <ele>144</ele>
        <time>2026-02-26T11:56:41Z</time>
      </trkpt>
      <trkpt lat="48.6829" lon="2.05804">
        <ele>143</ele>
        <time>2026-02-26T11:56:44Z</time>
      </trkpt>
      <trkpt lat="48.68292" lon="2.05809">
        <ele>143</ele>
        <time>2026-02-26T11:56:48Z</time>
      </trkpt>
      <trkpt lat="48.68294" lon="2.05813">
        <ele>142</ele>
        <time>2026-02-26T11:56:51Z</time>
      </trkpt>
      <trkpt lat="48.68296" lon="2.05818">
        <ele>141</ele>
        <time>2026-02-26T11:56:54Z</time>
      </trkpt>
      <trkpt lat="48.68298" lon="2.05822">
        <ele>142</ele>
        <time>2026-02-26T11:56:57Z</time>
      </trkpt>
      <trkpt lat="48.683" lon="2.05828">
        <ele>141</ele>
        <time>2026-02-26T11:57:02Z</time>
      </trkpt>
      <trkpt lat="48.68303" lon="2.05832">
        <ele>141</ele>
        <time>2026-02-26T11:57:05Z</time>
      </trkpt>
      <trkpt lat="48.68304" lon="2.05837">
        <ele>141</ele>
        <time>2026-02-26T11:57:08Z</time>
      </trkpt>
      <trkpt lat="48.68305" lon="2.05841">
        <ele>140</ele>
        <time>2026-02-26T11:57:11Z</time>
      </trkpt>
      <trkpt lat="48.68307" lon="2.05845">
        <ele>140</ele>
        <time>2026-02-26T11:57:14Z</time>
      </trkpt>
      <trkpt lat="48.68309" lon="2.05849">
        <ele>138</ele>
        <time>2026-02-26T11:57:17Z</time>
      </trkpt>
      <trkpt lat="48.6831" lon="2.05853">
        <ele>137</ele>
        <time>2026-02-26T11:57:20Z</time>
      </trkpt>
      <trkpt lat="48.68312" lon="2.05857">
        <ele>137</ele>
        <time>2026-02-26T11:57:22Z</time>
      </trkpt>
      <trkpt lat="48.68314" lon="2.05863">
        <ele>136</ele>
        <time>2026-02-26T11:57:26Z</time>
      </trkpt>
      <trkpt lat="48.68316" lon="2.05868">
        <ele>136</ele>
        <time>2026-02-26T11:57:28Z</time>
      </trkpt>
      <trkpt lat="48.68318" lon="2.05872">
        <ele>136</ele>
        <time>2026-02-26T11:57:33Z</time>
      </trkpt>
      <trkpt lat="48.6832" lon="2.05878">
        <ele>136</ele>
        <time>2026-02-26T11:57:38Z</time>
      </trkpt>
      <trkpt lat="48.68322" lon="2.05883">
        <ele>136</ele>
        <time>2026-02-26T11:57:41Z</time>
      </trkpt>
      <trkpt lat="48.68323" lon="2.05888">
        <ele>136</ele>
        <time>2026-02-26T11:57:44Z</time>
      </trkpt>
      <trkpt lat="48.68325" lon="2.05894">
        <ele>136</ele>
        <time>2026-02-26T11:57:47Z</time>
      </trkpt>
      <trkpt lat="48.68326" lon="2.05897">
        <ele>136</ele>
        <time>2026-02-26T11:57:50Z</time>
      </trkpt>
      <trkpt lat="48.68328" lon="2.05901">
        <ele>136</ele>
        <time>2026-02-26T11:57:52Z</time>
      </trkpt>
      <trkpt lat="48.68329" lon="2.05906">
        <ele>136</ele>
        <time>2026-02-26T11:57:55Z</time>
      </trkpt>
      <trkpt lat="48.68331" lon="2.0591">
        <ele>136</ele>
        <time>2026-02-26T11:57:58Z</time>
      </trkpt>
      <trkpt lat="48.68333" lon="2.05915">
        <ele>136</ele>
        <time>2026-02-26T11:58:01Z</time>
      </trkpt>
      <trkpt lat="48.68334" lon="2.05919">
        <ele>136</ele>
        <time>2026-02-26T11:58:03Z</time>
      </trkpt>
      <trkpt lat="48.68336" lon="2.05923">
        <ele>136</ele>
        <time>2026-02-26T11:58:05Z</time>
      </trkpt>
      <trkpt lat="48.68337" lon="2.05928">
        <ele>136</ele>
        <time>2026-02-26T11:58:08Z</time>
      </trkpt>
      <trkpt lat="48.68338" lon="2.05933">
        <ele>135</ele>
        <time>2026-02-26T11:58:11Z</time>
      </trkpt>
      <trkpt lat="48.6834" lon="2.05937">
        <ele>135</ele>
        <time>2026-02-26T11:58:14Z</time>
      </trkpt>
      <trkpt lat="48.6834" lon="2.05942">
        <ele>135</ele>
        <time>2026-02-26T11:58:16Z</time>
      </trkpt>
      <trkpt lat="48.68341" lon="2.05947">
        <ele>135</ele>
        <time>2026-02-26T11:58:19Z</time>
      </trkpt>
      <trkpt lat="48.68343" lon="2.05951">
        <ele>134</ele>
        <time>2026-02-26T11:58:24Z</time>
      </trkpt>
      <trkpt lat="48.68344" lon="2.05955">
        <ele>135</ele>
        <time>2026-02-26T11:58:27Z</time>
      </trkpt>
      <trkpt lat="48.68346" lon="2.05959">
        <ele>135</ele>
        <time>2026-02-26T11:58:30Z</time>
      </trkpt>
      <trkpt lat="48.68348" lon="2.05963">
        <ele>135</ele>
        <time>2026-02-26T11:58:32Z</time>
      </trkpt>
      <trkpt lat="48.6835" lon="2.05966">
        <ele>136</ele>
        <time>2026-02-26T11:58:34Z</time>
      </trkpt>
      <trkpt lat="48.68352" lon="2.0597">
        <ele>137</ele>
        <time>2026-02-26T11:58:36Z</time>
      </trkpt>
      <trkpt lat="48.68353" lon="2.05975">
        <ele>137</ele>
        <time>2026-02-26T11:58:38Z</time>
      </trkpt>
      <trkpt lat="48.68355" lon="2.05979">
        <ele>138</ele>
        <time>2026-02-26T11:58:40Z</time>
      </trkpt>
      <trkpt lat="48.68357" lon="2.05982">
        <ele>138</ele>
        <time>2026-02-26T11:58:43Z</time>
      </trkpt>
      <trkpt lat="48.68359" lon="2.05986">
        <ele>139</ele>
        <time>2026-02-26T11:58:46Z</time>
      </trkpt>
      <trkpt lat="48.68361" lon="2.05989">
        <ele>136</ele>
        <time>2026-02-26T11:58:50Z</time>
      </trkpt>
      <trkpt lat="48.68364" lon="2.05992">
        <ele>135</ele>
        <time>2026-02-26T11:58:52Z</time>
      </trkpt>
      <trkpt lat="48.68364" lon="2.05996">
        <ele>130</ele>
        <time>2026-02-26T11:58:56Z</time>
      </trkpt>
      <trkpt lat="48.68365" lon="2.06001">
        <ele>128</ele>
        <time>2026-02-26T11:58:59Z</time>
      </trkpt>
      <trkpt lat="48.68366" lon="2.06005">
        <ele>128</ele>
        <time>2026-02-26T11:59:03Z</time>
      </trkpt>
      <trkpt lat="48.68369" lon="2.06008">
        <ele>128</ele>
        <time>2026-02-26T11:59:05Z</time>
      </trkpt>
      <trkpt lat="48.68371" lon="2.06012">
        <ele>128</ele>
        <time>2026-02-26T11:59:08Z</time>
      </trkpt>
      <trkpt lat="48.68374" lon="2.06016">
        <ele>130</ele>
        <time>2026-02-26T11:59:12Z</time>
      </trkpt>
      <trkpt lat="48.68376" lon="2.06019">
        <ele>130</ele>
        <time>2026-02-26T11:59:15Z</time>
      </trkpt>
      <trkpt lat="48.68379" lon="2.06022">
        <ele>128</ele>
        <time>2026-02-26T11:59:18Z</time>
      </trkpt>
      <trkpt lat="48.68382" lon="2.06024">
        <ele>127</ele>
        <time>2026-02-26T11:59:21Z</time>
      </trkpt>
      <trkpt lat="48.68384" lon="2.06027">
        <ele>126</ele>
        <time>2026-02-26T11:59:24Z</time>
      </trkpt>
      <trkpt lat="48.68387" lon="2.0603">
        <ele>120</ele>
        <time>2026-02-26T11:59:27Z</time>
      </trkpt>
      <trkpt lat="48.6839" lon="2.06032">
        <ele>118</ele>
        <time>2026-02-26T11:59:30Z</time>
      </trkpt>
      <trkpt lat="48.68394" lon="2.06038">
        <ele>122</ele>
        <time>2026-02-26T11:59:49Z</time>
      </trkpt>
      <trkpt lat="48.68393" lon="2.06044">
        <ele>130</ele>
        <time>2026-02-26T11:59:50Z</time>
      </trkpt>
      <trkpt lat="48.68392" lon="2.06049">
        <ele>127</ele>
        <time>2026-02-26T11:59:52Z</time>
      </trkpt>
      <trkpt lat="48.68394" lon="2.06054">
        <ele>124</ele>
        <time>2026-02-26T11:59:55Z</time>
      </trkpt>
      <trkpt lat="48.68396" lon="2.06057">
        <ele>124</ele>
        <time>2026-02-26T11:59:59Z</time>
      </trkpt>
      <trkpt lat="48.68398" lon="2.0606">
        <ele>125</ele>
        <time>2026-02-26T12:00:02Z</time>
      </trkpt>
      <trkpt lat="48.68402" lon="2.06063">
        <ele>127</ele>
        <time>2026-02-26T12:00:08Z</time>
      </trkpt>
      <trkpt lat="48.68404" lon="2.06067">
        <ele>129</ele>
        <time>2026-02-26T12:00:12Z</time>
      </trkpt>
      <trkpt lat="48.68406" lon="2.06071">
        <ele>130</ele>
        <time>2026-02-26T12:00:15Z</time>
      </trkpt>
      <trkpt lat="48.68409" lon="2.06074">
        <ele>132</ele>
        <time>2026-02-26T12:00:18Z</time>
      </trkpt>
      <trkpt lat="48.68412" lon="2.06077">
        <ele>133</ele>
        <time>2026-02-26T12:00:21Z</time>
      </trkpt>
      <trkpt lat="48.68415" lon="2.0608">
        <ele>133</ele>
        <time>2026-02-26T12:00:24Z</time>
      </trkpt>
      <trkpt lat="48.68417" lon="2.06083">
        <ele>134</ele>
        <time>2026-02-26T12:00:28Z</time>
      </trkpt>
      <trkpt lat="48.68419" lon="2.06086">
        <ele>134</ele>
        <time>2026-02-26T12:00:31Z</time>
      </trkpt>
      <trkpt lat="48.68421" lon="2.0609">
        <ele>135</ele>
        <time>2026-02-26T12:00:35Z</time>
      </trkpt>
      <trkpt lat="48.68423" lon="2.06093">
        <ele>136</ele>
        <time>2026-02-26T12:00:38Z</time>
      </trkpt>
      <trkpt lat="48.68425" lon="2.06097">
        <ele>136</ele>
        <time>2026-02-26T12:00:42Z</time>
      </trkpt>
      <trkpt lat="48.68428" lon="2.061">
        <ele>136</ele>
        <time>2026-02-26T12:00:46Z</time>
      </trkpt>
      <trkpt lat="48.6843" lon="2.06103">
        <ele>136</ele>
        <time>2026-02-26T12:00:49Z</time>
      </trkpt>
      <trkpt lat="48.68433" lon="2.06106">
        <ele>135</ele>
        <time>2026-02-26T12:00:53Z</time>
      </trkpt>
      <trkpt lat="48.68435" lon="2.06109">
        <ele>135</ele>
        <time>2026-02-26T12:00:56Z</time>
      </trkpt>
      <trkpt lat="48.68437" lon="2.06111">
        <ele>135</ele>
        <time>2026-02-26T12:00:59Z</time>
      </trkpt>
      <trkpt lat="48.6844" lon="2.06114">
        <ele>134</ele>
        <time>2026-02-26T12:01:03Z</time>
      </trkpt>
      <trkpt lat="48.68442" lon="2.06117">
        <ele>134</ele>
        <time>2026-02-26T12:01:05Z</time>
      </trkpt>
      <trkpt lat="48.68445" lon="2.0612">
        <ele>134</ele>
        <time>2026-02-26T12:01:11Z</time>
      </trkpt>
      <trkpt lat="48.68448" lon="2.06121">
        <ele>133</ele>
        <time>2026-02-26T12:01:13Z</time>
      </trkpt>
      <trkpt lat="48.68451" lon="2.06123">
        <ele>133</ele>
        <time>2026-02-26T12:01:18Z</time>
      </trkpt>
      <trkpt lat="48.68454" lon="2.06125">
        <ele>133</ele>
        <time>2026-02-26T12:01:21Z</time>
      </trkpt>
      <trkpt lat="48.68457" lon="2.06127">
        <ele>132</ele>
        <time>2026-02-26T12:01:25Z</time>
      </trkpt>
      <trkpt lat="48.6846" lon="2.06129">
        <ele>133</ele>
        <time>2026-02-26T12:01:28Z</time>
      </trkpt>
      <trkpt lat="48.68463" lon="2.06131">
        <ele>133</ele>
        <time>2026-02-26T12:01:31Z</time>
      </trkpt>
      <trkpt lat="48.68466" lon="2.06132">
        <ele>133</ele>
        <time>2026-02-26T12:01:34Z</time>
      </trkpt>
      <trkpt lat="48.68468" lon="2.06133">
        <ele>133</ele>
        <time>2026-02-26T12:01:37Z</time>
      </trkpt>
      <trkpt lat="48.68471" lon="2.06135">
        <ele>133</ele>
        <time>2026-02-26T12:01:40Z</time>
      </trkpt>
      <trkpt lat="48.68474" lon="2.06136">
        <ele>133</ele>
        <time>2026-02-26T12:01:42Z</time>
      </trkpt>
      <trkpt lat="48.68478" lon="2.06138">
        <ele>134</ele>
        <time>2026-02-26T12:01:45Z</time>
      </trkpt>
      <trkpt lat="48.68481" lon="2.06139">
        <ele>135</ele>
        <time>2026-02-26T12:01:49Z</time>
      </trkpt>
      <trkpt lat="48.68484" lon="2.0614">
        <ele>136</ele>
        <time>2026-02-26T12:01:53Z</time>
      </trkpt>
      <trkpt lat="48.68487" lon="2.06142">
        <ele>138</ele>
        <time>2026-02-26T12:01:57Z</time>
      </trkpt>
      <trkpt lat="48.68489" lon="2.06143">
        <ele>138</ele>
        <time>2026-02-26T12:02:00Z</time>
      </trkpt>
      <trkpt lat="48.68492" lon="2.06145">
        <ele>139</ele>
        <time>2026-02-26T12:02:04Z</time>
      </trkpt>
      <trkpt lat="48.68495" lon="2.06146">
        <ele>139</ele>
        <time>2026-02-26T12:02:06Z</time>
      </trkpt>
      <trkpt lat="48.68498" lon="2.06148">
        <ele>140</ele>
        <time>2026-02-26T12:02:09Z</time>
      </trkpt>
      <trkpt lat="48.68501" lon="2.06149">
        <ele>140</ele>
        <time>2026-02-26T12:02:12Z</time>
      </trkpt>
      <trkpt lat="48.68504" lon="2.06151">
        <ele>141</ele>
        <time>2026-02-26T12:02:16Z</time>
      </trkpt>
      <trkpt lat="48.68507" lon="2.06153">
        <ele>142</ele>
        <time>2026-02-26T12:02:19Z</time>
      </trkpt>
      <trkpt lat="48.6851" lon="2.06154">
        <ele>143</ele>
        <time>2026-02-26T12:02:22Z</time>
      </trkpt>
      <trkpt lat="48.68513" lon="2.06156">
        <ele>143</ele>
        <time>2026-02-26T12:02:24Z</time>
      </trkpt>
      <trkpt lat="48.68516" lon="2.06157">
        <ele>143</ele>
        <time>2026-02-26T12:02:27Z</time>
      </trkpt>
      <trkpt lat="48.68519" lon="2.0616">
        <ele>143</ele>
        <time>2026-02-26T12:02:30Z</time>
      </trkpt>
      <trkpt lat="48.68521" lon="2.06162">
        <ele>144</ele>
        <time>2026-02-26T12:02:33Z</time>
      </trkpt>
      <trkpt lat="48.68524" lon="2.06163">
        <ele>145</ele>
        <time>2026-02-26T12:02:36Z</time>
      </trkpt>
      <trkpt lat="48.68527" lon="2.06164">
        <ele>146</ele>
        <time>2026-02-26T12:02:39Z</time>
      </trkpt>
      <trkpt lat="48.68531" lon="2.06164">
        <ele>146</ele>
        <time>2026-02-26T12:02:43Z</time>
      </trkpt>
      <trkpt lat="48.68534" lon="2.06166">
        <ele>146</ele>
        <time>2026-02-26T12:02:46Z</time>
      </trkpt>
      <trkpt lat="48.68537" lon="2.06168">
        <ele>146</ele>
        <time>2026-02-26T12:02:49Z</time>
      </trkpt>
      <trkpt lat="48.6854" lon="2.0617">
        <ele>146</ele>
        <time>2026-02-26T12:02:53Z</time>
      </trkpt>
      <trkpt lat="48.68543" lon="2.0617">
        <ele>147</ele>
        <time>2026-02-26T12:02:56Z</time>
      </trkpt>
      <trkpt lat="48.68547" lon="2.06171">
        <ele>146</ele>
        <time>2026-02-26T12:02:59Z</time>
      </trkpt>
      <trkpt lat="48.6855" lon="2.06172">
        <ele>146</ele>
        <time>2026-02-26T12:03:01Z</time>
      </trkpt>
      <trkpt lat="48.68554" lon="2.06173">
        <ele>146</ele>
        <time>2026-02-26T12:03:04Z</time>
      </trkpt>
      <trkpt lat="48.68557" lon="2.06174">
        <ele>146</ele>
        <time>2026-02-26T12:03:06Z</time>
      </trkpt>
      <trkpt lat="48.6856" lon="2.06173">
        <ele>146</ele>
        <time>2026-02-26T12:03:09Z</time>
      </trkpt>
      <trkpt lat="48.68564" lon="2.06173">
        <ele>146</ele>
        <time>2026-02-26T12:03:13Z</time>
      </trkpt>
      <trkpt lat="48.68567" lon="2.06173">
        <ele>146</ele>
        <time>2026-02-26T12:03:16Z</time>
      </trkpt>
      <trkpt lat="48.68571" lon="2.06174">
        <ele>146</ele>
        <time>2026-02-26T12:03:19Z</time>
      </trkpt>
      <trkpt lat="48.68575" lon="2.06174">
        <ele>147</ele>
        <time>2026-02-26T12:03:22Z</time>
      </trkpt>
      <trkpt lat="48.68578" lon="2.06176">
        <ele>147</ele>
        <time>2026-02-26T12:03:24Z</time>
      </trkpt>
      <trkpt lat="48.68581" lon="2.06176">
        <ele>146</ele>
        <time>2026-02-26T12:03:27Z</time>
      </trkpt>
      <trkpt lat="48.68584" lon="2.06177">
        <ele>145</ele>
        <time>2026-02-26T12:03:30Z</time>
      </trkpt>
      <trkpt lat="48.68587" lon="2.06178">
        <ele>144</ele>
        <time>2026-02-26T12:03:33Z</time>
      </trkpt>
      <trkpt lat="48.6859" lon="2.06179">
        <ele>144</ele>
        <time>2026-02-26T12:03:36Z</time>
      </trkpt>
      <trkpt lat="48.68594" lon="2.06179">
        <ele>144</ele>
        <time>2026-02-26T12:03:40Z</time>
      </trkpt>
      <trkpt lat="48.68597" lon="2.0618">
        <ele>144</ele>
        <time>2026-02-26T12:03:43Z</time>
      </trkpt>
      <trkpt lat="48.686" lon="2.0618">
        <ele>145</ele>
        <time>2026-02-26T12:03:47Z</time>
      </trkpt>
      <trkpt lat="48.68603" lon="2.0618">
        <ele>145</ele>
        <time>2026-02-26T12:03:50Z</time>
      </trkpt>
      <trkpt lat="48.68607" lon="2.0618">
        <ele>145</ele>
        <time>2026-02-26T12:03:54Z</time>
      </trkpt>
      <trkpt lat="48.6861" lon="2.06179">
        <ele>144</ele>
        <time>2026-02-26T12:03:56Z</time>
      </trkpt>
      <trkpt lat="48.68614" lon="2.06179">
        <ele>144</ele>
        <time>2026-02-26T12:03:59Z</time>
      </trkpt>
      <trkpt lat="48.68617" lon="2.06179">
        <ele>144</ele>
        <time>2026-02-26T12:04:01Z</time>
      </trkpt>
      <trkpt lat="48.6862" lon="2.06178">
        <ele>143</ele>
        <time>2026-02-26T12:04:04Z</time>
      </trkpt>
      <trkpt lat="48.68623" lon="2.06178">
        <ele>142</ele>
        <time>2026-02-26T12:04:07Z</time>
      </trkpt>
      <trkpt lat="48.68627" lon="2.06179">
        <ele>142</ele>
        <time>2026-02-26T12:04:11Z</time>
      </trkpt>
      <trkpt lat="48.6863" lon="2.06179">
        <ele>142</ele>
        <time>2026-02-26T12:04:13Z</time>
      </trkpt>
      <trkpt lat="48.68633" lon="2.06179">
        <ele>142</ele>
        <time>2026-02-26T12:04:16Z</time>
      </trkpt>
      <trkpt lat="48.68636" lon="2.06179">
        <ele>142</ele>
        <time>2026-02-26T12:04:19Z</time>
      </trkpt>
      <trkpt lat="48.6864" lon="2.0618">
        <ele>142</ele>
        <time>2026-02-26T12:04:22Z</time>
      </trkpt>
      <trkpt lat="48.68643" lon="2.06181">
        <ele>142</ele>
        <time>2026-02-26T12:04:25Z</time>
      </trkpt>
      <trkpt lat="48.68646" lon="2.06181">
        <ele>141</ele>
        <time>2026-02-26T12:04:28Z</time>
      </trkpt>
      <trkpt lat="48.6865" lon="2.06181">
        <ele>141</ele>
        <time>2026-02-26T12:04:31Z</time>
      </trkpt>
      <trkpt lat="48.68653" lon="2.06181">
        <ele>141</ele>
        <time>2026-02-26T12:04:33Z</time>
      </trkpt>
      <trkpt lat="48.68656" lon="2.06181">
        <ele>140</ele>
        <time>2026-02-26T12:04:36Z</time>
      </trkpt>
      <trkpt lat="48.6866" lon="2.0618">
        <ele>140</ele>
        <time>2026-02-26T12:04:41Z</time>
      </trkpt>
      <trkpt lat="48.68663" lon="2.06178">
        <ele>140</ele>
        <time>2026-02-26T12:04:44Z</time>
      </trkpt>
      <trkpt lat="48.68666" lon="2.06178">
        <ele>139</ele>
        <time>2026-02-26T12:04:46Z</time>
      </trkpt>
      <trkpt lat="48.68669" lon="2.06177">
        <ele>139</ele>
        <time>2026-02-26T12:04:48Z</time>
      </trkpt>
      <trkpt lat="48.68672" lon="2.06176">
        <ele>139</ele>
        <time>2026-02-26T12:04:50Z</time>
      </trkpt>
      <trkpt lat="48.68675" lon="2.06175">
        <ele>139</ele>
        <time>2026-02-26T12:04:52Z</time>
      </trkpt>
      <trkpt lat="48.68678" lon="2.06173">
        <ele>139</ele>
        <time>2026-02-26T12:04:55Z</time>
      </trkpt>
      <trkpt lat="48.68681" lon="2.06171">
        <ele>138</ele>
        <time>2026-02-26T12:04:58Z</time>
      </trkpt>
      <trkpt lat="48.68684" lon="2.0617">
        <ele>138</ele>
        <time>2026-02-26T12:05:01Z</time>
      </trkpt>
      <trkpt lat="48.68687" lon="2.0617">
        <ele>138</ele>
        <time>2026-02-26T12:05:04Z</time>
      </trkpt>
      <trkpt lat="48.6869" lon="2.06169">
        <ele>138</ele>
        <time>2026-02-26T12:05:10Z</time>
      </trkpt>
      <trkpt lat="48.68694" lon="2.06168">
        <ele>137</ele>
        <time>2026-02-26T12:05:13Z</time>
      </trkpt>
      <trkpt lat="48.68697" lon="2.06166">
        <ele>137</ele>
        <time>2026-02-26T12:05:16Z</time>
      </trkpt>
      <trkpt lat="48.687" lon="2.06165">
        <ele>137</ele>
        <time>2026-02-26T12:05:18Z</time>
      </trkpt>
      <trkpt lat="48.68702" lon="2.06164">
        <ele>136</ele>
        <time>2026-02-26T12:05:20Z</time>
      </trkpt>
      <trkpt lat="48.68705" lon="2.06162">
        <ele>136</ele>
        <time>2026-02-26T12:05:23Z</time>
      </trkpt>
      <trkpt lat="48.68709" lon="2.06161">
        <ele>136</ele>
        <time>2026-02-26T12:05:26Z</time>
      </trkpt>
      <trkpt lat="48.68712" lon="2.06158">
        <ele>135</ele>
        <time>2026-02-26T12:05:28Z</time>
      </trkpt>
      <trkpt lat="48.68715" lon="2.06158">
        <ele>134</ele>
        <time>2026-02-26T12:05:32Z</time>
      </trkpt>
      <trkpt lat="48.68719" lon="2.06157">
        <ele>134</ele>
        <time>2026-02-26T12:05:36Z</time>
      </trkpt>
      <trkpt lat="48.68722" lon="2.06157">
        <ele>133</ele>
        <time>2026-02-26T12:05:38Z</time>
      </trkpt>
      <trkpt lat="48.68725" lon="2.06156">
        <ele>133</ele>
        <time>2026-02-26T12:05:41Z</time>
      </trkpt>
      <trkpt lat="48.68728" lon="2.06155">
        <ele>132</ele>
        <time>2026-02-26T12:05:46Z</time>
      </trkpt>
      <trkpt lat="48.68731" lon="2.06154">
        <ele>131</ele>
        <time>2026-02-26T12:05:50Z</time>
      </trkpt>
      <trkpt lat="48.68735" lon="2.06153">
        <ele>130</ele>
        <time>2026-02-26T12:05:56Z</time>
      </trkpt>
      <trkpt lat="48.68739" lon="2.06153">
        <ele>128</ele>
        <time>2026-02-26T12:05:59Z</time>
      </trkpt>
      <trkpt lat="48.68742" lon="2.06151">
        <ele>128</ele>
        <time>2026-02-26T12:06:02Z</time>
      </trkpt>
      <trkpt lat="48.68746" lon="2.06149">
        <ele>127</ele>
        <time>2026-02-26T12:06:05Z</time>
      </trkpt>
      <trkpt lat="48.68749" lon="2.06147">
        <ele>127</ele>
        <time>2026-02-26T12:06:08Z</time>
      </trkpt>
      <trkpt lat="48.68752" lon="2.06147">
        <ele>127</ele>
        <time>2026-02-26T12:06:11Z</time>
      </trkpt>
      <trkpt lat="48.68756" lon="2.06146">
        <ele>126</ele>
        <time>2026-02-26T12:06:14Z</time>
      </trkpt>
      <trkpt lat="48.68759" lon="2.06145">
        <ele>127</ele>
        <time>2026-02-26T12:06:18Z</time>
      </trkpt>
      <trkpt lat="48.68763" lon="2.06144">
        <ele>127</ele>
        <time>2026-02-26T12:06:24Z</time>
      </trkpt>
      <trkpt lat="48.68767" lon="2.06143">
        <ele>127</ele>
        <time>2026-02-26T12:06:28Z</time>
      </trkpt>
      <trkpt lat="48.6877" lon="2.06141">
        <ele>127</ele>
        <time>2026-02-26T12:06:32Z</time>
      </trkpt>
      <trkpt lat="48.68773" lon="2.0614">
        <ele>127</ele>
        <time>2026-02-26T12:06:34Z</time>
      </trkpt>
      <trkpt lat="48.68776" lon="2.06138">
        <ele>127</ele>
        <time>2026-02-26T12:06:37Z</time>
      </trkpt>
      <trkpt lat="48.6878" lon="2.06137">
        <ele>127</ele>
        <time>2026-02-26T12:06:40Z</time>
      </trkpt>
      <trkpt lat="48.68783" lon="2.06135">
        <ele>128</ele>
        <time>2026-02-26T12:06:42Z</time>
      </trkpt>
      <trkpt lat="48.68786" lon="2.06135">
        <ele>128</ele>
        <time>2026-02-26T12:06:45Z</time>
      </trkpt>
      <trkpt lat="48.68789" lon="2.06134">
        <ele>128</ele>
        <time>2026-02-26T12:06:48Z</time>
      </trkpt>
      <trkpt lat="48.68793" lon="2.06134">
        <ele>128</ele>
        <time>2026-02-26T12:06:50Z</time>
      </trkpt>
      <trkpt lat="48.68796" lon="2.06132">
        <ele>128</ele>
        <time>2026-02-26T12:06:53Z</time>
      </trkpt>
      <trkpt lat="48.68799" lon="2.06131">
        <ele>128</ele>
        <time>2026-02-26T12:06:57Z</time>
      </trkpt>
      <trkpt lat="48.68802" lon="2.06131">
        <ele>129</ele>
        <time>2026-02-26T12:07:01Z</time>
      </trkpt>
      <trkpt lat="48.68805" lon="2.0613">
        <ele>129</ele>
        <time>2026-02-26T12:07:03Z</time>
      </trkpt>
      <trkpt lat="48.68808" lon="2.0613">
        <ele>129</ele>
        <time>2026-02-26T12:07:05Z</time>
      </trkpt>
      <trkpt lat="48.68811" lon="2.06129">
        <ele>129</ele>
        <time>2026-02-26T12:07:08Z</time>
      </trkpt>
      <trkpt lat="48.68814" lon="2.06128">
        <ele>129</ele>
        <time>2026-02-26T12:07:11Z</time>
      </trkpt>
      <trkpt lat="48.68817" lon="2.06127">
        <ele>129</ele>
        <time>2026-02-26T12:07:14Z</time>
      </trkpt>
      <trkpt lat="48.68821" lon="2.06125">
        <ele>129</ele>
        <time>2026-02-26T12:07:19Z</time>
      </trkpt>
      <trkpt lat="48.68824" lon="2.06123">
        <ele>129</ele>
        <time>2026-02-26T12:07:22Z</time>
      </trkpt>
      <trkpt lat="48.68828" lon="2.06122">
        <ele>130</ele>
        <time>2026-02-26T12:07:26Z</time>
      </trkpt>
      <trkpt lat="48.68831" lon="2.06121">
        <ele>130</ele>
        <time>2026-02-26T12:07:29Z</time>
      </trkpt>
      <trkpt lat="48.68834" lon="2.0612">
        <ele>130</ele>
        <time>2026-02-26T12:07:32Z</time>
      </trkpt>
      <trkpt lat="48.68837" lon="2.06119">
        <ele>130</ele>
        <time>2026-02-26T12:07:34Z</time>
      </trkpt>
      <trkpt lat="48.6884" lon="2.06118">
        <ele>130</ele>
        <time>2026-02-26T12:07:37Z</time>
      </trkpt>
      <trkpt lat="48.68844" lon="2.06118">
        <ele>130</ele>
        <time>2026-02-26T12:07:40Z</time>
      </trkpt>
      <trkpt lat="48.68847" lon="2.06117">
        <ele>130</ele>
        <time>2026-02-26T12:07:42Z</time>
      </trkpt>
      <trkpt lat="48.68851" lon="2.06116">
        <ele>129</ele>
        <time>2026-02-26T12:07:45Z</time>
      </trkpt>
      <trkpt lat="48.68854" lon="2.06114">
        <ele>129</ele>
        <time>2026-02-26T12:07:48Z</time>
      </trkpt>
      <trkpt lat="48.68857" lon="2.06112">
        <ele>128</ele>
        <time>2026-02-26T12:07:51Z</time>
      </trkpt>
      <trkpt lat="48.6886" lon="2.06111">
        <ele>127</ele>
        <time>2026-02-26T12:07:54Z</time>
      </trkpt>
      <trkpt lat="48.68863" lon="2.0611">
        <ele>126</ele>
        <time>2026-02-26T12:07:57Z</time>
      </trkpt>
      <trkpt lat="48.68866" lon="2.06108">
        <ele>125</ele>
        <time>2026-02-26T12:08:01Z</time>
      </trkpt>
      <trkpt lat="48.6887" lon="2.06107">
        <ele>125</ele>
        <time>2026-02-26T12:08:04Z</time>
      </trkpt>
      <trkpt lat="48.68873" lon="2.06106">
        <ele>125</ele>
        <time>2026-02-26T12:08:08Z</time>
      </trkpt>
      <trkpt lat="48.68875" lon="2.06105">
        <ele>125</ele>
        <time>2026-02-26T12:08:11Z</time>
      </trkpt>
      <trkpt lat="48.68878" lon="2.06106">
        <ele>125</ele>
        <time>2026-02-26T12:08:14Z</time>
      </trkpt>
      <trkpt lat="48.68882" lon="2.06105">
        <ele>126</ele>
        <time>2026-02-26T12:08:17Z</time>
      </trkpt>
      <trkpt lat="48.68885" lon="2.06105">
        <ele>126</ele>
        <time>2026-02-26T12:08:19Z</time>
      </trkpt>
      <trkpt lat="48.68888" lon="2.06105">
        <ele>125</ele>
        <time>2026-02-26T12:08:22Z</time>
      </trkpt>
      <trkpt lat="48.68891" lon="2.06104">
        <ele>126</ele>
        <time>2026-02-26T12:08:24Z</time>
      </trkpt>
      <trkpt lat="48.68895" lon="2.06102">
        <ele>126</ele>
        <time>2026-02-26T12:08:26Z</time>
      </trkpt>
      <trkpt lat="48.68898" lon="2.06101">
        <ele>125</ele>
        <time>2026-02-26T12:08:28Z</time>
      </trkpt>
      <trkpt lat="48.68901" lon="2.06101">
        <ele>126</ele>
        <time>2026-02-26T12:08:31Z</time>
      </trkpt>
      <trkpt lat="48.68904" lon="2.06101">
        <ele>126</ele>
        <time>2026-02-26T12:08:34Z</time>
      </trkpt>
      <trkpt lat="48.68906" lon="2.06101">
        <ele>127</ele>
        <time>2026-02-26T12:08:36Z</time>
      </trkpt>
      <trkpt lat="48.6891" lon="2.061">
        <ele>127</ele>
        <time>2026-02-26T12:08:39Z</time>
      </trkpt>
      <trkpt lat="48.68912" lon="2.06101">
        <ele>127</ele>
        <time>2026-02-26T12:08:41Z</time>
      </trkpt>
      <trkpt lat="48.68916" lon="2.06101">
        <ele>129</ele>
        <time>2026-02-26T12:08:47Z</time>
      </trkpt>
      <trkpt lat="48.68919" lon="2.061">
        <ele>129</ele>
        <time>2026-02-26T12:08:51Z</time>
      </trkpt>
      <trkpt lat="48.68922" lon="2.06099">
        <ele>129</ele>
        <time>2026-02-26T12:08:53Z</time>
      </trkpt>
      <trkpt lat="48.68925" lon="2.06099">
        <ele>128</ele>
        <time>2026-02-26T12:08:56Z</time>
      </trkpt>
      <trkpt lat="48.68928" lon="2.06101">
        <ele>127</ele>
        <time>2026-02-26T12:09:01Z</time>
      </trkpt>
      <trkpt lat="48.68932" lon="2.06102">
        <ele>127</ele>
        <time>2026-02-26T12:09:04Z</time>
      </trkpt>
      <trkpt lat="48.68935" lon="2.06103">
        <ele>127</ele>
        <time>2026-02-26T12:09:06Z</time>
      </trkpt>
      <trkpt lat="48.68939" lon="2.06102">
        <ele>128</ele>
        <time>2026-02-26T12:09:08Z</time>
      </trkpt>
      <trkpt lat="48.68942" lon="2.06102">
        <ele>128</ele>
        <time>2026-02-26T12:09:12Z</time>
      </trkpt>
      <trkpt lat="48.68944" lon="2.06103">
        <ele>129</ele>
        <time>2026-02-26T12:09:16Z</time>
      </trkpt>
      <trkpt lat="48.68947" lon="2.06103">
        <ele>130</ele>
        <time>2026-02-26T12:09:19Z</time>
      </trkpt>
      <trkpt lat="48.68951" lon="2.06103">
        <ele>131</ele>
        <time>2026-02-26T12:09:22Z</time>
      </trkpt>
      <trkpt lat="48.68954" lon="2.06103">
        <ele>132</ele>
        <time>2026-02-26T12:09:24Z</time>
      </trkpt>
      <trkpt lat="48.68958" lon="2.06102">
        <ele>132</ele>
        <time>2026-02-26T12:09:27Z</time>
      </trkpt>
      <trkpt lat="48.68962" lon="2.06101">
        <ele>133</ele>
        <time>2026-02-26T12:09:30Z</time>
      </trkpt>
      <trkpt lat="48.68965" lon="2.061">
        <ele>134</ele>
        <time>2026-02-26T12:09:32Z</time>
      </trkpt>
      <trkpt lat="48.68967" lon="2.06099">
        <ele>134</ele>
        <time>2026-02-26T12:09:35Z</time>
      </trkpt>
      <trkpt lat="48.68971" lon="2.06099">
        <ele>134</ele>
        <time>2026-02-26T12:09:38Z</time>
      </trkpt>
      <trkpt lat="48.68974" lon="2.06098">
        <ele>134</ele>
        <time>2026-02-26T12:09:42Z</time>
      </trkpt>
      <trkpt lat="48.68977" lon="2.06097">
        <ele>135</ele>
        <time>2026-02-26T12:09:45Z</time>
      </trkpt>
      <trkpt lat="48.6898" lon="2.06097">
        <ele>135</ele>
        <time>2026-02-26T12:09:47Z</time>
      </trkpt>
      <trkpt lat="48.68984" lon="2.06096">
        <ele>134</ele>
        <time>2026-02-26T12:09:50Z</time>
      </trkpt>
      <trkpt lat="48.68987" lon="2.06095">
        <ele>134</ele>
        <time>2026-02-26T12:09:53Z</time>
      </trkpt>
      <trkpt lat="48.68991" lon="2.06096">
        <ele>134</ele>
        <time>2026-02-26T12:09:56Z</time>
      </trkpt>
      <trkpt lat="48.68994" lon="2.06096">
        <ele>134</ele>
        <time>2026-02-26T12:09:59Z</time>
      </trkpt>
      <trkpt lat="48.68997" lon="2.06096">
        <ele>133</ele>
        <time>2026-02-26T12:10:03Z</time>
      </trkpt>
      <trkpt lat="48.69001" lon="2.06096">
        <ele>132</ele>
        <time>2026-02-26T12:10:06Z</time>
      </trkpt>
      <trkpt lat="48.69004" lon="2.06096">
        <ele>132</ele>
        <time>2026-02-26T12:10:08Z</time>
      </trkpt>
      <trkpt lat="48.69008" lon="2.06096">
        <ele>132</ele>
        <time>2026-02-26T12:10:11Z</time>
      </trkpt>
      <trkpt lat="48.69011" lon="2.06097">
        <ele>132</ele>
        <time>2026-02-26T12:10:15Z</time>
      </trkpt>
      <trkpt lat="48.69014" lon="2.06097">
        <ele>130</ele>
        <time>2026-02-26T12:10:18Z</time>
      </trkpt>
      <trkpt lat="48.69018" lon="2.06098">
        <ele>130</ele>
        <time>2026-02-26T12:10:21Z</time>
      </trkpt>
      <trkpt lat="48.69021" lon="2.06099">
        <ele>130</ele>
        <time>2026-02-26T12:10:25Z</time>
      </trkpt>
      <trkpt lat="48.69025" lon="2.061">
        <ele>130</ele>
        <time>2026-02-26T12:10:28Z</time>
      </trkpt>
      <trkpt lat="48.69028" lon="2.06101">
        <ele>130</ele>
        <time>2026-02-26T12:10:30Z</time>
      </trkpt>
      <trkpt lat="48.69031" lon="2.06101">
        <ele>130</ele>
        <time>2026-02-26T12:10:33Z</time>
      </trkpt>
      <trkpt lat="48.69034" lon="2.061">
        <ele>129</ele>
        <time>2026-02-26T12:10:36Z</time>
      </trkpt>
      <trkpt lat="48.69037" lon="2.06098">
        <ele>128</ele>
        <time>2026-02-26T12:10:41Z</time>
      </trkpt>
      <trkpt lat="48.6904" lon="2.06099">
        <ele>129</ele>
        <time>2026-02-26T12:10:44Z</time>
      </trkpt>
      <trkpt lat="48.69044" lon="2.06099">
        <ele>129</ele>
        <time>2026-02-26T12:10:47Z</time>
      </trkpt>
      <trkpt lat="48.69048" lon="2.061">
        <ele>129</ele>
        <time>2026-02-26T12:10:52Z</time>
      </trkpt>
      <trkpt lat="48.69052" lon="2.06101">
        <ele>129</ele>
        <time>2026-02-26T12:10:58Z</time>
      </trkpt>
      <trkpt lat="48.69055" lon="2.06101">
        <ele>129</ele>
        <time>2026-02-26T12:11:02Z</time>
      </trkpt>
      <trkpt lat="48.69059" lon="2.06102">
        <ele>128</ele>
        <time>2026-02-26T12:11:05Z</time>
      </trkpt>
      <trkpt lat="48.69063" lon="2.06102">
        <ele>128</ele>
        <time>2026-02-26T12:11:07Z</time>
      </trkpt>
      <trkpt lat="48.69066" lon="2.06101">
        <ele>127</ele>
        <time>2026-02-26T12:11:10Z</time>
      </trkpt>
      <trkpt lat="48.69069" lon="2.06102">
        <ele>127</ele>
        <time>2026-02-26T12:11:14Z</time>
      </trkpt>
      <trkpt lat="48.69073" lon="2.06103">
        <ele>126</ele>
        <time>2026-02-26T12:11:17Z</time>
      </trkpt>
      <trkpt lat="48.69076" lon="2.06103">
        <ele>126</ele>
        <time>2026-02-26T12:11:20Z</time>
      </trkpt>
      <trkpt lat="48.69079" lon="2.06101">
        <ele>125</ele>
        <time>2026-02-26T12:11:23Z</time>
      </trkpt>
      <trkpt lat="48.69082" lon="2.061">
        <ele>125</ele>
        <time>2026-02-26T12:11:26Z</time>
      </trkpt>
      <trkpt lat="48.69085" lon="2.06098">
        <ele>124</ele>
        <time>2026-02-26T12:11:28Z</time>
      </trkpt>
      <trkpt lat="48.69088" lon="2.06097">
        <ele>124</ele>
        <time>2026-02-26T12:11:30Z</time>
      </trkpt>
      <trkpt lat="48.69091" lon="2.06098">
        <ele>124</ele>
        <time>2026-02-26T12:11:33Z</time>
      </trkpt>
      <trkpt lat="48.69094" lon="2.06099">
        <ele>124</ele>
        <time>2026-02-26T12:11:35Z</time>
      </trkpt>
      <trkpt lat="48.69096" lon="2.06097">
        <ele>124</ele>
        <time>2026-02-26T12:11:37Z</time>
      </trkpt>
      <trkpt lat="48.691" lon="2.06097">
        <ele>125</ele>
        <time>2026-02-26T12:11:41Z</time>
      </trkpt>
      <trkpt lat="48.69103" lon="2.06097">
        <ele>124</ele>
        <time>2026-02-26T12:11:44Z</time>
      </trkpt>
      <trkpt lat="48.69107" lon="2.06097">
        <ele>125</ele>
        <time>2026-02-26T12:11:47Z</time>
      </trkpt>
      <trkpt lat="48.69111" lon="2.06097">
        <ele>124</ele>
        <time>2026-02-26T12:11:50Z</time>
      </trkpt>
      <trkpt lat="48.69113" lon="2.06095">
        <ele>123</ele>
        <time>2026-02-26T12:11:52Z</time>
      </trkpt>
      <trkpt lat="48.69116" lon="2.06095">
        <ele>123</ele>
        <time>2026-02-26T12:11:54Z</time>
      </trkpt>
      <trkpt lat="48.69119" lon="2.06093">
        <ele>123</ele>
        <time>2026-02-26T12:11:57Z</time>
      </trkpt>
      <trkpt lat="48.69123" lon="2.06092">
        <ele>123</ele>
        <time>2026-02-26T12:12:00Z</time>
      </trkpt>
      <trkpt lat="48.69126" lon="2.06092">
        <ele>123</ele>
        <time>2026-02-26T12:12:02Z</time>
      </trkpt>
      <trkpt lat="48.69129" lon="2.06092">
        <ele>123</ele>
        <time>2026-02-26T12:12:06Z</time>
      </trkpt>
      <trkpt lat="48.69132" lon="2.06091">
        <ele>123</ele>
        <time>2026-02-26T12:12:09Z</time>
      </trkpt>
      <trkpt lat="48.69135" lon="2.0609">
        <ele>123</ele>
        <time>2026-02-26T12:12:12Z</time>
      </trkpt>
      <trkpt lat="48.69138" lon="2.06088">
        <ele>124</ele>
        <time>2026-02-26T12:12:15Z</time>
      </trkpt>
      <trkpt lat="48.69141" lon="2.06088">
        <ele>124</ele>
        <time>2026-02-26T12:12:18Z</time>
      </trkpt>
      <trkpt lat="48.69144" lon="2.06086">
        <ele>124</ele>
        <time>2026-02-26T12:12:21Z</time>
      </trkpt>
      <trkpt lat="48.69147" lon="2.06084">
        <ele>124</ele>
        <time>2026-02-26T12:12:23Z</time>
      </trkpt>
      <trkpt lat="48.6915" lon="2.06084">
        <ele>122</ele>
        <time>2026-02-26T12:12:26Z</time>
      </trkpt>
      <trkpt lat="48.69153" lon="2.06084">
        <ele>121</ele>
        <time>2026-02-26T12:12:30Z</time>
      </trkpt>
      <trkpt lat="48.69157" lon="2.06085">
        <ele>120</ele>
        <time>2026-02-26T12:12:35Z</time>
      </trkpt>
      <trkpt lat="48.6916" lon="2.06085">
        <ele>120</ele>
        <time>2026-02-26T12:12:37Z</time>
      </trkpt>
      <trkpt lat="48.69163" lon="2.06085">
        <ele>120</ele>
        <time>2026-02-26T12:12:39Z</time>
      </trkpt>
      <trkpt lat="48.69166" lon="2.06084">
        <ele>119</ele>
        <time>2026-02-26T12:12:41Z</time>
      </trkpt>
      <trkpt lat="48.69169" lon="2.06082">
        <ele>119</ele>
        <time>2026-02-26T12:12:43Z</time>
      </trkpt>
      <trkpt lat="48.69172" lon="2.0608">
        <ele>120</ele>
        <time>2026-02-26T12:12:46Z</time>
      </trkpt>
      <trkpt lat="48.69175" lon="2.06078">
        <ele>120</ele>
        <time>2026-02-26T12:12:50Z</time>
      </trkpt>
      <trkpt lat="48.69178" lon="2.06076">
        <ele>121</ele>
        <time>2026-02-26T12:12:53Z</time>
      </trkpt>
      <trkpt lat="48.69181" lon="2.06074">
        <ele>119</ele>
        <time>2026-02-26T12:12:56Z</time>
      </trkpt>
      <trkpt lat="48.69184" lon="2.06074">
        <ele>119</ele>
        <time>2026-02-26T12:12:58Z</time>
      </trkpt>
      <trkpt lat="48.69187" lon="2.06072">
        <ele>118</ele>
        <time>2026-02-26T12:13:00Z</time>
      </trkpt>
      <trkpt lat="48.6919" lon="2.0607">
        <ele>118</ele>
        <time>2026-02-26T12:13:03Z</time>
      </trkpt>
      <trkpt lat="48.69193" lon="2.06067">
        <ele>119</ele>
        <time>2026-02-26T12:13:06Z</time>
      </trkpt>
      <trkpt lat="48.69196" lon="2.06065">
        <ele>119</ele>
        <time>2026-02-26T12:13:09Z</time>
      </trkpt>
      <trkpt lat="48.69198" lon="2.06063">
        <ele>119</ele>
        <time>2026-02-26T12:13:13Z</time>
      </trkpt>
      <trkpt lat="48.69201" lon="2.06061">
        <ele>120</ele>
        <time>2026-02-26T12:13:17Z</time>
      </trkpt>
      <trkpt lat="48.69204" lon="2.06059">
        <ele>120</ele>
        <time>2026-02-26T12:13:20Z</time>
      </trkpt>
      <trkpt lat="48.69208" lon="2.06058">
        <ele>119</ele>
        <time>2026-02-26T12:13:22Z</time>
      </trkpt>
      <trkpt lat="48.69211" lon="2.06056">
        <ele>120</ele>
        <time>2026-02-26T12:13:24Z</time>
      </trkpt>
      <trkpt lat="48.69213" lon="2.06057">
        <ele>120</ele>
        <time>2026-02-26T12:13:26Z</time>
      </trkpt>
      <trkpt lat="48.69216" lon="2.06057">
        <ele>121</ele>
        <time>2026-02-26T12:13:29Z</time>
      </trkpt>
      <trkpt lat="48.69219" lon="2.06055">
        <ele>120</ele>
        <time>2026-02-26T12:13:32Z</time>
      </trkpt>
      <trkpt lat="48.69222" lon="2.06053">
        <ele>121</ele>
        <time>2026-02-26T12:13:35Z</time>
      </trkpt>
      <trkpt lat="48.69225" lon="2.06052">
        <ele>121</ele>
        <time>2026-02-26T12:13:38Z</time>
      </trkpt>
      <trkpt lat="48.69228" lon="2.0605">
        <ele>121</ele>
        <time>2026-02-26T12:13:41Z</time>
      </trkpt>
      <trkpt lat="48.69231" lon="2.06049">
        <ele>121</ele>
        <time>2026-02-26T12:13:47Z</time>
      </trkpt>
      <trkpt lat="48.69234" lon="2.06048">
        <ele>121</ele>
        <time>2026-02-26T12:13:50Z</time>
      </trkpt>
      <trkpt lat="48.69237" lon="2.06047">
        <ele>121</ele>
        <time>2026-02-26T12:13:53Z</time>
      </trkpt>
      <trkpt lat="48.69241" lon="2.06045">
        <ele>121</ele>
        <time>2026-02-26T12:13:56Z</time>
      </trkpt>
      <trkpt lat="48.69244" lon="2.06043">
        <ele>121</ele>
        <time>2026-02-26T12:13:59Z</time>
      </trkpt>
      <trkpt lat="48.69247" lon="2.0604">
        <ele>121</ele>
        <time>2026-02-26T12:14:02Z</time>
      </trkpt>
      <trkpt lat="48.69249" lon="2.06037">
        <ele>121</ele>
        <time>2026-02-26T12:14:04Z</time>
      </trkpt>
      <trkpt lat="48.69253" lon="2.06034">
        <ele>122</ele>
        <time>2026-02-26T12:14:10Z</time>
      </trkpt>
      <trkpt lat="48.69256" lon="2.06032">
        <ele>123</ele>
        <time>2026-02-26T12:14:13Z</time>
      </trkpt>
      <trkpt lat="48.69259" lon="2.0603">
        <ele>123</ele>
        <time>2026-02-26T12:14:15Z</time>
      </trkpt>
      <trkpt lat="48.69262" lon="2.06028">
        <ele>123</ele>
        <time>2026-02-26T12:14:18Z</time>
      </trkpt>
      <trkpt lat="48.69265" lon="2.06026">
        <ele>123</ele>
        <time>2026-02-26T12:14:23Z</time>
      </trkpt>
      <trkpt lat="48.69268" lon="2.06023">
        <ele>123</ele>
        <time>2026-02-26T12:14:25Z</time>
      </trkpt>
      <trkpt lat="48.6927" lon="2.06021">
        <ele>123</ele>
        <time>2026-02-26T12:14:27Z</time>
      </trkpt>
      <trkpt lat="48.69273" lon="2.06019">
        <ele>124</ele>
        <time>2026-02-26T12:14:30Z</time>
      </trkpt>
      <trkpt lat="48.69277" lon="2.06017">
        <ele>124</ele>
        <time>2026-02-26T12:14:33Z</time>
      </trkpt>
      <trkpt lat="48.6928" lon="2.06015">
        <ele>124</ele>
        <time>2026-02-26T12:14:35Z</time>
      </trkpt>
      <trkpt lat="48.69283" lon="2.06013">
        <ele>124</ele>
        <time>2026-02-26T12:14:37Z</time>
      </trkpt>
      <trkpt lat="48.69286" lon="2.06012">
        <ele>124</ele>
        <time>2026-02-26T12:14:40Z</time>
      </trkpt>
      <trkpt lat="48.69288" lon="2.0601">
        <ele>124</ele>
        <time>2026-02-26T12:14:44Z</time>
      </trkpt>
      <trkpt lat="48.69292" lon="2.06009">
        <ele>124</ele>
        <time>2026-02-26T12:14:47Z</time>
      </trkpt>
      <trkpt lat="48.69296" lon="2.06008">
        <ele>125</ele>
        <time>2026-02-26T12:14:52Z</time>
      </trkpt>
      <trkpt lat="48.693" lon="2.06007">
        <ele>126</ele>
        <time>2026-02-26T12:14:55Z</time>
      </trkpt>
      <trkpt lat="48.69303" lon="2.06006">
        <ele>127</ele>
        <time>2026-02-26T12:14:58Z</time>
      </trkpt>
      <trkpt lat="48.69306" lon="2.06005">
        <ele>127</ele>
        <time>2026-02-26T12:15:00Z</time>
      </trkpt>
      <trkpt lat="48.69309" lon="2.06003">
        <ele>127</ele>
        <time>2026-02-26T12:15:02Z</time>
      </trkpt>
      <trkpt lat="48.69312" lon="2.06001">
        <ele>127</ele>
        <time>2026-02-26T12:15:04Z</time>
      </trkpt>
      <trkpt lat="48.69315" lon="2.05998">
        <ele>126</ele>
        <time>2026-02-26T12:15:06Z</time>
      </trkpt>
      <trkpt lat="48.69319" lon="2.05996">
        <ele>126</ele>
        <time>2026-02-26T12:15:12Z</time>
      </trkpt>
      <trkpt lat="48.69322" lon="2.05994">
        <ele>127</ele>
        <time>2026-02-26T12:15:15Z</time>
      </trkpt>
      <trkpt lat="48.69326" lon="2.05992">
        <ele>126</ele>
        <time>2026-02-26T12:15:18Z</time>
      </trkpt>
      <trkpt lat="48.6933" lon="2.0599">
        <ele>127</ele>
        <time>2026-02-26T12:15:21Z</time>
      </trkpt>
      <trkpt lat="48.69334" lon="2.05989">
        <ele>127</ele>
        <time>2026-02-26T12:15:24Z</time>
      </trkpt>
      <trkpt lat="48.69337" lon="2.0599">
        <ele>126</ele>
        <time>2026-02-26T12:15:30Z</time>
      </trkpt>
      <trkpt lat="48.69339" lon="2.05988">
        <ele>125</ele>
        <time>2026-02-26T12:15:33Z</time>
      </trkpt>
      <trkpt lat="48.69342" lon="2.05988">
        <ele>123</ele>
        <time>2026-02-26T12:15:37Z</time>
      </trkpt>
      <trkpt lat="48.69345" lon="2.05986">
        <ele>123</ele>
        <time>2026-02-26T12:15:42Z</time>
      </trkpt>
      <trkpt lat="48.69347" lon="2.05984">
        <ele>123</ele>
        <time>2026-02-26T12:15:45Z</time>
      </trkpt>
      <trkpt lat="48.6935" lon="2.05982">
        <ele>123</ele>
        <time>2026-02-26T12:15:51Z</time>
      </trkpt>
      <trkpt lat="48.69353" lon="2.05979">
        <ele>123</ele>
        <time>2026-02-26T12:15:54Z</time>
      </trkpt>
      <trkpt lat="48.69356" lon="2.05975">
        <ele>123</ele>
        <time>2026-02-26T12:15:57Z</time>
      </trkpt>
      <trkpt lat="48.69358" lon="2.05972">
        <ele>123</ele>
        <time>2026-02-26T12:16:00Z</time>
      </trkpt>
      <trkpt lat="48.6936" lon="2.05969">
        <ele>123</ele>
        <time>2026-02-26T12:16:03Z</time>
      </trkpt>
      <trkpt lat="48.69364" lon="2.05967">
        <ele>124</ele>
        <time>2026-02-26T12:16:09Z</time>
      </trkpt>
      <trkpt lat="48.69368" lon="2.05965">
        <ele>125</ele>
        <time>2026-02-26T12:16:12Z</time>
      </trkpt>
      <trkpt lat="48.69371" lon="2.05963">
        <ele>125</ele>
        <time>2026-02-26T12:16:15Z</time>
      </trkpt>
      <trkpt lat="48.69374" lon="2.0596">
        <ele>125</ele>
        <time>2026-02-26T12:16:19Z</time>
      </trkpt>
      <trkpt lat="48.69377" lon="2.05959">
        <ele>125</ele>
        <time>2026-02-26T12:16:21Z</time>
      </trkpt>
      <trkpt lat="48.6938" lon="2.05957">
        <ele>125</ele>
        <time>2026-02-26T12:16:23Z</time>
      </trkpt>
      <trkpt lat="48.69383" lon="2.05957">
        <ele>125</ele>
        <time>2026-02-26T12:16:26Z</time>
      </trkpt>
      <trkpt lat="48.69386" lon="2.05957">
        <ele>124</ele>
        <time>2026-02-26T12:16:29Z</time>
      </trkpt>
      <trkpt lat="48.69388" lon="2.05956">
        <ele>124</ele>
        <time>2026-02-26T12:16:32Z</time>
      </trkpt>
      <trkpt lat="48.69391" lon="2.05955">
        <ele>123</ele>
        <time>2026-02-26T12:16:36Z</time>
      </trkpt>
      <trkpt lat="48.69394" lon="2.05952">
        <ele>124</ele>
        <time>2026-02-26T12:16:41Z</time>
      </trkpt>
      <trkpt lat="48.69397" lon="2.0595">
        <ele>123</ele>
        <time>2026-02-26T12:16:44Z</time>
      </trkpt>
      <trkpt lat="48.694" lon="2.05949">
        <ele>123</ele>
        <time>2026-02-26T12:16:47Z</time>
      </trkpt>
      <trkpt lat="48.69404" lon="2.05948">
        <ele>123</ele>
        <time>2026-02-26T12:16:52Z</time>
      </trkpt>
      <trkpt lat="48.69407" lon="2.05946">
        <ele>123</ele>
        <time>2026-02-26T12:16:55Z</time>
      </trkpt>
      <trkpt lat="48.6941" lon="2.05943">
        <ele>123</ele>
        <time>2026-02-26T12:16:59Z</time>
      </trkpt>
      <trkpt lat="48.69413" lon="2.05942">
        <ele>123</ele>
        <time>2026-02-26T12:17:01Z</time>
      </trkpt>
      <trkpt lat="48.69416" lon="2.0594">
        <ele>122</ele>
        <time>2026-02-26T12:17:04Z</time>
      </trkpt>
      <trkpt lat="48.69419" lon="2.05938">
        <ele>122</ele>
        <time>2026-02-26T12:17:07Z</time>
      </trkpt>
      <trkpt lat="48.69422" lon="2.05937">
        <ele>122</ele>
        <time>2026-02-26T12:17:09Z</time>
      </trkpt>
      <trkpt lat="48.69425" lon="2.05936">
        <ele>122</ele>
        <time>2026-02-26T12:17:12Z</time>
      </trkpt>
      <trkpt lat="48.69429" lon="2.05935">
        <ele>121</ele>
        <time>2026-02-26T12:17:15Z</time>
      </trkpt>
      <trkpt lat="48.69433" lon="2.05932">
        <ele>121</ele>
        <time>2026-02-26T12:17:19Z</time>
      </trkpt>
      <trkpt lat="48.69436" lon="2.0593">
        <ele>121</ele>
        <time>2026-02-26T12:17:22Z</time>
      </trkpt>
      <trkpt lat="48.6944" lon="2.05927">
        <ele>120</ele>
        <time>2026-02-26T12:17:28Z</time>
      </trkpt>
      <trkpt lat="48.69443" lon="2.05924">
        <ele>119</ele>
        <time>2026-02-26T12:17:30Z</time>
      </trkpt>
      <trkpt lat="48.69447" lon="2.05922">
        <ele>118</ele>
        <time>2026-02-26T12:17:32Z</time>
      </trkpt>
      <trkpt lat="48.69452" lon="2.05922">
        <ele>117</ele>
        <time>2026-02-26T12:17:35Z</time>
      </trkpt>
      <trkpt lat="48.69455" lon="2.05924">
        <ele>117</ele>
        <time>2026-02-26T12:17:37Z</time>
      </trkpt>
      <trkpt lat="48.69457" lon="2.05924">
        <ele>116</ele>
        <time>2026-02-26T12:17:40Z</time>
      </trkpt>
      <trkpt lat="48.6946" lon="2.05924">
        <ele>117</ele>
        <time>2026-02-26T12:17:42Z</time>
      </trkpt>
      <trkpt lat="48.69463" lon="2.05924">
        <ele>118</ele>
        <time>2026-02-26T12:17:45Z</time>
      </trkpt>
      <trkpt lat="48.69467" lon="2.05923">
        <ele>118</ele>
        <time>2026-02-26T12:17:48Z</time>
      </trkpt>
      <trkpt lat="48.6947" lon="2.05922">
        <ele>117</ele>
        <time>2026-02-26T12:17:51Z</time>
      </trkpt>
      <trkpt lat="48.69473" lon="2.05919">
        <ele>117</ele>
        <time>2026-02-26T12:17:55Z</time>
      </trkpt>
      <trkpt lat="48.69476" lon="2.05916">
        <ele>117</ele>
        <time>2026-02-26T12:17:58Z</time>
      </trkpt>
      <trkpt lat="48.69479" lon="2.05915">
        <ele>116</ele>
        <time>2026-02-26T12:18:01Z</time>
      </trkpt>
      <trkpt lat="48.69482" lon="2.05913">
        <ele>116</ele>
        <time>2026-02-26T12:18:03Z</time>
      </trkpt>
      <trkpt lat="48.69486" lon="2.05912">
        <ele>116</ele>
        <time>2026-02-26T12:18:05Z</time>
      </trkpt>
      <trkpt lat="48.69489" lon="2.0591">
        <ele>115</ele>
        <time>2026-02-26T12:18:07Z</time>
      </trkpt>
      <trkpt lat="48.69492" lon="2.05909">
        <ele>115</ele>
        <time>2026-02-26T12:18:10Z</time>
      </trkpt>
      <trkpt lat="48.69495" lon="2.05908">
        <ele>115</ele>
        <time>2026-02-26T12:18:13Z</time>
      </trkpt>
      <trkpt lat="48.69499" lon="2.05908">
        <ele>114</ele>
        <time>2026-02-26T12:18:16Z</time>
      </trkpt>
      <trkpt lat="48.69502" lon="2.05907">
        <ele>113</ele>
        <time>2026-02-26T12:18:19Z</time>
      </trkpt>
      <trkpt lat="48.69504" lon="2.05905">
        <ele>113</ele>
        <time>2026-02-26T12:18:23Z</time>
      </trkpt>
      <trkpt lat="48.69507" lon="2.05904">
        <ele>113</ele>
        <time>2026-02-26T12:18:25Z</time>
      </trkpt>
      <trkpt lat="48.6951" lon="2.05903">
        <ele>113</ele>
        <time>2026-02-26T12:18:28Z</time>
      </trkpt>
      <trkpt lat="48.69513" lon="2.05903">
        <ele>112</ele>
        <time>2026-02-26T12:18:31Z</time>
      </trkpt>
      <trkpt lat="48.69516" lon="2.05904">
        <ele>110</ele>
        <time>2026-02-26T12:18:34Z</time>
      </trkpt>
      <trkpt lat="48.69519" lon="2.05903">
        <ele>110</ele>
        <time>2026-02-26T12:18:36Z</time>
      </trkpt>
      <trkpt lat="48.69523" lon="2.05903">
        <ele>110</ele>
        <time>2026-02-26T12:18:38Z</time>
      </trkpt>
      <trkpt lat="48.69526" lon="2.05903">
        <ele>110</ele>
        <time>2026-02-26T12:18:41Z</time>
      </trkpt>
      <trkpt lat="48.69529" lon="2.05902">
        <ele>110</ele>
        <time>2026-02-26T12:18:44Z</time>
      </trkpt>
      <trkpt lat="48.69532" lon="2.05901">
        <ele>110</ele>
        <time>2026-02-26T12:18:47Z</time>
      </trkpt>
      <trkpt lat="48.69535" lon="2.05899">
        <ele>109</ele>
        <time>2026-02-26T12:18:50Z</time>
      </trkpt>
      <trkpt lat="48.69538" lon="2.059">
        <ele>108</ele>
        <time>2026-02-26T12:18:53Z</time>
      </trkpt>
      <trkpt lat="48.6954" lon="2.05902">
        <ele>104</ele>
        <time>2026-02-26T12:18:58Z</time>
      </trkpt>
      <trkpt lat="48.69543" lon="2.05904">
        <ele>104</ele>
        <time>2026-02-26T12:19:02Z</time>
      </trkpt>
      <trkpt lat="48.69546" lon="2.05903">
        <ele>103</ele>
        <time>2026-02-26T12:19:05Z</time>
      </trkpt>
      <trkpt lat="48.69549" lon="2.05901">
        <ele>103</ele>
        <time>2026-02-26T12:19:07Z</time>
      </trkpt>
      <trkpt lat="48.69552" lon="2.05899">
        <ele>104</ele>
        <time>2026-02-26T12:19:09Z</time>
      </trkpt>
      <trkpt lat="48.69555" lon="2.05898">
        <ele>104</ele>
        <time>2026-02-26T12:19:12Z</time>
      </trkpt>
      <trkpt lat="48.69558" lon="2.05898">
        <ele>105</ele>
        <time>2026-02-26T12:19:14Z</time>
      </trkpt>
      <trkpt lat="48.69561" lon="2.05897">
        <ele>105</ele>
        <time>2026-02-26T12:19:17Z</time>
      </trkpt>
      <trkpt lat="48.69564" lon="2.05896">
        <ele>105</ele>
        <time>2026-02-26T12:19:20Z</time>
      </trkpt>
      <trkpt lat="48.69567" lon="2.05897">
        <ele>104</ele>
        <time>2026-02-26T12:19:22Z</time>
      </trkpt>
      <trkpt lat="48.6957" lon="2.05898">
        <ele>104</ele>
        <time>2026-02-26T12:19:25Z</time>
      </trkpt>
      <trkpt lat="48.69573" lon="2.059">
        <ele>103</ele>
        <time>2026-02-26T12:19:29Z</time>
      </trkpt>
      <trkpt lat="48.69576" lon="2.059">
        <ele>104</ele>
        <time>2026-02-26T12:19:31Z</time>
      </trkpt>
      <trkpt lat="48.6958" lon="2.05901">
        <ele>103</ele>
        <time>2026-02-26T12:19:35Z</time>
      </trkpt>
      <trkpt lat="48.69583" lon="2.05903">
        <ele>104</ele>
        <time>2026-02-26T12:19:39Z</time>
      </trkpt>
      <trkpt lat="48.69586" lon="2.05904">
        <ele>105</ele>
        <time>2026-02-26T12:19:42Z</time>
      </trkpt>
      <trkpt lat="48.6959" lon="2.05906">
        <ele>105</ele>
        <time>2026-02-26T12:19:46Z</time>
      </trkpt>
      <trkpt lat="48.69594" lon="2.05907">
        <ele>105</ele>
        <time>2026-02-26T12:19:49Z</time>
      </trkpt>
      <trkpt lat="48.69597" lon="2.05907">
        <ele>104</ele>
        <time>2026-02-26T12:19:52Z</time>
      </trkpt>
      <trkpt lat="48.69601" lon="2.05907">
        <ele>105</ele>
        <time>2026-02-26T12:19:54Z</time>
      </trkpt>
      <trkpt lat="48.69604" lon="2.05908">
        <ele>106</ele>
        <time>2026-02-26T12:19:57Z</time>
      </trkpt>
      <trkpt lat="48.69607" lon="2.05909">
        <ele>106</ele>
        <time>2026-02-26T12:20:00Z</time>
      </trkpt>
      <trkpt lat="48.6961" lon="2.0591">
        <ele>106</ele>
        <time>2026-02-26T12:20:04Z</time>
      </trkpt>
      <trkpt lat="48.69614" lon="2.05911">
        <ele>106</ele>
        <time>2026-02-26T12:20:07Z</time>
      </trkpt>
      <trkpt lat="48.69617" lon="2.05913">
        <ele>106</ele>
        <time>2026-02-26T12:20:10Z</time>
      </trkpt>
      <trkpt lat="48.6962" lon="2.05913">
        <ele>105</ele>
        <time>2026-02-26T12:20:14Z</time>
      </trkpt>
      <trkpt lat="48.69623" lon="2.05912">
        <ele>104</ele>
        <time>2026-02-26T12:20:17Z</time>
      </trkpt>
      <trkpt lat="48.69625" lon="2.05913">
        <ele>103</ele>
        <time>2026-02-26T12:20:19Z</time>
      </trkpt>
      <trkpt lat="48.69628" lon="2.05915">
        <ele>102</ele>
        <time>2026-02-26T12:20:21Z</time>
      </trkpt>
      <trkpt lat="48.69633" lon="2.05917">
        <ele>102</ele>
        <time>2026-02-26T12:20:26Z</time>
      </trkpt>
      <trkpt lat="48.69636" lon="2.05917">
        <ele>102</ele>
        <time>2026-02-26T12:20:29Z</time>
      </trkpt>
      <trkpt lat="48.6964" lon="2.05919">
        <ele>103</ele>
        <time>2026-02-26T12:20:32Z</time>
      </trkpt>
      <trkpt lat="48.69643" lon="2.0592">
        <ele>103</ele>
        <time>2026-02-26T12:20:35Z</time>
      </trkpt>
      <trkpt lat="48.69646" lon="2.0592">
        <ele>103</ele>
        <time>2026-02-26T12:20:38Z</time>
      </trkpt>
      <trkpt lat="48.69649" lon="2.05923">
        <ele>103</ele>
        <time>2026-02-26T12:20:41Z</time>
      </trkpt>
      <trkpt lat="48.69652" lon="2.05926">
        <ele>103</ele>
        <time>2026-02-26T12:20:45Z</time>
      </trkpt>
      <trkpt lat="48.69655" lon="2.05928">
        <ele>104</ele>
        <time>2026-02-26T12:20:49Z</time>
      </trkpt>
      <trkpt lat="48.69658" lon="2.05929">
        <ele>104</ele>
        <time>2026-02-26T12:20:53Z</time>
      </trkpt>
      <trkpt lat="48.69662" lon="2.0593">
        <ele>105</ele>
        <time>2026-02-26T12:20:57Z</time>
      </trkpt>
      <trkpt lat="48.69665" lon="2.05932">
        <ele>106</ele>
        <time>2026-02-26T12:21:00Z</time>
      </trkpt>
      <trkpt lat="48.69668" lon="2.05932">
        <ele>105</ele>
        <time>2026-02-26T12:21:08Z</time>
      </trkpt>
      <trkpt lat="48.69671" lon="2.05932">
        <ele>105</ele>
        <time>2026-02-26T12:21:10Z</time>
      </trkpt>
      <trkpt lat="48.69675" lon="2.05932">
        <ele>105</ele>
        <time>2026-02-26T12:21:13Z</time>
      </trkpt>
      <trkpt lat="48.69678" lon="2.05933">
        <ele>104</ele>
        <time>2026-02-26T12:21:15Z</time>
      </trkpt>
      <trkpt lat="48.69682" lon="2.05933">
        <ele>105</ele>
        <time>2026-02-26T12:21:18Z</time>
      </trkpt>
      <trkpt lat="48.69685" lon="2.05934">
        <ele>106</ele>
        <time>2026-02-26T12:21:21Z</time>
      </trkpt>
      <trkpt lat="48.69688" lon="2.05934">
        <ele>106</ele>
        <time>2026-02-26T12:21:24Z</time>
      </trkpt>
      <trkpt lat="48.69691" lon="2.05935">
        <ele>106</ele>
        <time>2026-02-26T12:21:27Z</time>
      </trkpt>
      <trkpt lat="48.69695" lon="2.05936">
        <ele>107</ele>
        <time>2026-02-26T12:21:30Z</time>
      </trkpt>
      <trkpt lat="48.69698" lon="2.05937">
        <ele>107</ele>
        <time>2026-02-26T12:21:33Z</time>
      </trkpt>
      <trkpt lat="48.69702" lon="2.05937">
        <ele>108</ele>
        <time>2026-02-26T12:21:36Z</time>
      </trkpt>
      <trkpt lat="48.69705" lon="2.05937">
        <ele>108</ele>
        <time>2026-02-26T12:21:39Z</time>
      </trkpt>
      <trkpt lat="48.69708" lon="2.0594">
        <ele>108</ele>
        <time>2026-02-26T12:21:42Z</time>
      </trkpt>
      <trkpt lat="48.69712" lon="2.05941">
        <ele>109</ele>
        <time>2026-02-26T12:21:45Z</time>
      </trkpt>
      <trkpt lat="48.69715" lon="2.05941">
        <ele>109</ele>
        <time>2026-02-26T12:21:48Z</time>
      </trkpt>
      <trkpt lat="48.69719" lon="2.05943">
        <ele>110</ele>
        <time>2026-02-26T12:21:52Z</time>
      </trkpt>
      <trkpt lat="48.69722" lon="2.05944">
        <ele>110</ele>
        <time>2026-02-26T12:21:55Z</time>
      </trkpt>
      <trkpt lat="48.69725" lon="2.05946">
        <ele>111</ele>
        <time>2026-02-26T12:21:58Z</time>
      </trkpt>
      <trkpt lat="48.69728" lon="2.05947">
        <ele>111</ele>
        <time>2026-02-26T12:22:02Z</time>
      </trkpt>
      <trkpt lat="48.69731" lon="2.05949">
        <ele>112</ele>
        <time>2026-02-26T12:22:05Z</time>
      </trkpt>
      <trkpt lat="48.69734" lon="2.05951">
        <ele>112</ele>
        <time>2026-02-26T12:22:08Z</time>
      </trkpt>
      <trkpt lat="48.69737" lon="2.05952">
        <ele>112</ele>
        <time>2026-02-26T12:22:11Z</time>
      </trkpt>
      <trkpt lat="48.6974" lon="2.05953">
        <ele>112</ele>
        <time>2026-02-26T12:22:14Z</time>
      </trkpt>
      <trkpt lat="48.69743" lon="2.05954">
        <ele>111</ele>
        <time>2026-02-26T12:22:16Z</time>
      </trkpt>
      <trkpt lat="48.69747" lon="2.05955">
        <ele>111</ele>
        <time>2026-02-26T12:22:19Z</time>
      </trkpt>
      <trkpt lat="48.6975" lon="2.05956">
        <ele>110</ele>
        <time>2026-02-26T12:22:22Z</time>
      </trkpt>
      <trkpt lat="48.69753" lon="2.05958">
        <ele>110</ele>
        <time>2026-02-26T12:22:24Z</time>
      </trkpt>
      <trkpt lat="48.69756" lon="2.0596">
        <ele>111</ele>
        <time>2026-02-26T12:22:27Z</time>
      </trkpt>
      <trkpt lat="48.69758" lon="2.05962">
        <ele>111</ele>
        <time>2026-02-26T12:22:30Z</time>
      </trkpt>
      <trkpt lat="48.69761" lon="2.05965">
        <ele>110</ele>
        <time>2026-02-26T12:22:34Z</time>
      </trkpt>
      <trkpt lat="48.69765" lon="2.05967">
        <ele>109</ele>
        <time>2026-02-26T12:22:37Z</time>
      </trkpt>
      <trkpt lat="48.69768" lon="2.05969">
        <ele>109</ele>
        <time>2026-02-26T12:22:39Z</time>
      </trkpt>
      <trkpt lat="48.69771" lon="2.0597">
        <ele>109</ele>
        <time>2026-02-26T12:22:41Z</time>
      </trkpt>
      <trkpt lat="48.69774" lon="2.05971">
        <ele>109</ele>
        <time>2026-02-26T12:22:45Z</time>
      </trkpt>
      <trkpt lat="48.69778" lon="2.05973">
        <ele>109</ele>
        <time>2026-02-26T12:22:49Z</time>
      </trkpt>
      <trkpt lat="48.69781" lon="2.05975">
        <ele>109</ele>
        <time>2026-02-26T12:22:52Z</time>
      </trkpt>
      <trkpt lat="48.69785" lon="2.05977">
        <ele>109</ele>
        <time>2026-02-26T12:22:55Z</time>
      </trkpt>
      <trkpt lat="48.69788" lon="2.0598">
        <ele>109</ele>
        <time>2026-02-26T12:22:58Z</time>
      </trkpt>
      <trkpt lat="48.6979" lon="2.05982">
        <ele>109</ele>
        <time>2026-02-26T12:23:00Z</time>
      </trkpt>
      <trkpt lat="48.69793" lon="2.05983">
        <ele>109</ele>
        <time>2026-02-26T12:23:02Z</time>
      </trkpt>
      <trkpt lat="48.69797" lon="2.05984">
        <ele>109</ele>
        <time>2026-02-26T12:23:05Z</time>
      </trkpt>
      <trkpt lat="48.698" lon="2.05985">
        <ele>108</ele>
        <time>2026-02-26T12:23:08Z</time>
      </trkpt>
      <trkpt lat="48.69803" lon="2.05986">
        <ele>108</ele>
        <time>2026-02-26T12:23:12Z</time>
      </trkpt>
      <trkpt lat="48.69806" lon="2.05988">
        <ele>108</ele>
        <time>2026-02-26T12:23:14Z</time>
      </trkpt>
      <trkpt lat="48.69809" lon="2.0599">
        <ele>108</ele>
        <time>2026-02-26T12:23:16Z</time>
      </trkpt>
      <trkpt lat="48.69811" lon="2.05991">
        <ele>108</ele>
        <time>2026-02-26T12:23:18Z</time>
      </trkpt>
      <trkpt lat="48.69814" lon="2.05993">
        <ele>108</ele>
        <time>2026-02-26T12:23:21Z</time>
      </trkpt>
      <trkpt lat="48.69817" lon="2.05994">
        <ele>108</ele>
        <time>2026-02-26T12:23:24Z</time>
      </trkpt>
      <trkpt lat="48.6982" lon="2.05997">
        <ele>109</ele>
        <time>2026-02-26T12:23:27Z</time>
      </trkpt>
      <trkpt lat="48.69823" lon="2.06">
        <ele>109</ele>
        <time>2026-02-26T12:23:30Z</time>
      </trkpt>
      <trkpt lat="48.69826" lon="2.06002">
        <ele>109</ele>
        <time>2026-02-26T12:23:33Z</time>
      </trkpt>
      <trkpt lat="48.69829" lon="2.06004">
        <ele>109</ele>
        <time>2026-02-26T12:23:36Z</time>
      </trkpt>
      <trkpt lat="48.69831" lon="2.06006">
        <ele>109</ele>
        <time>2026-02-26T12:23:39Z</time>
      </trkpt>
      <trkpt lat="48.69834" lon="2.06009">
        <ele>109</ele>
        <time>2026-02-26T12:23:43Z</time>
      </trkpt>
      <trkpt lat="48.69837" lon="2.06011">
        <ele>108</ele>
        <time>2026-02-26T12:23:45Z</time>
      </trkpt>
      <trkpt lat="48.6984" lon="2.06014">
        <ele>108</ele>
        <time>2026-02-26T12:23:49Z</time>
      </trkpt>
      <trkpt lat="48.69843" lon="2.06017">
        <ele>107</ele>
        <time>2026-02-26T12:23:52Z</time>
      </trkpt>
      <trkpt lat="48.69846" lon="2.06019">
        <ele>107</ele>
        <time>2026-02-26T12:23:55Z</time>
      </trkpt>
      <trkpt lat="48.69849" lon="2.06021">
        <ele>107</ele>
        <time>2026-02-26T12:23:57Z</time>
      </trkpt>
      <trkpt lat="48.69852" lon="2.06023">
        <ele>106</ele>
        <time>2026-02-26T12:24:00Z</time>
      </trkpt>
      <trkpt lat="48.69855" lon="2.06024">
        <ele>107</ele>
        <time>2026-02-26T12:24:03Z</time>
      </trkpt>
      <trkpt lat="48.69857" lon="2.06025">
        <ele>106</ele>
        <time>2026-02-26T12:24:06Z</time>
      </trkpt>
      <trkpt lat="48.69861" lon="2.06026">
        <ele>106</ele>
        <time>2026-02-26T12:24:11Z</time>
      </trkpt>
      <trkpt lat="48.69864" lon="2.06029">
        <ele>106</ele>
        <time>2026-02-26T12:24:14Z</time>
      </trkpt>
      <trkpt lat="48.69867" lon="2.06032">
        <ele>106</ele>
        <time>2026-02-26T12:24:16Z</time>
      </trkpt>
      <trkpt lat="48.69869" lon="2.06034">
        <ele>106</ele>
        <time>2026-02-26T12:24:18Z</time>
      </trkpt>
      <trkpt lat="48.69873" lon="2.06036">
        <ele>106</ele>
        <time>2026-02-26T12:24:21Z</time>
      </trkpt>
      <trkpt lat="48.69876" lon="2.06038">
        <ele>106</ele>
        <time>2026-02-26T12:24:24Z</time>
      </trkpt>
      <trkpt lat="48.69879" lon="2.06041">
        <ele>105</ele>
        <time>2026-02-26T12:24:27Z</time>
      </trkpt>
      <trkpt lat="48.69883" lon="2.06042">
        <ele>104</ele>
        <time>2026-02-26T12:24:30Z</time>
      </trkpt>
      <trkpt lat="48.69886" lon="2.06045">
        <ele>101</ele>
        <time>2026-02-26T12:24:35Z</time>
      </trkpt>
      <trkpt lat="48.69889" lon="2.06046">
        <ele>99</ele>
        <time>2026-02-26T12:24:37Z</time>
      </trkpt>
      <trkpt lat="48.69893" lon="2.06049">
        <ele>98</ele>
        <time>2026-02-26T12:24:40Z</time>
      </trkpt>
      <trkpt lat="48.69895" lon="2.06051">
        <ele>98</ele>
        <time>2026-02-26T12:24:42Z</time>
      </trkpt>
      <trkpt lat="48.69898" lon="2.06053">
        <ele>99</ele>
        <time>2026-02-26T12:24:44Z</time>
      </trkpt>
      <trkpt lat="48.699" lon="2.06057">
        <ele>99</ele>
        <time>2026-02-26T12:24:48Z</time>
      </trkpt>
      <trkpt lat="48.69903" lon="2.06059">
        <ele>100</ele>
        <time>2026-02-26T12:24:52Z</time>
      </trkpt>
      <trkpt lat="48.69905" lon="2.06062">
        <ele>101</ele>
        <time>2026-02-26T12:24:55Z</time>
      </trkpt>
      <trkpt lat="48.69908" lon="2.06064">
        <ele>101</ele>
        <time>2026-02-26T12:24:58Z</time>
      </trkpt>
      <trkpt lat="48.69911" lon="2.06067">
        <ele>100</ele>
        <time>2026-02-26T12:25:01Z</time>
      </trkpt>
      <trkpt lat="48.69913" lon="2.0607">
        <ele>100</ele>
        <time>2026-02-26T12:25:04Z</time>
      </trkpt>
      <trkpt lat="48.69916" lon="2.06072">
        <ele>99</ele>
        <time>2026-02-26T12:25:07Z</time>
      </trkpt>
      <trkpt lat="48.69918" lon="2.06075">
        <ele>99</ele>
        <time>2026-02-26T12:25:09Z</time>
      </trkpt>
      <trkpt lat="48.6992" lon="2.06078">
        <ele>98</ele>
        <time>2026-02-26T12:25:12Z</time>
      </trkpt>
      <trkpt lat="48.69922" lon="2.06082">
        <ele>97</ele>
        <time>2026-02-26T12:25:15Z</time>
      </trkpt>
      <trkpt lat="48.69925" lon="2.06085">
        <ele>97</ele>
        <time>2026-02-26T12:25:19Z</time>
      </trkpt>
      <trkpt lat="48.69927" lon="2.06088">
        <ele>97</ele>
        <time>2026-02-26T12:25:22Z</time>
      </trkpt>
      <trkpt lat="48.6993" lon="2.06092">
        <ele>96</ele>
        <time>2026-02-26T12:25:25Z</time>
      </trkpt>
      <trkpt lat="48.69932" lon="2.06095">
        <ele>96</ele>
        <time>2026-02-26T12:25:27Z</time>
      </trkpt>
      <trkpt lat="48.69935" lon="2.06098">
        <ele>96</ele>
        <time>2026-02-26T12:25:30Z</time>
      </trkpt>
      <trkpt lat="48.69938" lon="2.06101">
        <ele>97</ele>
        <time>2026-02-26T12:25:33Z</time>
      </trkpt>
      <trkpt lat="48.6994" lon="2.06104">
        <ele>96</ele>
        <time>2026-02-26T12:25:37Z</time>
      </trkpt>
      <trkpt lat="48.69943" lon="2.06105">
        <ele>95</ele>
        <time>2026-02-26T12:25:40Z</time>
      </trkpt>
      <trkpt lat="48.69946" lon="2.06107">
        <ele>95</ele>
        <time>2026-02-26T12:25:43Z</time>
      </trkpt>
      <trkpt lat="48.69949" lon="2.06112">
        <ele>95</ele>
        <time>2026-02-26T12:25:49Z</time>
      </trkpt>
      <trkpt lat="48.69952" lon="2.06114">
        <ele>95</ele>
        <time>2026-02-26T12:25:52Z</time>
      </trkpt>
      <trkpt lat="48.69955" lon="2.06116">
        <ele>95</ele>
        <time>2026-02-26T12:25:55Z</time>
      </trkpt>
      <trkpt lat="48.69958" lon="2.06118">
        <ele>95</ele>
        <time>2026-02-26T12:25:58Z</time>
      </trkpt>
      <trkpt lat="48.6996" lon="2.06121">
        <ele>95</ele>
        <time>2026-02-26T12:26:02Z</time>
      </trkpt>
      <trkpt lat="48.69963" lon="2.06125">
        <ele>95</ele>
        <time>2026-02-26T12:26:05Z</time>
      </trkpt>
      <trkpt lat="48.69965" lon="2.06127">
        <ele>95</ele>
        <time>2026-02-26T12:26:08Z</time>
      </trkpt>
      <trkpt lat="48.69969" lon="2.06129">
        <ele>95</ele>
        <time>2026-02-26T12:26:11Z</time>
      </trkpt>
      <trkpt lat="48.69971" lon="2.06134">
        <ele>94</ele>
        <time>2026-02-26T12:26:16Z</time>
      </trkpt>
      <trkpt lat="48.69974" lon="2.06137">
        <ele>93</ele>
        <time>2026-02-26T12:26:19Z</time>
      </trkpt>
      <trkpt lat="48.69977" lon="2.0614">
        <ele>93</ele>
        <time>2026-02-26T12:26:22Z</time>
      </trkpt>
      <trkpt lat="48.69979" lon="2.06143">
        <ele>92</ele>
        <time>2026-02-26T12:26:26Z</time>
      </trkpt>
      <trkpt lat="48.69982" lon="2.06147">
        <ele>92</ele>
        <time>2026-02-26T12:26:29Z</time>
      </trkpt>
      <trkpt lat="48.69984" lon="2.06151">
        <ele>92</ele>
        <time>2026-02-26T12:26:32Z</time>
      </trkpt>
      <trkpt lat="48.69987" lon="2.06154">
        <ele>93</ele>
        <time>2026-02-26T12:26:35Z</time>
      </trkpt>
      <trkpt lat="48.6999" lon="2.06158">
        <ele>93</ele>
        <time>2026-02-26T12:26:38Z</time>
      </trkpt>
      <trkpt lat="48.69992" lon="2.06161">
        <ele>93</ele>
        <time>2026-02-26T12:26:41Z</time>
      </trkpt>
      <trkpt lat="48.69995" lon="2.06164">
        <ele>94</ele>
        <time>2026-02-26T12:26:44Z</time>
      </trkpt>
      <trkpt lat="48.69998" lon="2.06167">
        <ele>94</ele>
        <time>2026-02-26T12:26:47Z</time>
      </trkpt>
      <trkpt lat="48.70001" lon="2.0617">
        <ele>95</ele>
        <time>2026-02-26T12:26:50Z</time>
      </trkpt>
      <trkpt lat="48.70004" lon="2.06175">
        <ele>96</ele>
        <time>2026-02-26T12:26:53Z</time>
      </trkpt>
      <trkpt lat="48.70007" lon="2.06178">
        <ele>96</ele>
        <time>2026-02-26T12:26:57Z</time>
      </trkpt>
      <trkpt lat="48.7001" lon="2.0618">
        <ele>96</ele>
        <time>2026-02-26T12:27:00Z</time>
      </trkpt>
      <trkpt lat="48.70013" lon="2.06183">
        <ele>95</ele>
        <time>2026-02-26T12:27:03Z</time>
      </trkpt>
      <trkpt lat="48.70015" lon="2.06186">
        <ele>95</ele>
        <time>2026-02-26T12:27:06Z</time>
      </trkpt>
      <trkpt lat="48.70018" lon="2.06188">
        <ele>94</ele>
        <time>2026-02-26T12:27:09Z</time>
      </trkpt>
      <trkpt lat="48.7002" lon="2.06192">
        <ele>94</ele>
        <time>2026-02-26T12:27:12Z</time>
      </trkpt>
      <trkpt lat="48.70023" lon="2.06196">
        <ele>93</ele>
        <time>2026-02-26T12:27:15Z</time>
      </trkpt>
      <trkpt lat="48.70025" lon="2.06199">
        <ele>92</ele>
        <time>2026-02-26T12:27:19Z</time>
      </trkpt>
      <trkpt lat="48.70028" lon="2.06202">
        <ele>92</ele>
        <time>2026-02-26T12:27:23Z</time>
      </trkpt>
      <trkpt lat="48.70031" lon="2.06205">
        <ele>92</ele>
        <time>2026-02-26T12:27:26Z</time>
      </trkpt>
      <trkpt lat="48.70033" lon="2.06209">
        <ele>92</ele>
        <time>2026-02-26T12:27:29Z</time>
      </trkpt>
      <trkpt lat="48.70035" lon="2.06213">
        <ele>91</ele>
        <time>2026-02-26T12:27:31Z</time>
      </trkpt>
      <trkpt lat="48.70037" lon="2.06217">
        <ele>90</ele>
        <time>2026-02-26T12:27:33Z</time>
      </trkpt>
      <trkpt lat="48.70039" lon="2.06221">
        <ele>90</ele>
        <time>2026-02-26T12:27:35Z</time>
      </trkpt>
      <trkpt lat="48.70042" lon="2.06224">
        <ele>89</ele>
        <time>2026-02-26T12:27:39Z</time>
      </trkpt>
      <trkpt lat="48.70044" lon="2.06228">
        <ele>89</ele>
        <time>2026-02-26T12:27:42Z</time>
      </trkpt>
      <trkpt lat="48.70046" lon="2.06231">
        <ele>89</ele>
        <time>2026-02-26T12:27:45Z</time>
      </trkpt>
      <trkpt lat="48.70048" lon="2.06235">
        <ele>89</ele>
        <time>2026-02-26T12:27:48Z</time>
      </trkpt>
      <trkpt lat="48.7005" lon="2.06239">
        <ele>89</ele>
        <time>2026-02-26T12:27:52Z</time>
      </trkpt>
      <trkpt lat="48.70052" lon="2.06243">
        <ele>89</ele>
        <time>2026-02-26T12:27:55Z</time>
      </trkpt>
      <trkpt lat="48.70054" lon="2.06247">
        <ele>89</ele>
        <time>2026-02-26T12:27:58Z</time>
      </trkpt>
      <trkpt lat="48.70057" lon="2.06249">
        <ele>89</ele>
        <time>2026-02-26T12:28:01Z</time>
      </trkpt>
      <trkpt lat="48.7006" lon="2.06252">
        <ele>88</ele>
        <time>2026-02-26T12:28:05Z</time>
      </trkpt>
      <trkpt lat="48.70062" lon="2.06255">
        <ele>88</ele>
        <time>2026-02-26T12:28:07Z</time>
      </trkpt>
      <trkpt lat="48.70064" lon="2.06259">
        <ele>87</ele>
        <time>2026-02-26T12:28:09Z</time>
      </trkpt>
      <trkpt lat="48.70066" lon="2.06263">
        <ele>87</ele>
        <time>2026-02-26T12:28:11Z</time>
      </trkpt>
      <trkpt lat="48.70068" lon="2.06267">
        <ele>87</ele>
        <time>2026-02-26T12:28:14Z</time>
      </trkpt>
      <trkpt lat="48.7007" lon="2.06272">
        <ele>86</ele>
        <time>2026-02-26T12:28:18Z</time>
      </trkpt>
      <trkpt lat="48.70072" lon="2.06276">
        <ele>86</ele>
        <time>2026-02-26T12:28:21Z</time>
      </trkpt>
      <trkpt lat="48.70075" lon="2.0628">
        <ele>85</ele>
        <time>2026-02-26T12:28:25Z</time>
      </trkpt>
      <trkpt lat="48.70078" lon="2.06284">
        <ele>85</ele>
        <time>2026-02-26T12:28:28Z</time>
      </trkpt>
      <trkpt lat="48.70081" lon="2.06287">
        <ele>85</ele>
        <time>2026-02-26T12:28:30Z</time>
      </trkpt>
      <trkpt lat="48.70085" lon="2.0629">
        <ele>84</ele>
        <time>2026-02-26T12:28:31Z</time>
      </trkpt>
      <trkpt lat="48.7009" lon="2.06293">
        <ele>84</ele>
        <time>2026-02-26T12:28:33Z</time>
      </trkpt>
      <trkpt lat="48.70091" lon="2.06297">
        <ele>85</ele>
        <time>2026-02-26T12:28:37Z</time>
      </trkpt>
      <trkpt lat="48.70092" lon="2.06301">
        <ele>85</ele>
        <time>2026-02-26T12:28:41Z</time>
      </trkpt>
      <trkpt lat="48.70094" lon="2.06305">
        <ele>84</ele>
        <time>2026-02-26T12:28:46Z</time>
      </trkpt>
      <trkpt lat="48.70096" lon="2.06309">
        <ele>84</ele>
        <time>2026-02-26T12:28:50Z</time>
      </trkpt>
      <trkpt lat="48.70098" lon="2.06312">
        <ele>84</ele>
        <time>2026-02-26T12:28:52Z</time>
      </trkpt>
      <trkpt lat="48.701" lon="2.06316">
        <ele>84</ele>
        <time>2026-02-26T12:28:56Z</time>
      </trkpt>
      <trkpt lat="48.70101" lon="2.0632">
        <ele>84</ele>
        <time>2026-02-26T12:28:58Z</time>
      </trkpt>
      <trkpt lat="48.70103" lon="2.06324">
        <ele>84</ele>
        <time>2026-02-26T12:29:00Z</time>
      </trkpt>
      <trkpt lat="48.70105" lon="2.06329">
        <ele>84</ele>
        <time>2026-02-26T12:29:05Z</time>
      </trkpt>
      <trkpt lat="48.70106" lon="2.06333">
        <ele>84</ele>
        <time>2026-02-26T12:29:12Z</time>
      </trkpt>
      <trkpt lat="48.70109" lon="2.06338">
        <ele>84</ele>
        <time>2026-02-26T12:29:27Z</time>
      </trkpt>
      <trkpt lat="48.70112" lon="2.06344">
        <ele>83</ele>
        <time>2026-02-26T12:29:29Z</time>
      </trkpt>
      <trkpt lat="48.70114" lon="2.06349">
        <ele>83</ele>
        <time>2026-02-26T12:29:31Z</time>
      </trkpt>
      <trkpt lat="48.70116" lon="2.06354">
        <ele>83</ele>
        <time>2026-02-26T12:29:34Z</time>
      </trkpt>
      <trkpt lat="48.70118" lon="2.06359">
        <ele>84</ele>
        <time>2026-02-26T12:29:36Z</time>
      </trkpt>
      <trkpt lat="48.70122" lon="2.06366">
        <ele>84</ele>
        <time>2026-02-26T12:29:49Z</time>
      </trkpt>
      <trkpt lat="48.70125" lon="2.06372">
        <ele>85</ele>
        <time>2026-02-26T12:29:51Z</time>
      </trkpt>
      <trkpt lat="48.70129" lon="2.0638">
        <ele>85</ele>
        <time>2026-02-26T12:29:55Z</time>
      </trkpt>
      <trkpt lat="48.70131" lon="2.06387">
        <ele>86</ele>
        <time>2026-02-26T12:29:57Z</time>
      </trkpt>
      <trkpt lat="48.70135" lon="2.06395">
        <ele>87</ele>
        <time>2026-02-26T12:30:01Z</time>
      </trkpt>
      <trkpt lat="48.70138" lon="2.06401">
        <ele>88</ele>
        <time>2026-02-26T12:30:03Z</time>
      </trkpt>
      <trkpt lat="48.70141" lon="2.06408">
        <ele>89</ele>
        <time>2026-02-26T12:30:07Z</time>
      </trkpt>
      <trkpt lat="48.70143" lon="2.06413">
        <ele>89</ele>
        <time>2026-02-26T12:30:09Z</time>
      </trkpt>
      <trkpt lat="48.70146" lon="2.06419">
        <ele>89</ele>
        <time>2026-02-26T12:30:13Z</time>
      </trkpt>
      <trkpt lat="48.70148" lon="2.06425">
        <ele>89</ele>
        <time>2026-02-26T12:30:15Z</time>
      </trkpt>
      <trkpt lat="48.70151" lon="2.06431">
        <ele>90</ele>
        <time>2026-02-26T12:30:19Z</time>
      </trkpt>
      <trkpt lat="48.70153" lon="2.06437">
        <ele>90</ele>
        <time>2026-02-26T12:30:22Z</time>
      </trkpt>
      <trkpt lat="48.70155" lon="2.06441">
        <ele>89</ele>
        <time>2026-02-26T12:30:25Z</time>
      </trkpt>
      <trkpt lat="48.70157" lon="2.06446">
        <ele>88</ele>
        <time>2026-02-26T12:30:28Z</time>
      </trkpt>
      <trkpt lat="48.70159" lon="2.06451">
        <ele>88</ele>
        <time>2026-02-26T12:30:31Z</time>
      </trkpt>
      <trkpt lat="48.7016" lon="2.06455">
        <ele>88</ele>
        <time>2026-02-26T12:30:33Z</time>
      </trkpt>
      <trkpt lat="48.70162" lon="2.06461">
        <ele>88</ele>
        <time>2026-02-26T12:30:37Z</time>
      </trkpt>
      <trkpt lat="48.70164" lon="2.06466">
        <ele>87</ele>
        <time>2026-02-26T12:30:39Z</time>
      </trkpt>
      <trkpt lat="48.70166" lon="2.06471">
        <ele>86</ele>
        <time>2026-02-26T12:30:43Z</time>
      </trkpt>
      <trkpt lat="48.70167" lon="2.06475">
        <ele>85</ele>
        <time>2026-02-26T12:30:46Z</time>
      </trkpt>
      <trkpt lat="48.70169" lon="2.0648">
        <ele>84</ele>
        <time>2026-02-26T12:30:49Z</time>
      </trkpt>
      <trkpt lat="48.7017" lon="2.06485">
        <ele>84</ele>
        <time>2026-02-26T12:30:52Z</time>
      </trkpt>
      <trkpt lat="48.70171" lon="2.0649">
        <ele>84</ele>
        <time>2026-02-26T12:30:55Z</time>
      </trkpt>
      <trkpt lat="48.70171" lon="2.06495">
        <ele>83</ele>
        <time>2026-02-26T12:30:58Z</time>
      </trkpt>
      <trkpt lat="48.70173" lon="2.06499">
        <ele>83</ele>
        <time>2026-02-26T12:31:00Z</time>
      </trkpt>
      <trkpt lat="48.70175" lon="2.06504">
        <ele>84</ele>
        <time>2026-02-26T12:31:04Z</time>
      </trkpt>
      <trkpt lat="48.70177" lon="2.06509">
        <ele>84</ele>
        <time>2026-02-26T12:31:06Z</time>
      </trkpt>
      <trkpt lat="48.70179" lon="2.06514">
        <ele>83</ele>
        <time>2026-02-26T12:31:08Z</time>
      </trkpt>
      <trkpt lat="48.70181" lon="2.0652">
        <ele>83</ele>
        <time>2026-02-26T12:31:11Z</time>
      </trkpt>
      <trkpt lat="48.70183" lon="2.06525">
        <ele>83</ele>
        <time>2026-02-26T12:31:13Z</time>
      </trkpt>
      <trkpt lat="48.70184" lon="2.06529">
        <ele>84</ele>
        <time>2026-02-26T12:31:15Z</time>
      </trkpt>
      <trkpt lat="48.70187" lon="2.06535">
        <ele>84</ele>
        <time>2026-02-26T12:31:19Z</time>
      </trkpt>
      <trkpt lat="48.70189" lon="2.0654">
        <ele>84</ele>
        <time>2026-02-26T12:31:22Z</time>
      </trkpt>
      <trkpt lat="48.70191" lon="2.06544">
        <ele>85</ele>
        <time>2026-02-26T12:31:25Z</time>
      </trkpt>
      <trkpt lat="48.70192" lon="2.06549">
        <ele>83</ele>
        <time>2026-02-26T12:31:32Z</time>
      </trkpt>
      <trkpt lat="48.70192" lon="2.06554">
        <ele>81</ele>
        <time>2026-02-26T12:31:37Z</time>
      </trkpt>
      <trkpt lat="48.70194" lon="2.06558">
        <ele>81</ele>
        <time>2026-02-26T12:31:40Z</time>
      </trkpt>
      <trkpt lat="48.70195" lon="2.06561">
        <ele>80</ele>
        <time>2026-02-26T12:31:44Z</time>
      </trkpt>
      <trkpt lat="48.70197" lon="2.06566">
        <ele>80</ele>
        <time>2026-02-26T12:31:47Z</time>
      </trkpt>
      <trkpt lat="48.70198" lon="2.0657">
        <ele>80</ele>
        <time>2026-02-26T12:31:50Z</time>
      </trkpt>
      <trkpt lat="48.702" lon="2.06575">
        <ele>79</ele>
        <time>2026-02-26T12:31:54Z</time>
      </trkpt>
      <trkpt lat="48.70202" lon="2.06582">
        <ele>79</ele>
        <time>2026-02-26T12:31:59Z</time>
      </trkpt>
      <trkpt lat="48.70204" lon="2.06587">
        <ele>79</ele>
        <time>2026-02-26T12:32:01Z</time>
      </trkpt>
      <trkpt lat="48.70206" lon="2.06593">
        <ele>79</ele>
        <time>2026-02-26T12:32:05Z</time>
      </trkpt>
      <trkpt lat="48.70207" lon="2.06598">
        <ele>78</ele>
        <time>2026-02-26T12:32:07Z</time>
      </trkpt>
      <trkpt lat="48.70209" lon="2.06604">
        <ele>77</ele>
        <time>2026-02-26T12:32:11Z</time>
      </trkpt>
      <trkpt lat="48.7021" lon="2.0661">
        <ele>77</ele>
        <time>2026-02-26T12:32:13Z</time>
      </trkpt>
      <trkpt lat="48.70211" lon="2.06615">
        <ele>76</ele>
        <time>2026-02-26T12:32:15Z</time>
      </trkpt>
      <trkpt lat="48.70212" lon="2.06619">
        <ele>76</ele>
        <time>2026-02-26T12:32:17Z</time>
      </trkpt>
      <trkpt lat="48.70214" lon="2.06622">
        <ele>77</ele>
        <time>2026-02-26T12:32:19Z</time>
      </trkpt>
      <trkpt lat="48.70215" lon="2.06626">
        <ele>77</ele>
        <time>2026-02-26T12:32:21Z</time>
      </trkpt>
      <trkpt lat="48.70216" lon="2.06631">
        <ele>77</ele>
        <time>2026-02-26T12:32:24Z</time>
      </trkpt>
      <trkpt lat="48.70217" lon="2.06635">
        <ele>76</ele>
        <time>2026-02-26T12:32:27Z</time>
      </trkpt>
      <trkpt lat="48.70218" lon="2.06639">
        <ele>76</ele>
        <time>2026-02-26T12:32:30Z</time>
      </trkpt>
      <trkpt lat="48.70219" lon="2.06645">
        <ele>76</ele>
        <time>2026-02-26T12:32:34Z</time>
      </trkpt>
      <trkpt lat="48.70219" lon="2.06649">
        <ele>75</ele>
        <time>2026-02-26T12:32:36Z</time>
      </trkpt>
      <trkpt lat="48.7022" lon="2.06654">
        <ele>75</ele>
        <time>2026-02-26T12:32:39Z</time>
      </trkpt>
      <trkpt lat="48.70221" lon="2.0666">
        <ele>74</ele>
        <time>2026-02-26T12:32:42Z</time>
      </trkpt>
      <trkpt lat="48.70221" lon="2.06664">
        <ele>74</ele>
        <time>2026-02-26T12:32:44Z</time>
      </trkpt>
      <trkpt lat="48.70224" lon="2.0667">
        <ele>73</ele>
        <time>2026-02-26T12:32:48Z</time>
      </trkpt>
      <trkpt lat="48.70225" lon="2.06675">
        <ele>73</ele>
        <time>2026-02-26T12:32:50Z</time>
      </trkpt>
      <trkpt lat="48.70226" lon="2.0668">
        <ele>72</ele>
        <time>2026-02-26T12:32:54Z</time>
      </trkpt>
      <trkpt lat="48.70227" lon="2.06685">
        <ele>72</ele>
        <time>2026-02-26T12:32:56Z</time>
      </trkpt>
      <trkpt lat="48.70228" lon="2.0669">
        <ele>72</ele>
        <time>2026-02-26T12:32:59Z</time>
      </trkpt>
      <trkpt lat="48.70229" lon="2.06695">
        <ele>73</ele>
        <time>2026-02-26T12:33:02Z</time>
      </trkpt>
      <trkpt lat="48.7023" lon="2.067">
        <ele>73</ele>
        <time>2026-02-26T12:33:04Z</time>
      </trkpt>
      <trkpt lat="48.70231" lon="2.06705">
        <ele>73</ele>
        <time>2026-02-26T12:33:08Z</time>
      </trkpt>
      <trkpt lat="48.70232" lon="2.0671">
        <ele>74</ele>
        <time>2026-02-26T12:33:11Z</time>
      </trkpt>
      <trkpt lat="48.70232" lon="2.06717">
        <ele>73</ele>
        <time>2026-02-26T12:33:16Z</time>
      </trkpt>
      <trkpt lat="48.70234" lon="2.06722">
        <ele>73</ele>
        <time>2026-02-26T12:33:19Z</time>
      </trkpt>
      <trkpt lat="48.70235" lon="2.06727">
        <ele>73</ele>
        <time>2026-02-26T12:33:22Z</time>
      </trkpt>
      <trkpt lat="48.70237" lon="2.06732">
        <ele>72</ele>
        <time>2026-02-26T12:33:25Z</time>
      </trkpt>
      <trkpt lat="48.70238" lon="2.06736">
        <ele>72</ele>
        <time>2026-02-26T12:33:28Z</time>
      </trkpt>
      <trkpt lat="48.70239" lon="2.06741">
        <ele>72</ele>
        <time>2026-02-26T12:33:31Z</time>
      </trkpt>
      <trkpt lat="48.70241" lon="2.06745">
        <ele>72</ele>
        <time>2026-02-26T12:33:35Z</time>
      </trkpt>
      <trkpt lat="48.70243" lon="2.06751">
        <ele>73</ele>
        <time>2026-02-26T12:33:40Z</time>
      </trkpt>
      <trkpt lat="48.70244" lon="2.06756">
        <ele>74</ele>
        <time>2026-02-26T12:33:43Z</time>
      </trkpt>
      <trkpt lat="48.70245" lon="2.06762">
        <ele>75</ele>
        <time>2026-02-26T12:33:46Z</time>
      </trkpt>
      <trkpt lat="48.70246" lon="2.06768">
        <ele>76</ele>
        <time>2026-02-26T12:33:49Z</time>
      </trkpt>
      <trkpt lat="48.70247" lon="2.06773">
        <ele>76</ele>
        <time>2026-02-26T12:33:52Z</time>
      </trkpt>
      <trkpt lat="48.70247" lon="2.06778">
        <ele>76</ele>
        <time>2026-02-26T12:33:55Z</time>
      </trkpt>
      <trkpt lat="48.70248" lon="2.06782">
        <ele>77</ele>
        <time>2026-02-26T12:33:58Z</time>
      </trkpt>
      <trkpt lat="48.70249" lon="2.06786">
        <ele>78</ele>
        <time>2026-02-26T12:34:01Z</time>
      </trkpt>
      <trkpt lat="48.70249" lon="2.06791">
        <ele>78</ele>
        <time>2026-02-26T12:34:03Z</time>
      </trkpt>
      <trkpt lat="48.70251" lon="2.06795">
        <ele>78</ele>
        <time>2026-02-26T12:34:06Z</time>
      </trkpt>
      <trkpt lat="48.70252" lon="2.068">
        <ele>77</ele>
        <time>2026-02-26T12:34:09Z</time>
      </trkpt>
      <trkpt lat="48.70252" lon="2.06806">
        <ele>77</ele>
        <time>2026-02-26T12:34:12Z</time>
      </trkpt>
      <trkpt lat="48.70253" lon="2.06811">
        <ele>78</ele>
        <time>2026-02-26T12:34:15Z</time>
      </trkpt>
      <trkpt lat="48.70254" lon="2.06818">
        <ele>79</ele>
        <time>2026-02-26T12:34:18Z</time>
      </trkpt>
      <trkpt lat="48.70254" lon="2.06823">
        <ele>79</ele>
        <time>2026-02-26T12:34:21Z</time>
      </trkpt>
      <trkpt lat="48.70254" lon="2.06829">
        <ele>80</ele>
        <time>2026-02-26T12:34:24Z</time>
      </trkpt>
      <trkpt lat="48.70254" lon="2.06834">
        <ele>80</ele>
        <time>2026-02-26T12:34:27Z</time>
      </trkpt>
      <trkpt lat="48.70255" lon="2.06839">
        <ele>80</ele>
        <time>2026-02-26T12:34:30Z</time>
      </trkpt>
      <trkpt lat="48.70256" lon="2.06844">
        <ele>80</ele>
        <time>2026-02-26T12:34:33Z</time>
      </trkpt>
      <trkpt lat="48.70257" lon="2.0685">
        <ele>80</ele>
        <time>2026-02-26T12:34:39Z</time>
      </trkpt>
      <trkpt lat="48.70256" lon="2.06855">
        <ele>81</ele>
        <time>2026-02-26T12:34:42Z</time>
      </trkpt>
      <trkpt lat="48.70256" lon="2.06861">
        <ele>81</ele>
        <time>2026-02-26T12:34:45Z</time>
      </trkpt>
      <trkpt lat="48.70256" lon="2.06866">
        <ele>81</ele>
        <time>2026-02-26T12:34:48Z</time>
      </trkpt>
      <trkpt lat="48.70256" lon="2.06871">
        <ele>82</ele>
        <time>2026-02-26T12:34:51Z</time>
      </trkpt>
      <trkpt lat="48.70256" lon="2.06877">
        <ele>82</ele>
        <time>2026-02-26T12:34:54Z</time>
      </trkpt>
      <trkpt lat="48.70257" lon="2.06882">
        <ele>82</ele>
        <time>2026-02-26T12:34:56Z</time>
      </trkpt>
      <trkpt lat="48.70258" lon="2.06887">
        <ele>83</ele>
        <time>2026-02-26T12:34:59Z</time>
      </trkpt>
      <trkpt lat="48.70258" lon="2.06892">
        <ele>83</ele>
        <time>2026-02-26T12:35:02Z</time>
      </trkpt>
      <trkpt lat="48.70258" lon="2.06897">
        <ele>83</ele>
        <time>2026-02-26T12:35:05Z</time>
      </trkpt>
      <trkpt lat="48.70258" lon="2.06903">
        <ele>84</ele>
        <time>2026-02-26T12:35:08Z</time>
      </trkpt>
      <trkpt lat="48.70258" lon="2.06908">
        <ele>84</ele>
        <time>2026-02-26T12:35:11Z</time>
      </trkpt>
      <trkpt lat="48.70258" lon="2.06913">
        <ele>85</ele>
        <time>2026-02-26T12:35:14Z</time>
      </trkpt>
      <trkpt lat="48.70258" lon="2.06918">
        <ele>84</ele>
        <time>2026-02-26T12:35:17Z</time>
      </trkpt>
      <trkpt lat="48.70258" lon="2.06923">
        <ele>84</ele>
        <time>2026-02-26T12:35:20Z</time>
      </trkpt>
      <trkpt lat="48.70258" lon="2.06928">
        <ele>84</ele>
        <time>2026-02-26T12:35:23Z</time>
      </trkpt>
      <trkpt lat="48.70258" lon="2.06934">
        <ele>84</ele>
        <time>2026-02-26T12:35:26Z</time>
      </trkpt>
      <trkpt lat="48.70258" lon="2.06938">
        <ele>84</ele>
        <time>2026-02-26T12:35:29Z</time>
      </trkpt>
      <trkpt lat="48.70259" lon="2.06943">
        <ele>83</ele>
        <time>2026-02-26T12:35:32Z</time>
      </trkpt>
      <trkpt lat="48.70259" lon="2.06947">
        <ele>84</ele>
        <time>2026-02-26T12:35:35Z</time>
      </trkpt>
      <trkpt lat="48.70261" lon="2.06951">
        <ele>83</ele>
        <time>2026-02-26T12:35:41Z</time>
      </trkpt>
      <trkpt lat="48.70263" lon="2.06954">
        <ele>83</ele>
        <time>2026-02-26T12:35:47Z</time>
      </trkpt>
      <trkpt lat="48.70266" lon="2.06954">
        <ele>83</ele>
        <time>2026-02-26T12:35:53Z</time>
      </trkpt>
      <trkpt lat="48.70268" lon="2.06953">
        <ele>84</ele>
        <time>2026-02-26T12:35:57Z</time>
      </trkpt>
      <trkpt lat="48.70271" lon="2.06954">
        <ele>84</ele>
        <time>2026-02-26T12:36:15Z</time>
      </trkpt>
    </trkseg>
  </trk>
</gpx>